<?xml version="1.0" encoding="UTF-8" standalone="no" ?>
<gpx xmlns="http://www.topografix.com/GPX/1/1" xmlns:xsi="http://www.w3.org/2001/XMLSchema-instance" xsi:schemaLocation="http://www.topografix.com/GPX/1/1 http://www.topografix.com/GPX/1/1/gpx.xsd" version="1.1" creator="VisuGPX - https://www.visugpx.com">
  <metadata>
    <name>2020 cressin boucle </name>
    <desc><![CDATA[Au départ de la via rhona. Sans difficultés et très galopant ]]></desc>
  </metadata>
  <trk>
    <name><![CDATA[SityTrail - cressin ]]></name>
    <trkseg>
      <trkpt lat="45.78653" lon="5.77217">
        <ele>228</ele>
        <time>2020-05-31T09:02:30.384Z</time>
      </trkpt>
      <trkpt lat="45.78653" lon="5.77206">
        <ele>229</ele>
        <time>2020-05-31T09:16:27.497Z</time>
      </trkpt>
      <trkpt lat="45.78653" lon="5.77206">
        <ele>229</ele>
        <time>2020-05-31T09:16:31.527Z</time>
      </trkpt>
      <trkpt lat="45.78653" lon="5.77203">
        <ele>229</ele>
        <time>2020-05-31T09:16:36.491Z</time>
      </trkpt>
      <trkpt lat="45.78653" lon="5.77202">
        <ele>229</ele>
        <time>2020-05-31T09:16:40.489Z</time>
      </trkpt>
      <trkpt lat="45.78653" lon="5.77202">
        <ele>229</ele>
        <time>2020-05-31T09:16:44.500Z</time>
      </trkpt>
      <trkpt lat="45.78653" lon="5.77202">
        <ele>229</ele>
        <time>2020-05-31T09:18:13.491Z</time>
      </trkpt>
      <trkpt lat="45.78652" lon="5.77202">
        <ele>229</ele>
        <time>2020-05-31T09:18:18.549Z</time>
      </trkpt>
      <trkpt lat="45.78654" lon="5.77193">
        <ele>228</ele>
        <time>2020-05-31T09:18:23.491Z</time>
      </trkpt>
      <trkpt lat="45.78657" lon="5.7719">
        <ele>228</ele>
        <time>2020-05-31T09:18:27.508Z</time>
      </trkpt>
      <trkpt lat="45.78662" lon="5.77188">
        <ele>228</ele>
        <time>2020-05-31T09:18:32.492Z</time>
      </trkpt>
      <trkpt lat="45.78667" lon="5.77188">
        <ele>228</ele>
        <time>2020-05-31T09:18:36.486Z</time>
      </trkpt>
      <trkpt lat="45.78669" lon="5.77188">
        <ele>228</ele>
        <time>2020-05-31T09:18:41.515Z</time>
      </trkpt>
      <trkpt lat="45.7867" lon="5.77188">
        <ele>228</ele>
        <time>2020-05-31T09:18:46.507Z</time>
      </trkpt>
      <trkpt lat="45.78676" lon="5.77186">
        <ele>228</ele>
        <time>2020-05-31T09:18:51.503Z</time>
      </trkpt>
      <trkpt lat="45.78681" lon="5.77184">
        <ele>229</ele>
        <time>2020-05-31T09:18:56.509Z</time>
      </trkpt>
      <trkpt lat="45.78687" lon="5.77184">
        <ele>229</ele>
        <time>2020-05-31T09:19:01.506Z</time>
      </trkpt>
      <trkpt lat="45.78694" lon="5.77184">
        <ele>229</ele>
        <time>2020-05-31T09:19:06.491Z</time>
      </trkpt>
      <trkpt lat="45.787" lon="5.77182">
        <ele>229</ele>
        <time>2020-05-31T09:19:11.584Z</time>
      </trkpt>
      <trkpt lat="45.78705" lon="5.77181">
        <ele>229</ele>
        <time>2020-05-31T09:19:16.504Z</time>
      </trkpt>
      <trkpt lat="45.78711" lon="5.77181">
        <ele>230</ele>
        <time>2020-05-31T09:19:21.504Z</time>
      </trkpt>
      <trkpt lat="45.78718" lon="5.77179">
        <ele>229</ele>
        <time>2020-05-31T09:19:26.496Z</time>
      </trkpt>
      <trkpt lat="45.78724" lon="5.77177">
        <ele>229</ele>
        <time>2020-05-31T09:19:31.511Z</time>
      </trkpt>
      <trkpt lat="45.7873" lon="5.77175">
        <ele>229</ele>
        <time>2020-05-31T09:19:36.509Z</time>
      </trkpt>
      <trkpt lat="45.78735" lon="5.77174">
        <ele>229</ele>
        <time>2020-05-31T09:19:40.496Z</time>
      </trkpt>
      <trkpt lat="45.78742" lon="5.77172">
        <ele>230</ele>
        <time>2020-05-31T09:19:45.505Z</time>
      </trkpt>
      <trkpt lat="45.78747" lon="5.7717">
        <ele>230</ele>
        <time>2020-05-31T09:19:50.491Z</time>
      </trkpt>
      <trkpt lat="45.7875" lon="5.77169">
        <ele>230</ele>
        <time>2020-05-31T09:19:54.513Z</time>
      </trkpt>
      <trkpt lat="45.78755" lon="5.77168">
        <ele>230</ele>
        <time>2020-05-31T09:19:59.504Z</time>
      </trkpt>
      <trkpt lat="45.7876" lon="5.77167">
        <ele>230</ele>
        <time>2020-05-31T09:20:04.498Z</time>
      </trkpt>
      <trkpt lat="45.78767" lon="5.77166">
        <ele>230</ele>
        <time>2020-05-31T09:20:09.501Z</time>
      </trkpt>
      <trkpt lat="45.78774" lon="5.77166">
        <ele>230</ele>
        <time>2020-05-31T09:20:14.505Z</time>
      </trkpt>
      <trkpt lat="45.78779" lon="5.77165">
        <ele>230</ele>
        <time>2020-05-31T09:20:19.509Z</time>
      </trkpt>
      <trkpt lat="45.7878" lon="5.77165">
        <ele>230</ele>
        <time>2020-05-31T09:20:24.493Z</time>
      </trkpt>
      <trkpt lat="45.78783" lon="5.77164">
        <ele>230</ele>
        <time>2020-05-31T09:20:28.570Z</time>
      </trkpt>
      <trkpt lat="45.78788" lon="5.77162">
        <ele>230</ele>
        <time>2020-05-31T09:20:33.500Z</time>
      </trkpt>
      <trkpt lat="45.78792" lon="5.7716">
        <ele>229</ele>
        <time>2020-05-31T09:20:38.460Z</time>
      </trkpt>
      <trkpt lat="45.78792" lon="5.77161">
        <ele>229</ele>
        <time>2020-05-31T09:20:42.499Z</time>
      </trkpt>
      <trkpt lat="45.78798" lon="5.77159">
        <ele>229</ele>
        <time>2020-05-31T09:20:47.508Z</time>
      </trkpt>
      <trkpt lat="45.78804" lon="5.77159">
        <ele>229</ele>
        <time>2020-05-31T09:20:52.513Z</time>
      </trkpt>
      <trkpt lat="45.7881" lon="5.77158">
        <ele>229</ele>
        <time>2020-05-31T09:20:57.498Z</time>
      </trkpt>
      <trkpt lat="45.78817" lon="5.77157">
        <ele>229</ele>
        <time>2020-05-31T09:21:02.499Z</time>
      </trkpt>
      <trkpt lat="45.78823" lon="5.77154">
        <ele>229</ele>
        <time>2020-05-31T09:21:07.508Z</time>
      </trkpt>
      <trkpt lat="45.7883" lon="5.77152">
        <ele>229</ele>
        <time>2020-05-31T09:21:12.505Z</time>
      </trkpt>
      <trkpt lat="45.78833" lon="5.77151">
        <ele>229</ele>
        <time>2020-05-31T09:21:17.493Z</time>
      </trkpt>
      <trkpt lat="45.7884" lon="5.77148">
        <ele>229</ele>
        <time>2020-05-31T09:21:22.497Z</time>
      </trkpt>
      <trkpt lat="45.78846" lon="5.77146">
        <ele>229</ele>
        <time>2020-05-31T09:21:27.498Z</time>
      </trkpt>
      <trkpt lat="45.78853" lon="5.77142">
        <ele>231</ele>
        <time>2020-05-31T09:21:32.510Z</time>
      </trkpt>
      <trkpt lat="45.78857" lon="5.77138">
        <ele>231</ele>
        <time>2020-05-31T09:21:37.484Z</time>
      </trkpt>
      <trkpt lat="45.78862" lon="5.77136">
        <ele>231</ele>
        <time>2020-05-31T09:21:42.498Z</time>
      </trkpt>
      <trkpt lat="45.78865" lon="5.77135">
        <ele>231</ele>
        <time>2020-05-31T09:21:46.515Z</time>
      </trkpt>
      <trkpt lat="45.78871" lon="5.7713">
        <ele>231</ele>
        <time>2020-05-31T09:22:20.490Z</time>
      </trkpt>
      <trkpt lat="45.78871" lon="5.77129">
        <ele>231</ele>
        <time>2020-05-31T09:22:25.480Z</time>
      </trkpt>
      <trkpt lat="45.78872" lon="5.77129">
        <ele>231</ele>
        <time>2020-05-31T09:22:30.511Z</time>
      </trkpt>
      <trkpt lat="45.78872" lon="5.77128">
        <ele>231</ele>
        <time>2020-05-31T09:22:35.495Z</time>
      </trkpt>
      <trkpt lat="45.78877" lon="5.77125">
        <ele>232</ele>
        <time>2020-05-31T09:22:40.510Z</time>
      </trkpt>
      <trkpt lat="45.78879" lon="5.77125">
        <ele>233</ele>
        <time>2020-05-31T09:22:45.525Z</time>
      </trkpt>
      <trkpt lat="45.78882" lon="5.77125">
        <ele>232</ele>
        <time>2020-05-31T09:22:49.555Z</time>
      </trkpt>
      <trkpt lat="45.78886" lon="5.77122">
        <ele>232</ele>
        <time>2020-05-31T09:22:54.524Z</time>
      </trkpt>
      <trkpt lat="45.78892" lon="5.77119">
        <ele>232</ele>
        <time>2020-05-31T09:22:59.505Z</time>
      </trkpt>
      <trkpt lat="45.78897" lon="5.77116">
        <ele>232</ele>
        <time>2020-05-31T09:23:04.488Z</time>
      </trkpt>
      <trkpt lat="45.78904" lon="5.77113">
        <ele>233</ele>
        <time>2020-05-31T09:23:09.498Z</time>
      </trkpt>
      <trkpt lat="45.78907" lon="5.77113">
        <ele>233</ele>
        <time>2020-05-31T09:23:13.553Z</time>
      </trkpt>
      <trkpt lat="45.78911" lon="5.77112">
        <ele>233</ele>
        <time>2020-05-31T09:23:18.501Z</time>
      </trkpt>
      <trkpt lat="45.78918" lon="5.77107">
        <ele>233</ele>
        <time>2020-05-31T09:24:03.486Z</time>
      </trkpt>
      <trkpt lat="45.78922" lon="5.77108">
        <ele>233</ele>
        <time>2020-05-31T09:24:07.540Z</time>
      </trkpt>
      <trkpt lat="45.78926" lon="5.77107">
        <ele>233</ele>
        <time>2020-05-31T09:24:12.511Z</time>
      </trkpt>
      <trkpt lat="45.78933" lon="5.77101">
        <ele>233</ele>
        <time>2020-05-31T09:24:16.510Z</time>
      </trkpt>
      <trkpt lat="45.7894" lon="5.77092">
        <ele>232</ele>
        <time>2020-05-31T09:24:21.509Z</time>
      </trkpt>
      <trkpt lat="45.78944" lon="5.77083">
        <ele>232</ele>
        <time>2020-05-31T09:24:25.563Z</time>
      </trkpt>
      <trkpt lat="45.78946" lon="5.77075">
        <ele>232</ele>
        <time>2020-05-31T09:24:30.509Z</time>
      </trkpt>
      <trkpt lat="45.78946" lon="5.77067">
        <ele>232</ele>
        <time>2020-05-31T09:24:35.512Z</time>
      </trkpt>
      <trkpt lat="45.78945" lon="5.7706">
        <ele>232</ele>
        <time>2020-05-31T09:24:40.504Z</time>
      </trkpt>
      <trkpt lat="45.78944" lon="5.77051">
        <ele>232</ele>
        <time>2020-05-31T09:24:45.483Z</time>
      </trkpt>
      <trkpt lat="45.78943" lon="5.77044">
        <ele>232</ele>
        <time>2020-05-31T09:24:49.483Z</time>
      </trkpt>
      <trkpt lat="45.78943" lon="5.77034">
        <ele>233</ele>
        <time>2020-05-31T09:24:54.501Z</time>
      </trkpt>
      <trkpt lat="45.78941" lon="5.77027">
        <ele>233</ele>
        <time>2020-05-31T09:24:58.505Z</time>
      </trkpt>
      <trkpt lat="45.78939" lon="5.77019">
        <ele>233</ele>
        <time>2020-05-31T09:25:03.496Z</time>
      </trkpt>
      <trkpt lat="45.78938" lon="5.77011">
        <ele>234</ele>
        <time>2020-05-31T09:25:07.565Z</time>
      </trkpt>
      <trkpt lat="45.78938" lon="5.77">
        <ele>234</ele>
        <time>2020-05-31T09:25:12.498Z</time>
      </trkpt>
      <trkpt lat="45.78937" lon="5.7699">
        <ele>234</ele>
        <time>2020-05-31T09:25:17.486Z</time>
      </trkpt>
      <trkpt lat="45.78934" lon="5.76982">
        <ele>234</ele>
        <time>2020-05-31T09:25:21.508Z</time>
      </trkpt>
      <trkpt lat="45.78932" lon="5.76975">
        <ele>234</ele>
        <time>2020-05-31T09:25:26.522Z</time>
      </trkpt>
      <trkpt lat="45.78929" lon="5.76968">
        <ele>233</ele>
        <time>2020-05-31T09:25:31.505Z</time>
      </trkpt>
      <trkpt lat="45.78925" lon="5.76961">
        <ele>233</ele>
        <time>2020-05-31T09:25:36.510Z</time>
      </trkpt>
      <trkpt lat="45.78921" lon="5.76953">
        <ele>232</ele>
        <time>2020-05-31T09:25:41.467Z</time>
      </trkpt>
      <trkpt lat="45.7892" lon="5.76948">
        <ele>232</ele>
        <time>2020-05-31T09:25:45.513Z</time>
      </trkpt>
      <trkpt lat="45.7892" lon="5.76947">
        <ele>232</ele>
        <time>2020-05-31T09:25:49.575Z</time>
      </trkpt>
      <trkpt lat="45.78918" lon="5.7694">
        <ele>232</ele>
        <time>2020-05-31T09:25:54.517Z</time>
      </trkpt>
      <trkpt lat="45.78916" lon="5.76934">
        <ele>232</ele>
        <time>2020-05-31T09:25:58.499Z</time>
      </trkpt>
      <trkpt lat="45.78913" lon="5.76926">
        <ele>231</ele>
        <time>2020-05-31T09:26:03.496Z</time>
      </trkpt>
      <trkpt lat="45.78912" lon="5.7692">
        <ele>231</ele>
        <time>2020-05-31T09:26:07.497Z</time>
      </trkpt>
      <trkpt lat="45.78908" lon="5.76913">
        <ele>231</ele>
        <time>2020-05-31T09:26:12.512Z</time>
      </trkpt>
      <trkpt lat="45.78906" lon="5.76904">
        <ele>231</ele>
        <time>2020-05-31T09:26:17.495Z</time>
      </trkpt>
      <trkpt lat="45.78904" lon="5.76898">
        <ele>231</ele>
        <time>2020-05-31T09:26:21.517Z</time>
      </trkpt>
      <trkpt lat="45.78901" lon="5.7689">
        <ele>231</ele>
        <time>2020-05-31T09:26:26.493Z</time>
      </trkpt>
      <trkpt lat="45.78898" lon="5.76882">
        <ele>231</ele>
        <time>2020-05-31T09:26:31.489Z</time>
      </trkpt>
      <trkpt lat="45.78895" lon="5.76875">
        <ele>233</ele>
        <time>2020-05-31T09:26:36.509Z</time>
      </trkpt>
      <trkpt lat="45.78891" lon="5.76867">
        <ele>233</ele>
        <time>2020-05-31T09:26:41.502Z</time>
      </trkpt>
      <trkpt lat="45.7889" lon="5.76866">
        <ele>233</ele>
        <time>2020-05-31T09:26:46.508Z</time>
      </trkpt>
      <trkpt lat="45.78889" lon="5.76865">
        <ele>233</ele>
        <time>2020-05-31T09:26:51.452Z</time>
      </trkpt>
      <trkpt lat="45.78891" lon="5.76862">
        <ele>233</ele>
        <time>2020-05-31T09:26:55.502Z</time>
      </trkpt>
      <trkpt lat="45.78894" lon="5.76857">
        <ele>233</ele>
        <time>2020-05-31T09:27:38.498Z</time>
      </trkpt>
      <trkpt lat="45.78895" lon="5.76856">
        <ele>233</ele>
        <time>2020-05-31T09:27:42.549Z</time>
      </trkpt>
      <trkpt lat="45.78899" lon="5.76852">
        <ele>233</ele>
        <time>2020-05-31T09:27:47.495Z</time>
      </trkpt>
      <trkpt lat="45.78903" lon="5.76852">
        <ele>233</ele>
        <time>2020-05-31T09:27:52.503Z</time>
      </trkpt>
      <trkpt lat="45.78908" lon="5.76851">
        <ele>230</ele>
        <time>2020-05-31T09:27:57.487Z</time>
      </trkpt>
      <trkpt lat="45.78908" lon="5.76851">
        <ele>230</ele>
        <time>2020-05-31T09:28:01.517Z</time>
      </trkpt>
      <trkpt lat="45.78908" lon="5.76849">
        <ele>230</ele>
        <time>2020-05-31T09:28:06.490Z</time>
      </trkpt>
      <trkpt lat="45.7891" lon="5.76843">
        <ele>231</ele>
        <time>2020-05-31T09:28:10.558Z</time>
      </trkpt>
      <trkpt lat="45.78912" lon="5.76836">
        <ele>231</ele>
        <time>2020-05-31T09:28:15.487Z</time>
      </trkpt>
      <trkpt lat="45.78914" lon="5.76827">
        <ele>231</ele>
        <time>2020-05-31T09:28:20.507Z</time>
      </trkpt>
      <trkpt lat="45.78914" lon="5.76818">
        <ele>232</ele>
        <time>2020-05-31T09:28:25.487Z</time>
      </trkpt>
      <trkpt lat="45.78912" lon="5.76812">
        <ele>232</ele>
        <time>2020-05-31T09:28:29.509Z</time>
      </trkpt>
      <trkpt lat="45.78913" lon="5.76805">
        <ele>232</ele>
        <time>2020-05-31T09:28:34.485Z</time>
      </trkpt>
      <trkpt lat="45.7891" lon="5.768">
        <ele>232</ele>
        <time>2020-05-31T09:29:03.494Z</time>
      </trkpt>
      <trkpt lat="45.78908" lon="5.76799">
        <ele>232</ele>
        <time>2020-05-31T09:29:08.482Z</time>
      </trkpt>
      <trkpt lat="45.78908" lon="5.76799">
        <ele>232</ele>
        <time>2020-05-31T09:29:13.501Z</time>
      </trkpt>
      <trkpt lat="45.78906" lon="5.76796">
        <ele>232</ele>
        <time>2020-05-31T09:29:18.493Z</time>
      </trkpt>
      <trkpt lat="45.78905" lon="5.76794">
        <ele>232</ele>
        <time>2020-05-31T09:29:22.487Z</time>
      </trkpt>
      <trkpt lat="45.78903" lon="5.76792">
        <ele>237</ele>
        <time>2020-05-31T09:31:22.491Z</time>
      </trkpt>
      <trkpt lat="45.78902" lon="5.7679">
        <ele>237</ele>
        <time>2020-05-31T09:31:27.478Z</time>
      </trkpt>
      <trkpt lat="45.78902" lon="5.7679">
        <ele>237</ele>
        <time>2020-05-31T09:31:31.567Z</time>
      </trkpt>
      <trkpt lat="45.78903" lon="5.76786">
        <ele>237</ele>
        <time>2020-05-31T09:31:36.494Z</time>
      </trkpt>
      <trkpt lat="45.78901" lon="5.7678">
        <ele>237</ele>
        <time>2020-05-31T09:31:40.499Z</time>
      </trkpt>
      <trkpt lat="45.78897" lon="5.7677">
        <ele>237</ele>
        <time>2020-05-31T09:31:45.447Z</time>
      </trkpt>
      <trkpt lat="45.78895" lon="5.76765">
        <ele>237</ele>
        <time>2020-05-31T09:31:49.481Z</time>
      </trkpt>
      <trkpt lat="45.7889" lon="5.76759">
        <ele>237</ele>
        <time>2020-05-31T09:31:54.495Z</time>
      </trkpt>
      <trkpt lat="45.78887" lon="5.76753">
        <ele>237</ele>
        <time>2020-05-31T09:31:58.502Z</time>
      </trkpt>
      <trkpt lat="45.78881" lon="5.76745">
        <ele>237</ele>
        <time>2020-05-31T09:32:03.490Z</time>
      </trkpt>
      <trkpt lat="45.78877" lon="5.76737">
        <ele>237</ele>
        <time>2020-05-31T09:32:08.484Z</time>
      </trkpt>
      <trkpt lat="45.78873" lon="5.76726">
        <ele>244</ele>
        <time>2020-05-31T09:32:13.545Z</time>
      </trkpt>
      <trkpt lat="45.7887" lon="5.76721">
        <ele>244</ele>
        <time>2020-05-31T09:32:18.481Z</time>
      </trkpt>
      <trkpt lat="45.78866" lon="5.76711">
        <ele>244</ele>
        <time>2020-05-31T09:32:23.500Z</time>
      </trkpt>
      <trkpt lat="45.78863" lon="5.76704">
        <ele>243</ele>
        <time>2020-05-31T09:32:28.499Z</time>
      </trkpt>
      <trkpt lat="45.78857" lon="5.76699">
        <ele>243</ele>
        <time>2020-05-31T09:32:33.492Z</time>
      </trkpt>
      <trkpt lat="45.78853" lon="5.76694">
        <ele>243</ele>
        <time>2020-05-31T09:32:37.554Z</time>
      </trkpt>
      <trkpt lat="45.78848" lon="5.76685">
        <ele>243</ele>
        <time>2020-05-31T09:32:42.491Z</time>
      </trkpt>
      <trkpt lat="45.78843" lon="5.7668">
        <ele>247</ele>
        <time>2020-05-31T09:32:47.505Z</time>
      </trkpt>
      <trkpt lat="45.78838" lon="5.76677">
        <ele>247</ele>
        <time>2020-05-31T09:32:52.487Z</time>
      </trkpt>
      <trkpt lat="45.78834" lon="5.76676">
        <ele>247</ele>
        <time>2020-05-31T09:32:56.508Z</time>
      </trkpt>
      <trkpt lat="45.78826" lon="5.76674">
        <ele>247</ele>
        <time>2020-05-31T09:33:01.492Z</time>
      </trkpt>
      <trkpt lat="45.78819" lon="5.76673">
        <ele>255</ele>
        <time>2020-05-31T09:33:06.497Z</time>
      </trkpt>
      <trkpt lat="45.78814" lon="5.7667">
        <ele>255</ele>
        <time>2020-05-31T09:33:11.495Z</time>
      </trkpt>
      <trkpt lat="45.78807" lon="5.76667">
        <ele>255</ele>
        <time>2020-05-31T09:33:16.453Z</time>
      </trkpt>
      <trkpt lat="45.78805" lon="5.76665">
        <ele>255</ele>
        <time>2020-05-31T09:33:20.494Z</time>
      </trkpt>
      <trkpt lat="45.78801" lon="5.76657">
        <ele>255</ele>
        <time>2020-05-31T09:33:24.493Z</time>
      </trkpt>
      <trkpt lat="45.78796" lon="5.76647">
        <ele>251</ele>
        <time>2020-05-31T09:33:29.497Z</time>
      </trkpt>
      <trkpt lat="45.78791" lon="5.76639">
        <ele>256</ele>
        <time>2020-05-31T09:33:34.483Z</time>
      </trkpt>
      <trkpt lat="45.78788" lon="5.76631">
        <ele>256</ele>
        <time>2020-05-31T09:33:39.490Z</time>
      </trkpt>
      <trkpt lat="45.78784" lon="5.76624">
        <ele>253</ele>
        <time>2020-05-31T09:33:43.506Z</time>
      </trkpt>
      <trkpt lat="45.7878" lon="5.76617">
        <ele>253</ele>
        <time>2020-05-31T09:33:48.506Z</time>
      </trkpt>
      <trkpt lat="45.78776" lon="5.76611">
        <ele>253</ele>
        <time>2020-05-31T09:33:53.506Z</time>
      </trkpt>
      <trkpt lat="45.78772" lon="5.76604">
        <ele>253</ele>
        <time>2020-05-31T09:33:58.511Z</time>
      </trkpt>
      <trkpt lat="45.78768" lon="5.76596">
        <ele>252</ele>
        <time>2020-05-31T09:34:03.503Z</time>
      </trkpt>
      <trkpt lat="45.78763" lon="5.76589">
        <ele>256</ele>
        <time>2020-05-31T09:34:08.490Z</time>
      </trkpt>
      <trkpt lat="45.78758" lon="5.76581">
        <ele>256</ele>
        <time>2020-05-31T09:34:13.508Z</time>
      </trkpt>
      <trkpt lat="45.78753" lon="5.76574">
        <ele>256</ele>
        <time>2020-05-31T09:34:18.480Z</time>
      </trkpt>
      <trkpt lat="45.78748" lon="5.76569">
        <ele>255</ele>
        <time>2020-05-31T09:34:23.517Z</time>
      </trkpt>
      <trkpt lat="45.78743" lon="5.76562">
        <ele>255</ele>
        <time>2020-05-31T09:34:28.480Z</time>
      </trkpt>
      <trkpt lat="45.78739" lon="5.76554">
        <ele>255</ele>
        <time>2020-05-31T09:34:33.539Z</time>
      </trkpt>
      <trkpt lat="45.78733" lon="5.76548">
        <ele>257</ele>
        <time>2020-05-31T09:34:38.515Z</time>
      </trkpt>
      <trkpt lat="45.78729" lon="5.76542">
        <ele>257</ele>
        <time>2020-05-31T09:34:43.503Z</time>
      </trkpt>
      <trkpt lat="45.78724" lon="5.76537">
        <ele>255</ele>
        <time>2020-05-31T09:34:48.483Z</time>
      </trkpt>
      <trkpt lat="45.7872" lon="5.7653">
        <ele>255</ele>
        <time>2020-05-31T09:34:52.513Z</time>
      </trkpt>
      <trkpt lat="45.78717" lon="5.76523">
        <ele>255</ele>
        <time>2020-05-31T09:34:57.490Z</time>
      </trkpt>
      <trkpt lat="45.78714" lon="5.76514">
        <ele>255</ele>
        <time>2020-05-31T09:35:02.511Z</time>
      </trkpt>
      <trkpt lat="45.78711" lon="5.76505">
        <ele>254</ele>
        <time>2020-05-31T09:35:07.494Z</time>
      </trkpt>
      <trkpt lat="45.78709" lon="5.76496">
        <ele>254</ele>
        <time>2020-05-31T09:35:12.462Z</time>
      </trkpt>
      <trkpt lat="45.78708" lon="5.76488">
        <ele>254</ele>
        <time>2020-05-31T09:35:16.498Z</time>
      </trkpt>
      <trkpt lat="45.78706" lon="5.76478">
        <ele>254</ele>
        <time>2020-05-31T09:35:21.462Z</time>
      </trkpt>
      <trkpt lat="45.78703" lon="5.76471">
        <ele>254</ele>
        <time>2020-05-31T09:35:25.510Z</time>
      </trkpt>
      <trkpt lat="45.78701" lon="5.76465">
        <ele>254</ele>
        <time>2020-05-31T09:35:29.496Z</time>
      </trkpt>
      <trkpt lat="45.78701" lon="5.76457">
        <ele>255</ele>
        <time>2020-05-31T09:35:34.509Z</time>
      </trkpt>
      <trkpt lat="45.78698" lon="5.76446">
        <ele>255</ele>
        <time>2020-05-31T09:35:39.512Z</time>
      </trkpt>
      <trkpt lat="45.78695" lon="5.76437">
        <ele>255</ele>
        <time>2020-05-31T09:35:44.513Z</time>
      </trkpt>
      <trkpt lat="45.78693" lon="5.76427">
        <ele>257</ele>
        <time>2020-05-31T09:35:49.524Z</time>
      </trkpt>
      <trkpt lat="45.78689" lon="5.76416">
        <ele>257</ele>
        <time>2020-05-31T09:35:54.502Z</time>
      </trkpt>
      <trkpt lat="45.78685" lon="5.76407">
        <ele>257</ele>
        <time>2020-05-31T09:35:59.516Z</time>
      </trkpt>
      <trkpt lat="45.78681" lon="5.76397">
        <ele>259</ele>
        <time>2020-05-31T09:36:04.500Z</time>
      </trkpt>
      <trkpt lat="45.78678" lon="5.76391">
        <ele>259</ele>
        <time>2020-05-31T09:36:09.499Z</time>
      </trkpt>
      <trkpt lat="45.78675" lon="5.76381">
        <ele>259</ele>
        <time>2020-05-31T09:36:14.504Z</time>
      </trkpt>
      <trkpt lat="45.78673" lon="5.76372">
        <ele>261</ele>
        <time>2020-05-31T09:36:19.492Z</time>
      </trkpt>
      <trkpt lat="45.78671" lon="5.76365">
        <ele>261</ele>
        <time>2020-05-31T09:36:23.523Z</time>
      </trkpt>
      <trkpt lat="45.78668" lon="5.76354">
        <ele>261</ele>
        <time>2020-05-31T09:36:28.507Z</time>
      </trkpt>
      <trkpt lat="45.78666" lon="5.76344">
        <ele>263</ele>
        <time>2020-05-31T09:36:33.504Z</time>
      </trkpt>
      <trkpt lat="45.78663" lon="5.76335">
        <ele>263</ele>
        <time>2020-05-31T09:36:38.507Z</time>
      </trkpt>
      <trkpt lat="45.78659" lon="5.76325">
        <ele>263</ele>
        <time>2020-05-31T09:36:43.508Z</time>
      </trkpt>
      <trkpt lat="45.78658" lon="5.76316">
        <ele>263</ele>
        <time>2020-05-31T09:36:48.498Z</time>
      </trkpt>
      <trkpt lat="45.78655" lon="5.76307">
        <ele>263</ele>
        <time>2020-05-31T09:36:53.518Z</time>
      </trkpt>
      <trkpt lat="45.78653" lon="5.76299">
        <ele>263</ele>
        <time>2020-05-31T09:36:58.501Z</time>
      </trkpt>
      <trkpt lat="45.7865" lon="5.7629">
        <ele>265</ele>
        <time>2020-05-31T09:37:03.488Z</time>
      </trkpt>
      <trkpt lat="45.78647" lon="5.76281">
        <ele>265</ele>
        <time>2020-05-31T09:37:08.487Z</time>
      </trkpt>
      <trkpt lat="45.78646" lon="5.76274">
        <ele>265</ele>
        <time>2020-05-31T09:37:12.505Z</time>
      </trkpt>
      <trkpt lat="45.78644" lon="5.76267">
        <ele>265</ele>
        <time>2020-05-31T09:37:17.493Z</time>
      </trkpt>
      <trkpt lat="45.7864" lon="5.76261">
        <ele>267</ele>
        <time>2020-05-31T09:37:22.484Z</time>
      </trkpt>
      <trkpt lat="45.78636" lon="5.76255">
        <ele>267</ele>
        <time>2020-05-31T09:37:27.501Z</time>
      </trkpt>
      <trkpt lat="45.78632" lon="5.7625">
        <ele>267</ele>
        <time>2020-05-31T09:37:32.521Z</time>
      </trkpt>
      <trkpt lat="45.78628" lon="5.76244">
        <ele>267</ele>
        <time>2020-05-31T09:37:37.506Z</time>
      </trkpt>
      <trkpt lat="45.78623" lon="5.76241">
        <ele>270</ele>
        <time>2020-05-31T09:37:42.497Z</time>
      </trkpt>
      <trkpt lat="45.78621" lon="5.76236">
        <ele>270</ele>
        <time>2020-05-31T09:37:47.487Z</time>
      </trkpt>
      <trkpt lat="45.78618" lon="5.76231">
        <ele>271</ele>
        <time>2020-05-31T09:37:52.480Z</time>
      </trkpt>
      <trkpt lat="45.78615" lon="5.76219">
        <ele>271</ele>
        <time>2020-05-31T09:37:57.462Z</time>
      </trkpt>
      <trkpt lat="45.78615" lon="5.76209">
        <ele>271</ele>
        <time>2020-05-31T09:38:02.473Z</time>
      </trkpt>
      <trkpt lat="45.78613" lon="5.76199">
        <ele>272</ele>
        <time>2020-05-31T09:38:06.528Z</time>
      </trkpt>
      <trkpt lat="45.78609" lon="5.76189">
        <ele>272</ele>
        <time>2020-05-31T09:38:11.489Z</time>
      </trkpt>
      <trkpt lat="45.78608" lon="5.76176">
        <ele>273</ele>
        <time>2020-05-31T09:38:16.507Z</time>
      </trkpt>
      <trkpt lat="45.78607" lon="5.76166">
        <ele>273</ele>
        <time>2020-05-31T09:38:21.463Z</time>
      </trkpt>
      <trkpt lat="45.78607" lon="5.76156">
        <ele>273</ele>
        <time>2020-05-31T09:38:26.453Z</time>
      </trkpt>
      <trkpt lat="45.78606" lon="5.76148">
        <ele>273</ele>
        <time>2020-05-31T09:38:30.508Z</time>
      </trkpt>
      <trkpt lat="45.78605" lon="5.76138">
        <ele>273</ele>
        <time>2020-05-31T09:38:35.550Z</time>
      </trkpt>
      <trkpt lat="45.78606" lon="5.76128">
        <ele>273</ele>
        <time>2020-05-31T09:38:40.493Z</time>
      </trkpt>
      <trkpt lat="45.78606" lon="5.76118">
        <ele>275</ele>
        <time>2020-05-31T09:38:45.498Z</time>
      </trkpt>
      <trkpt lat="45.78608" lon="5.7611">
        <ele>275</ele>
        <time>2020-05-31T09:38:49.503Z</time>
      </trkpt>
      <trkpt lat="45.7861" lon="5.76101">
        <ele>275</ele>
        <time>2020-05-31T09:38:54.480Z</time>
      </trkpt>
      <trkpt lat="45.78613" lon="5.76094">
        <ele>276</ele>
        <time>2020-05-31T09:38:58.502Z</time>
      </trkpt>
      <trkpt lat="45.78616" lon="5.76085">
        <ele>276</ele>
        <time>2020-05-31T09:39:03.485Z</time>
      </trkpt>
      <trkpt lat="45.78618" lon="5.76076">
        <ele>276</ele>
        <time>2020-05-31T09:39:08.505Z</time>
      </trkpt>
      <trkpt lat="45.78619" lon="5.76064">
        <ele>280</ele>
        <time>2020-05-31T09:39:13.486Z</time>
      </trkpt>
      <trkpt lat="45.78619" lon="5.76056">
        <ele>280</ele>
        <time>2020-05-31T09:39:17.560Z</time>
      </trkpt>
      <trkpt lat="45.78619" lon="5.76046">
        <ele>280</ele>
        <time>2020-05-31T09:39:22.475Z</time>
      </trkpt>
      <trkpt lat="45.78617" lon="5.76039">
        <ele>282</ele>
        <time>2020-05-31T09:39:26.493Z</time>
      </trkpt>
      <trkpt lat="45.78615" lon="5.76033">
        <ele>282</ele>
        <time>2020-05-31T09:39:31.505Z</time>
      </trkpt>
      <trkpt lat="45.78608" lon="5.76033">
        <ele>282</ele>
        <time>2020-05-31T09:39:36.499Z</time>
      </trkpt>
      <trkpt lat="45.78603" lon="5.76034">
        <ele>282</ele>
        <time>2020-05-31T09:39:40.557Z</time>
      </trkpt>
      <trkpt lat="45.78597" lon="5.76037">
        <ele>284</ele>
        <time>2020-05-31T09:39:45.503Z</time>
      </trkpt>
      <trkpt lat="45.78589" lon="5.76039">
        <ele>284</ele>
        <time>2020-05-31T09:39:50.497Z</time>
      </trkpt>
      <trkpt lat="45.78582" lon="5.76041">
        <ele>284</ele>
        <time>2020-05-31T09:39:55.495Z</time>
      </trkpt>
      <trkpt lat="45.78574" lon="5.76041">
        <ele>284</ele>
        <time>2020-05-31T09:40:00.493Z</time>
      </trkpt>
      <trkpt lat="45.78568" lon="5.76043">
        <ele>282</ele>
        <time>2020-05-31T09:40:05.490Z</time>
      </trkpt>
      <trkpt lat="45.78563" lon="5.76045">
        <ele>282</ele>
        <time>2020-05-31T09:40:09.501Z</time>
      </trkpt>
      <trkpt lat="45.78558" lon="5.76047">
        <ele>282</ele>
        <time>2020-05-31T09:40:14.500Z</time>
      </trkpt>
      <trkpt lat="45.78552" lon="5.76048">
        <ele>282</ele>
        <time>2020-05-31T09:40:19.492Z</time>
      </trkpt>
      <trkpt lat="45.78543" lon="5.7605">
        <ele>282</ele>
        <time>2020-05-31T09:40:24.493Z</time>
      </trkpt>
      <trkpt lat="45.78536" lon="5.76052">
        <ele>285</ele>
        <time>2020-05-31T09:40:29.498Z</time>
      </trkpt>
      <trkpt lat="45.7853" lon="5.76054">
        <ele>285</ele>
        <time>2020-05-31T09:40:33.508Z</time>
      </trkpt>
      <trkpt lat="45.78522" lon="5.76057">
        <ele>285</ele>
        <time>2020-05-31T09:40:38.505Z</time>
      </trkpt>
      <trkpt lat="45.78515" lon="5.7606">
        <ele>285</ele>
        <time>2020-05-31T09:40:43.501Z</time>
      </trkpt>
      <trkpt lat="45.78508" lon="5.76063">
        <ele>287</ele>
        <time>2020-05-31T09:40:48.481Z</time>
      </trkpt>
      <trkpt lat="45.78503" lon="5.76064">
        <ele>287</ele>
        <time>2020-05-31T09:40:52.506Z</time>
      </trkpt>
      <trkpt lat="45.78495" lon="5.76066">
        <ele>287</ele>
        <time>2020-05-31T09:40:57.507Z</time>
      </trkpt>
      <trkpt lat="45.7849" lon="5.76068">
        <ele>287</ele>
        <time>2020-05-31T09:41:01.571Z</time>
      </trkpt>
      <trkpt lat="45.78484" lon="5.7607">
        <ele>283</ele>
        <time>2020-05-31T09:41:06.484Z</time>
      </trkpt>
      <trkpt lat="45.78478" lon="5.7607">
        <ele>283</ele>
        <time>2020-05-31T09:41:10.504Z</time>
      </trkpt>
      <trkpt lat="45.78474" lon="5.76065">
        <ele>290</ele>
        <time>2020-05-31T09:41:15.509Z</time>
      </trkpt>
      <trkpt lat="45.78473" lon="5.76064">
        <ele>290</ele>
        <time>2020-05-31T09:41:20.488Z</time>
      </trkpt>
      <trkpt lat="45.78471" lon="5.76065">
        <ele>290</ele>
        <time>2020-05-31T09:41:25.492Z</time>
      </trkpt>
      <trkpt lat="45.7847" lon="5.76066">
        <ele>290</ele>
        <time>2020-05-31T09:41:29.544Z</time>
      </trkpt>
      <trkpt lat="45.78465" lon="5.76063">
        <ele>290</ele>
        <time>2020-05-31T09:41:34.494Z</time>
      </trkpt>
      <trkpt lat="45.7846" lon="5.76059">
        <ele>290</ele>
        <time>2020-05-31T09:41:38.511Z</time>
      </trkpt>
      <trkpt lat="45.78453" lon="5.76056">
        <ele>290</ele>
        <time>2020-05-31T09:41:43.502Z</time>
      </trkpt>
      <trkpt lat="45.78448" lon="5.76054">
        <ele>290</ele>
        <time>2020-05-31T09:41:47.482Z</time>
      </trkpt>
      <trkpt lat="45.78442" lon="5.76054">
        <ele>290</ele>
        <time>2020-05-31T09:41:52.501Z</time>
      </trkpt>
      <trkpt lat="45.78435" lon="5.76056">
        <ele>290</ele>
        <time>2020-05-31T09:41:57.490Z</time>
      </trkpt>
      <trkpt lat="45.78429" lon="5.76054">
        <ele>290</ele>
        <time>2020-05-31T09:42:02.500Z</time>
      </trkpt>
      <trkpt lat="45.78423" lon="5.76051">
        <ele>290</ele>
        <time>2020-05-31T09:42:07.495Z</time>
      </trkpt>
      <trkpt lat="45.78418" lon="5.76048">
        <ele>290</ele>
        <time>2020-05-31T09:42:11.493Z</time>
      </trkpt>
      <trkpt lat="45.78413" lon="5.76045">
        <ele>290</ele>
        <time>2020-05-31T09:42:16.487Z</time>
      </trkpt>
      <trkpt lat="45.78407" lon="5.76042">
        <ele>290</ele>
        <time>2020-05-31T09:42:21.511Z</time>
      </trkpt>
      <trkpt lat="45.78402" lon="5.76041">
        <ele>298</ele>
        <time>2020-05-31T09:42:26.490Z</time>
      </trkpt>
      <trkpt lat="45.78396" lon="5.76039">
        <ele>298</ele>
        <time>2020-05-31T09:42:31.453Z</time>
      </trkpt>
      <trkpt lat="45.7839" lon="5.76039">
        <ele>298</ele>
        <time>2020-05-31T09:42:35.585Z</time>
      </trkpt>
      <trkpt lat="45.78383" lon="5.76038">
        <ele>298</ele>
        <time>2020-05-31T09:42:40.484Z</time>
      </trkpt>
      <trkpt lat="45.78374" lon="5.76036">
        <ele>299</ele>
        <time>2020-05-31T09:42:45.486Z</time>
      </trkpt>
      <trkpt lat="45.78366" lon="5.76036">
        <ele>299</ele>
        <time>2020-05-31T09:42:50.511Z</time>
      </trkpt>
      <trkpt lat="45.78362" lon="5.76035">
        <ele>299</ele>
        <time>2020-05-31T09:42:55.494Z</time>
      </trkpt>
      <trkpt lat="45.78355" lon="5.76036">
        <ele>299</ele>
        <time>2020-05-31T09:43:00.489Z</time>
      </trkpt>
      <trkpt lat="45.78348" lon="5.76036">
        <ele>299</ele>
        <time>2020-05-31T09:43:05.484Z</time>
      </trkpt>
      <trkpt lat="45.78342" lon="5.76037">
        <ele>302</ele>
        <time>2020-05-31T09:43:09.553Z</time>
      </trkpt>
      <trkpt lat="45.78336" lon="5.76036">
        <ele>302</ele>
        <time>2020-05-31T09:43:14.493Z</time>
      </trkpt>
      <trkpt lat="45.78329" lon="5.76037">
        <ele>302</ele>
        <time>2020-05-31T09:43:19.490Z</time>
      </trkpt>
      <trkpt lat="45.78322" lon="5.76039">
        <ele>302</ele>
        <time>2020-05-31T09:43:24.505Z</time>
      </trkpt>
      <trkpt lat="45.78314" lon="5.7604">
        <ele>308</ele>
        <time>2020-05-31T09:43:29.505Z</time>
      </trkpt>
      <trkpt lat="45.78307" lon="5.7604">
        <ele>308</ele>
        <time>2020-05-31T09:43:34.490Z</time>
      </trkpt>
      <trkpt lat="45.78301" lon="5.76042">
        <ele>303</ele>
        <time>2020-05-31T09:43:39.546Z</time>
      </trkpt>
      <trkpt lat="45.78295" lon="5.76043">
        <ele>303</ele>
        <time>2020-05-31T09:43:44.500Z</time>
      </trkpt>
      <trkpt lat="45.78289" lon="5.76046">
        <ele>304</ele>
        <time>2020-05-31T09:43:49.498Z</time>
      </trkpt>
      <trkpt lat="45.78284" lon="5.76044">
        <ele>304</ele>
        <time>2020-05-31T09:43:53.510Z</time>
      </trkpt>
      <trkpt lat="45.78277" lon="5.76041">
        <ele>309</ele>
        <time>2020-05-31T09:43:57.502Z</time>
      </trkpt>
      <trkpt lat="45.78272" lon="5.76038">
        <ele>309</ele>
        <time>2020-05-31T09:44:02.457Z</time>
      </trkpt>
      <trkpt lat="45.7827" lon="5.76035">
        <ele>309</ele>
        <time>2020-05-31T09:44:06.489Z</time>
      </trkpt>
      <trkpt lat="45.78264" lon="5.7603">
        <ele>310</ele>
        <time>2020-05-31T09:44:10.503Z</time>
      </trkpt>
      <trkpt lat="45.78256" lon="5.76028">
        <ele>310</ele>
        <time>2020-05-31T09:44:15.484Z</time>
      </trkpt>
      <trkpt lat="45.78245" lon="5.76023">
        <ele>310</ele>
        <time>2020-05-31T09:44:20.495Z</time>
      </trkpt>
      <trkpt lat="45.78235" lon="5.76017">
        <ele>311</ele>
        <time>2020-05-31T09:44:25.507Z</time>
      </trkpt>
      <trkpt lat="45.78226" lon="5.76011">
        <ele>317</ele>
        <time>2020-05-31T09:44:30.508Z</time>
      </trkpt>
      <trkpt lat="45.78217" lon="5.76005">
        <ele>317</ele>
        <time>2020-05-31T09:44:35.485Z</time>
      </trkpt>
      <trkpt lat="45.7821" lon="5.76002">
        <ele>317</ele>
        <time>2020-05-31T09:44:40.496Z</time>
      </trkpt>
      <trkpt lat="45.78203" lon="5.75997">
        <ele>319</ele>
        <time>2020-05-31T09:44:45.485Z</time>
      </trkpt>
      <trkpt lat="45.78199" lon="5.75991">
        <ele>319</ele>
        <time>2020-05-31T09:44:50.500Z</time>
      </trkpt>
      <trkpt lat="45.78194" lon="5.75985">
        <ele>325</ele>
        <time>2020-05-31T09:44:55.561Z</time>
      </trkpt>
      <trkpt lat="45.78189" lon="5.7598">
        <ele>325</ele>
        <time>2020-05-31T09:45:00.489Z</time>
      </trkpt>
      <trkpt lat="45.78181" lon="5.75975">
        <ele>325</ele>
        <time>2020-05-31T09:45:05.481Z</time>
      </trkpt>
      <trkpt lat="45.78173" lon="5.75969">
        <ele>325</ele>
        <time>2020-05-31T09:45:10.501Z</time>
      </trkpt>
      <trkpt lat="45.78168" lon="5.75965">
        <ele>325</ele>
        <time>2020-05-31T09:45:15.513Z</time>
      </trkpt>
      <trkpt lat="45.78161" lon="5.75961">
        <ele>325</ele>
        <time>2020-05-31T09:45:19.553Z</time>
      </trkpt>
      <trkpt lat="45.78159" lon="5.75958">
        <ele>325</ele>
        <time>2020-05-31T09:45:24.492Z</time>
      </trkpt>
      <trkpt lat="45.78157" lon="5.75955">
        <ele>334</ele>
        <time>2020-05-31T09:45:28.489Z</time>
      </trkpt>
      <trkpt lat="45.78153" lon="5.75953">
        <ele>336</ele>
        <time>2020-05-31T09:45:33.509Z</time>
      </trkpt>
      <trkpt lat="45.78147" lon="5.75948">
        <ele>336</ele>
        <time>2020-05-31T09:45:38.487Z</time>
      </trkpt>
      <trkpt lat="45.78143" lon="5.75947">
        <ele>336</ele>
        <time>2020-05-31T09:45:43.479Z</time>
      </trkpt>
      <trkpt lat="45.78139" lon="5.75944">
        <ele>336</ele>
        <time>2020-05-31T09:45:48.488Z</time>
      </trkpt>
      <trkpt lat="45.78131" lon="5.7594">
        <ele>336</ele>
        <time>2020-05-31T09:45:53.501Z</time>
      </trkpt>
      <trkpt lat="45.78124" lon="5.75936">
        <ele>343</ele>
        <time>2020-05-31T09:45:58.496Z</time>
      </trkpt>
      <trkpt lat="45.78116" lon="5.7593">
        <ele>351</ele>
        <time>2020-05-31T09:46:03.486Z</time>
      </trkpt>
      <trkpt lat="45.78108" lon="5.75925">
        <ele>351</ele>
        <time>2020-05-31T09:46:08.513Z</time>
      </trkpt>
      <trkpt lat="45.78102" lon="5.75922">
        <ele>351</ele>
        <time>2020-05-31T09:46:13.573Z</time>
      </trkpt>
      <trkpt lat="45.78099" lon="5.7592">
        <ele>351</ele>
        <time>2020-05-31T09:46:18.503Z</time>
      </trkpt>
      <trkpt lat="45.78092" lon="5.75912">
        <ele>355</ele>
        <time>2020-05-31T09:46:23.501Z</time>
      </trkpt>
      <trkpt lat="45.78087" lon="5.75906">
        <ele>355</ele>
        <time>2020-05-31T09:46:28.499Z</time>
      </trkpt>
      <trkpt lat="45.78079" lon="5.75897">
        <ele>361</ele>
        <time>2020-05-31T09:46:33.487Z</time>
      </trkpt>
      <trkpt lat="45.78074" lon="5.75892">
        <ele>361</ele>
        <time>2020-05-31T09:46:37.547Z</time>
      </trkpt>
      <trkpt lat="45.78068" lon="5.75888">
        <ele>361</ele>
        <time>2020-05-31T09:46:42.491Z</time>
      </trkpt>
      <trkpt lat="45.78062" lon="5.75886">
        <ele>361</ele>
        <time>2020-05-31T09:46:46.525Z</time>
      </trkpt>
      <trkpt lat="45.78058" lon="5.75885">
        <ele>361</ele>
        <time>2020-05-31T09:46:51.485Z</time>
      </trkpt>
      <trkpt lat="45.78051" lon="5.75882">
        <ele>361</ele>
        <time>2020-05-31T09:46:55.543Z</time>
      </trkpt>
      <trkpt lat="45.78044" lon="5.75879">
        <ele>361</ele>
        <time>2020-05-31T09:47:00.490Z</time>
      </trkpt>
      <trkpt lat="45.78037" lon="5.75873">
        <ele>365</ele>
        <time>2020-05-31T09:47:05.488Z</time>
      </trkpt>
      <trkpt lat="45.78029" lon="5.75869">
        <ele>365</ele>
        <time>2020-05-31T09:47:10.487Z</time>
      </trkpt>
      <trkpt lat="45.78026" lon="5.75867">
        <ele>365</ele>
        <time>2020-05-31T09:47:15.490Z</time>
      </trkpt>
      <trkpt lat="45.78022" lon="5.75865">
        <ele>365</ele>
        <time>2020-05-31T09:47:19.552Z</time>
      </trkpt>
      <trkpt lat="45.78016" lon="5.75859">
        <ele>365</ele>
        <time>2020-05-31T09:47:24.479Z</time>
      </trkpt>
      <trkpt lat="45.78012" lon="5.75855">
        <ele>362</ele>
        <time>2020-05-31T09:47:28.503Z</time>
      </trkpt>
      <trkpt lat="45.78007" lon="5.7585">
        <ele>362</ele>
        <time>2020-05-31T09:47:33.489Z</time>
      </trkpt>
      <trkpt lat="45.78001" lon="5.75841">
        <ele>367</ele>
        <time>2020-05-31T09:47:38.491Z</time>
      </trkpt>
      <trkpt lat="45.77995" lon="5.75829">
        <ele>367</ele>
        <time>2020-05-31T09:47:43.494Z</time>
      </trkpt>
      <trkpt lat="45.7799" lon="5.75821">
        <ele>367</ele>
        <time>2020-05-31T09:47:48.492Z</time>
      </trkpt>
      <trkpt lat="45.77986" lon="5.75813">
        <ele>371</ele>
        <time>2020-05-31T09:47:53.484Z</time>
      </trkpt>
      <trkpt lat="45.77982" lon="5.75808">
        <ele>371</ele>
        <time>2020-05-31T09:47:57.500Z</time>
      </trkpt>
      <trkpt lat="45.77979" lon="5.75801">
        <ele>371</ele>
        <time>2020-05-31T09:48:02.510Z</time>
      </trkpt>
      <trkpt lat="45.7798" lon="5.75793">
        <ele>371</ele>
        <time>2020-05-31T09:48:07.475Z</time>
      </trkpt>
      <trkpt lat="45.77985" lon="5.75789">
        <ele>378</ele>
        <time>2020-05-31T09:48:12.483Z</time>
      </trkpt>
      <trkpt lat="45.77991" lon="5.75787">
        <ele>377</ele>
        <time>2020-05-31T09:48:16.495Z</time>
      </trkpt>
      <trkpt lat="45.77997" lon="5.75784">
        <ele>377</ele>
        <time>2020-05-31T09:48:21.493Z</time>
      </trkpt>
      <trkpt lat="45.78004" lon="5.75782">
        <ele>377</ele>
        <time>2020-05-31T09:48:26.487Z</time>
      </trkpt>
      <trkpt lat="45.78011" lon="5.75776">
        <ele>377</ele>
        <time>2020-05-31T09:48:31.483Z</time>
      </trkpt>
      <trkpt lat="45.78014" lon="5.75771">
        <ele>378</ele>
        <time>2020-05-31T09:48:35.501Z</time>
      </trkpt>
      <trkpt lat="45.78017" lon="5.75765">
        <ele>378</ele>
        <time>2020-05-31T09:48:40.491Z</time>
      </trkpt>
      <trkpt lat="45.78022" lon="5.75755">
        <ele>382</ele>
        <time>2020-05-31T09:48:45.480Z</time>
      </trkpt>
      <trkpt lat="45.78026" lon="5.75744">
        <ele>382</ele>
        <time>2020-05-31T09:48:50.486Z</time>
      </trkpt>
      <trkpt lat="45.78028" lon="5.75736">
        <ele>382</ele>
        <time>2020-05-31T09:48:54.505Z</time>
      </trkpt>
      <trkpt lat="45.78031" lon="5.75728">
        <ele>387</ele>
        <time>2020-05-31T09:48:59.487Z</time>
      </trkpt>
      <trkpt lat="45.78033" lon="5.75723">
        <ele>387</ele>
        <time>2020-05-31T09:49:04.503Z</time>
      </trkpt>
      <trkpt lat="45.78036" lon="5.75717">
        <ele>387</ele>
        <time>2020-05-31T09:49:09.501Z</time>
      </trkpt>
      <trkpt lat="45.78039" lon="5.75714">
        <ele>387</ele>
        <time>2020-05-31T09:49:14.495Z</time>
      </trkpt>
      <trkpt lat="45.78044" lon="5.75708">
        <ele>397</ele>
        <time>2020-05-31T09:49:19.493Z</time>
      </trkpt>
      <trkpt lat="45.78051" lon="5.75704">
        <ele>397</ele>
        <time>2020-05-31T09:49:24.474Z</time>
      </trkpt>
      <trkpt lat="45.78059" lon="5.75698">
        <ele>397</ele>
        <time>2020-05-31T09:49:29.501Z</time>
      </trkpt>
      <trkpt lat="45.78064" lon="5.75693">
        <ele>397</ele>
        <time>2020-05-31T09:49:33.564Z</time>
      </trkpt>
      <trkpt lat="45.7807" lon="5.75689">
        <ele>398</ele>
        <time>2020-05-31T09:49:38.478Z</time>
      </trkpt>
      <trkpt lat="45.78073" lon="5.75686">
        <ele>398</ele>
        <time>2020-05-31T09:49:42.481Z</time>
      </trkpt>
      <trkpt lat="45.78078" lon="5.75681">
        <ele>398</ele>
        <time>2020-05-31T09:49:47.498Z</time>
      </trkpt>
      <trkpt lat="45.78083" lon="5.75679">
        <ele>402</ele>
        <time>2020-05-31T09:49:52.516Z</time>
      </trkpt>
      <trkpt lat="45.78091" lon="5.75675">
        <ele>402</ele>
        <time>2020-05-31T09:49:57.484Z</time>
      </trkpt>
      <trkpt lat="45.78095" lon="5.75673">
        <ele>402</ele>
        <time>2020-05-31T09:50:02.493Z</time>
      </trkpt>
      <trkpt lat="45.781" lon="5.75671">
        <ele>403</ele>
        <time>2020-05-31T09:50:07.508Z</time>
      </trkpt>
      <trkpt lat="45.78106" lon="5.75668">
        <ele>403</ele>
        <time>2020-05-31T09:50:12.488Z</time>
      </trkpt>
      <trkpt lat="45.78111" lon="5.75662">
        <ele>403</ele>
        <time>2020-05-31T09:50:17.502Z</time>
      </trkpt>
      <trkpt lat="45.78115" lon="5.75656">
        <ele>403</ele>
        <time>2020-05-31T09:50:22.503Z</time>
      </trkpt>
      <trkpt lat="45.78121" lon="5.75649">
        <ele>405</ele>
        <time>2020-05-31T09:50:27.504Z</time>
      </trkpt>
      <trkpt lat="45.78127" lon="5.7564">
        <ele>406</ele>
        <time>2020-05-31T09:50:32.488Z</time>
      </trkpt>
      <trkpt lat="45.78133" lon="5.75631">
        <ele>406</ele>
        <time>2020-05-31T09:50:37.484Z</time>
      </trkpt>
      <trkpt lat="45.7814" lon="5.75619">
        <ele>407</ele>
        <time>2020-05-31T09:50:42.490Z</time>
      </trkpt>
      <trkpt lat="45.78144" lon="5.75613">
        <ele>407</ele>
        <time>2020-05-31T09:50:47.491Z</time>
      </trkpt>
      <trkpt lat="45.7815" lon="5.75605">
        <ele>407</ele>
        <time>2020-05-31T09:50:52.492Z</time>
      </trkpt>
      <trkpt lat="45.78155" lon="5.75597">
        <ele>411</ele>
        <time>2020-05-31T09:50:57.487Z</time>
      </trkpt>
      <trkpt lat="45.78161" lon="5.75591">
        <ele>411</ele>
        <time>2020-05-31T09:51:02.494Z</time>
      </trkpt>
      <trkpt lat="45.78165" lon="5.75586">
        <ele>411</ele>
        <time>2020-05-31T09:51:06.548Z</time>
      </trkpt>
      <trkpt lat="45.78171" lon="5.75578">
        <ele>411</ele>
        <time>2020-05-31T09:51:11.484Z</time>
      </trkpt>
      <trkpt lat="45.78177" lon="5.75568">
        <ele>414</ele>
        <time>2020-05-31T09:51:16.454Z</time>
      </trkpt>
      <trkpt lat="45.7818" lon="5.75562">
        <ele>414</ele>
        <time>2020-05-31T09:51:20.485Z</time>
      </trkpt>
      <trkpt lat="45.78182" lon="5.75559">
        <ele>413</ele>
        <time>2020-05-31T09:51:24.478Z</time>
      </trkpt>
      <trkpt lat="45.78186" lon="5.75556">
        <ele>413</ele>
        <time>2020-05-31T09:51:29.479Z</time>
      </trkpt>
      <trkpt lat="45.78189" lon="5.75549">
        <ele>413</ele>
        <time>2020-05-31T09:51:34.493Z</time>
      </trkpt>
      <trkpt lat="45.7819" lon="5.75544">
        <ele>413</ele>
        <time>2020-05-31T09:51:39.492Z</time>
      </trkpt>
      <trkpt lat="45.78191" lon="5.75543">
        <ele>413</ele>
        <time>2020-05-31T09:51:44.492Z</time>
      </trkpt>
      <trkpt lat="45.782" lon="5.7553">
        <ele>413</ele>
        <time>2020-05-31T09:51:49.476Z</time>
      </trkpt>
      <trkpt lat="45.78208" lon="5.75516">
        <ele>413</ele>
        <time>2020-05-31T09:51:54.488Z</time>
      </trkpt>
      <trkpt lat="45.78214" lon="5.75511">
        <ele>413</ele>
        <time>2020-05-31T09:51:59.492Z</time>
      </trkpt>
      <trkpt lat="45.78222" lon="5.755">
        <ele>413</ele>
        <time>2020-05-31T09:52:04.481Z</time>
      </trkpt>
      <trkpt lat="45.78239" lon="5.75476">
        <ele>415</ele>
        <time>2020-05-31T09:52:09.492Z</time>
      </trkpt>
      <trkpt lat="45.7826" lon="5.75452">
        <ele>417</ele>
        <time>2020-05-31T09:52:14.478Z</time>
      </trkpt>
      <trkpt lat="45.78269" lon="5.7544">
        <ele>417</ele>
        <time>2020-05-31T09:52:19.497Z</time>
      </trkpt>
      <trkpt lat="45.78278" lon="5.75427">
        <ele>417</ele>
        <time>2020-05-31T09:52:24.470Z</time>
      </trkpt>
      <trkpt lat="45.78287" lon="5.75412">
        <ele>417</ele>
        <time>2020-05-31T09:52:29.480Z</time>
      </trkpt>
      <trkpt lat="45.78291" lon="5.75402">
        <ele>416</ele>
        <time>2020-05-31T09:52:33.472Z</time>
      </trkpt>
      <trkpt lat="45.78294" lon="5.75391">
        <ele>416</ele>
        <time>2020-05-31T09:52:38.504Z</time>
      </trkpt>
      <trkpt lat="45.78298" lon="5.75382">
        <ele>416</ele>
        <time>2020-05-31T09:52:42.481Z</time>
      </trkpt>
      <trkpt lat="45.78299" lon="5.75371">
        <ele>414</ele>
        <time>2020-05-31T09:52:47.493Z</time>
      </trkpt>
      <trkpt lat="45.78299" lon="5.75358">
        <ele>414</ele>
        <time>2020-05-31T09:52:52.489Z</time>
      </trkpt>
      <trkpt lat="45.783" lon="5.75347">
        <ele>413</ele>
        <time>2020-05-31T09:52:57.491Z</time>
      </trkpt>
      <trkpt lat="45.783" lon="5.75337">
        <ele>413</ele>
        <time>2020-05-31T09:53:02.494Z</time>
      </trkpt>
      <trkpt lat="45.78299" lon="5.75329">
        <ele>413</ele>
        <time>2020-05-31T09:53:06.495Z</time>
      </trkpt>
      <trkpt lat="45.78299" lon="5.75321">
        <ele>413</ele>
        <time>2020-05-31T09:53:11.486Z</time>
      </trkpt>
      <trkpt lat="45.78299" lon="5.75314">
        <ele>413</ele>
        <time>2020-05-31T09:53:16.491Z</time>
      </trkpt>
      <trkpt lat="45.78297" lon="5.75303">
        <ele>413</ele>
        <time>2020-05-31T09:53:21.489Z</time>
      </trkpt>
      <trkpt lat="45.78298" lon="5.75295">
        <ele>413</ele>
        <time>2020-05-31T09:53:26.500Z</time>
      </trkpt>
      <trkpt lat="45.78297" lon="5.75289">
        <ele>414</ele>
        <time>2020-05-31T09:53:30.481Z</time>
      </trkpt>
      <trkpt lat="45.78294" lon="5.75282">
        <ele>414</ele>
        <time>2020-05-31T09:53:35.496Z</time>
      </trkpt>
      <trkpt lat="45.7829" lon="5.75275">
        <ele>413</ele>
        <time>2020-05-31T09:53:40.499Z</time>
      </trkpt>
      <trkpt lat="45.78288" lon="5.7527">
        <ele>413</ele>
        <time>2020-05-31T09:53:45.496Z</time>
      </trkpt>
      <trkpt lat="45.78286" lon="5.75264">
        <ele>413</ele>
        <time>2020-05-31T09:53:50.484Z</time>
      </trkpt>
      <trkpt lat="45.78285" lon="5.75261">
        <ele>412</ele>
        <time>2020-05-31T09:53:55.486Z</time>
      </trkpt>
      <trkpt lat="45.7828" lon="5.75254">
        <ele>412</ele>
        <time>2020-05-31T09:53:59.492Z</time>
      </trkpt>
      <trkpt lat="45.78275" lon="5.75245">
        <ele>412</ele>
        <time>2020-05-31T09:54:04.494Z</time>
      </trkpt>
      <trkpt lat="45.78269" lon="5.7524">
        <ele>412</ele>
        <time>2020-05-31T09:54:09.478Z</time>
      </trkpt>
      <trkpt lat="45.78263" lon="5.75233">
        <ele>414</ele>
        <time>2020-05-31T09:54:14.484Z</time>
      </trkpt>
      <trkpt lat="45.78259" lon="5.75229">
        <ele>414</ele>
        <time>2020-05-31T09:54:19.488Z</time>
      </trkpt>
      <trkpt lat="45.78254" lon="5.75225">
        <ele>414</ele>
        <time>2020-05-31T09:54:24.455Z</time>
      </trkpt>
      <trkpt lat="45.78248" lon="5.7522">
        <ele>414</ele>
        <time>2020-05-31T09:54:28.545Z</time>
      </trkpt>
      <trkpt lat="45.78237" lon="5.75215">
        <ele>414</ele>
        <time>2020-05-31T09:54:33.493Z</time>
      </trkpt>
      <trkpt lat="45.78233" lon="5.75214">
        <ele>416</ele>
        <time>2020-05-31T09:54:37.508Z</time>
      </trkpt>
      <trkpt lat="45.78221" lon="5.75211">
        <ele>416</ele>
        <time>2020-05-31T09:54:42.480Z</time>
      </trkpt>
      <trkpt lat="45.78214" lon="5.7521">
        <ele>416</ele>
        <time>2020-05-31T09:54:47.491Z</time>
      </trkpt>
      <trkpt lat="45.78207" lon="5.75209">
        <ele>417</ele>
        <time>2020-05-31T09:54:52.490Z</time>
      </trkpt>
      <trkpt lat="45.78195" lon="5.75212">
        <ele>417</ele>
        <time>2020-05-31T09:54:57.489Z</time>
      </trkpt>
      <trkpt lat="45.78182" lon="5.75207">
        <ele>414</ele>
        <time>2020-05-31T09:55:02.470Z</time>
      </trkpt>
      <trkpt lat="45.78175" lon="5.75205">
        <ele>415</ele>
        <time>2020-05-31T09:55:06.496Z</time>
      </trkpt>
      <trkpt lat="45.78166" lon="5.75203">
        <ele>415</ele>
        <time>2020-05-31T09:55:11.496Z</time>
      </trkpt>
      <trkpt lat="45.78157" lon="5.75202">
        <ele>415</ele>
        <time>2020-05-31T09:55:16.489Z</time>
      </trkpt>
      <trkpt lat="45.78151" lon="5.75202">
        <ele>414</ele>
        <time>2020-05-31T09:55:21.495Z</time>
      </trkpt>
      <trkpt lat="45.78145" lon="5.75203">
        <ele>414</ele>
        <time>2020-05-31T09:55:25.486Z</time>
      </trkpt>
      <trkpt lat="45.78138" lon="5.75207">
        <ele>414</ele>
        <time>2020-05-31T09:55:30.474Z</time>
      </trkpt>
      <trkpt lat="45.78133" lon="5.75208">
        <ele>414</ele>
        <time>2020-05-31T09:55:34.487Z</time>
      </trkpt>
      <trkpt lat="45.78128" lon="5.75209">
        <ele>416</ele>
        <time>2020-05-31T09:55:39.491Z</time>
      </trkpt>
      <trkpt lat="45.78123" lon="5.75211">
        <ele>411</ele>
        <time>2020-05-31T09:55:43.491Z</time>
      </trkpt>
      <trkpt lat="45.78117" lon="5.75214">
        <ele>411</ele>
        <time>2020-05-31T09:55:48.477Z</time>
      </trkpt>
      <trkpt lat="45.78113" lon="5.75217">
        <ele>411</ele>
        <time>2020-05-31T09:55:53.473Z</time>
      </trkpt>
      <trkpt lat="45.78105" lon="5.7522">
        <ele>411</ele>
        <time>2020-05-31T09:55:57.501Z</time>
      </trkpt>
      <trkpt lat="45.78097" lon="5.75222">
        <ele>408</ele>
        <time>2020-05-31T09:56:02.503Z</time>
      </trkpt>
      <trkpt lat="45.7809" lon="5.75227">
        <ele>408</ele>
        <time>2020-05-31T09:56:06.551Z</time>
      </trkpt>
      <trkpt lat="45.78083" lon="5.7523">
        <ele>408</ele>
        <time>2020-05-31T09:56:11.478Z</time>
      </trkpt>
      <trkpt lat="45.78078" lon="5.75228">
        <ele>408</ele>
        <time>2020-05-31T09:56:16.486Z</time>
      </trkpt>
      <trkpt lat="45.78071" lon="5.75225">
        <ele>408</ele>
        <time>2020-05-31T09:56:21.454Z</time>
      </trkpt>
      <trkpt lat="45.78066" lon="5.75222">
        <ele>402</ele>
        <time>2020-05-31T09:56:25.497Z</time>
      </trkpt>
      <trkpt lat="45.78059" lon="5.75221">
        <ele>402</ele>
        <time>2020-05-31T09:56:30.482Z</time>
      </trkpt>
      <trkpt lat="45.78052" lon="5.75217">
        <ele>402</ele>
        <time>2020-05-31T09:56:35.496Z</time>
      </trkpt>
      <trkpt lat="45.78041" lon="5.75214">
        <ele>398</ele>
        <time>2020-05-31T09:56:40.491Z</time>
      </trkpt>
      <trkpt lat="45.78031" lon="5.75215">
        <ele>398</ele>
        <time>2020-05-31T09:56:45.490Z</time>
      </trkpt>
      <trkpt lat="45.78024" lon="5.75216">
        <ele>398</ele>
        <time>2020-05-31T09:56:50.487Z</time>
      </trkpt>
      <trkpt lat="45.78017" lon="5.75218">
        <ele>398</ele>
        <time>2020-05-31T09:56:55.490Z</time>
      </trkpt>
      <trkpt lat="45.78015" lon="5.7522">
        <ele>398</ele>
        <time>2020-05-31T09:56:59.478Z</time>
      </trkpt>
      <trkpt lat="45.78009" lon="5.75227">
        <ele>401</ele>
        <time>2020-05-31T09:57:04.503Z</time>
      </trkpt>
      <trkpt lat="45.78002" lon="5.75236">
        <ele>397</ele>
        <time>2020-05-31T09:57:09.493Z</time>
      </trkpt>
      <trkpt lat="45.77995" lon="5.75244">
        <ele>397</ele>
        <time>2020-05-31T09:57:14.498Z</time>
      </trkpt>
      <trkpt lat="45.77989" lon="5.75249">
        <ele>397</ele>
        <time>2020-05-31T09:57:19.515Z</time>
      </trkpt>
      <trkpt lat="45.77985" lon="5.75257">
        <ele>400</ele>
        <time>2020-05-31T09:57:24.497Z</time>
      </trkpt>
      <trkpt lat="45.7798" lon="5.75265">
        <ele>396</ele>
        <time>2020-05-31T09:57:29.488Z</time>
      </trkpt>
      <trkpt lat="45.77977" lon="5.75273">
        <ele>396</ele>
        <time>2020-05-31T09:57:33.494Z</time>
      </trkpt>
      <trkpt lat="45.77971" lon="5.75286">
        <ele>396</ele>
        <time>2020-05-31T09:57:38.499Z</time>
      </trkpt>
      <trkpt lat="45.77965" lon="5.75296">
        <ele>393</ele>
        <time>2020-05-31T09:57:43.486Z</time>
      </trkpt>
      <trkpt lat="45.77962" lon="5.75301">
        <ele>393</ele>
        <time>2020-05-31T09:57:47.491Z</time>
      </trkpt>
      <trkpt lat="45.77958" lon="5.75312">
        <ele>393</ele>
        <time>2020-05-31T09:57:52.552Z</time>
      </trkpt>
      <trkpt lat="45.77955" lon="5.75324">
        <ele>386</ele>
        <time>2020-05-31T09:57:57.499Z</time>
      </trkpt>
      <trkpt lat="45.7795" lon="5.75335">
        <ele>386</ele>
        <time>2020-05-31T09:58:02.492Z</time>
      </trkpt>
      <trkpt lat="45.77946" lon="5.75342">
        <ele>386</ele>
        <time>2020-05-31T09:58:07.487Z</time>
      </trkpt>
      <trkpt lat="45.77945" lon="5.75347">
        <ele>386</ele>
        <time>2020-05-31T09:58:11.508Z</time>
      </trkpt>
      <trkpt lat="45.77942" lon="5.7535">
        <ele>384</ele>
        <time>2020-05-31T09:58:16.496Z</time>
      </trkpt>
      <trkpt lat="45.77939" lon="5.75353">
        <ele>384</ele>
        <time>2020-05-31T09:58:21.487Z</time>
      </trkpt>
      <trkpt lat="45.77936" lon="5.75353">
        <ele>384</ele>
        <time>2020-05-31T09:58:26.512Z</time>
      </trkpt>
      <trkpt lat="45.77929" lon="5.75355">
        <ele>385</ele>
        <time>2020-05-31T09:58:31.473Z</time>
      </trkpt>
      <trkpt lat="45.77924" lon="5.75358">
        <ele>385</ele>
        <time>2020-05-31T09:58:36.495Z</time>
      </trkpt>
      <trkpt lat="45.77917" lon="5.75359">
        <ele>385</ele>
        <time>2020-05-31T09:58:41.485Z</time>
      </trkpt>
      <trkpt lat="45.77912" lon="5.75359">
        <ele>385</ele>
        <time>2020-05-31T09:58:45.491Z</time>
      </trkpt>
      <trkpt lat="45.77905" lon="5.7536">
        <ele>385</ele>
        <time>2020-05-31T09:58:50.508Z</time>
      </trkpt>
      <trkpt lat="45.77899" lon="5.75361">
        <ele>386</ele>
        <time>2020-05-31T09:58:54.505Z</time>
      </trkpt>
      <trkpt lat="45.77891" lon="5.75363">
        <ele>386</ele>
        <time>2020-05-31T09:58:59.497Z</time>
      </trkpt>
      <trkpt lat="45.77885" lon="5.75364">
        <ele>386</ele>
        <time>2020-05-31T09:59:04.498Z</time>
      </trkpt>
      <trkpt lat="45.7788" lon="5.75366">
        <ele>386</ele>
        <time>2020-05-31T09:59:08.502Z</time>
      </trkpt>
      <trkpt lat="45.77872" lon="5.75368">
        <ele>384</ele>
        <time>2020-05-31T09:59:13.492Z</time>
      </trkpt>
      <trkpt lat="45.77866" lon="5.75367">
        <ele>384</ele>
        <time>2020-05-31T09:59:17.495Z</time>
      </trkpt>
      <trkpt lat="45.7786" lon="5.75367">
        <ele>384</ele>
        <time>2020-05-31T09:59:22.498Z</time>
      </trkpt>
      <trkpt lat="45.77857" lon="5.75367">
        <ele>384</ele>
        <time>2020-05-31T09:59:27.487Z</time>
      </trkpt>
      <trkpt lat="45.77854" lon="5.75368">
        <ele>384</ele>
        <time>2020-05-31T09:59:32.485Z</time>
      </trkpt>
      <trkpt lat="45.77846" lon="5.75366">
        <ele>380</ele>
        <time>2020-05-31T09:59:37.505Z</time>
      </trkpt>
      <trkpt lat="45.77839" lon="5.75364">
        <ele>380</ele>
        <time>2020-05-31T09:59:42.494Z</time>
      </trkpt>
      <trkpt lat="45.77834" lon="5.7536">
        <ele>380</ele>
        <time>2020-05-31T09:59:47.482Z</time>
      </trkpt>
      <trkpt lat="45.77832" lon="5.75358">
        <ele>380</ele>
        <time>2020-05-31T09:59:51.511Z</time>
      </trkpt>
      <trkpt lat="45.77829" lon="5.7535">
        <ele>380</ele>
        <time>2020-05-31T09:59:56.489Z</time>
      </trkpt>
      <trkpt lat="45.77833" lon="5.75344">
        <ele>382</ele>
        <time>2020-05-31T10:00:01.550Z</time>
      </trkpt>
      <trkpt lat="45.7784" lon="5.75338">
        <ele>382</ele>
        <time>2020-05-31T10:00:06.507Z</time>
      </trkpt>
      <trkpt lat="45.77845" lon="5.75333">
        <ele>382</ele>
        <time>2020-05-31T10:00:11.489Z</time>
      </trkpt>
      <trkpt lat="45.77848" lon="5.75326">
        <ele>386</ele>
        <time>2020-05-31T10:00:16.483Z</time>
      </trkpt>
      <trkpt lat="45.77851" lon="5.75318">
        <ele>386</ele>
        <time>2020-05-31T10:00:21.454Z</time>
      </trkpt>
      <trkpt lat="45.77853" lon="5.75311">
        <ele>386</ele>
        <time>2020-05-31T10:00:25.538Z</time>
      </trkpt>
      <trkpt lat="45.77856" lon="5.75304">
        <ele>386</ele>
        <time>2020-05-31T10:00:30.510Z</time>
      </trkpt>
      <trkpt lat="45.7786" lon="5.75294">
        <ele>386</ele>
        <time>2020-05-31T10:00:35.498Z</time>
      </trkpt>
      <trkpt lat="45.77863" lon="5.75289">
        <ele>386</ele>
        <time>2020-05-31T10:00:40.485Z</time>
      </trkpt>
      <trkpt lat="45.77866" lon="5.75281">
        <ele>386</ele>
        <time>2020-05-31T10:00:45.497Z</time>
      </trkpt>
      <trkpt lat="45.77866" lon="5.75275">
        <ele>386</ele>
        <time>2020-05-31T10:00:50.506Z</time>
      </trkpt>
      <trkpt lat="45.77868" lon="5.75267">
        <ele>386</ele>
        <time>2020-05-31T10:00:55.510Z</time>
      </trkpt>
      <trkpt lat="45.7787" lon="5.75259">
        <ele>389</ele>
        <time>2020-05-31T10:01:00.493Z</time>
      </trkpt>
      <trkpt lat="45.77871" lon="5.75251">
        <ele>389</ele>
        <time>2020-05-31T10:01:05.459Z</time>
      </trkpt>
      <trkpt lat="45.77875" lon="5.75244">
        <ele>389</ele>
        <time>2020-05-31T10:01:09.509Z</time>
      </trkpt>
      <trkpt lat="45.77878" lon="5.75235">
        <ele>401</ele>
        <time>2020-05-31T10:01:14.503Z</time>
      </trkpt>
      <trkpt lat="45.7788" lon="5.75227">
        <ele>401</ele>
        <time>2020-05-31T10:01:19.514Z</time>
      </trkpt>
      <trkpt lat="45.77883" lon="5.75219">
        <ele>401</ele>
        <time>2020-05-31T10:01:24.487Z</time>
      </trkpt>
      <trkpt lat="45.77884" lon="5.75209">
        <ele>401</ele>
        <time>2020-05-31T10:01:29.507Z</time>
      </trkpt>
      <trkpt lat="45.77886" lon="5.75201">
        <ele>405</ele>
        <time>2020-05-31T10:01:34.489Z</time>
      </trkpt>
      <trkpt lat="45.77888" lon="5.75191">
        <ele>405</ele>
        <time>2020-05-31T10:01:38.503Z</time>
      </trkpt>
      <trkpt lat="45.77889" lon="5.75187">
        <ele>405</ele>
        <time>2020-05-31T10:01:42.505Z</time>
      </trkpt>
      <trkpt lat="45.77892" lon="5.75179">
        <ele>408</ele>
        <time>2020-05-31T10:01:47.499Z</time>
      </trkpt>
      <trkpt lat="45.77894" lon="5.7517">
        <ele>408</ele>
        <time>2020-05-31T10:01:52.506Z</time>
      </trkpt>
      <trkpt lat="45.77894" lon="5.7516">
        <ele>408</ele>
        <time>2020-05-31T10:01:57.495Z</time>
      </trkpt>
      <trkpt lat="45.77896" lon="5.7515">
        <ele>411</ele>
        <time>2020-05-31T10:02:02.480Z</time>
      </trkpt>
      <trkpt lat="45.77899" lon="5.75145">
        <ele>411</ele>
        <time>2020-05-31T10:02:06.557Z</time>
      </trkpt>
      <trkpt lat="45.77903" lon="5.75138">
        <ele>412</ele>
        <time>2020-05-31T10:02:11.502Z</time>
      </trkpt>
      <trkpt lat="45.77908" lon="5.75129">
        <ele>412</ele>
        <time>2020-05-31T10:02:16.497Z</time>
      </trkpt>
      <trkpt lat="45.77912" lon="5.7512">
        <ele>415</ele>
        <time>2020-05-31T10:02:21.501Z</time>
      </trkpt>
      <trkpt lat="45.77916" lon="5.75109">
        <ele>415</ele>
        <time>2020-05-31T10:02:26.500Z</time>
      </trkpt>
      <trkpt lat="45.77922" lon="5.75098">
        <ele>415</ele>
        <time>2020-05-31T10:02:31.512Z</time>
      </trkpt>
      <trkpt lat="45.77927" lon="5.75094">
        <ele>421</ele>
        <time>2020-05-31T10:02:36.465Z</time>
      </trkpt>
      <trkpt lat="45.7793" lon="5.75089">
        <ele>421</ele>
        <time>2020-05-31T10:02:40.486Z</time>
      </trkpt>
      <trkpt lat="45.77934" lon="5.75082">
        <ele>424</ele>
        <time>2020-05-31T10:02:45.499Z</time>
      </trkpt>
      <trkpt lat="45.77939" lon="5.75078">
        <ele>424</ele>
        <time>2020-05-31T10:02:50.468Z</time>
      </trkpt>
      <trkpt lat="45.77945" lon="5.75072">
        <ele>424</ele>
        <time>2020-05-31T10:02:54.498Z</time>
      </trkpt>
      <trkpt lat="45.77952" lon="5.75066">
        <ele>429</ele>
        <time>2020-05-31T10:02:59.488Z</time>
      </trkpt>
      <trkpt lat="45.77959" lon="5.7506">
        <ele>431</ele>
        <time>2020-05-31T10:03:04.503Z</time>
      </trkpt>
      <trkpt lat="45.77965" lon="5.75056">
        <ele>431</ele>
        <time>2020-05-31T10:03:09.500Z</time>
      </trkpt>
      <trkpt lat="45.77969" lon="5.75051">
        <ele>431</ele>
        <time>2020-05-31T10:03:14.480Z</time>
      </trkpt>
      <trkpt lat="45.77973" lon="5.75048">
        <ele>431</ele>
        <time>2020-05-31T10:03:18.505Z</time>
      </trkpt>
      <trkpt lat="45.77977" lon="5.75043">
        <ele>431</ele>
        <time>2020-05-31T10:03:23.501Z</time>
      </trkpt>
      <trkpt lat="45.77983" lon="5.75035">
        <ele>437</ele>
        <time>2020-05-31T10:03:28.494Z</time>
      </trkpt>
      <trkpt lat="45.77988" lon="5.7503">
        <ele>435</ele>
        <time>2020-05-31T10:03:33.494Z</time>
      </trkpt>
      <trkpt lat="45.77992" lon="5.75026">
        <ele>435</ele>
        <time>2020-05-31T10:03:38.482Z</time>
      </trkpt>
      <trkpt lat="45.77998" lon="5.75019">
        <ele>435</ele>
        <time>2020-05-31T10:03:43.491Z</time>
      </trkpt>
      <trkpt lat="45.78002" lon="5.75016">
        <ele>435</ele>
        <time>2020-05-31T10:03:47.511Z</time>
      </trkpt>
      <trkpt lat="45.78006" lon="5.75012">
        <ele>440</ele>
        <time>2020-05-31T10:03:52.504Z</time>
      </trkpt>
      <trkpt lat="45.78011" lon="5.75009">
        <ele>440</ele>
        <time>2020-05-31T10:03:57.488Z</time>
      </trkpt>
      <trkpt lat="45.78019" lon="5.75002">
        <ele>439</ele>
        <time>2020-05-31T10:04:02.491Z</time>
      </trkpt>
      <trkpt lat="45.78022" lon="5.74998">
        <ele>439</ele>
        <time>2020-05-31T10:04:07.504Z</time>
      </trkpt>
      <trkpt lat="45.78028" lon="5.74995">
        <ele>439</ele>
        <time>2020-05-31T10:04:12.491Z</time>
      </trkpt>
      <trkpt lat="45.78037" lon="5.74988">
        <ele>439</ele>
        <time>2020-05-31T10:04:17.510Z</time>
      </trkpt>
      <trkpt lat="45.78046" lon="5.74979">
        <ele>449</ele>
        <time>2020-05-31T10:04:22.495Z</time>
      </trkpt>
      <trkpt lat="45.78053" lon="5.74971">
        <ele>449</ele>
        <time>2020-05-31T10:04:27.504Z</time>
      </trkpt>
      <trkpt lat="45.78053" lon="5.7497">
        <ele>449</ele>
        <time>2020-05-31T10:04:32.492Z</time>
      </trkpt>
      <trkpt lat="45.78057" lon="5.74966">
        <ele>449</ele>
        <time>2020-05-31T10:04:37.507Z</time>
      </trkpt>
      <trkpt lat="45.78063" lon="5.74958">
        <ele>449</ele>
        <time>2020-05-31T10:04:42.487Z</time>
      </trkpt>
      <trkpt lat="45.78068" lon="5.7495">
        <ele>455</ele>
        <time>2020-05-31T10:04:47.514Z</time>
      </trkpt>
      <trkpt lat="45.78072" lon="5.74944">
        <ele>459</ele>
        <time>2020-05-31T10:04:51.505Z</time>
      </trkpt>
      <trkpt lat="45.78077" lon="5.74935">
        <ele>459</ele>
        <time>2020-05-31T10:04:56.496Z</time>
      </trkpt>
      <trkpt lat="45.78084" lon="5.74926">
        <ele>461</ele>
        <time>2020-05-31T10:05:01.505Z</time>
      </trkpt>
      <trkpt lat="45.7809" lon="5.74915">
        <ele>461</ele>
        <time>2020-05-31T10:05:06.515Z</time>
      </trkpt>
      <trkpt lat="45.78095" lon="5.74905">
        <ele>461</ele>
        <time>2020-05-31T10:05:11.491Z</time>
      </trkpt>
      <trkpt lat="45.781" lon="5.74899">
        <ele>468</ele>
        <time>2020-05-31T10:05:16.485Z</time>
      </trkpt>
      <trkpt lat="45.78103" lon="5.74896">
        <ele>468</ele>
        <time>2020-05-31T10:05:20.531Z</time>
      </trkpt>
      <trkpt lat="45.78107" lon="5.7489">
        <ele>468</ele>
        <time>2020-05-31T10:05:25.514Z</time>
      </trkpt>
      <trkpt lat="45.78114" lon="5.74881">
        <ele>468</ele>
        <time>2020-05-31T10:05:30.492Z</time>
      </trkpt>
      <trkpt lat="45.78119" lon="5.74876">
        <ele>468</ele>
        <time>2020-05-31T10:05:35.506Z</time>
      </trkpt>
      <trkpt lat="45.78123" lon="5.74874">
        <ele>469</ele>
        <time>2020-05-31T10:05:39.487Z</time>
      </trkpt>
      <trkpt lat="45.78128" lon="5.74872">
        <ele>472</ele>
        <time>2020-05-31T10:05:44.492Z</time>
      </trkpt>
      <trkpt lat="45.78134" lon="5.7487">
        <ele>472</ele>
        <time>2020-05-31T10:05:49.487Z</time>
      </trkpt>
      <trkpt lat="45.78139" lon="5.74867">
        <ele>472</ele>
        <time>2020-05-31T10:05:54.489Z</time>
      </trkpt>
      <trkpt lat="45.78143" lon="5.74867">
        <ele>472</ele>
        <time>2020-05-31T10:05:58.509Z</time>
      </trkpt>
      <trkpt lat="45.78147" lon="5.74866">
        <ele>472</ele>
        <time>2020-05-31T10:06:03.514Z</time>
      </trkpt>
      <trkpt lat="45.78151" lon="5.74864">
        <ele>472</ele>
        <time>2020-05-31T10:06:07.490Z</time>
      </trkpt>
      <trkpt lat="45.78156" lon="5.74863">
        <ele>476</ele>
        <time>2020-05-31T10:06:12.486Z</time>
      </trkpt>
      <trkpt lat="45.78159" lon="5.7486">
        <ele>476</ele>
        <time>2020-05-31T10:06:16.505Z</time>
      </trkpt>
      <trkpt lat="45.78163" lon="5.74857">
        <ele>476</ele>
        <time>2020-05-31T10:06:21.509Z</time>
      </trkpt>
      <trkpt lat="45.78168" lon="5.74853">
        <ele>476</ele>
        <time>2020-05-31T10:06:26.482Z</time>
      </trkpt>
      <trkpt lat="45.7817" lon="5.74852">
        <ele>476</ele>
        <time>2020-05-31T10:06:30.500Z</time>
      </trkpt>
      <trkpt lat="45.78176" lon="5.74852">
        <ele>476</ele>
        <time>2020-05-31T10:06:35.512Z</time>
      </trkpt>
      <trkpt lat="45.78182" lon="5.7485">
        <ele>478</ele>
        <time>2020-05-31T10:06:40.486Z</time>
      </trkpt>
      <trkpt lat="45.78186" lon="5.74849">
        <ele>478</ele>
        <time>2020-05-31T10:06:44.492Z</time>
      </trkpt>
      <trkpt lat="45.78192" lon="5.74848">
        <ele>478</ele>
        <time>2020-05-31T10:06:49.554Z</time>
      </trkpt>
      <trkpt lat="45.78194" lon="5.74848">
        <ele>478</ele>
        <time>2020-05-31T10:06:54.496Z</time>
      </trkpt>
      <trkpt lat="45.78199" lon="5.74847">
        <ele>478</ele>
        <time>2020-05-31T10:06:58.479Z</time>
      </trkpt>
      <trkpt lat="45.78205" lon="5.74847">
        <ele>478</ele>
        <time>2020-05-31T10:07:03.508Z</time>
      </trkpt>
      <trkpt lat="45.78209" lon="5.74845">
        <ele>466</ele>
        <time>2020-05-31T10:07:08.502Z</time>
      </trkpt>
      <trkpt lat="45.78216" lon="5.74843">
        <ele>466</ele>
        <time>2020-05-31T10:07:13.484Z</time>
      </trkpt>
      <trkpt lat="45.78218" lon="5.74842">
        <ele>466</ele>
        <time>2020-05-31T10:07:18.505Z</time>
      </trkpt>
      <trkpt lat="45.78223" lon="5.74842">
        <ele>466</ele>
        <time>2020-05-31T10:07:23.496Z</time>
      </trkpt>
      <trkpt lat="45.78229" lon="5.74841">
        <ele>466</ele>
        <time>2020-05-31T10:07:28.497Z</time>
      </trkpt>
      <trkpt lat="45.7823" lon="5.74842">
        <ele>466</ele>
        <time>2020-05-31T10:07:33.486Z</time>
      </trkpt>
      <trkpt lat="45.78234" lon="5.74842">
        <ele>466</ele>
        <time>2020-05-31T10:07:38.502Z</time>
      </trkpt>
      <trkpt lat="45.7824" lon="5.7484">
        <ele>459</ele>
        <time>2020-05-31T10:07:43.505Z</time>
      </trkpt>
      <trkpt lat="45.78243" lon="5.74837">
        <ele>459</ele>
        <time>2020-05-31T10:07:48.495Z</time>
      </trkpt>
      <trkpt lat="45.78243" lon="5.74837">
        <ele>459</ele>
        <time>2020-05-31T10:07:53.501Z</time>
      </trkpt>
      <trkpt lat="45.78243" lon="5.74838">
        <ele>459</ele>
        <time>2020-05-31T10:07:58.491Z</time>
      </trkpt>
      <trkpt lat="45.78246" lon="5.74837">
        <ele>459</ele>
        <time>2020-05-31T10:08:03.489Z</time>
      </trkpt>
      <trkpt lat="45.7825" lon="5.74835">
        <ele>459</ele>
        <time>2020-05-31T10:08:08.491Z</time>
      </trkpt>
      <trkpt lat="45.78253" lon="5.74834">
        <ele>459</ele>
        <time>2020-05-31T10:08:13.499Z</time>
      </trkpt>
      <trkpt lat="45.78255" lon="5.74834">
        <ele>459</ele>
        <time>2020-05-31T10:08:18.496Z</time>
      </trkpt>
      <trkpt lat="45.78256" lon="5.74833">
        <ele>459</ele>
        <time>2020-05-31T10:08:22.486Z</time>
      </trkpt>
      <trkpt lat="45.78258" lon="5.74831">
        <ele>459</ele>
        <time>2020-05-31T10:08:27.489Z</time>
      </trkpt>
      <trkpt lat="45.78261" lon="5.74827">
        <ele>459</ele>
        <time>2020-05-31T10:08:32.502Z</time>
      </trkpt>
      <trkpt lat="45.78264" lon="5.74822">
        <ele>454</ele>
        <time>2020-05-31T10:08:37.508Z</time>
      </trkpt>
      <trkpt lat="45.78269" lon="5.74816">
        <ele>449</ele>
        <time>2020-05-31T10:08:47.500Z</time>
      </trkpt>
      <trkpt lat="45.78271" lon="5.74816">
        <ele>449</ele>
        <time>2020-05-31T10:08:52.489Z</time>
      </trkpt>
      <trkpt lat="45.78275" lon="5.74816">
        <ele>449</ele>
        <time>2020-05-31T10:08:57.486Z</time>
      </trkpt>
      <trkpt lat="45.78277" lon="5.74818">
        <ele>449</ele>
        <time>2020-05-31T10:09:01.503Z</time>
      </trkpt>
      <trkpt lat="45.78283" lon="5.74815">
        <ele>449</ele>
        <time>2020-05-31T10:09:06.502Z</time>
      </trkpt>
      <trkpt lat="45.78285" lon="5.74814">
        <ele>449</ele>
        <time>2020-05-31T10:09:11.495Z</time>
      </trkpt>
      <trkpt lat="45.78287" lon="5.74814">
        <ele>449</ele>
        <time>2020-05-31T10:09:15.556Z</time>
      </trkpt>
      <trkpt lat="45.7829" lon="5.7481">
        <ele>449</ele>
        <time>2020-05-31T10:09:20.511Z</time>
      </trkpt>
      <trkpt lat="45.78293" lon="5.74808">
        <ele>440</ele>
        <time>2020-05-31T10:09:25.488Z</time>
      </trkpt>
      <trkpt lat="45.78295" lon="5.74809">
        <ele>440</ele>
        <time>2020-05-31T10:09:30.504Z</time>
      </trkpt>
      <trkpt lat="45.78301" lon="5.74807">
        <ele>440</ele>
        <time>2020-05-31T10:09:35.482Z</time>
      </trkpt>
      <trkpt lat="45.78306" lon="5.74808">
        <ele>440</ele>
        <time>2020-05-31T10:09:40.490Z</time>
      </trkpt>
      <trkpt lat="45.7831" lon="5.74808">
        <ele>440</ele>
        <time>2020-05-31T10:09:44.541Z</time>
      </trkpt>
      <trkpt lat="45.78311" lon="5.74809">
        <ele>440</ele>
        <time>2020-05-31T10:09:49.498Z</time>
      </trkpt>
      <trkpt lat="45.78315" lon="5.74807">
        <ele>440</ele>
        <time>2020-05-31T10:09:59.478Z</time>
      </trkpt>
      <trkpt lat="45.78318" lon="5.74806">
        <ele>440</ele>
        <time>2020-05-31T10:10:04.495Z</time>
      </trkpt>
      <trkpt lat="45.78319" lon="5.74805">
        <ele>440</ele>
        <time>2020-05-31T10:10:09.489Z</time>
      </trkpt>
      <trkpt lat="45.78322" lon="5.74805">
        <ele>431</ele>
        <time>2020-05-31T10:10:14.488Z</time>
      </trkpt>
      <trkpt lat="45.78325" lon="5.74805">
        <ele>431</ele>
        <time>2020-05-31T10:10:19.483Z</time>
      </trkpt>
      <trkpt lat="45.78326" lon="5.74804">
        <ele>431</ele>
        <time>2020-05-31T10:10:24.507Z</time>
      </trkpt>
      <trkpt lat="45.78328" lon="5.74802">
        <ele>431</ele>
        <time>2020-05-31T10:10:29.481Z</time>
      </trkpt>
      <trkpt lat="45.7833" lon="5.74795">
        <ele>431</ele>
        <time>2020-05-31T10:10:34.500Z</time>
      </trkpt>
      <trkpt lat="45.78332" lon="5.74794">
        <ele>431</ele>
        <time>2020-05-31T10:10:38.576Z</time>
      </trkpt>
      <trkpt lat="45.78335" lon="5.74793">
        <ele>431</ele>
        <time>2020-05-31T10:10:43.482Z</time>
      </trkpt>
      <trkpt lat="45.78337" lon="5.74794">
        <ele>431</ele>
        <time>2020-05-31T10:10:47.497Z</time>
      </trkpt>
      <trkpt lat="45.78339" lon="5.74795">
        <ele>431</ele>
        <time>2020-05-31T10:10:52.486Z</time>
      </trkpt>
      <trkpt lat="45.78341" lon="5.74795">
        <ele>431</ele>
        <time>2020-05-31T10:10:56.499Z</time>
      </trkpt>
      <trkpt lat="45.78344" lon="5.74796">
        <ele>431</ele>
        <time>2020-05-31T10:11:01.505Z</time>
      </trkpt>
      <trkpt lat="45.78347" lon="5.74798">
        <ele>431</ele>
        <time>2020-05-31T10:11:06.492Z</time>
      </trkpt>
      <trkpt lat="45.78349" lon="5.748">
        <ele>422</ele>
        <time>2020-05-31T10:11:11.470Z</time>
      </trkpt>
      <trkpt lat="45.78351" lon="5.748">
        <ele>422</ele>
        <time>2020-05-31T10:11:15.487Z</time>
      </trkpt>
      <trkpt lat="45.78355" lon="5.74801">
        <ele>422</ele>
        <time>2020-05-31T10:11:20.486Z</time>
      </trkpt>
      <trkpt lat="45.78358" lon="5.748">
        <ele>422</ele>
        <time>2020-05-31T10:11:24.546Z</time>
      </trkpt>
      <trkpt lat="45.78365" lon="5.74795">
        <ele>422</ele>
        <time>2020-05-31T10:11:34.483Z</time>
      </trkpt>
      <trkpt lat="45.78366" lon="5.74797">
        <ele>422</ele>
        <time>2020-05-31T10:11:39.483Z</time>
      </trkpt>
      <trkpt lat="45.78366" lon="5.748">
        <ele>422</ele>
        <time>2020-05-31T10:11:44.499Z</time>
      </trkpt>
      <trkpt lat="45.78369" lon="5.74804">
        <ele>422</ele>
        <time>2020-05-31T10:11:49.502Z</time>
      </trkpt>
      <trkpt lat="45.78371" lon="5.74807">
        <ele>422</ele>
        <time>2020-05-31T10:11:54.497Z</time>
      </trkpt>
      <trkpt lat="45.78373" lon="5.74812">
        <ele>422</ele>
        <time>2020-05-31T10:11:58.540Z</time>
      </trkpt>
      <trkpt lat="45.78373" lon="5.74815">
        <ele>422</ele>
        <time>2020-05-31T10:12:03.478Z</time>
      </trkpt>
      <trkpt lat="45.78375" lon="5.74818">
        <ele>413</ele>
        <time>2020-05-31T10:12:08.489Z</time>
      </trkpt>
      <trkpt lat="45.78377" lon="5.74823">
        <ele>425</ele>
        <time>2020-05-31T10:12:13.494Z</time>
      </trkpt>
      <trkpt lat="45.7838" lon="5.74826">
        <ele>425</ele>
        <time>2020-05-31T10:12:18.483Z</time>
      </trkpt>
      <trkpt lat="45.78383" lon="5.74827">
        <ele>425</ele>
        <time>2020-05-31T10:12:22.483Z</time>
      </trkpt>
      <trkpt lat="45.78386" lon="5.74828">
        <ele>425</ele>
        <time>2020-05-31T10:12:27.495Z</time>
      </trkpt>
      <trkpt lat="45.78389" lon="5.74827">
        <ele>425</ele>
        <time>2020-05-31T10:12:32.498Z</time>
      </trkpt>
      <trkpt lat="45.78393" lon="5.74822">
        <ele>425</ele>
        <time>2020-05-31T10:12:37.480Z</time>
      </trkpt>
      <trkpt lat="45.78393" lon="5.74811">
        <ele>413</ele>
        <time>2020-05-31T10:12:56.485Z</time>
      </trkpt>
      <trkpt lat="45.78394" lon="5.7481">
        <ele>413</ele>
        <time>2020-05-31T10:13:00.485Z</time>
      </trkpt>
      <trkpt lat="45.78395" lon="5.74808">
        <ele>413</ele>
        <time>2020-05-31T10:13:04.501Z</time>
      </trkpt>
      <trkpt lat="45.78398" lon="5.74806">
        <ele>413</ele>
        <time>2020-05-31T10:13:09.473Z</time>
      </trkpt>
      <trkpt lat="45.78398" lon="5.74804">
        <ele>413</ele>
        <time>2020-05-31T10:13:13.499Z</time>
      </trkpt>
      <trkpt lat="45.78401" lon="5.74802">
        <ele>413</ele>
        <time>2020-05-31T10:13:23.483Z</time>
      </trkpt>
      <trkpt lat="45.78402" lon="5.74799">
        <ele>413</ele>
        <time>2020-05-31T10:13:28.482Z</time>
      </trkpt>
      <trkpt lat="45.78402" lon="5.74797">
        <ele>413</ele>
        <time>2020-05-31T10:13:33.483Z</time>
      </trkpt>
      <trkpt lat="45.78404" lon="5.74794">
        <ele>403</ele>
        <time>2020-05-31T10:13:38.510Z</time>
      </trkpt>
      <trkpt lat="45.78405" lon="5.74793">
        <ele>403</ele>
        <time>2020-05-31T10:13:43.490Z</time>
      </trkpt>
      <trkpt lat="45.78406" lon="5.74792">
        <ele>403</ele>
        <time>2020-05-31T10:13:47.496Z</time>
      </trkpt>
      <trkpt lat="45.78409" lon="5.74787">
        <ele>395</ele>
        <time>2020-05-31T10:13:52.493Z</time>
      </trkpt>
      <trkpt lat="45.78411" lon="5.74784">
        <ele>395</ele>
        <time>2020-05-31T10:13:57.495Z</time>
      </trkpt>
      <trkpt lat="45.78414" lon="5.74781">
        <ele>395</ele>
        <time>2020-05-31T10:14:02.488Z</time>
      </trkpt>
      <trkpt lat="45.78427" lon="5.74768">
        <ele>395</ele>
        <time>2020-05-31T10:14:36.498Z</time>
      </trkpt>
      <trkpt lat="45.78427" lon="5.74767">
        <ele>395</ele>
        <time>2020-05-31T10:14:40.485Z</time>
      </trkpt>
      <trkpt lat="45.78428" lon="5.74766">
        <ele>395</ele>
        <time>2020-05-31T10:14:45.483Z</time>
      </trkpt>
      <trkpt lat="45.78429" lon="5.74765">
        <ele>395</ele>
        <time>2020-05-31T10:14:50.490Z</time>
      </trkpt>
      <trkpt lat="45.78429" lon="5.74765">
        <ele>395</ele>
        <time>2020-05-31T10:14:54.490Z</time>
      </trkpt>
      <trkpt lat="45.78432" lon="5.74769">
        <ele>383</ele>
        <time>2020-05-31T10:15:12.502Z</time>
      </trkpt>
      <trkpt lat="45.78432" lon="5.7477">
        <ele>383</ele>
        <time>2020-05-31T10:15:16.553Z</time>
      </trkpt>
      <trkpt lat="45.78434" lon="5.74773">
        <ele>383</ele>
        <time>2020-05-31T10:15:21.497Z</time>
      </trkpt>
      <trkpt lat="45.78435" lon="5.74777">
        <ele>383</ele>
        <time>2020-05-31T10:15:26.480Z</time>
      </trkpt>
      <trkpt lat="45.78435" lon="5.74782">
        <ele>383</ele>
        <time>2020-05-31T10:15:30.489Z</time>
      </trkpt>
      <trkpt lat="45.78436" lon="5.74784">
        <ele>383</ele>
        <time>2020-05-31T10:15:34.569Z</time>
      </trkpt>
      <trkpt lat="45.78437" lon="5.74785">
        <ele>383</ele>
        <time>2020-05-31T10:15:39.460Z</time>
      </trkpt>
      <trkpt lat="45.78438" lon="5.74788">
        <ele>383</ele>
        <time>2020-05-31T10:15:43.497Z</time>
      </trkpt>
      <trkpt lat="45.78441" lon="5.74792">
        <ele>383</ele>
        <time>2020-05-31T10:15:48.493Z</time>
      </trkpt>
      <trkpt lat="45.78444" lon="5.74796">
        <ele>390</ele>
        <time>2020-05-31T10:15:52.551Z</time>
      </trkpt>
      <trkpt lat="45.78447" lon="5.748">
        <ele>390</ele>
        <time>2020-05-31T10:15:57.488Z</time>
      </trkpt>
      <trkpt lat="45.78451" lon="5.74803">
        <ele>390</ele>
        <time>2020-05-31T10:16:02.477Z</time>
      </trkpt>
      <trkpt lat="45.78456" lon="5.74809">
        <ele>390</ele>
        <time>2020-05-31T10:16:06.496Z</time>
      </trkpt>
      <trkpt lat="45.78461" lon="5.74811">
        <ele>379</ele>
        <time>2020-05-31T10:16:11.486Z</time>
      </trkpt>
      <trkpt lat="45.78465" lon="5.74811">
        <ele>379</ele>
        <time>2020-05-31T10:16:16.485Z</time>
      </trkpt>
      <trkpt lat="45.78469" lon="5.74812">
        <ele>379</ele>
        <time>2020-05-31T10:16:21.553Z</time>
      </trkpt>
      <trkpt lat="45.78472" lon="5.74816">
        <ele>379</ele>
        <time>2020-05-31T10:16:26.493Z</time>
      </trkpt>
      <trkpt lat="45.78478" lon="5.74819">
        <ele>379</ele>
        <time>2020-05-31T10:16:31.491Z</time>
      </trkpt>
      <trkpt lat="45.78482" lon="5.74818">
        <ele>379</ele>
        <time>2020-05-31T10:16:36.487Z</time>
      </trkpt>
      <trkpt lat="45.78484" lon="5.74817">
        <ele>379</ele>
        <time>2020-05-31T10:16:41.497Z</time>
      </trkpt>
      <trkpt lat="45.78487" lon="5.74816">
        <ele>369</ele>
        <time>2020-05-31T10:16:46.503Z</time>
      </trkpt>
      <trkpt lat="45.78489" lon="5.7481">
        <ele>369</ele>
        <time>2020-05-31T10:16:51.479Z</time>
      </trkpt>
      <trkpt lat="45.78493" lon="5.74808">
        <ele>369</ele>
        <time>2020-05-31T10:16:55.491Z</time>
      </trkpt>
      <trkpt lat="45.78495" lon="5.74807">
        <ele>369</ele>
        <time>2020-05-31T10:17:00.488Z</time>
      </trkpt>
      <trkpt lat="45.78496" lon="5.74806">
        <ele>369</ele>
        <time>2020-05-31T10:17:05.484Z</time>
      </trkpt>
      <trkpt lat="45.78499" lon="5.74801">
        <ele>369</ele>
        <time>2020-05-31T10:17:10.455Z</time>
      </trkpt>
      <trkpt lat="45.78501" lon="5.74794">
        <ele>369</ele>
        <time>2020-05-31T10:17:14.543Z</time>
      </trkpt>
      <trkpt lat="45.78506" lon="5.74791">
        <ele>361</ele>
        <time>2020-05-31T10:17:19.456Z</time>
      </trkpt>
      <trkpt lat="45.78508" lon="5.7479">
        <ele>361</ele>
        <time>2020-05-31T10:17:23.487Z</time>
      </trkpt>
      <trkpt lat="45.78512" lon="5.74785">
        <ele>361</ele>
        <time>2020-05-31T10:17:28.485Z</time>
      </trkpt>
      <trkpt lat="45.78515" lon="5.74782">
        <ele>351</ele>
        <time>2020-05-31T10:17:33.498Z</time>
      </trkpt>
      <trkpt lat="45.78518" lon="5.74779">
        <ele>351</ele>
        <time>2020-05-31T10:17:37.493Z</time>
      </trkpt>
      <trkpt lat="45.78519" lon="5.74774">
        <ele>351</ele>
        <time>2020-05-31T10:17:42.481Z</time>
      </trkpt>
      <trkpt lat="45.78523" lon="5.74768">
        <ele>351</ele>
        <time>2020-05-31T10:17:47.492Z</time>
      </trkpt>
      <trkpt lat="45.78526" lon="5.74759">
        <ele>346</ele>
        <time>2020-05-31T10:17:52.490Z</time>
      </trkpt>
      <trkpt lat="45.78527" lon="5.74755">
        <ele>346</ele>
        <time>2020-05-31T10:17:56.500Z</time>
      </trkpt>
      <trkpt lat="45.78528" lon="5.7475">
        <ele>346</ele>
        <time>2020-05-31T10:18:01.495Z</time>
      </trkpt>
      <trkpt lat="45.78528" lon="5.74745">
        <ele>346</ele>
        <time>2020-05-31T10:18:06.503Z</time>
      </trkpt>
      <trkpt lat="45.78529" lon="5.74738">
        <ele>346</ele>
        <time>2020-05-31T10:18:11.498Z</time>
      </trkpt>
      <trkpt lat="45.7853" lon="5.74735">
        <ele>341</ele>
        <time>2020-05-31T10:18:16.498Z</time>
      </trkpt>
      <trkpt lat="45.78532" lon="5.74731">
        <ele>341</ele>
        <time>2020-05-31T10:18:21.484Z</time>
      </trkpt>
      <trkpt lat="45.78535" lon="5.74728">
        <ele>341</ele>
        <time>2020-05-31T10:18:25.482Z</time>
      </trkpt>
      <trkpt lat="45.78536" lon="5.74727">
        <ele>341</ele>
        <time>2020-05-31T10:18:30.505Z</time>
      </trkpt>
      <trkpt lat="45.78541" lon="5.74726">
        <ele>341</ele>
        <time>2020-05-31T10:18:35.502Z</time>
      </trkpt>
      <trkpt lat="45.78547" lon="5.74725">
        <ele>331</ele>
        <time>2020-05-31T10:18:45.487Z</time>
      </trkpt>
      <trkpt lat="45.78549" lon="5.74726">
        <ele>331</ele>
        <time>2020-05-31T10:18:49.485Z</time>
      </trkpt>
      <trkpt lat="45.78551" lon="5.74726">
        <ele>331</ele>
        <time>2020-05-31T10:18:54.482Z</time>
      </trkpt>
      <trkpt lat="45.78552" lon="5.74727">
        <ele>331</ele>
        <time>2020-05-31T10:18:59.490Z</time>
      </trkpt>
      <trkpt lat="45.78555" lon="5.74729">
        <ele>331</ele>
        <time>2020-05-31T10:19:04.489Z</time>
      </trkpt>
      <trkpt lat="45.78558" lon="5.74734">
        <ele>331</ele>
        <time>2020-05-31T10:19:09.487Z</time>
      </trkpt>
      <trkpt lat="45.78561" lon="5.74738">
        <ele>336</ele>
        <time>2020-05-31T10:19:13.485Z</time>
      </trkpt>
      <trkpt lat="45.78564" lon="5.74741">
        <ele>336</ele>
        <time>2020-05-31T10:19:18.490Z</time>
      </trkpt>
      <trkpt lat="45.78567" lon="5.74744">
        <ele>336</ele>
        <time>2020-05-31T10:19:23.486Z</time>
      </trkpt>
      <trkpt lat="45.78569" lon="5.7475">
        <ele>336</ele>
        <time>2020-05-31T10:19:27.493Z</time>
      </trkpt>
      <trkpt lat="45.78573" lon="5.74754">
        <ele>329</ele>
        <time>2020-05-31T10:19:32.477Z</time>
      </trkpt>
      <trkpt lat="45.78576" lon="5.74757">
        <ele>329</ele>
        <time>2020-05-31T10:19:36.493Z</time>
      </trkpt>
      <trkpt lat="45.78579" lon="5.7476">
        <ele>329</ele>
        <time>2020-05-31T10:19:41.552Z</time>
      </trkpt>
      <trkpt lat="45.78583" lon="5.7476">
        <ele>329</ele>
        <time>2020-05-31T10:19:46.493Z</time>
      </trkpt>
      <trkpt lat="45.78587" lon="5.74761">
        <ele>329</ele>
        <time>2020-05-31T10:19:51.482Z</time>
      </trkpt>
      <trkpt lat="45.78588" lon="5.74763">
        <ele>329</ele>
        <time>2020-05-31T10:19:56.494Z</time>
      </trkpt>
      <trkpt lat="45.78592" lon="5.74763">
        <ele>329</ele>
        <time>2020-05-31T10:20:01.497Z</time>
      </trkpt>
      <trkpt lat="45.78596" lon="5.74762">
        <ele>329</ele>
        <time>2020-05-31T10:20:06.509Z</time>
      </trkpt>
      <trkpt lat="45.78599" lon="5.74761">
        <ele>322</ele>
        <time>2020-05-31T10:20:11.478Z</time>
      </trkpt>
      <trkpt lat="45.78603" lon="5.7476">
        <ele>322</ele>
        <time>2020-05-31T10:20:16.542Z</time>
      </trkpt>
      <trkpt lat="45.78609" lon="5.74761">
        <ele>322</ele>
        <time>2020-05-31T10:20:21.498Z</time>
      </trkpt>
      <trkpt lat="45.78612" lon="5.74761">
        <ele>322</ele>
        <time>2020-05-31T10:20:26.494Z</time>
      </trkpt>
      <trkpt lat="45.78615" lon="5.74763">
        <ele>322</ele>
        <time>2020-05-31T10:20:31.484Z</time>
      </trkpt>
      <trkpt lat="45.78618" lon="5.74761">
        <ele>322</ele>
        <time>2020-05-31T10:20:35.480Z</time>
      </trkpt>
      <trkpt lat="45.78622" lon="5.7476">
        <ele>322</ele>
        <time>2020-05-31T10:20:40.531Z</time>
      </trkpt>
      <trkpt lat="45.78625" lon="5.74761">
        <ele>315</ele>
        <time>2020-05-31T10:20:45.484Z</time>
      </trkpt>
      <trkpt lat="45.78629" lon="5.7476">
        <ele>315</ele>
        <time>2020-05-31T10:20:50.494Z</time>
      </trkpt>
      <trkpt lat="45.78632" lon="5.74759">
        <ele>315</ele>
        <time>2020-05-31T10:20:54.483Z</time>
      </trkpt>
      <trkpt lat="45.78638" lon="5.74758">
        <ele>315</ele>
        <time>2020-05-31T10:20:59.486Z</time>
      </trkpt>
      <trkpt lat="45.78644" lon="5.7476">
        <ele>315</ele>
        <time>2020-05-31T10:21:04.478Z</time>
      </trkpt>
      <trkpt lat="45.78652" lon="5.7476">
        <ele>315</ele>
        <time>2020-05-31T10:21:36.489Z</time>
      </trkpt>
      <trkpt lat="45.78652" lon="5.74759">
        <ele>315</ele>
        <time>2020-05-31T10:21:41.501Z</time>
      </trkpt>
      <trkpt lat="45.78654" lon="5.7476">
        <ele>310</ele>
        <time>2020-05-31T10:21:45.486Z</time>
      </trkpt>
      <trkpt lat="45.78658" lon="5.7476">
        <ele>310</ele>
        <time>2020-05-31T10:21:50.499Z</time>
      </trkpt>
      <trkpt lat="45.78659" lon="5.7476">
        <ele>310</ele>
        <time>2020-05-31T10:21:55.482Z</time>
      </trkpt>
      <trkpt lat="45.78668" lon="5.74759">
        <ele>310</ele>
        <time>2020-05-31T10:23:36.480Z</time>
      </trkpt>
      <trkpt lat="45.78669" lon="5.74761">
        <ele>310</ele>
        <time>2020-05-31T10:23:40.474Z</time>
      </trkpt>
      <trkpt lat="45.78673" lon="5.74761">
        <ele>310</ele>
        <time>2020-05-31T10:23:44.504Z</time>
      </trkpt>
      <trkpt lat="45.78677" lon="5.74761">
        <ele>310</ele>
        <time>2020-05-31T10:23:49.505Z</time>
      </trkpt>
      <trkpt lat="45.78679" lon="5.74761">
        <ele>310</ele>
        <time>2020-05-31T10:23:54.480Z</time>
      </trkpt>
      <trkpt lat="45.78683" lon="5.7476">
        <ele>308</ele>
        <time>2020-05-31T10:23:59.497Z</time>
      </trkpt>
      <trkpt lat="45.78686" lon="5.7476">
        <ele>308</ele>
        <time>2020-05-31T10:24:04.503Z</time>
      </trkpt>
      <trkpt lat="45.7869" lon="5.74762">
        <ele>308</ele>
        <time>2020-05-31T10:24:09.483Z</time>
      </trkpt>
      <trkpt lat="45.78695" lon="5.74759">
        <ele>308</ele>
        <time>2020-05-31T10:24:14.487Z</time>
      </trkpt>
      <trkpt lat="45.78701" lon="5.74751">
        <ele>308</ele>
        <time>2020-05-31T10:25:01.487Z</time>
      </trkpt>
      <trkpt lat="45.78703" lon="5.74747">
        <ele>308</ele>
        <time>2020-05-31T10:25:06.504Z</time>
      </trkpt>
      <trkpt lat="45.787" lon="5.74737">
        <ele>308</ele>
        <time>2020-05-31T10:25:11.480Z</time>
      </trkpt>
      <trkpt lat="45.78697" lon="5.74731">
        <ele>301</ele>
        <time>2020-05-31T10:25:15.487Z</time>
      </trkpt>
      <trkpt lat="45.78693" lon="5.74726">
        <ele>301</ele>
        <time>2020-05-31T10:25:19.501Z</time>
      </trkpt>
      <trkpt lat="45.7869" lon="5.7472">
        <ele>301</ele>
        <time>2020-05-31T10:25:23.501Z</time>
      </trkpt>
      <trkpt lat="45.78684" lon="5.74715">
        <ele>301</ele>
        <time>2020-05-31T10:25:28.498Z</time>
      </trkpt>
      <trkpt lat="45.78681" lon="5.74709">
        <ele>301</ele>
        <time>2020-05-31T10:25:33.500Z</time>
      </trkpt>
      <trkpt lat="45.78677" lon="5.747">
        <ele>300</ele>
        <time>2020-05-31T10:25:38.494Z</time>
      </trkpt>
      <trkpt lat="45.78674" lon="5.74693">
        <ele>300</ele>
        <time>2020-05-31T10:25:42.561Z</time>
      </trkpt>
      <trkpt lat="45.7867" lon="5.74684">
        <ele>300</ele>
        <time>2020-05-31T10:25:47.508Z</time>
      </trkpt>
      <trkpt lat="45.78665" lon="5.74675">
        <ele>300</ele>
        <time>2020-05-31T10:25:52.499Z</time>
      </trkpt>
      <trkpt lat="45.78659" lon="5.74667">
        <ele>300</ele>
        <time>2020-05-31T10:25:57.492Z</time>
      </trkpt>
      <trkpt lat="45.78654" lon="5.74661">
        <ele>300</ele>
        <time>2020-05-31T10:26:02.490Z</time>
      </trkpt>
      <trkpt lat="45.78651" lon="5.74656">
        <ele>300</ele>
        <time>2020-05-31T10:26:06.494Z</time>
      </trkpt>
      <trkpt lat="45.78645" lon="5.74646">
        <ele>300</ele>
        <time>2020-05-31T10:26:11.499Z</time>
      </trkpt>
      <trkpt lat="45.78638" lon="5.74639">
        <ele>300</ele>
        <time>2020-05-31T10:26:16.510Z</time>
      </trkpt>
      <trkpt lat="45.78633" lon="5.7463">
        <ele>300</ele>
        <time>2020-05-31T10:26:21.500Z</time>
      </trkpt>
      <trkpt lat="45.78626" lon="5.74622">
        <ele>300</ele>
        <time>2020-05-31T10:26:26.484Z</time>
      </trkpt>
      <trkpt lat="45.78622" lon="5.74613">
        <ele>305</ele>
        <time>2020-05-31T10:26:31.498Z</time>
      </trkpt>
      <trkpt lat="45.78617" lon="5.74605">
        <ele>305</ele>
        <time>2020-05-31T10:26:36.553Z</time>
      </trkpt>
      <trkpt lat="45.78613" lon="5.74598">
        <ele>305</ele>
        <time>2020-05-31T10:26:41.506Z</time>
      </trkpt>
      <trkpt lat="45.78611" lon="5.74589">
        <ele>302</ele>
        <time>2020-05-31T10:26:46.498Z</time>
      </trkpt>
      <trkpt lat="45.78607" lon="5.74582">
        <ele>302</ele>
        <time>2020-05-31T10:26:51.479Z</time>
      </trkpt>
      <trkpt lat="45.78602" lon="5.74578">
        <ele>302</ele>
        <time>2020-05-31T10:26:55.509Z</time>
      </trkpt>
      <trkpt lat="45.78596" lon="5.74571">
        <ele>309</ele>
        <time>2020-05-31T10:27:00.482Z</time>
      </trkpt>
      <trkpt lat="45.7859" lon="5.74564">
        <ele>304</ele>
        <time>2020-05-31T10:27:05.547Z</time>
      </trkpt>
      <trkpt lat="45.78584" lon="5.74556">
        <ele>304</ele>
        <time>2020-05-31T10:27:10.489Z</time>
      </trkpt>
      <trkpt lat="45.78578" lon="5.7455">
        <ele>304</ele>
        <time>2020-05-31T10:27:15.507Z</time>
      </trkpt>
      <trkpt lat="45.78572" lon="5.74543">
        <ele>304</ele>
        <time>2020-05-31T10:27:20.505Z</time>
      </trkpt>
      <trkpt lat="45.78566" lon="5.74539">
        <ele>301</ele>
        <time>2020-05-31T10:27:25.503Z</time>
      </trkpt>
      <trkpt lat="45.78561" lon="5.74537">
        <ele>301</ele>
        <time>2020-05-31T10:27:29.553Z</time>
      </trkpt>
      <trkpt lat="45.7856" lon="5.74535">
        <ele>301</ele>
        <time>2020-05-31T10:27:34.500Z</time>
      </trkpt>
      <trkpt lat="45.78554" lon="5.74533">
        <ele>301</ele>
        <time>2020-05-31T10:27:39.502Z</time>
      </trkpt>
      <trkpt lat="45.78547" lon="5.74532">
        <ele>301</ele>
        <time>2020-05-31T10:27:44.481Z</time>
      </trkpt>
      <trkpt lat="45.78542" lon="5.74531">
        <ele>301</ele>
        <time>2020-05-31T10:27:48.503Z</time>
      </trkpt>
      <trkpt lat="45.78535" lon="5.74529">
        <ele>306</ele>
        <time>2020-05-31T10:27:53.503Z</time>
      </trkpt>
      <trkpt lat="45.78529" lon="5.74527">
        <ele>306</ele>
        <time>2020-05-31T10:27:58.496Z</time>
      </trkpt>
      <trkpt lat="45.78524" lon="5.74527">
        <ele>306</ele>
        <time>2020-05-31T10:28:03.501Z</time>
      </trkpt>
      <trkpt lat="45.78518" lon="5.74526">
        <ele>306</ele>
        <time>2020-05-31T10:28:08.488Z</time>
      </trkpt>
      <trkpt lat="45.7851" lon="5.74525">
        <ele>309</ele>
        <time>2020-05-31T10:28:13.503Z</time>
      </trkpt>
      <trkpt lat="45.78506" lon="5.74523">
        <ele>309</ele>
        <time>2020-05-31T10:28:17.501Z</time>
      </trkpt>
      <trkpt lat="45.78499" lon="5.74524">
        <ele>309</ele>
        <time>2020-05-31T10:28:22.502Z</time>
      </trkpt>
      <trkpt lat="45.78492" lon="5.74524">
        <ele>309</ele>
        <time>2020-05-31T10:28:27.490Z</time>
      </trkpt>
      <trkpt lat="45.78487" lon="5.74524">
        <ele>309</ele>
        <time>2020-05-31T10:28:32.506Z</time>
      </trkpt>
      <trkpt lat="45.78479" lon="5.74522">
        <ele>310</ele>
        <time>2020-05-31T10:28:37.498Z</time>
      </trkpt>
      <trkpt lat="45.78472" lon="5.7452">
        <ele>310</ele>
        <time>2020-05-31T10:28:42.506Z</time>
      </trkpt>
      <trkpt lat="45.78465" lon="5.74518">
        <ele>310</ele>
        <time>2020-05-31T10:28:47.457Z</time>
      </trkpt>
      <trkpt lat="45.78458" lon="5.74513">
        <ele>305</ele>
        <time>2020-05-31T10:28:52.469Z</time>
      </trkpt>
      <trkpt lat="45.78454" lon="5.74511">
        <ele>305</ele>
        <time>2020-05-31T10:28:56.498Z</time>
      </trkpt>
      <trkpt lat="45.78448" lon="5.7451">
        <ele>305</ele>
        <time>2020-05-31T10:29:01.507Z</time>
      </trkpt>
      <trkpt lat="45.78441" lon="5.74509">
        <ele>305</ele>
        <time>2020-05-31T10:29:06.504Z</time>
      </trkpt>
      <trkpt lat="45.78436" lon="5.74508">
        <ele>305</ele>
        <time>2020-05-31T10:29:11.487Z</time>
      </trkpt>
      <trkpt lat="45.78428" lon="5.74506">
        <ele>310</ele>
        <time>2020-05-31T10:29:16.552Z</time>
      </trkpt>
      <trkpt lat="45.78422" lon="5.74501">
        <ele>310</ele>
        <time>2020-05-31T10:29:21.487Z</time>
      </trkpt>
      <trkpt lat="45.78416" lon="5.74495">
        <ele>310</ele>
        <time>2020-05-31T10:29:26.455Z</time>
      </trkpt>
      <trkpt lat="45.78411" lon="5.74493">
        <ele>310</ele>
        <time>2020-05-31T10:29:30.497Z</time>
      </trkpt>
      <trkpt lat="45.78408" lon="5.74489">
        <ele>310</ele>
        <time>2020-05-31T10:29:34.510Z</time>
      </trkpt>
      <trkpt lat="45.78402" lon="5.74483">
        <ele>311</ele>
        <time>2020-05-31T10:29:39.501Z</time>
      </trkpt>
      <trkpt lat="45.78396" lon="5.74477">
        <ele>311</ele>
        <time>2020-05-31T10:29:44.483Z</time>
      </trkpt>
      <trkpt lat="45.78391" lon="5.7447">
        <ele>311</ele>
        <time>2020-05-31T10:29:49.495Z</time>
      </trkpt>
      <trkpt lat="45.78387" lon="5.74464">
        <ele>311</ele>
        <time>2020-05-31T10:29:54.511Z</time>
      </trkpt>
      <trkpt lat="45.78383" lon="5.74461">
        <ele>311</ele>
        <time>2020-05-31T10:29:58.499Z</time>
      </trkpt>
      <trkpt lat="45.78376" lon="5.74454">
        <ele>309</ele>
        <time>2020-05-31T10:30:03.485Z</time>
      </trkpt>
      <trkpt lat="45.78372" lon="5.74447">
        <ele>312</ele>
        <time>2020-05-31T10:30:07.515Z</time>
      </trkpt>
      <trkpt lat="45.78367" lon="5.74435">
        <ele>312</ele>
        <time>2020-05-31T10:30:12.508Z</time>
      </trkpt>
      <trkpt lat="45.78362" lon="5.74423">
        <ele>308</ele>
        <time>2020-05-31T10:30:16.488Z</time>
      </trkpt>
      <trkpt lat="45.78355" lon="5.74409">
        <ele>308</ele>
        <time>2020-05-31T10:30:21.506Z</time>
      </trkpt>
      <trkpt lat="45.78347" lon="5.74399">
        <ele>309</ele>
        <time>2020-05-31T10:30:26.505Z</time>
      </trkpt>
      <trkpt lat="45.78339" lon="5.7439">
        <ele>309</ele>
        <time>2020-05-31T10:30:31.496Z</time>
      </trkpt>
      <trkpt lat="45.78332" lon="5.74384">
        <ele>309</ele>
        <time>2020-05-31T10:30:36.470Z</time>
      </trkpt>
      <trkpt lat="45.78328" lon="5.74379">
        <ele>309</ele>
        <time>2020-05-31T10:30:40.557Z</time>
      </trkpt>
      <trkpt lat="45.78323" lon="5.74373">
        <ele>308</ele>
        <time>2020-05-31T10:30:45.487Z</time>
      </trkpt>
      <trkpt lat="45.78317" lon="5.74368">
        <ele>312</ele>
        <time>2020-05-31T10:30:50.498Z</time>
      </trkpt>
      <trkpt lat="45.78309" lon="5.74363">
        <ele>312</ele>
        <time>2020-05-31T10:30:55.448Z</time>
      </trkpt>
      <trkpt lat="45.78303" lon="5.7436">
        <ele>312</ele>
        <time>2020-05-31T10:30:59.494Z</time>
      </trkpt>
      <trkpt lat="45.78298" lon="5.74353">
        <ele>312</ele>
        <time>2020-05-31T10:31:04.485Z</time>
      </trkpt>
      <trkpt lat="45.78292" lon="5.74349">
        <ele>312</ele>
        <time>2020-05-31T10:31:09.483Z</time>
      </trkpt>
      <trkpt lat="45.78285" lon="5.74344">
        <ele>312</ele>
        <time>2020-05-31T10:31:14.480Z</time>
      </trkpt>
      <trkpt lat="45.78279" lon="5.74337">
        <ele>312</ele>
        <time>2020-05-31T10:31:19.496Z</time>
      </trkpt>
      <trkpt lat="45.78273" lon="5.74331">
        <ele>312</ele>
        <time>2020-05-31T10:31:24.494Z</time>
      </trkpt>
      <trkpt lat="45.78267" lon="5.74326">
        <ele>312</ele>
        <time>2020-05-31T10:31:29.480Z</time>
      </trkpt>
      <trkpt lat="45.7826" lon="5.74321">
        <ele>315</ele>
        <time>2020-05-31T10:31:34.495Z</time>
      </trkpt>
      <trkpt lat="45.78257" lon="5.74315">
        <ele>312</ele>
        <time>2020-05-31T10:31:38.496Z</time>
      </trkpt>
      <trkpt lat="45.78251" lon="5.74309">
        <ele>312</ele>
        <time>2020-05-31T10:31:43.497Z</time>
      </trkpt>
      <trkpt lat="45.78246" lon="5.74304">
        <ele>312</ele>
        <time>2020-05-31T10:31:48.489Z</time>
      </trkpt>
      <trkpt lat="45.7824" lon="5.74297">
        <ele>312</ele>
        <time>2020-05-31T10:31:53.494Z</time>
      </trkpt>
      <trkpt lat="45.78235" lon="5.7429">
        <ele>311</ele>
        <time>2020-05-31T10:31:58.474Z</time>
      </trkpt>
      <trkpt lat="45.78232" lon="5.74282">
        <ele>311</ele>
        <time>2020-05-31T10:32:02.547Z</time>
      </trkpt>
      <trkpt lat="45.7823" lon="5.74272">
        <ele>311</ele>
        <time>2020-05-31T10:32:07.495Z</time>
      </trkpt>
      <trkpt lat="45.7823" lon="5.74265">
        <ele>311</ele>
        <time>2020-05-31T10:32:12.500Z</time>
      </trkpt>
      <trkpt lat="45.78232" lon="5.74259">
        <ele>308</ele>
        <time>2020-05-31T10:32:17.508Z</time>
      </trkpt>
      <trkpt lat="45.78235" lon="5.74253">
        <ele>308</ele>
        <time>2020-05-31T10:32:22.490Z</time>
      </trkpt>
      <trkpt lat="45.7824" lon="5.74244">
        <ele>307</ele>
        <time>2020-05-31T10:32:27.497Z</time>
      </trkpt>
      <trkpt lat="45.78245" lon="5.74239">
        <ele>307</ele>
        <time>2020-05-31T10:32:32.491Z</time>
      </trkpt>
      <trkpt lat="45.78251" lon="5.74231">
        <ele>306</ele>
        <time>2020-05-31T10:32:37.492Z</time>
      </trkpt>
      <trkpt lat="45.78255" lon="5.74227">
        <ele>306</ele>
        <time>2020-05-31T10:32:41.497Z</time>
      </trkpt>
      <trkpt lat="45.7826" lon="5.74221">
        <ele>306</ele>
        <time>2020-05-31T10:32:46.482Z</time>
      </trkpt>
      <trkpt lat="45.78266" lon="5.74213">
        <ele>307</ele>
        <time>2020-05-31T10:32:51.501Z</time>
      </trkpt>
      <trkpt lat="45.78271" lon="5.74207">
        <ele>306</ele>
        <time>2020-05-31T10:32:56.473Z</time>
      </trkpt>
      <trkpt lat="45.78275" lon="5.74201">
        <ele>306</ele>
        <time>2020-05-31T10:33:01.502Z</time>
      </trkpt>
      <trkpt lat="45.7828" lon="5.74192">
        <ele>306</ele>
        <time>2020-05-31T10:33:06.476Z</time>
      </trkpt>
      <trkpt lat="45.78284" lon="5.74185">
        <ele>306</ele>
        <time>2020-05-31T10:33:10.505Z</time>
      </trkpt>
      <trkpt lat="45.7829" lon="5.74173">
        <ele>306</ele>
        <time>2020-05-31T10:33:15.503Z</time>
      </trkpt>
      <trkpt lat="45.78294" lon="5.74164">
        <ele>307</ele>
        <time>2020-05-31T10:33:20.496Z</time>
      </trkpt>
      <trkpt lat="45.78298" lon="5.74155">
        <ele>307</ele>
        <time>2020-05-31T10:33:25.485Z</time>
      </trkpt>
      <trkpt lat="45.78303" lon="5.74148">
        <ele>307</ele>
        <time>2020-05-31T10:33:30.497Z</time>
      </trkpt>
      <trkpt lat="45.78308" lon="5.7414">
        <ele>307</ele>
        <time>2020-05-31T10:33:35.487Z</time>
      </trkpt>
      <trkpt lat="45.7831" lon="5.74132">
        <ele>307</ele>
        <time>2020-05-31T10:33:40.483Z</time>
      </trkpt>
      <trkpt lat="45.78313" lon="5.74122">
        <ele>308</ele>
        <time>2020-05-31T10:33:45.493Z</time>
      </trkpt>
      <trkpt lat="45.78317" lon="5.74113">
        <ele>308</ele>
        <time>2020-05-31T10:33:50.487Z</time>
      </trkpt>
      <trkpt lat="45.78322" lon="5.74102">
        <ele>307</ele>
        <time>2020-05-31T10:33:55.477Z</time>
      </trkpt>
      <trkpt lat="45.78325" lon="5.74091">
        <ele>306</ele>
        <time>2020-05-31T10:34:00.494Z</time>
      </trkpt>
      <trkpt lat="45.78328" lon="5.74084">
        <ele>306</ele>
        <time>2020-05-31T10:34:04.505Z</time>
      </trkpt>
      <trkpt lat="45.78331" lon="5.74074">
        <ele>306</ele>
        <time>2020-05-31T10:34:09.502Z</time>
      </trkpt>
      <trkpt lat="45.78334" lon="5.74066">
        <ele>305</ele>
        <time>2020-05-31T10:34:14.497Z</time>
      </trkpt>
      <trkpt lat="45.78336" lon="5.74059">
        <ele>305</ele>
        <time>2020-05-31T10:34:18.503Z</time>
      </trkpt>
      <trkpt lat="45.7834" lon="5.7405">
        <ele>305</ele>
        <time>2020-05-31T10:34:23.488Z</time>
      </trkpt>
      <trkpt lat="45.78344" lon="5.74046">
        <ele>305</ele>
        <time>2020-05-31T10:34:28.503Z</time>
      </trkpt>
      <trkpt lat="45.78349" lon="5.74043">
        <ele>304</ele>
        <time>2020-05-31T10:34:33.495Z</time>
      </trkpt>
      <trkpt lat="45.78354" lon="5.74043">
        <ele>304</ele>
        <time>2020-05-31T10:34:38.496Z</time>
      </trkpt>
      <trkpt lat="45.7836" lon="5.74037">
        <ele>305</ele>
        <time>2020-05-31T10:34:43.504Z</time>
      </trkpt>
      <trkpt lat="45.78367" lon="5.74031">
        <ele>305</ele>
        <time>2020-05-31T10:34:48.497Z</time>
      </trkpt>
      <trkpt lat="45.78374" lon="5.74024">
        <ele>305</ele>
        <time>2020-05-31T10:34:53.503Z</time>
      </trkpt>
      <trkpt lat="45.78382" lon="5.74016">
        <ele>306</ele>
        <time>2020-05-31T10:34:58.505Z</time>
      </trkpt>
      <trkpt lat="45.78389" lon="5.74009">
        <ele>307</ele>
        <time>2020-05-31T10:35:03.453Z</time>
      </trkpt>
      <trkpt lat="45.78394" lon="5.74005">
        <ele>307</ele>
        <time>2020-05-31T10:35:07.451Z</time>
      </trkpt>
      <trkpt lat="45.78399" lon="5.74001">
        <ele>307</ele>
        <time>2020-05-31T10:35:11.506Z</time>
      </trkpt>
      <trkpt lat="45.78405" lon="5.73998">
        <ele>310</ele>
        <time>2020-05-31T10:35:16.473Z</time>
      </trkpt>
      <trkpt lat="45.7841" lon="5.73995">
        <ele>310</ele>
        <time>2020-05-31T10:35:20.485Z</time>
      </trkpt>
      <trkpt lat="45.78415" lon="5.73991">
        <ele>310</ele>
        <time>2020-05-31T10:35:25.543Z</time>
      </trkpt>
      <trkpt lat="45.78421" lon="5.73987">
        <ele>310</ele>
        <time>2020-05-31T10:35:30.496Z</time>
      </trkpt>
      <trkpt lat="45.78426" lon="5.73986">
        <ele>312</ele>
        <time>2020-05-31T10:35:34.495Z</time>
      </trkpt>
      <trkpt lat="45.78432" lon="5.73982">
        <ele>313</ele>
        <time>2020-05-31T10:35:39.486Z</time>
      </trkpt>
      <trkpt lat="45.78437" lon="5.73981">
        <ele>313</ele>
        <time>2020-05-31T10:35:44.501Z</time>
      </trkpt>
      <trkpt lat="45.78443" lon="5.73981">
        <ele>313</ele>
        <time>2020-05-31T10:35:49.560Z</time>
      </trkpt>
      <trkpt lat="45.78447" lon="5.73981">
        <ele>313</ele>
        <time>2020-05-31T10:35:54.501Z</time>
      </trkpt>
      <trkpt lat="45.78452" lon="5.73983">
        <ele>313</ele>
        <time>2020-05-31T10:35:59.499Z</time>
      </trkpt>
      <trkpt lat="45.78461" lon="5.73986">
        <ele>313</ele>
        <time>2020-05-31T10:36:04.509Z</time>
      </trkpt>
      <trkpt lat="45.7847" lon="5.73988">
        <ele>312</ele>
        <time>2020-05-31T10:36:09.489Z</time>
      </trkpt>
      <trkpt lat="45.78477" lon="5.73991">
        <ele>312</ele>
        <time>2020-05-31T10:36:13.498Z</time>
      </trkpt>
      <trkpt lat="45.78486" lon="5.73993">
        <ele>314</ele>
        <time>2020-05-31T10:36:18.520Z</time>
      </trkpt>
      <trkpt lat="45.78493" lon="5.73996">
        <ele>314</ele>
        <time>2020-05-31T10:36:23.489Z</time>
      </trkpt>
      <trkpt lat="45.78498" lon="5.73998">
        <ele>314</ele>
        <time>2020-05-31T10:36:28.495Z</time>
      </trkpt>
      <trkpt lat="45.78504" lon="5.74002">
        <ele>314</ele>
        <time>2020-05-31T10:36:33.500Z</time>
      </trkpt>
      <trkpt lat="45.78509" lon="5.74008">
        <ele>314</ele>
        <time>2020-05-31T10:36:37.497Z</time>
      </trkpt>
      <trkpt lat="45.78513" lon="5.74014">
        <ele>314</ele>
        <time>2020-05-31T10:36:41.503Z</time>
      </trkpt>
      <trkpt lat="45.78519" lon="5.74019">
        <ele>313</ele>
        <time>2020-05-31T10:36:46.506Z</time>
      </trkpt>
      <trkpt lat="45.78524" lon="5.74024">
        <ele>313</ele>
        <time>2020-05-31T10:36:51.505Z</time>
      </trkpt>
      <trkpt lat="45.7853" lon="5.7403">
        <ele>313</ele>
        <time>2020-05-31T10:36:56.480Z</time>
      </trkpt>
      <trkpt lat="45.78535" lon="5.74038">
        <ele>313</ele>
        <time>2020-05-31T10:37:01.473Z</time>
      </trkpt>
      <trkpt lat="45.78539" lon="5.74045">
        <ele>310</ele>
        <time>2020-05-31T10:37:06.546Z</time>
      </trkpt>
      <trkpt lat="45.78544" lon="5.7405">
        <ele>313</ele>
        <time>2020-05-31T10:37:11.508Z</time>
      </trkpt>
      <trkpt lat="45.7855" lon="5.74054">
        <ele>313</ele>
        <time>2020-05-31T10:37:16.479Z</time>
      </trkpt>
      <trkpt lat="45.78556" lon="5.74059">
        <ele>313</ele>
        <time>2020-05-31T10:37:21.487Z</time>
      </trkpt>
      <trkpt lat="45.78561" lon="5.74066">
        <ele>313</ele>
        <time>2020-05-31T10:37:26.498Z</time>
      </trkpt>
      <trkpt lat="45.78565" lon="5.74074">
        <ele>310</ele>
        <time>2020-05-31T10:37:31.488Z</time>
      </trkpt>
      <trkpt lat="45.7857" lon="5.74079">
        <ele>314</ele>
        <time>2020-05-31T10:37:35.507Z</time>
      </trkpt>
      <trkpt lat="45.78575" lon="5.74086">
        <ele>314</ele>
        <time>2020-05-31T10:37:40.495Z</time>
      </trkpt>
      <trkpt lat="45.7858" lon="5.74093">
        <ele>314</ele>
        <time>2020-05-31T10:37:45.498Z</time>
      </trkpt>
      <trkpt lat="45.78587" lon="5.74098">
        <ele>310</ele>
        <time>2020-05-31T10:37:50.512Z</time>
      </trkpt>
      <trkpt lat="45.78591" lon="5.74103">
        <ele>310</ele>
        <time>2020-05-31T10:37:54.502Z</time>
      </trkpt>
      <trkpt lat="45.78595" lon="5.74107">
        <ele>310</ele>
        <time>2020-05-31T10:37:59.509Z</time>
      </trkpt>
      <trkpt lat="45.78601" lon="5.74114">
        <ele>316</ele>
        <time>2020-05-31T10:38:04.490Z</time>
      </trkpt>
      <trkpt lat="45.78605" lon="5.74119">
        <ele>316</ele>
        <time>2020-05-31T10:38:09.479Z</time>
      </trkpt>
      <trkpt lat="45.78611" lon="5.74123">
        <ele>316</ele>
        <time>2020-05-31T10:38:13.491Z</time>
      </trkpt>
      <trkpt lat="45.78616" lon="5.74129">
        <ele>310</ele>
        <time>2020-05-31T10:38:18.547Z</time>
      </trkpt>
      <trkpt lat="45.78622" lon="5.74136">
        <ele>310</ele>
        <time>2020-05-31T10:38:23.502Z</time>
      </trkpt>
      <trkpt lat="45.78626" lon="5.74143">
        <ele>316</ele>
        <time>2020-05-31T10:38:27.505Z</time>
      </trkpt>
      <trkpt lat="45.7863" lon="5.74151">
        <ele>316</ele>
        <time>2020-05-31T10:38:32.508Z</time>
      </trkpt>
      <trkpt lat="45.78635" lon="5.74159">
        <ele>309</ele>
        <time>2020-05-31T10:38:37.503Z</time>
      </trkpt>
      <trkpt lat="45.78639" lon="5.74162">
        <ele>309</ele>
        <time>2020-05-31T10:38:41.488Z</time>
      </trkpt>
      <trkpt lat="45.78644" lon="5.74169">
        <ele>309</ele>
        <time>2020-05-31T10:38:46.493Z</time>
      </trkpt>
      <trkpt lat="45.78649" lon="5.74173">
        <ele>309</ele>
        <time>2020-05-31T10:38:50.501Z</time>
      </trkpt>
      <trkpt lat="45.78655" lon="5.74178">
        <ele>313</ele>
        <time>2020-05-31T10:38:54.504Z</time>
      </trkpt>
      <trkpt lat="45.78661" lon="5.74182">
        <ele>309</ele>
        <time>2020-05-31T10:38:59.505Z</time>
      </trkpt>
      <trkpt lat="45.78664" lon="5.74186">
        <ele>309</ele>
        <time>2020-05-31T10:39:04.493Z</time>
      </trkpt>
      <trkpt lat="45.78668" lon="5.74192">
        <ele>309</ele>
        <time>2020-05-31T10:39:09.480Z</time>
      </trkpt>
      <trkpt lat="45.78676" lon="5.74198">
        <ele>309</ele>
        <time>2020-05-31T10:39:14.508Z</time>
      </trkpt>
      <trkpt lat="45.78681" lon="5.74207">
        <ele>310</ele>
        <time>2020-05-31T10:39:19.502Z</time>
      </trkpt>
      <trkpt lat="45.78687" lon="5.74213">
        <ele>306</ele>
        <time>2020-05-31T10:39:24.519Z</time>
      </trkpt>
      <trkpt lat="45.78691" lon="5.7422">
        <ele>306</ele>
        <time>2020-05-31T10:39:29.490Z</time>
      </trkpt>
      <trkpt lat="45.78696" lon="5.74225">
        <ele>306</ele>
        <time>2020-05-31T10:39:34.536Z</time>
      </trkpt>
      <trkpt lat="45.78701" lon="5.74231">
        <ele>306</ele>
        <time>2020-05-31T10:39:39.489Z</time>
      </trkpt>
      <trkpt lat="45.78705" lon="5.74236">
        <ele>305</ele>
        <time>2020-05-31T10:39:44.456Z</time>
      </trkpt>
      <trkpt lat="45.7871" lon="5.74242">
        <ele>305</ele>
        <time>2020-05-31T10:39:48.493Z</time>
      </trkpt>
      <trkpt lat="45.78715" lon="5.7425">
        <ele>305</ele>
        <time>2020-05-31T10:39:53.507Z</time>
      </trkpt>
      <trkpt lat="45.78719" lon="5.74254">
        <ele>305</ele>
        <time>2020-05-31T10:39:58.497Z</time>
      </trkpt>
      <trkpt lat="45.78727" lon="5.74259">
        <ele>305</ele>
        <time>2020-05-31T10:40:03.496Z</time>
      </trkpt>
      <trkpt lat="45.78735" lon="5.74265">
        <ele>304</ele>
        <time>2020-05-31T10:40:08.481Z</time>
      </trkpt>
      <trkpt lat="45.7874" lon="5.74269">
        <ele>305</ele>
        <time>2020-05-31T10:40:12.499Z</time>
      </trkpt>
      <trkpt lat="45.78745" lon="5.74273">
        <ele>305</ele>
        <time>2020-05-31T10:40:17.485Z</time>
      </trkpt>
      <trkpt lat="45.78752" lon="5.74277">
        <ele>305</ele>
        <time>2020-05-31T10:40:22.554Z</time>
      </trkpt>
      <trkpt lat="45.78757" lon="5.74282">
        <ele>305</ele>
        <time>2020-05-31T10:40:27.496Z</time>
      </trkpt>
      <trkpt lat="45.78766" lon="5.74287">
        <ele>305</ele>
        <time>2020-05-31T10:40:32.500Z</time>
      </trkpt>
      <trkpt lat="45.78774" lon="5.74289">
        <ele>305</ele>
        <time>2020-05-31T10:40:37.482Z</time>
      </trkpt>
      <trkpt lat="45.7878" lon="5.74293">
        <ele>299</ele>
        <time>2020-05-31T10:40:42.494Z</time>
      </trkpt>
      <trkpt lat="45.78787" lon="5.74294">
        <ele>299</ele>
        <time>2020-05-31T10:40:47.506Z</time>
      </trkpt>
      <trkpt lat="45.78796" lon="5.74292">
        <ele>299</ele>
        <time>2020-05-31T10:40:52.505Z</time>
      </trkpt>
      <trkpt lat="45.78803" lon="5.74291">
        <ele>304</ele>
        <time>2020-05-31T10:40:57.487Z</time>
      </trkpt>
      <trkpt lat="45.78809" lon="5.74292">
        <ele>299</ele>
        <time>2020-05-31T10:41:01.502Z</time>
      </trkpt>
      <trkpt lat="45.78816" lon="5.74293">
        <ele>299</ele>
        <time>2020-05-31T10:41:06.468Z</time>
      </trkpt>
      <trkpt lat="45.78821" lon="5.74294">
        <ele>299</ele>
        <time>2020-05-31T10:41:10.487Z</time>
      </trkpt>
      <trkpt lat="45.78826" lon="5.74294">
        <ele>299</ele>
        <time>2020-05-31T10:41:14.491Z</time>
      </trkpt>
      <trkpt lat="45.78831" lon="5.74295">
        <ele>299</ele>
        <time>2020-05-31T10:41:19.500Z</time>
      </trkpt>
      <trkpt lat="45.78837" lon="5.74295">
        <ele>299</ele>
        <time>2020-05-31T10:41:24.485Z</time>
      </trkpt>
      <trkpt lat="45.78844" lon="5.74295">
        <ele>299</ele>
        <time>2020-05-31T10:41:29.478Z</time>
      </trkpt>
      <trkpt lat="45.78849" lon="5.74295">
        <ele>299</ele>
        <time>2020-05-31T10:41:33.484Z</time>
      </trkpt>
      <trkpt lat="45.78856" lon="5.74291">
        <ele>301</ele>
        <time>2020-05-31T10:41:38.555Z</time>
      </trkpt>
      <trkpt lat="45.78865" lon="5.74282">
        <ele>301</ele>
        <time>2020-05-31T10:42:31.503Z</time>
      </trkpt>
      <trkpt lat="45.78865" lon="5.74282">
        <ele>301</ele>
        <time>2020-05-31T10:42:36.472Z</time>
      </trkpt>
      <trkpt lat="45.78866" lon="5.74283">
        <ele>301</ele>
        <time>2020-05-31T10:42:40.496Z</time>
      </trkpt>
      <trkpt lat="45.7887" lon="5.74282">
        <ele>301</ele>
        <time>2020-05-31T10:42:45.484Z</time>
      </trkpt>
      <trkpt lat="45.78873" lon="5.7428">
        <ele>301</ele>
        <time>2020-05-31T10:42:49.501Z</time>
      </trkpt>
      <trkpt lat="45.78877" lon="5.74278">
        <ele>300</ele>
        <time>2020-05-31T10:42:53.502Z</time>
      </trkpt>
      <trkpt lat="45.78883" lon="5.74276">
        <ele>300</ele>
        <time>2020-05-31T10:42:58.495Z</time>
      </trkpt>
      <trkpt lat="45.78889" lon="5.74271">
        <ele>300</ele>
        <time>2020-05-31T10:43:03.510Z</time>
      </trkpt>
      <trkpt lat="45.78896" lon="5.74266">
        <ele>300</ele>
        <time>2020-05-31T10:43:08.493Z</time>
      </trkpt>
      <trkpt lat="45.78904" lon="5.74261">
        <ele>305</ele>
        <time>2020-05-31T10:43:13.502Z</time>
      </trkpt>
      <trkpt lat="45.7891" lon="5.74258">
        <ele>305</ele>
        <time>2020-05-31T10:43:18.465Z</time>
      </trkpt>
      <trkpt lat="45.78915" lon="5.74251">
        <ele>305</ele>
        <time>2020-05-31T10:43:22.530Z</time>
      </trkpt>
      <trkpt lat="45.78921" lon="5.74246">
        <ele>305</ele>
        <time>2020-05-31T10:43:27.487Z</time>
      </trkpt>
      <trkpt lat="45.78927" lon="5.7424">
        <ele>305</ele>
        <time>2020-05-31T10:43:32.502Z</time>
      </trkpt>
      <trkpt lat="45.78932" lon="5.74234">
        <ele>305</ele>
        <time>2020-05-31T10:43:37.505Z</time>
      </trkpt>
      <trkpt lat="45.78937" lon="5.74225">
        <ele>305</ele>
        <time>2020-05-31T10:43:42.465Z</time>
      </trkpt>
      <trkpt lat="45.7894" lon="5.74218">
        <ele>305</ele>
        <time>2020-05-31T10:43:46.478Z</time>
      </trkpt>
      <trkpt lat="45.78944" lon="5.74211">
        <ele>305</ele>
        <time>2020-05-31T10:43:51.511Z</time>
      </trkpt>
      <trkpt lat="45.78948" lon="5.74208">
        <ele>309</ele>
        <time>2020-05-31T10:43:56.508Z</time>
      </trkpt>
      <trkpt lat="45.78953" lon="5.74207">
        <ele>309</ele>
        <time>2020-05-31T10:44:01.482Z</time>
      </trkpt>
      <trkpt lat="45.78957" lon="5.74208">
        <ele>305</ele>
        <time>2020-05-31T10:44:05.497Z</time>
      </trkpt>
      <trkpt lat="45.78963" lon="5.74208">
        <ele>299</ele>
        <time>2020-05-31T10:44:10.500Z</time>
      </trkpt>
      <trkpt lat="45.78969" lon="5.74208">
        <ele>305</ele>
        <time>2020-05-31T10:44:15.484Z</time>
      </trkpt>
      <trkpt lat="45.78976" lon="5.74205">
        <ele>305</ele>
        <time>2020-05-31T10:44:20.513Z</time>
      </trkpt>
      <trkpt lat="45.7898" lon="5.74201">
        <ele>305</ele>
        <time>2020-05-31T10:44:25.463Z</time>
      </trkpt>
      <trkpt lat="45.78982" lon="5.742">
        <ele>305</ele>
        <time>2020-05-31T10:44:29.505Z</time>
      </trkpt>
      <trkpt lat="45.78983" lon="5.74198">
        <ele>305</ele>
        <time>2020-05-31T10:44:34.488Z</time>
      </trkpt>
      <trkpt lat="45.78989" lon="5.74193">
        <ele>299</ele>
        <time>2020-05-31T10:44:39.496Z</time>
      </trkpt>
      <trkpt lat="45.78992" lon="5.7419">
        <ele>299</ele>
        <time>2020-05-31T10:44:44.494Z</time>
      </trkpt>
      <trkpt lat="45.78992" lon="5.74191">
        <ele>299</ele>
        <time>2020-05-31T10:44:49.494Z</time>
      </trkpt>
      <trkpt lat="45.78995" lon="5.74188">
        <ele>299</ele>
        <time>2020-05-31T10:44:54.491Z</time>
      </trkpt>
      <trkpt lat="45.78997" lon="5.74186">
        <ele>299</ele>
        <time>2020-05-31T10:44:59.509Z</time>
      </trkpt>
      <trkpt lat="45.78999" lon="5.74182">
        <ele>299</ele>
        <time>2020-05-31T10:45:04.472Z</time>
      </trkpt>
      <trkpt lat="45.79002" lon="5.74178">
        <ele>310</ele>
        <time>2020-05-31T10:45:08.539Z</time>
      </trkpt>
      <trkpt lat="45.79007" lon="5.74173">
        <ele>310</ele>
        <time>2020-05-31T10:45:13.493Z</time>
      </trkpt>
      <trkpt lat="45.7901" lon="5.7417">
        <ele>310</ele>
        <time>2020-05-31T10:45:17.505Z</time>
      </trkpt>
      <trkpt lat="45.79016" lon="5.74171">
        <ele>309</ele>
        <time>2020-05-31T10:45:22.513Z</time>
      </trkpt>
      <trkpt lat="45.79023" lon="5.74171">
        <ele>309</ele>
        <time>2020-05-31T10:45:27.494Z</time>
      </trkpt>
      <trkpt lat="45.79029" lon="5.74167">
        <ele>309</ele>
        <time>2020-05-31T10:45:32.504Z</time>
      </trkpt>
      <trkpt lat="45.79034" lon="5.74164">
        <ele>309</ele>
        <time>2020-05-31T10:45:36.551Z</time>
      </trkpt>
      <trkpt lat="45.79041" lon="5.74163">
        <ele>309</ele>
        <time>2020-05-31T10:45:41.494Z</time>
      </trkpt>
      <trkpt lat="45.79044" lon="5.74163">
        <ele>299</ele>
        <time>2020-05-31T10:45:46.477Z</time>
      </trkpt>
      <trkpt lat="45.79044" lon="5.74163">
        <ele>299</ele>
        <time>2020-05-31T10:46:14.497Z</time>
      </trkpt>
      <trkpt lat="45.79045" lon="5.74164">
        <ele>299</ele>
        <time>2020-05-31T10:46:19.488Z</time>
      </trkpt>
      <trkpt lat="45.79049" lon="5.74164">
        <ele>299</ele>
        <time>2020-05-31T10:46:24.570Z</time>
      </trkpt>
      <trkpt lat="45.79055" lon="5.74163">
        <ele>299</ele>
        <time>2020-05-31T10:46:29.491Z</time>
      </trkpt>
      <trkpt lat="45.79061" lon="5.74159">
        <ele>299</ele>
        <time>2020-05-31T10:46:33.504Z</time>
      </trkpt>
      <trkpt lat="45.79068" lon="5.74155">
        <ele>299</ele>
        <time>2020-05-31T10:46:38.504Z</time>
      </trkpt>
      <trkpt lat="45.79075" lon="5.74157">
        <ele>299</ele>
        <time>2020-05-31T10:46:43.488Z</time>
      </trkpt>
      <trkpt lat="45.7908" lon="5.74153">
        <ele>299</ele>
        <time>2020-05-31T10:46:47.531Z</time>
      </trkpt>
      <trkpt lat="45.79085" lon="5.74151">
        <ele>312</ele>
        <time>2020-05-31T10:46:52.494Z</time>
      </trkpt>
      <trkpt lat="45.7909" lon="5.74149">
        <ele>312</ele>
        <time>2020-05-31T10:46:57.509Z</time>
      </trkpt>
      <trkpt lat="45.79095" lon="5.74147">
        <ele>312</ele>
        <time>2020-05-31T10:47:02.491Z</time>
      </trkpt>
      <trkpt lat="45.791" lon="5.74145">
        <ele>309</ele>
        <time>2020-05-31T10:47:07.478Z</time>
      </trkpt>
      <trkpt lat="45.79105" lon="5.74144">
        <ele>309</ele>
        <time>2020-05-31T10:47:12.485Z</time>
      </trkpt>
      <trkpt lat="45.79109" lon="5.74143">
        <ele>309</ele>
        <time>2020-05-31T10:47:17.489Z</time>
      </trkpt>
      <trkpt lat="45.79115" lon="5.74141">
        <ele>309</ele>
        <time>2020-05-31T10:47:22.552Z</time>
      </trkpt>
      <trkpt lat="45.79121" lon="5.74137">
        <ele>309</ele>
        <time>2020-05-31T10:47:27.492Z</time>
      </trkpt>
      <trkpt lat="45.79127" lon="5.74133">
        <ele>305</ele>
        <time>2020-05-31T10:47:32.485Z</time>
      </trkpt>
      <trkpt lat="45.79134" lon="5.74132">
        <ele>305</ele>
        <time>2020-05-31T10:47:36.506Z</time>
      </trkpt>
      <trkpt lat="45.7914" lon="5.74131">
        <ele>305</ele>
        <time>2020-05-31T10:47:41.483Z</time>
      </trkpt>
      <trkpt lat="45.79146" lon="5.74128">
        <ele>305</ele>
        <time>2020-05-31T10:47:45.479Z</time>
      </trkpt>
      <trkpt lat="45.79152" lon="5.74125">
        <ele>305</ele>
        <time>2020-05-31T10:47:50.485Z</time>
      </trkpt>
      <trkpt lat="45.79158" lon="5.74125">
        <ele>310</ele>
        <time>2020-05-31T10:47:55.496Z</time>
      </trkpt>
      <trkpt lat="45.79165" lon="5.74123">
        <ele>310</ele>
        <time>2020-05-31T10:48:00.492Z</time>
      </trkpt>
      <trkpt lat="45.7917" lon="5.7412">
        <ele>310</ele>
        <time>2020-05-31T10:48:05.496Z</time>
      </trkpt>
      <trkpt lat="45.79175" lon="5.74115">
        <ele>310</ele>
        <time>2020-05-31T10:48:10.499Z</time>
      </trkpt>
      <trkpt lat="45.79181" lon="5.74112">
        <ele>306</ele>
        <time>2020-05-31T10:48:15.505Z</time>
      </trkpt>
      <trkpt lat="45.79187" lon="5.74108">
        <ele>306</ele>
        <time>2020-05-31T10:48:19.492Z</time>
      </trkpt>
      <trkpt lat="45.79193" lon="5.74104">
        <ele>306</ele>
        <time>2020-05-31T10:48:24.496Z</time>
      </trkpt>
      <trkpt lat="45.792" lon="5.74097">
        <ele>309</ele>
        <time>2020-05-31T10:48:29.506Z</time>
      </trkpt>
      <trkpt lat="45.79207" lon="5.74093">
        <ele>309</ele>
        <time>2020-05-31T10:48:34.491Z</time>
      </trkpt>
      <trkpt lat="45.79212" lon="5.74089">
        <ele>306</ele>
        <time>2020-05-31T10:48:38.561Z</time>
      </trkpt>
      <trkpt lat="45.79218" lon="5.74086">
        <ele>306</ele>
        <time>2020-05-31T10:48:43.495Z</time>
      </trkpt>
      <trkpt lat="45.79223" lon="5.74081">
        <ele>306</ele>
        <time>2020-05-31T10:48:48.499Z</time>
      </trkpt>
      <trkpt lat="45.79228" lon="5.7408">
        <ele>306</ele>
        <time>2020-05-31T10:48:53.490Z</time>
      </trkpt>
      <trkpt lat="45.79234" lon="5.7408">
        <ele>306</ele>
        <time>2020-05-31T10:48:58.485Z</time>
      </trkpt>
      <trkpt lat="45.79237" lon="5.7408">
        <ele>307</ele>
        <time>2020-05-31T10:49:03.516Z</time>
      </trkpt>
      <trkpt lat="45.79239" lon="5.7408">
        <ele>307</ele>
        <time>2020-05-31T10:49:07.491Z</time>
      </trkpt>
      <trkpt lat="45.79242" lon="5.74081">
        <ele>307</ele>
        <time>2020-05-31T10:49:12.504Z</time>
      </trkpt>
      <trkpt lat="45.79246" lon="5.74083">
        <ele>307</ele>
        <time>2020-05-31T10:49:17.498Z</time>
      </trkpt>
      <trkpt lat="45.79253" lon="5.7408">
        <ele>307</ele>
        <time>2020-05-31T10:49:22.495Z</time>
      </trkpt>
      <trkpt lat="45.79254" lon="5.7408">
        <ele>307</ele>
        <time>2020-05-31T10:49:27.502Z</time>
      </trkpt>
      <trkpt lat="45.79252" lon="5.74084">
        <ele>307</ele>
        <time>2020-05-31T11:07:06.497Z</time>
      </trkpt>
      <trkpt lat="45.7925" lon="5.74087">
        <ele>307</ele>
        <time>2020-05-31T11:07:11.510Z</time>
      </trkpt>
      <trkpt lat="45.79249" lon="5.74088">
        <ele>307</ele>
        <time>2020-05-31T11:07:15.499Z</time>
      </trkpt>
      <trkpt lat="45.7925" lon="5.74088">
        <ele>307</ele>
        <time>2020-05-31T11:07:20.504Z</time>
      </trkpt>
      <trkpt lat="45.79249" lon="5.74091">
        <ele>307</ele>
        <time>2020-05-31T11:07:25.496Z</time>
      </trkpt>
      <trkpt lat="45.7925" lon="5.74086">
        <ele>307</ele>
        <time>2020-05-31T11:12:19.505Z</time>
      </trkpt>
      <trkpt lat="45.79251" lon="5.74084">
        <ele>307</ele>
        <time>2020-05-31T11:12:24.490Z</time>
      </trkpt>
      <trkpt lat="45.79251" lon="5.74082">
        <ele>307</ele>
        <time>2020-05-31T11:12:29.492Z</time>
      </trkpt>
      <trkpt lat="45.7925" lon="5.74078">
        <ele>307</ele>
        <time>2020-05-31T11:12:33.555Z</time>
      </trkpt>
      <trkpt lat="45.79252" lon="5.74075">
        <ele>307</ele>
        <time>2020-05-31T11:12:38.495Z</time>
      </trkpt>
      <trkpt lat="45.79253" lon="5.74074">
        <ele>307</ele>
        <time>2020-05-31T11:13:11.513Z</time>
      </trkpt>
      <trkpt lat="45.79253" lon="5.74075">
        <ele>307</ele>
        <time>2020-05-31T11:13:15.492Z</time>
      </trkpt>
      <trkpt lat="45.79256" lon="5.74078">
        <ele>307</ele>
        <time>2020-05-31T11:13:20.498Z</time>
      </trkpt>
      <trkpt lat="45.79256" lon="5.74081">
        <ele>307</ele>
        <time>2020-05-31T11:13:24.493Z</time>
      </trkpt>
      <trkpt lat="45.79257" lon="5.74084">
        <ele>307</ele>
        <time>2020-05-31T11:13:29.493Z</time>
      </trkpt>
      <trkpt lat="45.79252" lon="5.74086">
        <ele>307</ele>
        <time>2020-05-31T11:16:45.497Z</time>
      </trkpt>
      <trkpt lat="45.79251" lon="5.74086">
        <ele>307</ele>
        <time>2020-05-31T11:16:50.499Z</time>
      </trkpt>
      <trkpt lat="45.79251" lon="5.74087">
        <ele>307</ele>
        <time>2020-05-31T11:16:54.498Z</time>
      </trkpt>
      <trkpt lat="45.79248" lon="5.74088">
        <ele>307</ele>
        <time>2020-05-31T11:16:58.519Z</time>
      </trkpt>
      <trkpt lat="45.79247" lon="5.74092">
        <ele>307</ele>
        <time>2020-05-31T11:17:03.495Z</time>
      </trkpt>
      <trkpt lat="45.79247" lon="5.74092">
        <ele>307</ele>
        <time>2020-05-31T11:17:17.483Z</time>
      </trkpt>
      <trkpt lat="45.7925" lon="5.74091">
        <ele>307</ele>
        <time>2020-05-31T11:17:22.483Z</time>
      </trkpt>
      <trkpt lat="45.79251" lon="5.74088">
        <ele>307</ele>
        <time>2020-05-31T11:17:26.493Z</time>
      </trkpt>
      <trkpt lat="45.79253" lon="5.74087">
        <ele>307</ele>
        <time>2020-05-31T11:17:31.488Z</time>
      </trkpt>
      <trkpt lat="45.79254" lon="5.74086">
        <ele>307</ele>
        <time>2020-05-31T11:17:36.503Z</time>
      </trkpt>
      <trkpt lat="45.79253" lon="5.74078">
        <ele>307</ele>
        <time>2020-05-31T11:30:39.489Z</time>
      </trkpt>
      <trkpt lat="45.79253" lon="5.74077">
        <ele>307</ele>
        <time>2020-05-31T11:30:43.483Z</time>
      </trkpt>
      <trkpt lat="45.79254" lon="5.74077">
        <ele>307</ele>
        <time>2020-05-31T11:30:47.487Z</time>
      </trkpt>
      <trkpt lat="45.79252" lon="5.74075">
        <ele>307</ele>
        <time>2020-05-31T11:30:52.493Z</time>
      </trkpt>
      <trkpt lat="45.79255" lon="5.74072">
        <ele>307</ele>
        <time>2020-05-31T11:30:57.486Z</time>
      </trkpt>
      <trkpt lat="45.7925" lon="5.74081">
        <ele>307</ele>
        <time>2020-05-31T11:36:03.475Z</time>
      </trkpt>
      <trkpt lat="45.7925" lon="5.74081">
        <ele>307</ele>
        <time>2020-05-31T11:36:07.475Z</time>
      </trkpt>
      <trkpt lat="45.79249" lon="5.74082">
        <ele>307</ele>
        <time>2020-05-31T11:36:11.483Z</time>
      </trkpt>
      <trkpt lat="45.79249" lon="5.74082">
        <ele>307</ele>
        <time>2020-05-31T11:36:16.484Z</time>
      </trkpt>
      <trkpt lat="45.79249" lon="5.74083">
        <ele>307</ele>
        <time>2020-05-31T11:36:20.482Z</time>
      </trkpt>
      <trkpt lat="45.79249" lon="5.74082">
        <ele>307</ele>
        <time>2020-05-31T11:37:16.538Z</time>
      </trkpt>
      <trkpt lat="45.7925" lon="5.74078">
        <ele>307</ele>
        <time>2020-05-31T11:37:21.488Z</time>
      </trkpt>
      <trkpt lat="45.79246" lon="5.74078">
        <ele>307</ele>
        <time>2020-05-31T11:37:25.490Z</time>
      </trkpt>
      <trkpt lat="45.79241" lon="5.7408">
        <ele>307</ele>
        <time>2020-05-31T11:37:30.480Z</time>
      </trkpt>
      <trkpt lat="45.79237" lon="5.74078">
        <ele>307</ele>
        <time>2020-05-31T11:37:34.549Z</time>
      </trkpt>
      <trkpt lat="45.79224" lon="5.74072">
        <ele>306</ele>
        <time>2020-05-31T11:38:26.487Z</time>
      </trkpt>
      <trkpt lat="45.79223" lon="5.74073">
        <ele>306</ele>
        <time>2020-05-31T11:38:31.501Z</time>
      </trkpt>
      <trkpt lat="45.79222" lon="5.74073">
        <ele>306</ele>
        <time>2020-05-31T11:38:35.501Z</time>
      </trkpt>
      <trkpt lat="45.79222" lon="5.74073">
        <ele>306</ele>
        <time>2020-05-31T11:38:40.483Z</time>
      </trkpt>
      <trkpt lat="45.79221" lon="5.74074">
        <ele>306</ele>
        <time>2020-05-31T11:38:44.490Z</time>
      </trkpt>
      <trkpt lat="45.79226" lon="5.74071">
        <ele>306</ele>
        <time>2020-05-31T11:38:58.477Z</time>
      </trkpt>
      <trkpt lat="45.79226" lon="5.74069">
        <ele>311</ele>
        <time>2020-05-31T11:39:03.548Z</time>
      </trkpt>
      <trkpt lat="45.79227" lon="5.74065">
        <ele>311</ele>
        <time>2020-05-31T11:39:08.487Z</time>
      </trkpt>
      <trkpt lat="45.79228" lon="5.74065">
        <ele>311</ele>
        <time>2020-05-31T11:39:13.499Z</time>
      </trkpt>
      <trkpt lat="45.79229" lon="5.74065">
        <ele>311</ele>
        <time>2020-05-31T11:39:18.487Z</time>
      </trkpt>
      <trkpt lat="45.79234" lon="5.74067">
        <ele>311</ele>
        <time>2020-05-31T11:40:01.475Z</time>
      </trkpt>
      <trkpt lat="45.79238" lon="5.74065">
        <ele>309</ele>
        <time>2020-05-31T11:40:05.500Z</time>
      </trkpt>
      <trkpt lat="45.79241" lon="5.74062">
        <ele>309</ele>
        <time>2020-05-31T11:40:09.477Z</time>
      </trkpt>
      <trkpt lat="45.79244" lon="5.7406">
        <ele>309</ele>
        <time>2020-05-31T11:40:14.487Z</time>
      </trkpt>
      <trkpt lat="45.79249" lon="5.74054">
        <ele>309</ele>
        <time>2020-05-31T11:40:18.496Z</time>
      </trkpt>
      <trkpt lat="45.79254" lon="5.74046">
        <ele>309</ele>
        <time>2020-05-31T11:40:23.494Z</time>
      </trkpt>
      <trkpt lat="45.79261" lon="5.74039">
        <ele>316</ele>
        <time>2020-05-31T11:40:28.487Z</time>
      </trkpt>
      <trkpt lat="45.79266" lon="5.74033">
        <ele>314</ele>
        <time>2020-05-31T11:40:33.497Z</time>
      </trkpt>
      <trkpt lat="45.7927" lon="5.74026">
        <ele>314</ele>
        <time>2020-05-31T11:40:38.503Z</time>
      </trkpt>
      <trkpt lat="45.79276" lon="5.74019">
        <ele>314</ele>
        <time>2020-05-31T11:40:43.495Z</time>
      </trkpt>
      <trkpt lat="45.79278" lon="5.74015">
        <ele>314</ele>
        <time>2020-05-31T11:40:48.482Z</time>
      </trkpt>
      <trkpt lat="45.79281" lon="5.74009">
        <ele>318</ele>
        <time>2020-05-31T11:40:52.497Z</time>
      </trkpt>
      <trkpt lat="45.79285" lon="5.74003">
        <ele>318</ele>
        <time>2020-05-31T11:40:57.560Z</time>
      </trkpt>
      <trkpt lat="45.79289" lon="5.73996">
        <ele>318</ele>
        <time>2020-05-31T11:41:02.487Z</time>
      </trkpt>
      <trkpt lat="45.79292" lon="5.73992">
        <ele>318</ele>
        <time>2020-05-31T11:41:06.497Z</time>
      </trkpt>
      <trkpt lat="45.79296" lon="5.7399">
        <ele>318</ele>
        <time>2020-05-31T11:41:11.484Z</time>
      </trkpt>
      <trkpt lat="45.79299" lon="5.73985">
        <ele>318</ele>
        <time>2020-05-31T11:41:16.496Z</time>
      </trkpt>
      <trkpt lat="45.79301" lon="5.73977">
        <ele>318</ele>
        <time>2020-05-31T11:41:20.552Z</time>
      </trkpt>
      <trkpt lat="45.79304" lon="5.73974">
        <ele>318</ele>
        <time>2020-05-31T11:41:25.490Z</time>
      </trkpt>
      <trkpt lat="45.79307" lon="5.73968">
        <ele>318</ele>
        <time>2020-05-31T11:41:30.507Z</time>
      </trkpt>
      <trkpt lat="45.79313" lon="5.7396">
        <ele>318</ele>
        <time>2020-05-31T11:41:35.498Z</time>
      </trkpt>
      <trkpt lat="45.79318" lon="5.73956">
        <ele>320</ele>
        <time>2020-05-31T11:41:40.508Z</time>
      </trkpt>
      <trkpt lat="45.79322" lon="5.73951">
        <ele>316</ele>
        <time>2020-05-31T11:41:45.493Z</time>
      </trkpt>
      <trkpt lat="45.79326" lon="5.73946">
        <ele>316</ele>
        <time>2020-05-31T11:41:49.486Z</time>
      </trkpt>
      <trkpt lat="45.79332" lon="5.73938">
        <ele>316</ele>
        <time>2020-05-31T11:41:54.497Z</time>
      </trkpt>
      <trkpt lat="45.79335" lon="5.73934">
        <ele>316</ele>
        <time>2020-05-31T11:41:58.492Z</time>
      </trkpt>
      <trkpt lat="45.79338" lon="5.73929">
        <ele>319</ele>
        <time>2020-05-31T11:42:03.500Z</time>
      </trkpt>
      <trkpt lat="45.79343" lon="5.73921">
        <ele>319</ele>
        <time>2020-05-31T11:42:08.491Z</time>
      </trkpt>
      <trkpt lat="45.79345" lon="5.73916">
        <ele>319</ele>
        <time>2020-05-31T11:42:12.500Z</time>
      </trkpt>
      <trkpt lat="45.79347" lon="5.7391">
        <ele>319</ele>
        <time>2020-05-31T11:42:17.483Z</time>
      </trkpt>
      <trkpt lat="45.79349" lon="5.73907">
        <ele>320</ele>
        <time>2020-05-31T11:42:22.488Z</time>
      </trkpt>
      <trkpt lat="45.79354" lon="5.739">
        <ele>322</ele>
        <time>2020-05-31T11:42:27.498Z</time>
      </trkpt>
      <trkpt lat="45.79357" lon="5.73893">
        <ele>322</ele>
        <time>2020-05-31T11:42:32.470Z</time>
      </trkpt>
      <trkpt lat="45.7936" lon="5.7389">
        <ele>322</ele>
        <time>2020-05-31T11:42:37.541Z</time>
      </trkpt>
      <trkpt lat="45.79363" lon="5.73883">
        <ele>322</ele>
        <time>2020-05-31T11:42:42.483Z</time>
      </trkpt>
      <trkpt lat="45.79367" lon="5.73873">
        <ele>324</ele>
        <time>2020-05-31T11:42:47.484Z</time>
      </trkpt>
      <trkpt lat="45.79371" lon="5.73866">
        <ele>324</ele>
        <time>2020-05-31T11:42:52.495Z</time>
      </trkpt>
      <trkpt lat="45.79376" lon="5.7386">
        <ele>322</ele>
        <time>2020-05-31T11:42:57.490Z</time>
      </trkpt>
      <trkpt lat="45.79379" lon="5.73856">
        <ele>322</ele>
        <time>2020-05-31T11:43:01.490Z</time>
      </trkpt>
      <trkpt lat="45.79383" lon="5.73849">
        <ele>322</ele>
        <time>2020-05-31T11:43:06.490Z</time>
      </trkpt>
      <trkpt lat="45.79387" lon="5.73842">
        <ele>324</ele>
        <time>2020-05-31T11:43:11.500Z</time>
      </trkpt>
      <trkpt lat="45.79391" lon="5.73837">
        <ele>324</ele>
        <time>2020-05-31T11:43:16.494Z</time>
      </trkpt>
      <trkpt lat="45.79394" lon="5.73828">
        <ele>324</ele>
        <time>2020-05-31T11:43:21.462Z</time>
      </trkpt>
      <trkpt lat="45.79396" lon="5.7382">
        <ele>324</ele>
        <time>2020-05-31T11:43:25.476Z</time>
      </trkpt>
      <trkpt lat="45.794" lon="5.73813">
        <ele>329</ele>
        <time>2020-05-31T11:43:30.478Z</time>
      </trkpt>
      <trkpt lat="45.79401" lon="5.73806">
        <ele>329</ele>
        <time>2020-05-31T11:43:34.507Z</time>
      </trkpt>
      <trkpt lat="45.79403" lon="5.73796">
        <ele>328</ele>
        <time>2020-05-31T11:43:39.497Z</time>
      </trkpt>
      <trkpt lat="45.79406" lon="5.73791">
        <ele>330</ele>
        <time>2020-05-31T11:43:43.483Z</time>
      </trkpt>
      <trkpt lat="45.79407" lon="5.73787">
        <ele>330</ele>
        <time>2020-05-31T11:43:48.490Z</time>
      </trkpt>
      <trkpt lat="45.79409" lon="5.73784">
        <ele>330</ele>
        <time>2020-05-31T11:43:53.492Z</time>
      </trkpt>
      <trkpt lat="45.7941" lon="5.73774">
        <ele>330</ele>
        <time>2020-05-31T11:43:58.493Z</time>
      </trkpt>
      <trkpt lat="45.79412" lon="5.73767">
        <ele>330</ele>
        <time>2020-05-31T11:44:03.489Z</time>
      </trkpt>
      <trkpt lat="45.79414" lon="5.73762">
        <ele>332</ele>
        <time>2020-05-31T11:44:08.466Z</time>
      </trkpt>
      <trkpt lat="45.79416" lon="5.73754">
        <ele>332</ele>
        <time>2020-05-31T11:44:13.526Z</time>
      </trkpt>
      <trkpt lat="45.79418" lon="5.73748">
        <ele>332</ele>
        <time>2020-05-31T11:44:18.451Z</time>
      </trkpt>
      <trkpt lat="45.79419" lon="5.73743">
        <ele>332</ele>
        <time>2020-05-31T11:44:22.449Z</time>
      </trkpt>
      <trkpt lat="45.7942" lon="5.73735">
        <ele>333</ele>
        <time>2020-05-31T11:44:26.505Z</time>
      </trkpt>
      <trkpt lat="45.79424" lon="5.73725">
        <ele>333</ele>
        <time>2020-05-31T11:44:31.462Z</time>
      </trkpt>
      <trkpt lat="45.79427" lon="5.73719">
        <ele>333</ele>
        <time>2020-05-31T11:44:35.496Z</time>
      </trkpt>
      <trkpt lat="45.79432" lon="5.73709">
        <ele>329</ele>
        <time>2020-05-31T11:44:40.495Z</time>
      </trkpt>
      <trkpt lat="45.79436" lon="5.737">
        <ele>327</ele>
        <time>2020-05-31T11:44:45.491Z</time>
      </trkpt>
      <trkpt lat="45.79442" lon="5.73692">
        <ele>327</ele>
        <time>2020-05-31T11:44:50.508Z</time>
      </trkpt>
      <trkpt lat="45.79445" lon="5.73684">
        <ele>327</ele>
        <time>2020-05-31T11:44:55.489Z</time>
      </trkpt>
      <trkpt lat="45.79449" lon="5.73679">
        <ele>327</ele>
        <time>2020-05-31T11:45:00.488Z</time>
      </trkpt>
      <trkpt lat="45.79453" lon="5.7367">
        <ele>327</ele>
        <time>2020-05-31T11:45:05.508Z</time>
      </trkpt>
      <trkpt lat="45.79458" lon="5.73663">
        <ele>327</ele>
        <time>2020-05-31T11:45:10.490Z</time>
      </trkpt>
      <trkpt lat="45.79459" lon="5.73656">
        <ele>325</ele>
        <time>2020-05-31T11:45:15.510Z</time>
      </trkpt>
      <trkpt lat="45.79463" lon="5.73647">
        <ele>324</ele>
        <time>2020-05-31T11:45:20.479Z</time>
      </trkpt>
      <trkpt lat="45.79464" lon="5.73639">
        <ele>324</ele>
        <time>2020-05-31T11:45:24.562Z</time>
      </trkpt>
      <trkpt lat="45.79468" lon="5.73628">
        <ele>324</ele>
        <time>2020-05-31T11:45:29.490Z</time>
      </trkpt>
      <trkpt lat="45.79471" lon="5.73622">
        <ele>325</ele>
        <time>2020-05-31T11:45:34.496Z</time>
      </trkpt>
      <trkpt lat="45.79472" lon="5.73615">
        <ele>325</ele>
        <time>2020-05-31T11:45:39.501Z</time>
      </trkpt>
      <trkpt lat="45.79475" lon="5.73607">
        <ele>325</ele>
        <time>2020-05-31T11:45:44.495Z</time>
      </trkpt>
      <trkpt lat="45.79478" lon="5.73603">
        <ele>325</ele>
        <time>2020-05-31T11:45:49.479Z</time>
      </trkpt>
      <trkpt lat="45.79484" lon="5.73593">
        <ele>330</ele>
        <time>2020-05-31T11:45:54.498Z</time>
      </trkpt>
      <trkpt lat="45.79487" lon="5.73584">
        <ele>331</ele>
        <time>2020-05-31T11:45:59.493Z</time>
      </trkpt>
      <trkpt lat="45.79493" lon="5.73572">
        <ele>331</ele>
        <time>2020-05-31T11:46:04.494Z</time>
      </trkpt>
      <trkpt lat="45.79497" lon="5.73564">
        <ele>333</ele>
        <time>2020-05-31T11:46:08.486Z</time>
      </trkpt>
      <trkpt lat="45.79501" lon="5.73554">
        <ele>333</ele>
        <time>2020-05-31T11:46:13.495Z</time>
      </trkpt>
      <trkpt lat="45.79505" lon="5.73546">
        <ele>333</ele>
        <time>2020-05-31T11:46:18.511Z</time>
      </trkpt>
      <trkpt lat="45.79508" lon="5.73543">
        <ele>333</ele>
        <time>2020-05-31T11:46:22.489Z</time>
      </trkpt>
      <trkpt lat="45.7951" lon="5.73535">
        <ele>335</ele>
        <time>2020-05-31T11:46:27.513Z</time>
      </trkpt>
      <trkpt lat="45.79513" lon="5.73525">
        <ele>335</ele>
        <time>2020-05-31T11:46:32.465Z</time>
      </trkpt>
      <trkpt lat="45.79516" lon="5.73521">
        <ele>333</ele>
        <time>2020-05-31T11:46:36.504Z</time>
      </trkpt>
      <trkpt lat="45.79519" lon="5.73515">
        <ele>333</ele>
        <time>2020-05-31T11:46:40.502Z</time>
      </trkpt>
      <trkpt lat="45.79524" lon="5.73507">
        <ele>332</ele>
        <time>2020-05-31T11:46:45.477Z</time>
      </trkpt>
      <trkpt lat="45.79526" lon="5.735">
        <ele>332</ele>
        <time>2020-05-31T11:46:50.541Z</time>
      </trkpt>
      <trkpt lat="45.79527" lon="5.73492">
        <ele>332</ele>
        <time>2020-05-31T11:46:55.498Z</time>
      </trkpt>
      <trkpt lat="45.79529" lon="5.73482">
        <ele>333</ele>
        <time>2020-05-31T11:47:00.510Z</time>
      </trkpt>
      <trkpt lat="45.79532" lon="5.73474">
        <ele>333</ele>
        <time>2020-05-31T11:47:04.501Z</time>
      </trkpt>
      <trkpt lat="45.79535" lon="5.73466">
        <ele>333</ele>
        <time>2020-05-31T11:47:09.488Z</time>
      </trkpt>
      <trkpt lat="45.79539" lon="5.7346">
        <ele>333</ele>
        <time>2020-05-31T11:47:13.498Z</time>
      </trkpt>
      <trkpt lat="45.79542" lon="5.73453">
        <ele>333</ele>
        <time>2020-05-31T11:47:18.508Z</time>
      </trkpt>
      <trkpt lat="45.79545" lon="5.73446">
        <ele>333</ele>
        <time>2020-05-31T11:47:23.496Z</time>
      </trkpt>
      <trkpt lat="45.79549" lon="5.73437">
        <ele>333</ele>
        <time>2020-05-31T11:47:28.494Z</time>
      </trkpt>
      <trkpt lat="45.79554" lon="5.73429">
        <ele>335</ele>
        <time>2020-05-31T11:47:33.499Z</time>
      </trkpt>
      <trkpt lat="45.7956" lon="5.73421">
        <ele>335</ele>
        <time>2020-05-31T11:47:38.501Z</time>
      </trkpt>
      <trkpt lat="45.79565" lon="5.73413">
        <ele>335</ele>
        <time>2020-05-31T11:47:43.495Z</time>
      </trkpt>
      <trkpt lat="45.79571" lon="5.734">
        <ele>331</ele>
        <time>2020-05-31T11:47:48.496Z</time>
      </trkpt>
      <trkpt lat="45.79575" lon="5.73392">
        <ele>331</ele>
        <time>2020-05-31T11:47:53.554Z</time>
      </trkpt>
      <trkpt lat="45.79578" lon="5.73379">
        <ele>331</ele>
        <time>2020-05-31T11:47:58.503Z</time>
      </trkpt>
      <trkpt lat="45.79579" lon="5.7337">
        <ele>330</ele>
        <time>2020-05-31T11:48:03.469Z</time>
      </trkpt>
      <trkpt lat="45.79583" lon="5.73363">
        <ele>330</ele>
        <time>2020-05-31T11:48:07.497Z</time>
      </trkpt>
      <trkpt lat="45.79589" lon="5.73351">
        <ele>330</ele>
        <time>2020-05-31T11:48:12.495Z</time>
      </trkpt>
      <trkpt lat="45.79594" lon="5.73338">
        <ele>331</ele>
        <time>2020-05-31T11:48:17.473Z</time>
      </trkpt>
      <trkpt lat="45.79598" lon="5.73331">
        <ele>327</ele>
        <time>2020-05-31T11:48:22.503Z</time>
      </trkpt>
      <trkpt lat="45.796" lon="5.73324">
        <ele>327</ele>
        <time>2020-05-31T11:48:27.510Z</time>
      </trkpt>
      <trkpt lat="45.79602" lon="5.73319">
        <ele>331</ele>
        <time>2020-05-31T11:48:32.482Z</time>
      </trkpt>
      <trkpt lat="45.79606" lon="5.73323">
        <ele>327</ele>
        <time>2020-05-31T11:48:37.507Z</time>
      </trkpt>
      <trkpt lat="45.7961" lon="5.73332">
        <ele>327</ele>
        <time>2020-05-31T11:48:42.503Z</time>
      </trkpt>
      <trkpt lat="45.79613" lon="5.73341">
        <ele>327</ele>
        <time>2020-05-31T11:48:46.509Z</time>
      </trkpt>
      <trkpt lat="45.79622" lon="5.73353">
        <ele>327</ele>
        <time>2020-05-31T11:48:51.461Z</time>
      </trkpt>
      <trkpt lat="45.79627" lon="5.73359">
        <ele>328</ele>
        <time>2020-05-31T11:48:55.492Z</time>
      </trkpt>
      <trkpt lat="45.79631" lon="5.73366">
        <ele>328</ele>
        <time>2020-05-31T11:49:00.485Z</time>
      </trkpt>
      <trkpt lat="45.79637" lon="5.73372">
        <ele>328</ele>
        <time>2020-05-31T11:49:05.510Z</time>
      </trkpt>
      <trkpt lat="45.79643" lon="5.73373">
        <ele>328</ele>
        <time>2020-05-31T11:49:10.503Z</time>
      </trkpt>
      <trkpt lat="45.79652" lon="5.73373">
        <ele>328</ele>
        <time>2020-05-31T11:49:15.483Z</time>
      </trkpt>
      <trkpt lat="45.79673" lon="5.73356">
        <ele>329</ele>
        <time>2020-05-31T11:49:19.509Z</time>
      </trkpt>
      <trkpt lat="45.797" lon="5.73326">
        <ele>327</ele>
        <time>2020-05-31T11:49:24.490Z</time>
      </trkpt>
      <trkpt lat="45.79725" lon="5.73297">
        <ele>329</ele>
        <time>2020-05-31T11:49:29.499Z</time>
      </trkpt>
      <trkpt lat="45.79745" lon="5.73271">
        <ele>333</ele>
        <time>2020-05-31T11:49:34.454Z</time>
      </trkpt>
      <trkpt lat="45.79759" lon="5.73245">
        <ele>329</ele>
        <time>2020-05-31T11:49:38.482Z</time>
      </trkpt>
      <trkpt lat="45.7978" lon="5.7322">
        <ele>328</ele>
        <time>2020-05-31T11:49:43.494Z</time>
      </trkpt>
      <trkpt lat="45.79803" lon="5.73197">
        <ele>326</ele>
        <time>2020-05-31T11:49:48.500Z</time>
      </trkpt>
      <trkpt lat="45.79828" lon="5.73185">
        <ele>326</ele>
        <time>2020-05-31T11:49:53.486Z</time>
      </trkpt>
      <trkpt lat="45.7985" lon="5.73181">
        <ele>330</ele>
        <time>2020-05-31T11:49:57.497Z</time>
      </trkpt>
      <trkpt lat="45.79872" lon="5.73184">
        <ele>330</ele>
        <time>2020-05-31T11:50:02.479Z</time>
      </trkpt>
      <trkpt lat="45.79888" lon="5.73184">
        <ele>332</ele>
        <time>2020-05-31T11:50:07.485Z</time>
      </trkpt>
      <trkpt lat="45.79895" lon="5.73183">
        <ele>332</ele>
        <time>2020-05-31T11:50:12.497Z</time>
      </trkpt>
      <trkpt lat="45.79902" lon="5.73183">
        <ele>332</ele>
        <time>2020-05-31T11:50:17.491Z</time>
      </trkpt>
      <trkpt lat="45.79911" lon="5.73181">
        <ele>331</ele>
        <time>2020-05-31T11:50:36.498Z</time>
      </trkpt>
      <trkpt lat="45.79918" lon="5.7318">
        <ele>330</ele>
        <time>2020-05-31T11:50:41.507Z</time>
      </trkpt>
      <trkpt lat="45.79931" lon="5.73179">
        <ele>328</ele>
        <time>2020-05-31T11:50:46.508Z</time>
      </trkpt>
      <trkpt lat="45.7994" lon="5.7318">
        <ele>328</ele>
        <time>2020-05-31T11:50:51.497Z</time>
      </trkpt>
      <trkpt lat="45.79948" lon="5.73179">
        <ele>328</ele>
        <time>2020-05-31T11:50:56.486Z</time>
      </trkpt>
      <trkpt lat="45.7995" lon="5.73176">
        <ele>328</ele>
        <time>2020-05-31T11:51:00.498Z</time>
      </trkpt>
      <trkpt lat="45.79957" lon="5.73171">
        <ele>328</ele>
        <time>2020-05-31T11:51:05.472Z</time>
      </trkpt>
      <trkpt lat="45.79959" lon="5.73171">
        <ele>325</ele>
        <time>2020-05-31T11:51:09.498Z</time>
      </trkpt>
      <trkpt lat="45.79966" lon="5.73166">
        <ele>325</ele>
        <time>2020-05-31T11:51:14.494Z</time>
      </trkpt>
      <trkpt lat="45.79974" lon="5.73163">
        <ele>325</ele>
        <time>2020-05-31T11:51:18.553Z</time>
      </trkpt>
      <trkpt lat="45.79978" lon="5.73162">
        <ele>325</ele>
        <time>2020-05-31T11:51:23.507Z</time>
      </trkpt>
      <trkpt lat="45.79984" lon="5.73165">
        <ele>325</ele>
        <time>2020-05-31T11:51:28.510Z</time>
      </trkpt>
      <trkpt lat="45.79988" lon="5.73166">
        <ele>322</ele>
        <time>2020-05-31T11:51:33.494Z</time>
      </trkpt>
      <trkpt lat="45.79993" lon="5.73169">
        <ele>322</ele>
        <time>2020-05-31T11:51:42.541Z</time>
      </trkpt>
      <trkpt lat="45.8" lon="5.73176">
        <ele>322</ele>
        <time>2020-05-31T11:51:47.503Z</time>
      </trkpt>
      <trkpt lat="45.80007" lon="5.73183">
        <ele>323</ele>
        <time>2020-05-31T11:51:52.494Z</time>
      </trkpt>
      <trkpt lat="45.80012" lon="5.7319">
        <ele>323</ele>
        <time>2020-05-31T11:51:57.486Z</time>
      </trkpt>
      <trkpt lat="45.80019" lon="5.73201">
        <ele>323</ele>
        <time>2020-05-31T11:52:07.499Z</time>
      </trkpt>
      <trkpt lat="45.80027" lon="5.73208">
        <ele>323</ele>
        <time>2020-05-31T11:52:11.499Z</time>
      </trkpt>
      <trkpt lat="45.80029" lon="5.73209">
        <ele>326</ele>
        <time>2020-05-31T11:52:16.511Z</time>
      </trkpt>
      <trkpt lat="45.80037" lon="5.73219">
        <ele>326</ele>
        <time>2020-05-31T11:52:21.567Z</time>
      </trkpt>
      <trkpt lat="45.80042" lon="5.73221">
        <ele>327</ele>
        <time>2020-05-31T11:52:31.481Z</time>
      </trkpt>
      <trkpt lat="45.80049" lon="5.73222">
        <ele>327</ele>
        <time>2020-05-31T11:52:35.508Z</time>
      </trkpt>
      <trkpt lat="45.80054" lon="5.7322">
        <ele>327</ele>
        <time>2020-05-31T11:52:44.502Z</time>
      </trkpt>
      <trkpt lat="45.80061" lon="5.73218">
        <ele>327</ele>
        <time>2020-05-31T11:52:54.509Z</time>
      </trkpt>
      <trkpt lat="45.80073" lon="5.73214">
        <ele>327</ele>
        <time>2020-05-31T11:52:59.486Z</time>
      </trkpt>
      <trkpt lat="45.80081" lon="5.73211">
        <ele>327</ele>
        <time>2020-05-31T11:53:03.501Z</time>
      </trkpt>
      <trkpt lat="45.80086" lon="5.7321">
        <ele>327</ele>
        <time>2020-05-31T11:53:08.486Z</time>
      </trkpt>
      <trkpt lat="45.80093" lon="5.73209">
        <ele>327</ele>
        <time>2020-05-31T11:53:13.489Z</time>
      </trkpt>
      <trkpt lat="45.80106" lon="5.73206">
        <ele>323</ele>
        <time>2020-05-31T11:53:22.480Z</time>
      </trkpt>
      <trkpt lat="45.80116" lon="5.73202">
        <ele>323</ele>
        <time>2020-05-31T11:53:31.481Z</time>
      </trkpt>
      <trkpt lat="45.80124" lon="5.73197">
        <ele>323</ele>
        <time>2020-05-31T11:53:36.486Z</time>
      </trkpt>
      <trkpt lat="45.80128" lon="5.73196">
        <ele>318</ele>
        <time>2020-05-31T11:53:40.496Z</time>
      </trkpt>
      <trkpt lat="45.80134" lon="5.73194">
        <ele>318</ele>
        <time>2020-05-31T11:53:45.499Z</time>
      </trkpt>
      <trkpt lat="45.80142" lon="5.73195">
        <ele>318</ele>
        <time>2020-05-31T11:53:55.506Z</time>
      </trkpt>
      <trkpt lat="45.80149" lon="5.73198">
        <ele>318</ele>
        <time>2020-05-31T11:54:00.506Z</time>
      </trkpt>
      <trkpt lat="45.80157" lon="5.73202">
        <ele>313</ele>
        <time>2020-05-31T11:54:05.464Z</time>
      </trkpt>
      <trkpt lat="45.80163" lon="5.73206">
        <ele>313</ele>
        <time>2020-05-31T11:54:09.487Z</time>
      </trkpt>
      <trkpt lat="45.80172" lon="5.73212">
        <ele>318</ele>
        <time>2020-05-31T11:54:14.544Z</time>
      </trkpt>
      <trkpt lat="45.80179" lon="5.73216">
        <ele>318</ele>
        <time>2020-05-31T11:54:19.476Z</time>
      </trkpt>
      <trkpt lat="45.80186" lon="5.7322">
        <ele>315</ele>
        <time>2020-05-31T11:54:24.502Z</time>
      </trkpt>
      <trkpt lat="45.802" lon="5.73225">
        <ele>315</ele>
        <time>2020-05-31T11:54:29.497Z</time>
      </trkpt>
      <trkpt lat="45.80205" lon="5.73227">
        <ele>315</ele>
        <time>2020-05-31T11:54:38.500Z</time>
      </trkpt>
      <trkpt lat="45.80212" lon="5.73233">
        <ele>311</ele>
        <time>2020-05-31T11:54:53.489Z</time>
      </trkpt>
      <trkpt lat="45.80221" lon="5.73235">
        <ele>311</ele>
        <time>2020-05-31T11:55:08.485Z</time>
      </trkpt>
      <trkpt lat="45.80223" lon="5.73236">
        <ele>311</ele>
        <time>2020-05-31T11:55:12.499Z</time>
      </trkpt>
      <trkpt lat="45.80225" lon="5.73237">
        <ele>314</ele>
        <time>2020-05-31T11:55:17.543Z</time>
      </trkpt>
      <trkpt lat="45.80228" lon="5.73237">
        <ele>314</ele>
        <time>2020-05-31T11:55:22.496Z</time>
      </trkpt>
      <trkpt lat="45.80229" lon="5.73237">
        <ele>314</ele>
        <time>2020-05-31T11:55:26.506Z</time>
      </trkpt>
      <trkpt lat="45.80233" lon="5.73236">
        <ele>314</ele>
        <time>2020-05-31T11:55:31.497Z</time>
      </trkpt>
      <trkpt lat="45.80237" lon="5.73236">
        <ele>309</ele>
        <time>2020-05-31T11:55:36.470Z</time>
      </trkpt>
      <trkpt lat="45.8024" lon="5.73239">
        <ele>309</ele>
        <time>2020-05-31T11:55:40.491Z</time>
      </trkpt>
      <trkpt lat="45.80242" lon="5.7324">
        <ele>309</ele>
        <time>2020-05-31T11:55:44.496Z</time>
      </trkpt>
      <trkpt lat="45.80248" lon="5.73241">
        <ele>309</ele>
        <time>2020-05-31T11:55:49.486Z</time>
      </trkpt>
      <trkpt lat="45.80251" lon="5.73241">
        <ele>309</ele>
        <time>2020-05-31T11:55:54.529Z</time>
      </trkpt>
      <trkpt lat="45.80252" lon="5.7324">
        <ele>309</ele>
        <time>2020-05-31T11:55:58.508Z</time>
      </trkpt>
      <trkpt lat="45.80258" lon="5.73244">
        <ele>309</ele>
        <time>2020-05-31T11:56:58.482Z</time>
      </trkpt>
      <trkpt lat="45.80258" lon="5.73244">
        <ele>309</ele>
        <time>2020-05-31T11:57:03.485Z</time>
      </trkpt>
      <trkpt lat="45.80259" lon="5.73247">
        <ele>309</ele>
        <time>2020-05-31T11:57:08.501Z</time>
      </trkpt>
      <trkpt lat="45.80261" lon="5.73254">
        <ele>309</ele>
        <time>2020-05-31T11:57:12.489Z</time>
      </trkpt>
      <trkpt lat="45.80262" lon="5.73259">
        <ele>309</ele>
        <time>2020-05-31T11:57:16.514Z</time>
      </trkpt>
      <trkpt lat="45.80264" lon="5.73268">
        <ele>312</ele>
        <time>2020-05-31T11:57:21.462Z</time>
      </trkpt>
      <trkpt lat="45.80265" lon="5.73273">
        <ele>307</ele>
        <time>2020-05-31T11:57:25.490Z</time>
      </trkpt>
      <trkpt lat="45.80268" lon="5.73281">
        <ele>307</ele>
        <time>2020-05-31T11:57:29.483Z</time>
      </trkpt>
      <trkpt lat="45.80272" lon="5.73292">
        <ele>309</ele>
        <time>2020-05-31T11:57:34.486Z</time>
      </trkpt>
      <trkpt lat="45.80274" lon="5.73301">
        <ele>309</ele>
        <time>2020-05-31T11:57:39.510Z</time>
      </trkpt>
      <trkpt lat="45.80277" lon="5.7331">
        <ele>309</ele>
        <time>2020-05-31T11:57:44.487Z</time>
      </trkpt>
      <trkpt lat="45.80278" lon="5.73319">
        <ele>309</ele>
        <time>2020-05-31T11:57:49.490Z</time>
      </trkpt>
      <trkpt lat="45.8028" lon="5.73328">
        <ele>310</ele>
        <time>2020-05-31T11:57:53.552Z</time>
      </trkpt>
      <trkpt lat="45.80283" lon="5.73336">
        <ele>310</ele>
        <time>2020-05-31T11:57:58.457Z</time>
      </trkpt>
      <trkpt lat="45.80285" lon="5.73342">
        <ele>310</ele>
        <time>2020-05-31T11:58:02.502Z</time>
      </trkpt>
      <trkpt lat="45.80289" lon="5.73348">
        <ele>312</ele>
        <time>2020-05-31T11:58:07.502Z</time>
      </trkpt>
      <trkpt lat="45.80293" lon="5.7335">
        <ele>308</ele>
        <time>2020-05-31T11:58:12.509Z</time>
      </trkpt>
      <trkpt lat="45.80296" lon="5.73354">
        <ele>308</ele>
        <time>2020-05-31T11:58:17.529Z</time>
      </trkpt>
      <trkpt lat="45.803" lon="5.73361">
        <ele>308</ele>
        <time>2020-05-31T11:58:22.547Z</time>
      </trkpt>
      <trkpt lat="45.80301" lon="5.73365">
        <ele>308</ele>
        <time>2020-05-31T11:58:27.447Z</time>
      </trkpt>
      <trkpt lat="45.80305" lon="5.7337">
        <ele>308</ele>
        <time>2020-05-31T11:58:31.468Z</time>
      </trkpt>
      <trkpt lat="45.8031" lon="5.73379">
        <ele>309</ele>
        <time>2020-05-31T11:58:35.483Z</time>
      </trkpt>
      <trkpt lat="45.80315" lon="5.73388">
        <ele>309</ele>
        <time>2020-05-31T11:58:40.491Z</time>
      </trkpt>
      <trkpt lat="45.8032" lon="5.73397">
        <ele>303</ele>
        <time>2020-05-31T11:58:44.499Z</time>
      </trkpt>
      <trkpt lat="45.80326" lon="5.73405">
        <ele>303</ele>
        <time>2020-05-31T11:58:49.561Z</time>
      </trkpt>
      <trkpt lat="45.80331" lon="5.73414">
        <ele>303</ele>
        <time>2020-05-31T11:58:54.497Z</time>
      </trkpt>
      <trkpt lat="45.80334" lon="5.73424">
        <ele>303</ele>
        <time>2020-05-31T11:58:59.492Z</time>
      </trkpt>
      <trkpt lat="45.80337" lon="5.73434">
        <ele>303</ele>
        <time>2020-05-31T11:59:04.458Z</time>
      </trkpt>
      <trkpt lat="45.80339" lon="5.73441">
        <ele>303</ele>
        <time>2020-05-31T11:59:08.495Z</time>
      </trkpt>
      <trkpt lat="45.80342" lon="5.73451">
        <ele>303</ele>
        <time>2020-05-31T11:59:13.470Z</time>
      </trkpt>
      <trkpt lat="45.80343" lon="5.73458">
        <ele>303</ele>
        <time>2020-05-31T11:59:17.493Z</time>
      </trkpt>
      <trkpt lat="45.80343" lon="5.73464">
        <ele>305</ele>
        <time>2020-05-31T11:59:21.504Z</time>
      </trkpt>
      <trkpt lat="45.8034" lon="5.73473">
        <ele>305</ele>
        <time>2020-05-31T11:59:26.481Z</time>
      </trkpt>
      <trkpt lat="45.80336" lon="5.7348">
        <ele>305</ele>
        <time>2020-05-31T11:59:31.507Z</time>
      </trkpt>
      <trkpt lat="45.8033" lon="5.73486">
        <ele>306</ele>
        <time>2020-05-31T11:59:36.508Z</time>
      </trkpt>
      <trkpt lat="45.80324" lon="5.73492">
        <ele>306</ele>
        <time>2020-05-31T11:59:41.479Z</time>
      </trkpt>
      <trkpt lat="45.80319" lon="5.73496">
        <ele>307</ele>
        <time>2020-05-31T11:59:45.504Z</time>
      </trkpt>
      <trkpt lat="45.80314" lon="5.73502">
        <ele>307</ele>
        <time>2020-05-31T11:59:50.515Z</time>
      </trkpt>
      <trkpt lat="45.80308" lon="5.73507">
        <ele>307</ele>
        <time>2020-05-31T11:59:55.512Z</time>
      </trkpt>
      <trkpt lat="45.80302" lon="5.73515">
        <ele>305</ele>
        <time>2020-05-31T12:00:00.507Z</time>
      </trkpt>
      <trkpt lat="45.80296" lon="5.7352">
        <ele>305</ele>
        <time>2020-05-31T12:00:05.512Z</time>
      </trkpt>
      <trkpt lat="45.8029" lon="5.73527">
        <ele>310</ele>
        <time>2020-05-31T12:00:10.463Z</time>
      </trkpt>
      <trkpt lat="45.80286" lon="5.73533">
        <ele>310</ele>
        <time>2020-05-31T12:00:14.503Z</time>
      </trkpt>
      <trkpt lat="45.80281" lon="5.73538">
        <ele>310</ele>
        <time>2020-05-31T12:00:18.507Z</time>
      </trkpt>
      <trkpt lat="45.80278" lon="5.7354">
        <ele>310</ele>
        <time>2020-05-31T12:00:23.501Z</time>
      </trkpt>
      <trkpt lat="45.80271" lon="5.73545">
        <ele>308</ele>
        <time>2020-05-31T12:00:28.512Z</time>
      </trkpt>
      <trkpt lat="45.80266" lon="5.73548">
        <ele>308</ele>
        <time>2020-05-31T12:00:32.550Z</time>
      </trkpt>
      <trkpt lat="45.8026" lon="5.73551">
        <ele>312</ele>
        <time>2020-05-31T12:00:37.513Z</time>
      </trkpt>
      <trkpt lat="45.80256" lon="5.73553">
        <ele>312</ele>
        <time>2020-05-31T12:00:42.502Z</time>
      </trkpt>
      <trkpt lat="45.80252" lon="5.73557">
        <ele>312</ele>
        <time>2020-05-31T12:00:46.506Z</time>
      </trkpt>
      <trkpt lat="45.80247" lon="5.7356">
        <ele>312</ele>
        <time>2020-05-31T12:00:51.477Z</time>
      </trkpt>
      <trkpt lat="45.80244" lon="5.73562">
        <ele>312</ele>
        <time>2020-05-31T12:00:55.502Z</time>
      </trkpt>
      <trkpt lat="45.80238" lon="5.73567">
        <ele>312</ele>
        <time>2020-05-31T12:01:00.512Z</time>
      </trkpt>
      <trkpt lat="45.80232" lon="5.73572">
        <ele>312</ele>
        <time>2020-05-31T12:01:04.511Z</time>
      </trkpt>
      <trkpt lat="45.80225" lon="5.73579">
        <ele>312</ele>
        <time>2020-05-31T12:01:09.489Z</time>
      </trkpt>
      <trkpt lat="45.80221" lon="5.73583">
        <ele>312</ele>
        <time>2020-05-31T12:01:13.518Z</time>
      </trkpt>
      <trkpt lat="45.80218" lon="5.73584">
        <ele>312</ele>
        <time>2020-05-31T12:01:18.512Z</time>
      </trkpt>
      <trkpt lat="45.8021" lon="5.73589">
        <ele>312</ele>
        <time>2020-05-31T12:01:23.509Z</time>
      </trkpt>
      <trkpt lat="45.80203" lon="5.73594">
        <ele>316</ele>
        <time>2020-05-31T12:01:28.505Z</time>
      </trkpt>
      <trkpt lat="45.80185" lon="5.73609">
        <ele>312</ele>
        <time>2020-05-31T12:01:32.499Z</time>
      </trkpt>
      <trkpt lat="45.80159" lon="5.7363">
        <ele>315</ele>
        <time>2020-05-31T12:01:37.502Z</time>
      </trkpt>
      <trkpt lat="45.8013" lon="5.73652">
        <ele>319</ele>
        <time>2020-05-31T12:01:42.493Z</time>
      </trkpt>
      <trkpt lat="45.80121" lon="5.73662">
        <ele>319</ele>
        <time>2020-05-31T12:01:47.487Z</time>
      </trkpt>
      <trkpt lat="45.80114" lon="5.73667">
        <ele>319</ele>
        <time>2020-05-31T12:01:52.494Z</time>
      </trkpt>
      <trkpt lat="45.8011" lon="5.73669">
        <ele>319</ele>
        <time>2020-05-31T12:01:56.500Z</time>
      </trkpt>
      <trkpt lat="45.80093" lon="5.73678">
        <ele>326</ele>
        <time>2020-05-31T12:02:00.506Z</time>
      </trkpt>
      <trkpt lat="45.80083" lon="5.73686">
        <ele>322</ele>
        <time>2020-05-31T12:02:05.491Z</time>
      </trkpt>
      <trkpt lat="45.80076" lon="5.73692">
        <ele>322</ele>
        <time>2020-05-31T12:02:14.502Z</time>
      </trkpt>
      <trkpt lat="45.80069" lon="5.73697">
        <ele>326</ele>
        <time>2020-05-31T12:02:19.495Z</time>
      </trkpt>
      <trkpt lat="45.80054" lon="5.73706">
        <ele>326</ele>
        <time>2020-05-31T12:02:34.499Z</time>
      </trkpt>
      <trkpt lat="45.80037" lon="5.73719">
        <ele>327</ele>
        <time>2020-05-31T12:02:39.495Z</time>
      </trkpt>
      <trkpt lat="45.80028" lon="5.73731">
        <ele>327</ele>
        <time>2020-05-31T12:02:44.505Z</time>
      </trkpt>
      <trkpt lat="45.80023" lon="5.73739">
        <ele>323</ele>
        <time>2020-05-31T12:02:49.500Z</time>
      </trkpt>
      <trkpt lat="45.80021" lon="5.73743">
        <ele>323</ele>
        <time>2020-05-31T12:02:54.558Z</time>
      </trkpt>
      <trkpt lat="45.80016" lon="5.73752">
        <ele>323</ele>
        <time>2020-05-31T12:02:59.490Z</time>
      </trkpt>
      <trkpt lat="45.80011" lon="5.73759">
        <ele>328</ele>
        <time>2020-05-31T12:03:09.502Z</time>
      </trkpt>
      <trkpt lat="45.80007" lon="5.73765">
        <ele>322</ele>
        <time>2020-05-31T12:03:19.503Z</time>
      </trkpt>
      <trkpt lat="45.79996" lon="5.73782">
        <ele>322</ele>
        <time>2020-05-31T12:03:29.482Z</time>
      </trkpt>
      <trkpt lat="45.79983" lon="5.73794">
        <ele>319</ele>
        <time>2020-05-31T12:03:34.512Z</time>
      </trkpt>
      <trkpt lat="45.79971" lon="5.73803">
        <ele>319</ele>
        <time>2020-05-31T12:03:39.507Z</time>
      </trkpt>
      <trkpt lat="45.79966" lon="5.73808">
        <ele>319</ele>
        <time>2020-05-31T12:03:43.521Z</time>
      </trkpt>
      <trkpt lat="45.7996" lon="5.73813">
        <ele>319</ele>
        <time>2020-05-31T12:03:48.499Z</time>
      </trkpt>
      <trkpt lat="45.79952" lon="5.73821">
        <ele>315</ele>
        <time>2020-05-31T12:03:53.506Z</time>
      </trkpt>
      <trkpt lat="45.79948" lon="5.73827">
        <ele>315</ele>
        <time>2020-05-31T12:03:58.503Z</time>
      </trkpt>
      <trkpt lat="45.79945" lon="5.73835">
        <ele>315</ele>
        <time>2020-05-31T12:04:03.499Z</time>
      </trkpt>
      <trkpt lat="45.79937" lon="5.73847">
        <ele>310</ele>
        <time>2020-05-31T12:04:08.511Z</time>
      </trkpt>
      <trkpt lat="45.79933" lon="5.73852">
        <ele>310</ele>
        <time>2020-05-31T12:04:13.517Z</time>
      </trkpt>
      <trkpt lat="45.79924" lon="5.73859">
        <ele>312</ele>
        <time>2020-05-31T12:04:18.494Z</time>
      </trkpt>
      <trkpt lat="45.79916" lon="5.73866">
        <ele>312</ele>
        <time>2020-05-31T12:04:23.505Z</time>
      </trkpt>
      <trkpt lat="45.79911" lon="5.73872">
        <ele>312</ele>
        <time>2020-05-31T12:04:28.514Z</time>
      </trkpt>
      <trkpt lat="45.79905" lon="5.73877">
        <ele>307</ele>
        <time>2020-05-31T12:04:33.494Z</time>
      </trkpt>
      <trkpt lat="45.79899" lon="5.73883">
        <ele>310</ele>
        <time>2020-05-31T12:04:38.469Z</time>
      </trkpt>
      <trkpt lat="45.79895" lon="5.73889">
        <ele>310</ele>
        <time>2020-05-31T12:04:43.532Z</time>
      </trkpt>
      <trkpt lat="45.79889" lon="5.73895">
        <ele>310</ele>
        <time>2020-05-31T12:04:48.496Z</time>
      </trkpt>
      <trkpt lat="45.79883" lon="5.73902">
        <ele>310</ele>
        <time>2020-05-31T12:04:53.507Z</time>
      </trkpt>
      <trkpt lat="45.7988" lon="5.73907">
        <ele>304</ele>
        <time>2020-05-31T12:04:58.490Z</time>
      </trkpt>
      <trkpt lat="45.79879" lon="5.7391">
        <ele>304</ele>
        <time>2020-05-31T12:05:37.504Z</time>
      </trkpt>
      <trkpt lat="45.79879" lon="5.73917">
        <ele>304</ele>
        <time>2020-05-31T12:05:41.521Z</time>
      </trkpt>
      <trkpt lat="45.79881" lon="5.73925">
        <ele>304</ele>
        <time>2020-05-31T12:05:46.511Z</time>
      </trkpt>
      <trkpt lat="45.79884" lon="5.73932">
        <ele>301</ele>
        <time>2020-05-31T12:05:51.518Z</time>
      </trkpt>
      <trkpt lat="45.79885" lon="5.73938">
        <ele>301</ele>
        <time>2020-05-31T12:05:56.515Z</time>
      </trkpt>
      <trkpt lat="45.79887" lon="5.73942">
        <ele>301</ele>
        <time>2020-05-31T12:06:06.477Z</time>
      </trkpt>
      <trkpt lat="45.79888" lon="5.73947">
        <ele>301</ele>
        <time>2020-05-31T12:06:10.547Z</time>
      </trkpt>
      <trkpt lat="45.7989" lon="5.73956">
        <ele>301</ele>
        <time>2020-05-31T12:06:15.519Z</time>
      </trkpt>
      <trkpt lat="45.79893" lon="5.73964">
        <ele>299</ele>
        <time>2020-05-31T12:06:20.491Z</time>
      </trkpt>
      <trkpt lat="45.79895" lon="5.73971">
        <ele>299</ele>
        <time>2020-05-31T12:06:25.514Z</time>
      </trkpt>
      <trkpt lat="45.79897" lon="5.73979">
        <ele>299</ele>
        <time>2020-05-31T12:06:30.516Z</time>
      </trkpt>
      <trkpt lat="45.79899" lon="5.73987">
        <ele>299</ele>
        <time>2020-05-31T12:06:35.483Z</time>
      </trkpt>
      <trkpt lat="45.799" lon="5.73992">
        <ele>299</ele>
        <time>2020-05-31T12:06:39.508Z</time>
      </trkpt>
      <trkpt lat="45.79903" lon="5.74">
        <ele>298</ele>
        <time>2020-05-31T12:06:44.495Z</time>
      </trkpt>
      <trkpt lat="45.79906" lon="5.74009">
        <ele>298</ele>
        <time>2020-05-31T12:06:49.511Z</time>
      </trkpt>
      <trkpt lat="45.79908" lon="5.74018">
        <ele>296</ele>
        <time>2020-05-31T12:06:54.500Z</time>
      </trkpt>
      <trkpt lat="45.79911" lon="5.74026">
        <ele>296</ele>
        <time>2020-05-31T12:06:59.499Z</time>
      </trkpt>
      <trkpt lat="45.79913" lon="5.74033">
        <ele>296</ele>
        <time>2020-05-31T12:07:04.496Z</time>
      </trkpt>
      <trkpt lat="45.79915" lon="5.74041">
        <ele>296</ele>
        <time>2020-05-31T12:07:09.543Z</time>
      </trkpt>
      <trkpt lat="45.79918" lon="5.74049">
        <ele>294</ele>
        <time>2020-05-31T12:07:14.513Z</time>
      </trkpt>
      <trkpt lat="45.7992" lon="5.74057">
        <ele>294</ele>
        <time>2020-05-31T12:07:19.492Z</time>
      </trkpt>
      <trkpt lat="45.79922" lon="5.74065">
        <ele>294</ele>
        <time>2020-05-31T12:07:24.507Z</time>
      </trkpt>
      <trkpt lat="45.79923" lon="5.7407">
        <ele>290</ele>
        <time>2020-05-31T12:07:29.497Z</time>
      </trkpt>
      <trkpt lat="45.79925" lon="5.74074">
        <ele>290</ele>
        <time>2020-05-31T12:07:33.497Z</time>
      </trkpt>
      <trkpt lat="45.79928" lon="5.74081">
        <ele>290</ele>
        <time>2020-05-31T12:07:38.507Z</time>
      </trkpt>
      <trkpt lat="45.7993" lon="5.74087">
        <ele>290</ele>
        <time>2020-05-31T12:07:43.486Z</time>
      </trkpt>
      <trkpt lat="45.79932" lon="5.74095">
        <ele>287</ele>
        <time>2020-05-31T12:07:48.493Z</time>
      </trkpt>
      <trkpt lat="45.79936" lon="5.74103">
        <ele>285</ele>
        <time>2020-05-31T12:07:53.486Z</time>
      </trkpt>
      <trkpt lat="45.79941" lon="5.74108">
        <ele>285</ele>
        <time>2020-05-31T12:07:58.497Z</time>
      </trkpt>
      <trkpt lat="45.79944" lon="5.74116">
        <ele>285</ele>
        <time>2020-05-31T12:08:07.514Z</time>
      </trkpt>
      <trkpt lat="45.79944" lon="5.74118">
        <ele>285</ele>
        <time>2020-05-31T12:08:12.497Z</time>
      </trkpt>
      <trkpt lat="45.79944" lon="5.74118">
        <ele>285</ele>
        <time>2020-05-31T12:08:17.487Z</time>
      </trkpt>
      <trkpt lat="45.79948" lon="5.74123">
        <ele>285</ele>
        <time>2020-05-31T12:08:22.509Z</time>
      </trkpt>
      <trkpt lat="45.79952" lon="5.74128">
        <ele>283</ele>
        <time>2020-05-31T12:08:27.496Z</time>
      </trkpt>
      <trkpt lat="45.79955" lon="5.74133">
        <ele>283</ele>
        <time>2020-05-31T12:08:31.498Z</time>
      </trkpt>
      <trkpt lat="45.79959" lon="5.74139">
        <ele>282</ele>
        <time>2020-05-31T12:08:36.502Z</time>
      </trkpt>
      <trkpt lat="45.79962" lon="5.74145">
        <ele>282</ele>
        <time>2020-05-31T12:08:41.498Z</time>
      </trkpt>
      <trkpt lat="45.79965" lon="5.74151">
        <ele>282</ele>
        <time>2020-05-31T12:08:46.532Z</time>
      </trkpt>
      <trkpt lat="45.79968" lon="5.74156">
        <ele>281</ele>
        <time>2020-05-31T12:08:50.507Z</time>
      </trkpt>
      <trkpt lat="45.7997" lon="5.74162">
        <ele>281</ele>
        <time>2020-05-31T12:08:55.491Z</time>
      </trkpt>
      <trkpt lat="45.79975" lon="5.74169">
        <ele>281</ele>
        <time>2020-05-31T12:09:00.512Z</time>
      </trkpt>
      <trkpt lat="45.79979" lon="5.74175">
        <ele>281</ele>
        <time>2020-05-31T12:09:05.511Z</time>
      </trkpt>
      <trkpt lat="45.79983" lon="5.74181">
        <ele>280</ele>
        <time>2020-05-31T12:09:10.501Z</time>
      </trkpt>
      <trkpt lat="45.79988" lon="5.74187">
        <ele>278</ele>
        <time>2020-05-31T12:09:15.490Z</time>
      </trkpt>
      <trkpt lat="45.79992" lon="5.74192">
        <ele>278</ele>
        <time>2020-05-31T12:09:20.495Z</time>
      </trkpt>
      <trkpt lat="45.79998" lon="5.74194">
        <ele>278</ele>
        <time>2020-05-31T12:09:25.491Z</time>
      </trkpt>
      <trkpt lat="45.80003" lon="5.7419">
        <ele>278</ele>
        <time>2020-05-31T12:09:30.511Z</time>
      </trkpt>
      <trkpt lat="45.80006" lon="5.74182">
        <ele>278</ele>
        <time>2020-05-31T12:09:35.493Z</time>
      </trkpt>
      <trkpt lat="45.8001" lon="5.74174">
        <ele>279</ele>
        <time>2020-05-31T12:09:40.506Z</time>
      </trkpt>
      <trkpt lat="45.80013" lon="5.74168">
        <ele>279</ele>
        <time>2020-05-31T12:09:45.494Z</time>
      </trkpt>
      <trkpt lat="45.80016" lon="5.74167">
        <ele>277</ele>
        <time>2020-05-31T12:09:49.521Z</time>
      </trkpt>
      <trkpt lat="45.8002" lon="5.74164">
        <ele>277</ele>
        <time>2020-05-31T12:09:54.505Z</time>
      </trkpt>
      <trkpt lat="45.80024" lon="5.74164">
        <ele>277</ele>
        <time>2020-05-31T12:09:59.504Z</time>
      </trkpt>
      <trkpt lat="45.8003" lon="5.74164">
        <ele>277</ele>
        <time>2020-05-31T12:10:04.496Z</time>
      </trkpt>
      <trkpt lat="45.80034" lon="5.74163">
        <ele>277</ele>
        <time>2020-05-31T12:10:08.490Z</time>
      </trkpt>
      <trkpt lat="45.80039" lon="5.74162">
        <ele>277</ele>
        <time>2020-05-31T12:10:13.490Z</time>
      </trkpt>
      <trkpt lat="45.80045" lon="5.74162">
        <ele>272</ele>
        <time>2020-05-31T12:10:18.577Z</time>
      </trkpt>
      <trkpt lat="45.8005" lon="5.74162">
        <ele>272</ele>
        <time>2020-05-31T12:10:23.526Z</time>
      </trkpt>
      <trkpt lat="45.80055" lon="5.74162">
        <ele>272</ele>
        <time>2020-05-31T12:10:28.504Z</time>
      </trkpt>
      <trkpt lat="45.8006" lon="5.74163">
        <ele>272</ele>
        <time>2020-05-31T12:10:33.499Z</time>
      </trkpt>
      <trkpt lat="45.80066" lon="5.74163">
        <ele>272</ele>
        <time>2020-05-31T12:10:38.496Z</time>
      </trkpt>
      <trkpt lat="45.80067" lon="5.74162">
        <ele>272</ele>
        <time>2020-05-31T12:10:43.501Z</time>
      </trkpt>
      <trkpt lat="45.80067" lon="5.74162">
        <ele>272</ele>
        <time>2020-05-31T12:10:47.496Z</time>
      </trkpt>
      <trkpt lat="45.8007" lon="5.7416">
        <ele>268</ele>
        <time>2020-05-31T12:10:52.509Z</time>
      </trkpt>
      <trkpt lat="45.80076" lon="5.74156">
        <ele>268</ele>
        <time>2020-05-31T12:10:57.509Z</time>
      </trkpt>
      <trkpt lat="45.80081" lon="5.7415">
        <ele>268</ele>
        <time>2020-05-31T12:11:02.520Z</time>
      </trkpt>
      <trkpt lat="45.80093" lon="5.7414">
        <ele>268</ele>
        <time>2020-05-31T12:13:49.496Z</time>
      </trkpt>
      <trkpt lat="45.80093" lon="5.74139">
        <ele>268</ele>
        <time>2020-05-31T12:13:53.495Z</time>
      </trkpt>
      <trkpt lat="45.80093" lon="5.74139">
        <ele>268</ele>
        <time>2020-05-31T12:13:57.495Z</time>
      </trkpt>
      <trkpt lat="45.80093" lon="5.74138">
        <ele>268</ele>
        <time>2020-05-31T12:14:01.501Z</time>
      </trkpt>
      <trkpt lat="45.80096" lon="5.74138">
        <ele>268</ele>
        <time>2020-05-31T12:14:05.524Z</time>
      </trkpt>
      <trkpt lat="45.80102" lon="5.74142">
        <ele>264</ele>
        <time>2020-05-31T12:14:10.501Z</time>
      </trkpt>
      <trkpt lat="45.80107" lon="5.74145">
        <ele>264</ele>
        <time>2020-05-31T12:14:14.558Z</time>
      </trkpt>
      <trkpt lat="45.80112" lon="5.74149">
        <ele>264</ele>
        <time>2020-05-31T12:14:19.496Z</time>
      </trkpt>
      <trkpt lat="45.80118" lon="5.74156">
        <ele>264</ele>
        <time>2020-05-31T12:14:24.487Z</time>
      </trkpt>
      <trkpt lat="45.80122" lon="5.74161">
        <ele>264</ele>
        <time>2020-05-31T12:14:28.507Z</time>
      </trkpt>
      <trkpt lat="45.80128" lon="5.74165">
        <ele>263</ele>
        <time>2020-05-31T12:14:33.501Z</time>
      </trkpt>
      <trkpt lat="45.80133" lon="5.74169">
        <ele>263</ele>
        <time>2020-05-31T12:14:38.493Z</time>
      </trkpt>
      <trkpt lat="45.80139" lon="5.74172">
        <ele>263</ele>
        <time>2020-05-31T12:14:43.502Z</time>
      </trkpt>
      <trkpt lat="45.80144" lon="5.74173">
        <ele>263</ele>
        <time>2020-05-31T12:14:48.475Z</time>
      </trkpt>
      <trkpt lat="45.8015" lon="5.74175">
        <ele>263</ele>
        <time>2020-05-31T12:14:53.493Z</time>
      </trkpt>
      <trkpt lat="45.80158" lon="5.74174">
        <ele>259</ele>
        <time>2020-05-31T12:14:58.517Z</time>
      </trkpt>
      <trkpt lat="45.80165" lon="5.74173">
        <ele>259</ele>
        <time>2020-05-31T12:15:03.496Z</time>
      </trkpt>
      <trkpt lat="45.80172" lon="5.74172">
        <ele>259</ele>
        <time>2020-05-31T12:15:08.569Z</time>
      </trkpt>
      <trkpt lat="45.80178" lon="5.74166">
        <ele>259</ele>
        <time>2020-05-31T12:15:13.494Z</time>
      </trkpt>
      <trkpt lat="45.80182" lon="5.7416">
        <ele>256</ele>
        <time>2020-05-31T12:15:18.496Z</time>
      </trkpt>
      <trkpt lat="45.80185" lon="5.74151">
        <ele>259</ele>
        <time>2020-05-31T12:15:23.494Z</time>
      </trkpt>
      <trkpt lat="45.80188" lon="5.74143">
        <ele>259</ele>
        <time>2020-05-31T12:15:28.520Z</time>
      </trkpt>
      <trkpt lat="45.80192" lon="5.74135">
        <ele>259</ele>
        <time>2020-05-31T12:15:32.569Z</time>
      </trkpt>
      <trkpt lat="45.80199" lon="5.74131">
        <ele>259</ele>
        <time>2020-05-31T12:15:37.487Z</time>
      </trkpt>
      <trkpt lat="45.80206" lon="5.74134">
        <ele>259</ele>
        <time>2020-05-31T12:15:42.517Z</time>
      </trkpt>
      <trkpt lat="45.8021" lon="5.74142">
        <ele>255</ele>
        <time>2020-05-31T12:15:47.509Z</time>
      </trkpt>
      <trkpt lat="45.80214" lon="5.74151">
        <ele>255</ele>
        <time>2020-05-31T12:15:52.501Z</time>
      </trkpt>
      <trkpt lat="45.80219" lon="5.74155">
        <ele>255</ele>
        <time>2020-05-31T12:15:56.497Z</time>
      </trkpt>
      <trkpt lat="45.80228" lon="5.74153">
        <ele>255</ele>
        <time>2020-05-31T12:16:01.475Z</time>
      </trkpt>
      <trkpt lat="45.80234" lon="5.74147">
        <ele>255</ele>
        <time>2020-05-31T12:16:05.498Z</time>
      </trkpt>
      <trkpt lat="45.8024" lon="5.74141">
        <ele>253</ele>
        <time>2020-05-31T12:16:10.487Z</time>
      </trkpt>
      <trkpt lat="45.80252" lon="5.74129">
        <ele>253</ele>
        <time>2020-05-31T12:16:15.497Z</time>
      </trkpt>
      <trkpt lat="45.80258" lon="5.74122">
        <ele>253</ele>
        <time>2020-05-31T12:16:20.494Z</time>
      </trkpt>
      <trkpt lat="45.80264" lon="5.74116">
        <ele>253</ele>
        <time>2020-05-31T12:16:25.493Z</time>
      </trkpt>
      <trkpt lat="45.8027" lon="5.7411">
        <ele>253</ele>
        <time>2020-05-31T12:16:30.511Z</time>
      </trkpt>
      <trkpt lat="45.80277" lon="5.74104">
        <ele>253</ele>
        <time>2020-05-31T12:16:35.488Z</time>
      </trkpt>
      <trkpt lat="45.80284" lon="5.74099">
        <ele>253</ele>
        <time>2020-05-31T12:16:40.548Z</time>
      </trkpt>
      <trkpt lat="45.80291" lon="5.74093">
        <ele>255</ele>
        <time>2020-05-31T12:16:45.491Z</time>
      </trkpt>
      <trkpt lat="45.80297" lon="5.74091">
        <ele>255</ele>
        <time>2020-05-31T12:16:50.496Z</time>
      </trkpt>
      <trkpt lat="45.80303" lon="5.74089">
        <ele>255</ele>
        <time>2020-05-31T12:16:55.497Z</time>
      </trkpt>
      <trkpt lat="45.80307" lon="5.74096">
        <ele>255</ele>
        <time>2020-05-31T12:17:00.514Z</time>
      </trkpt>
      <trkpt lat="45.80309" lon="5.74106">
        <ele>253</ele>
        <time>2020-05-31T12:17:05.501Z</time>
      </trkpt>
      <trkpt lat="45.80311" lon="5.74114">
        <ele>253</ele>
        <time>2020-05-31T12:17:09.499Z</time>
      </trkpt>
      <trkpt lat="45.80313" lon="5.74123">
        <ele>253</ele>
        <time>2020-05-31T12:17:14.501Z</time>
      </trkpt>
      <trkpt lat="45.80316" lon="5.74132">
        <ele>252</ele>
        <time>2020-05-31T12:17:19.491Z</time>
      </trkpt>
      <trkpt lat="45.8032" lon="5.74142">
        <ele>248</ele>
        <time>2020-05-31T12:17:24.511Z</time>
      </trkpt>
      <trkpt lat="45.80323" lon="5.74151">
        <ele>248</ele>
        <time>2020-05-31T12:17:29.502Z</time>
      </trkpt>
      <trkpt lat="45.80325" lon="5.74156">
        <ele>247</ele>
        <time>2020-05-31T12:17:33.491Z</time>
      </trkpt>
      <trkpt lat="45.80328" lon="5.74166">
        <ele>247</ele>
        <time>2020-05-31T12:17:38.496Z</time>
      </trkpt>
      <trkpt lat="45.80329" lon="5.74175">
        <ele>247</ele>
        <time>2020-05-31T12:17:43.503Z</time>
      </trkpt>
      <trkpt lat="45.80332" lon="5.74184">
        <ele>245</ele>
        <time>2020-05-31T12:17:48.499Z</time>
      </trkpt>
      <trkpt lat="45.80333" lon="5.74193">
        <ele>245</ele>
        <time>2020-05-31T12:17:53.499Z</time>
      </trkpt>
      <trkpt lat="45.80336" lon="5.74201">
        <ele>245</ele>
        <time>2020-05-31T12:17:57.490Z</time>
      </trkpt>
      <trkpt lat="45.80339" lon="5.7421">
        <ele>243</ele>
        <time>2020-05-31T12:18:02.510Z</time>
      </trkpt>
      <trkpt lat="45.80342" lon="5.74219">
        <ele>243</ele>
        <time>2020-05-31T12:18:07.508Z</time>
      </trkpt>
      <trkpt lat="45.80344" lon="5.74229">
        <ele>243</ele>
        <time>2020-05-31T12:18:12.507Z</time>
      </trkpt>
      <trkpt lat="45.80345" lon="5.7424">
        <ele>241</ele>
        <time>2020-05-31T12:18:17.504Z</time>
      </trkpt>
      <trkpt lat="45.80348" lon="5.7425">
        <ele>238</ele>
        <time>2020-05-31T12:18:22.503Z</time>
      </trkpt>
      <trkpt lat="45.80351" lon="5.74259">
        <ele>238</ele>
        <time>2020-05-31T12:18:27.499Z</time>
      </trkpt>
      <trkpt lat="45.80354" lon="5.74267">
        <ele>236</ele>
        <time>2020-05-31T12:18:32.483Z</time>
      </trkpt>
      <trkpt lat="45.80357" lon="5.74273">
        <ele>236</ele>
        <time>2020-05-31T12:18:37.538Z</time>
      </trkpt>
      <trkpt lat="45.80358" lon="5.74275">
        <ele>236</ele>
        <time>2020-05-31T12:18:52.492Z</time>
      </trkpt>
      <trkpt lat="45.80359" lon="5.74281">
        <ele>236</ele>
        <time>2020-05-31T12:18:57.499Z</time>
      </trkpt>
      <trkpt lat="45.80358" lon="5.74287">
        <ele>236</ele>
        <time>2020-05-31T12:19:02.504Z</time>
      </trkpt>
      <trkpt lat="45.80351" lon="5.74291">
        <ele>236</ele>
        <time>2020-05-31T12:19:07.494Z</time>
      </trkpt>
      <trkpt lat="45.80347" lon="5.74297">
        <ele>238</ele>
        <time>2020-05-31T12:19:11.563Z</time>
      </trkpt>
      <trkpt lat="45.80349" lon="5.74297">
        <ele>235</ele>
        <time>2020-05-31T12:19:16.506Z</time>
      </trkpt>
      <trkpt lat="45.80353" lon="5.74291">
        <ele>236</ele>
        <time>2020-05-31T12:19:21.498Z</time>
      </trkpt>
      <trkpt lat="45.80358" lon="5.74286">
        <ele>236</ele>
        <time>2020-05-31T12:19:25.508Z</time>
      </trkpt>
      <trkpt lat="45.8036" lon="5.74278">
        <ele>236</ele>
        <time>2020-05-31T12:19:30.492Z</time>
      </trkpt>
      <trkpt lat="45.80359" lon="5.74268">
        <ele>236</ele>
        <time>2020-05-31T12:19:34.558Z</time>
      </trkpt>
      <trkpt lat="45.80356" lon="5.74258">
        <ele>238</ele>
        <time>2020-05-31T12:19:39.496Z</time>
      </trkpt>
      <trkpt lat="45.80353" lon="5.74249">
        <ele>238</ele>
        <time>2020-05-31T12:19:44.491Z</time>
      </trkpt>
      <trkpt lat="45.8035" lon="5.74242">
        <ele>238</ele>
        <time>2020-05-31T12:19:48.510Z</time>
      </trkpt>
      <trkpt lat="45.80347" lon="5.74237">
        <ele>241</ele>
        <time>2020-05-31T12:19:53.500Z</time>
      </trkpt>
      <trkpt lat="45.80345" lon="5.74236">
        <ele>241</ele>
        <time>2020-05-31T12:19:58.489Z</time>
      </trkpt>
      <trkpt lat="45.80345" lon="5.74228">
        <ele>243</ele>
        <time>2020-05-31T12:20:03.500Z</time>
      </trkpt>
      <trkpt lat="45.80341" lon="5.74219">
        <ele>243</ele>
        <time>2020-05-31T12:20:08.496Z</time>
      </trkpt>
      <trkpt lat="45.80334" lon="5.74218">
        <ele>243</ele>
        <time>2020-05-31T12:20:23.497Z</time>
      </trkpt>
      <trkpt lat="45.80332" lon="5.74214">
        <ele>243</ele>
        <time>2020-05-31T12:20:28.503Z</time>
      </trkpt>
      <trkpt lat="45.80326" lon="5.74218">
        <ele>243</ele>
        <time>2020-05-31T12:20:33.495Z</time>
      </trkpt>
      <trkpt lat="45.8032" lon="5.7422">
        <ele>243</ele>
        <time>2020-05-31T12:20:37.496Z</time>
      </trkpt>
      <trkpt lat="45.80313" lon="5.74221">
        <ele>248</ele>
        <time>2020-05-31T12:20:42.542Z</time>
      </trkpt>
      <trkpt lat="45.80307" lon="5.74223">
        <ele>248</ele>
        <time>2020-05-31T12:20:47.518Z</time>
      </trkpt>
      <trkpt lat="45.803" lon="5.74222">
        <ele>248</ele>
        <time>2020-05-31T12:20:52.502Z</time>
      </trkpt>
      <trkpt lat="45.80293" lon="5.74222">
        <ele>248</ele>
        <time>2020-05-31T12:20:57.501Z</time>
      </trkpt>
      <trkpt lat="45.80288" lon="5.74226">
        <ele>251</ele>
        <time>2020-05-31T12:21:02.514Z</time>
      </trkpt>
      <trkpt lat="45.80288" lon="5.74237">
        <ele>248</ele>
        <time>2020-05-31T12:21:07.497Z</time>
      </trkpt>
      <trkpt lat="45.80288" lon="5.74245">
        <ele>248</ele>
        <time>2020-05-31T12:21:11.514Z</time>
      </trkpt>
      <trkpt lat="45.80285" lon="5.74255">
        <ele>248</ele>
        <time>2020-05-31T12:21:16.474Z</time>
      </trkpt>
      <trkpt lat="45.80281" lon="5.74267">
        <ele>246</ele>
        <time>2020-05-31T12:21:20.485Z</time>
      </trkpt>
      <trkpt lat="45.80265" lon="5.74293">
        <ele>244</ele>
        <time>2020-05-31T12:21:25.509Z</time>
      </trkpt>
      <trkpt lat="45.80254" lon="5.7432">
        <ele>245</ele>
        <time>2020-05-31T12:21:30.501Z</time>
      </trkpt>
      <trkpt lat="45.80261" lon="5.74349">
        <ele>244</ele>
        <time>2020-05-31T12:21:35.557Z</time>
      </trkpt>
      <trkpt lat="45.80276" lon="5.74364">
        <ele>242</ele>
        <time>2020-05-31T12:21:40.505Z</time>
      </trkpt>
      <trkpt lat="45.80285" lon="5.74371">
        <ele>242</ele>
        <time>2020-05-31T12:21:45.509Z</time>
      </trkpt>
      <trkpt lat="45.80289" lon="5.74376">
        <ele>240</ele>
        <time>2020-05-31T12:21:50.503Z</time>
      </trkpt>
      <trkpt lat="45.80295" lon="5.74381">
        <ele>237</ele>
        <time>2020-05-31T12:21:55.490Z</time>
      </trkpt>
      <trkpt lat="45.80301" lon="5.74387">
        <ele>237</ele>
        <time>2020-05-31T12:22:00.513Z</time>
      </trkpt>
      <trkpt lat="45.80306" lon="5.74393">
        <ele>237</ele>
        <time>2020-05-31T12:22:05.510Z</time>
      </trkpt>
      <trkpt lat="45.80316" lon="5.74408">
        <ele>235</ele>
        <time>2020-05-31T12:22:10.497Z</time>
      </trkpt>
      <trkpt lat="45.80315" lon="5.74438">
        <ele>236</ele>
        <time>2020-05-31T12:22:14.491Z</time>
      </trkpt>
      <trkpt lat="45.80306" lon="5.74476">
        <ele>235</ele>
        <time>2020-05-31T12:22:19.494Z</time>
      </trkpt>
      <trkpt lat="45.80297" lon="5.74517">
        <ele>235</ele>
        <time>2020-05-31T12:22:24.489Z</time>
      </trkpt>
      <trkpt lat="45.80291" lon="5.74542">
        <ele>239</ele>
        <time>2020-05-31T12:22:28.504Z</time>
      </trkpt>
      <trkpt lat="45.80282" lon="5.74578">
        <ele>239</ele>
        <time>2020-05-31T12:22:33.513Z</time>
      </trkpt>
      <trkpt lat="45.80271" lon="5.74616">
        <ele>240</ele>
        <time>2020-05-31T12:22:38.495Z</time>
      </trkpt>
      <trkpt lat="45.80266" lon="5.74644">
        <ele>240</ele>
        <time>2020-05-31T12:22:58.513Z</time>
      </trkpt>
      <trkpt lat="45.80271" lon="5.74635">
        <ele>240</ele>
        <time>2020-05-31T12:23:03.491Z</time>
      </trkpt>
      <trkpt lat="45.80275" lon="5.74627">
        <ele>240</ele>
        <time>2020-05-31T12:23:07.567Z</time>
      </trkpt>
      <trkpt lat="45.80278" lon="5.74619">
        <ele>240</ele>
        <time>2020-05-31T12:23:12.515Z</time>
      </trkpt>
      <trkpt lat="45.80282" lon="5.74609">
        <ele>240</ele>
        <time>2020-05-31T12:23:17.509Z</time>
      </trkpt>
      <trkpt lat="45.80284" lon="5.74602">
        <ele>240</ele>
        <time>2020-05-31T12:23:21.520Z</time>
      </trkpt>
      <trkpt lat="45.80287" lon="5.74593">
        <ele>239</ele>
        <time>2020-05-31T12:23:26.498Z</time>
      </trkpt>
      <trkpt lat="45.80291" lon="5.74581">
        <ele>239</ele>
        <time>2020-05-31T12:23:31.489Z</time>
      </trkpt>
      <trkpt lat="45.80293" lon="5.74574">
        <ele>235</ele>
        <time>2020-05-31T12:23:36.461Z</time>
      </trkpt>
      <trkpt lat="45.80297" lon="5.74571">
        <ele>235</ele>
        <time>2020-05-31T12:23:40.509Z</time>
      </trkpt>
      <trkpt lat="45.80299" lon="5.74577">
        <ele>235</ele>
        <time>2020-05-31T12:23:45.493Z</time>
      </trkpt>
      <trkpt lat="45.80295" lon="5.74589">
        <ele>235</ele>
        <time>2020-05-31T12:23:50.504Z</time>
      </trkpt>
      <trkpt lat="45.80293" lon="5.74597">
        <ele>236</ele>
        <time>2020-05-31T12:23:54.491Z</time>
      </trkpt>
      <trkpt lat="45.80291" lon="5.74605">
        <ele>240</ele>
        <time>2020-05-31T12:23:59.501Z</time>
      </trkpt>
      <trkpt lat="45.80289" lon="5.74614">
        <ele>240</ele>
        <time>2020-05-31T12:24:04.495Z</time>
      </trkpt>
      <trkpt lat="45.80287" lon="5.74623">
        <ele>240</ele>
        <time>2020-05-31T12:24:09.505Z</time>
      </trkpt>
      <trkpt lat="45.80284" lon="5.74633">
        <ele>240</ele>
        <time>2020-05-31T12:24:13.503Z</time>
      </trkpt>
      <trkpt lat="45.8028" lon="5.74644">
        <ele>240</ele>
        <time>2020-05-31T12:24:18.577Z</time>
      </trkpt>
      <trkpt lat="45.80278" lon="5.74655">
        <ele>238</ele>
        <time>2020-05-31T12:24:23.500Z</time>
      </trkpt>
      <trkpt lat="45.80275" lon="5.74664">
        <ele>238</ele>
        <time>2020-05-31T12:24:28.496Z</time>
      </trkpt>
      <trkpt lat="45.80272" lon="5.74672">
        <ele>238</ele>
        <time>2020-05-31T12:24:32.496Z</time>
      </trkpt>
      <trkpt lat="45.8027" lon="5.74678">
        <ele>238</ele>
        <time>2020-05-31T12:24:42.507Z</time>
      </trkpt>
      <trkpt lat="45.80267" lon="5.74688">
        <ele>236</ele>
        <time>2020-05-31T12:24:47.498Z</time>
      </trkpt>
      <trkpt lat="45.80264" lon="5.74698">
        <ele>236</ele>
        <time>2020-05-31T12:24:52.506Z</time>
      </trkpt>
      <trkpt lat="45.80261" lon="5.74708">
        <ele>238</ele>
        <time>2020-05-31T12:24:57.509Z</time>
      </trkpt>
      <trkpt lat="45.80256" lon="5.74724">
        <ele>238</ele>
        <time>2020-05-31T12:25:02.489Z</time>
      </trkpt>
      <trkpt lat="45.80253" lon="5.74734">
        <ele>238</ele>
        <time>2020-05-31T12:25:06.507Z</time>
      </trkpt>
      <trkpt lat="45.8025" lon="5.74745">
        <ele>238</ele>
        <time>2020-05-31T12:25:11.513Z</time>
      </trkpt>
      <trkpt lat="45.80248" lon="5.74754">
        <ele>238</ele>
        <time>2020-05-31T12:25:16.510Z</time>
      </trkpt>
      <trkpt lat="45.80245" lon="5.74763">
        <ele>238</ele>
        <time>2020-05-31T12:25:21.480Z</time>
      </trkpt>
      <trkpt lat="45.80242" lon="5.74771">
        <ele>238</ele>
        <time>2020-05-31T12:25:25.498Z</time>
      </trkpt>
      <trkpt lat="45.80239" lon="5.7478">
        <ele>238</ele>
        <time>2020-05-31T12:25:30.496Z</time>
      </trkpt>
      <trkpt lat="45.80236" lon="5.74788">
        <ele>239</ele>
        <time>2020-05-31T12:25:35.494Z</time>
      </trkpt>
      <trkpt lat="45.80235" lon="5.74796">
        <ele>239</ele>
        <time>2020-05-31T12:25:39.505Z</time>
      </trkpt>
      <trkpt lat="45.80234" lon="5.74808">
        <ele>239</ele>
        <time>2020-05-31T12:25:44.503Z</time>
      </trkpt>
      <trkpt lat="45.80233" lon="5.74819">
        <ele>239</ele>
        <time>2020-05-31T12:25:49.504Z</time>
      </trkpt>
      <trkpt lat="45.8023" lon="5.7483">
        <ele>238</ele>
        <time>2020-05-31T12:25:54.517Z</time>
      </trkpt>
      <trkpt lat="45.80228" lon="5.74836">
        <ele>238</ele>
        <time>2020-05-31T12:25:58.503Z</time>
      </trkpt>
      <trkpt lat="45.80224" lon="5.74844">
        <ele>238</ele>
        <time>2020-05-31T12:26:03.568Z</time>
      </trkpt>
      <trkpt lat="45.8022" lon="5.74852">
        <ele>237</ele>
        <time>2020-05-31T12:26:08.512Z</time>
      </trkpt>
      <trkpt lat="45.80215" lon="5.74856">
        <ele>237</ele>
        <time>2020-05-31T12:26:13.489Z</time>
      </trkpt>
      <trkpt lat="45.80209" lon="5.74861">
        <ele>237</ele>
        <time>2020-05-31T12:26:18.525Z</time>
      </trkpt>
      <trkpt lat="45.80202" lon="5.74866">
        <ele>236</ele>
        <time>2020-05-31T12:26:23.504Z</time>
      </trkpt>
      <trkpt lat="45.80197" lon="5.74871">
        <ele>236</ele>
        <time>2020-05-31T12:26:28.561Z</time>
      </trkpt>
      <trkpt lat="45.80194" lon="5.74877">
        <ele>234</ele>
        <time>2020-05-31T12:26:33.505Z</time>
      </trkpt>
      <trkpt lat="45.8019" lon="5.74884">
        <ele>234</ele>
        <time>2020-05-31T12:26:38.488Z</time>
      </trkpt>
      <trkpt lat="45.80187" lon="5.74891">
        <ele>234</ele>
        <time>2020-05-31T12:26:43.515Z</time>
      </trkpt>
      <trkpt lat="45.80182" lon="5.74901">
        <ele>234</ele>
        <time>2020-05-31T12:26:48.515Z</time>
      </trkpt>
      <trkpt lat="45.80178" lon="5.74911">
        <ele>231</ele>
        <time>2020-05-31T12:26:53.508Z</time>
      </trkpt>
      <trkpt lat="45.80175" lon="5.74921">
        <ele>231</ele>
        <time>2020-05-31T12:26:58.490Z</time>
      </trkpt>
      <trkpt lat="45.80172" lon="5.7493">
        <ele>231</ele>
        <time>2020-05-31T12:27:03.488Z</time>
      </trkpt>
      <trkpt lat="45.80168" lon="5.74936">
        <ele>229</ele>
        <time>2020-05-31T12:27:08.518Z</time>
      </trkpt>
      <trkpt lat="45.80164" lon="5.74942">
        <ele>229</ele>
        <time>2020-05-31T12:27:13.496Z</time>
      </trkpt>
      <trkpt lat="45.8016" lon="5.74947">
        <ele>229</ele>
        <time>2020-05-31T12:27:17.517Z</time>
      </trkpt>
      <trkpt lat="45.80153" lon="5.74949">
        <ele>229</ele>
        <time>2020-05-31T12:27:22.517Z</time>
      </trkpt>
      <trkpt lat="45.80146" lon="5.74949">
        <ele>230</ele>
        <time>2020-05-31T12:27:27.495Z</time>
      </trkpt>
      <trkpt lat="45.80141" lon="5.74948">
        <ele>230</ele>
        <time>2020-05-31T12:27:32.517Z</time>
      </trkpt>
      <trkpt lat="45.80136" lon="5.74946">
        <ele>230</ele>
        <time>2020-05-31T12:27:36.511Z</time>
      </trkpt>
      <trkpt lat="45.8013" lon="5.74944">
        <ele>230</ele>
        <time>2020-05-31T12:27:41.460Z</time>
      </trkpt>
      <trkpt lat="45.80124" lon="5.74943">
        <ele>229</ele>
        <time>2020-05-31T12:27:45.490Z</time>
      </trkpt>
      <trkpt lat="45.80117" lon="5.74942">
        <ele>229</ele>
        <time>2020-05-31T12:27:50.490Z</time>
      </trkpt>
      <trkpt lat="45.80111" lon="5.7494">
        <ele>229</ele>
        <time>2020-05-31T12:27:55.491Z</time>
      </trkpt>
      <trkpt lat="45.80104" lon="5.7494">
        <ele>229</ele>
        <time>2020-05-31T12:28:00.499Z</time>
      </trkpt>
      <trkpt lat="45.80099" lon="5.74941">
        <ele>229</ele>
        <time>2020-05-31T12:28:04.519Z</time>
      </trkpt>
      <trkpt lat="45.80092" lon="5.74941">
        <ele>229</ele>
        <time>2020-05-31T12:28:09.505Z</time>
      </trkpt>
      <trkpt lat="45.80085" lon="5.74941">
        <ele>229</ele>
        <time>2020-05-31T12:28:14.565Z</time>
      </trkpt>
      <trkpt lat="45.80079" lon="5.74943">
        <ele>229</ele>
        <time>2020-05-31T12:28:19.498Z</time>
      </trkpt>
      <trkpt lat="45.80072" lon="5.74944">
        <ele>229</ele>
        <time>2020-05-31T12:28:24.495Z</time>
      </trkpt>
      <trkpt lat="45.80065" lon="5.74946">
        <ele>230</ele>
        <time>2020-05-31T12:28:29.490Z</time>
      </trkpt>
      <trkpt lat="45.80058" lon="5.74947">
        <ele>230</ele>
        <time>2020-05-31T12:28:34.489Z</time>
      </trkpt>
      <trkpt lat="45.80053" lon="5.7495">
        <ele>230</ele>
        <time>2020-05-31T12:28:38.510Z</time>
      </trkpt>
      <trkpt lat="45.80046" lon="5.74953">
        <ele>230</ele>
        <time>2020-05-31T12:28:43.562Z</time>
      </trkpt>
      <trkpt lat="45.80041" lon="5.74956">
        <ele>230</ele>
        <time>2020-05-31T12:28:48.521Z</time>
      </trkpt>
      <trkpt lat="45.80034" lon="5.74958">
        <ele>230</ele>
        <time>2020-05-31T12:28:53.487Z</time>
      </trkpt>
      <trkpt lat="45.80027" lon="5.7496">
        <ele>230</ele>
        <time>2020-05-31T12:28:58.493Z</time>
      </trkpt>
      <trkpt lat="45.80023" lon="5.74961">
        <ele>230</ele>
        <time>2020-05-31T12:29:02.517Z</time>
      </trkpt>
      <trkpt lat="45.80016" lon="5.74962">
        <ele>230</ele>
        <time>2020-05-31T12:29:07.509Z</time>
      </trkpt>
      <trkpt lat="45.80007" lon="5.74962">
        <ele>230</ele>
        <time>2020-05-31T12:29:12.506Z</time>
      </trkpt>
      <trkpt lat="45.80001" lon="5.74964">
        <ele>230</ele>
        <time>2020-05-31T12:29:17.488Z</time>
      </trkpt>
      <trkpt lat="45.79995" lon="5.74965">
        <ele>230</ele>
        <time>2020-05-31T12:29:22.495Z</time>
      </trkpt>
      <trkpt lat="45.79987" lon="5.74965">
        <ele>230</ele>
        <time>2020-05-31T12:29:27.514Z</time>
      </trkpt>
      <trkpt lat="45.79981" lon="5.74966">
        <ele>230</ele>
        <time>2020-05-31T12:29:32.490Z</time>
      </trkpt>
      <trkpt lat="45.79973" lon="5.74968">
        <ele>230</ele>
        <time>2020-05-31T12:29:37.499Z</time>
      </trkpt>
      <trkpt lat="45.79966" lon="5.74972">
        <ele>230</ele>
        <time>2020-05-31T12:29:42.498Z</time>
      </trkpt>
      <trkpt lat="45.79959" lon="5.74973">
        <ele>230</ele>
        <time>2020-05-31T12:29:47.497Z</time>
      </trkpt>
      <trkpt lat="45.79951" lon="5.74973">
        <ele>230</ele>
        <time>2020-05-31T12:29:52.514Z</time>
      </trkpt>
      <trkpt lat="45.79944" lon="5.74972">
        <ele>230</ele>
        <time>2020-05-31T12:29:57.497Z</time>
      </trkpt>
      <trkpt lat="45.79938" lon="5.74971">
        <ele>230</ele>
        <time>2020-05-31T12:30:02.550Z</time>
      </trkpt>
      <trkpt lat="45.7993" lon="5.74972">
        <ele>230</ele>
        <time>2020-05-31T12:30:07.496Z</time>
      </trkpt>
      <trkpt lat="45.79925" lon="5.74974">
        <ele>230</ele>
        <time>2020-05-31T12:30:12.514Z</time>
      </trkpt>
      <trkpt lat="45.79919" lon="5.74975">
        <ele>230</ele>
        <time>2020-05-31T12:30:17.516Z</time>
      </trkpt>
      <trkpt lat="45.79912" lon="5.74978">
        <ele>230</ele>
        <time>2020-05-31T12:30:22.511Z</time>
      </trkpt>
      <trkpt lat="45.79904" lon="5.74979">
        <ele>230</ele>
        <time>2020-05-31T12:30:27.528Z</time>
      </trkpt>
      <trkpt lat="45.79897" lon="5.74979">
        <ele>230</ele>
        <time>2020-05-31T12:30:32.498Z</time>
      </trkpt>
      <trkpt lat="45.79891" lon="5.7498">
        <ele>230</ele>
        <time>2020-05-31T12:30:37.529Z</time>
      </trkpt>
      <trkpt lat="45.79886" lon="5.74982">
        <ele>230</ele>
        <time>2020-05-31T12:30:42.500Z</time>
      </trkpt>
      <trkpt lat="45.7988" lon="5.74981">
        <ele>230</ele>
        <time>2020-05-31T12:30:46.504Z</time>
      </trkpt>
      <trkpt lat="45.79871" lon="5.74977">
        <ele>230</ele>
        <time>2020-05-31T12:30:51.512Z</time>
      </trkpt>
      <trkpt lat="45.79863" lon="5.74976">
        <ele>230</ele>
        <time>2020-05-31T12:30:56.486Z</time>
      </trkpt>
      <trkpt lat="45.79855" lon="5.74975">
        <ele>230</ele>
        <time>2020-05-31T12:31:01.500Z</time>
      </trkpt>
      <trkpt lat="45.79847" lon="5.74975">
        <ele>230</ele>
        <time>2020-05-31T12:31:06.502Z</time>
      </trkpt>
      <trkpt lat="45.79841" lon="5.74971">
        <ele>230</ele>
        <time>2020-05-31T12:31:11.481Z</time>
      </trkpt>
      <trkpt lat="45.79835" lon="5.74972">
        <ele>230</ele>
        <time>2020-05-31T12:31:15.490Z</time>
      </trkpt>
      <trkpt lat="45.79828" lon="5.74972">
        <ele>230</ele>
        <time>2020-05-31T12:31:20.509Z</time>
      </trkpt>
      <trkpt lat="45.79822" lon="5.7497">
        <ele>230</ele>
        <time>2020-05-31T12:31:25.506Z</time>
      </trkpt>
      <trkpt lat="45.79815" lon="5.7497">
        <ele>229</ele>
        <time>2020-05-31T12:31:30.509Z</time>
      </trkpt>
      <trkpt lat="45.79809" lon="5.7497">
        <ele>229</ele>
        <time>2020-05-31T12:31:35.489Z</time>
      </trkpt>
      <trkpt lat="45.79805" lon="5.74971">
        <ele>229</ele>
        <time>2020-05-31T12:31:40.503Z</time>
      </trkpt>
      <trkpt lat="45.798" lon="5.74968">
        <ele>229</ele>
        <time>2020-05-31T12:31:45.502Z</time>
      </trkpt>
      <trkpt lat="45.79792" lon="5.74967">
        <ele>231</ele>
        <time>2020-05-31T12:31:50.503Z</time>
      </trkpt>
      <trkpt lat="45.79784" lon="5.74966">
        <ele>231</ele>
        <time>2020-05-31T12:31:54.565Z</time>
      </trkpt>
      <trkpt lat="45.79778" lon="5.74966">
        <ele>231</ele>
        <time>2020-05-31T12:31:59.496Z</time>
      </trkpt>
      <trkpt lat="45.79771" lon="5.74963">
        <ele>231</ele>
        <time>2020-05-31T12:32:04.507Z</time>
      </trkpt>
      <trkpt lat="45.79768" lon="5.74961">
        <ele>231</ele>
        <time>2020-05-31T12:32:09.514Z</time>
      </trkpt>
      <trkpt lat="45.79761" lon="5.7496">
        <ele>232</ele>
        <time>2020-05-31T12:32:14.500Z</time>
      </trkpt>
      <trkpt lat="45.79756" lon="5.74959">
        <ele>232</ele>
        <time>2020-05-31T12:32:18.495Z</time>
      </trkpt>
      <trkpt lat="45.79746" lon="5.74957">
        <ele>232</ele>
        <time>2020-05-31T12:32:23.479Z</time>
      </trkpt>
      <trkpt lat="45.79738" lon="5.74956">
        <ele>232</ele>
        <time>2020-05-31T12:32:27.499Z</time>
      </trkpt>
      <trkpt lat="45.7973" lon="5.74957">
        <ele>233</ele>
        <time>2020-05-31T12:32:32.488Z</time>
      </trkpt>
      <trkpt lat="45.79724" lon="5.74958">
        <ele>233</ele>
        <time>2020-05-31T12:32:36.577Z</time>
      </trkpt>
      <trkpt lat="45.79717" lon="5.74959">
        <ele>232</ele>
        <time>2020-05-31T12:32:41.502Z</time>
      </trkpt>
      <trkpt lat="45.79713" lon="5.74961">
        <ele>232</ele>
        <time>2020-05-31T12:32:46.503Z</time>
      </trkpt>
      <trkpt lat="45.79705" lon="5.74962">
        <ele>232</ele>
        <time>2020-05-31T12:32:51.504Z</time>
      </trkpt>
      <trkpt lat="45.79699" lon="5.74962">
        <ele>232</ele>
        <time>2020-05-31T12:32:56.475Z</time>
      </trkpt>
      <trkpt lat="45.79692" lon="5.7496">
        <ele>232</ele>
        <time>2020-05-31T12:33:01.514Z</time>
      </trkpt>
      <trkpt lat="45.79686" lon="5.74962">
        <ele>232</ele>
        <time>2020-05-31T12:33:06.506Z</time>
      </trkpt>
      <trkpt lat="45.79682" lon="5.74962">
        <ele>232</ele>
        <time>2020-05-31T12:33:11.579Z</time>
      </trkpt>
      <trkpt lat="45.79673" lon="5.74959">
        <ele>232</ele>
        <time>2020-05-31T12:33:16.512Z</time>
      </trkpt>
      <trkpt lat="45.79665" lon="5.74957">
        <ele>232</ele>
        <time>2020-05-31T12:33:21.506Z</time>
      </trkpt>
      <trkpt lat="45.79657" lon="5.74954">
        <ele>232</ele>
        <time>2020-05-31T12:33:26.513Z</time>
      </trkpt>
      <trkpt lat="45.79649" lon="5.74951">
        <ele>232</ele>
        <time>2020-05-31T12:33:31.469Z</time>
      </trkpt>
      <trkpt lat="45.79643" lon="5.7495">
        <ele>232</ele>
        <time>2020-05-31T12:33:35.561Z</time>
      </trkpt>
      <trkpt lat="45.79637" lon="5.7495">
        <ele>232</ele>
        <time>2020-05-31T12:33:40.518Z</time>
      </trkpt>
      <trkpt lat="45.7963" lon="5.7495">
        <ele>232</ele>
        <time>2020-05-31T12:33:45.501Z</time>
      </trkpt>
      <trkpt lat="45.79622" lon="5.74949">
        <ele>235</ele>
        <time>2020-05-31T12:33:50.503Z</time>
      </trkpt>
      <trkpt lat="45.79614" lon="5.7495">
        <ele>235</ele>
        <time>2020-05-31T12:33:55.486Z</time>
      </trkpt>
      <trkpt lat="45.79607" lon="5.74951">
        <ele>235</ele>
        <time>2020-05-31T12:33:59.574Z</time>
      </trkpt>
      <trkpt lat="45.79603" lon="5.74954">
        <ele>235</ele>
        <time>2020-05-31T12:34:04.485Z</time>
      </trkpt>
      <trkpt lat="45.79598" lon="5.74957">
        <ele>235</ele>
        <time>2020-05-31T12:34:09.501Z</time>
      </trkpt>
      <trkpt lat="45.79596" lon="5.74959">
        <ele>237</ele>
        <time>2020-05-31T12:34:14.483Z</time>
      </trkpt>
      <trkpt lat="45.79591" lon="5.7496">
        <ele>237</ele>
        <time>2020-05-31T12:34:18.486Z</time>
      </trkpt>
      <trkpt lat="45.79584" lon="5.7496">
        <ele>237</ele>
        <time>2020-05-31T12:34:23.510Z</time>
      </trkpt>
      <trkpt lat="45.79578" lon="5.74963">
        <ele>237</ele>
        <time>2020-05-31T12:34:28.503Z</time>
      </trkpt>
      <trkpt lat="45.79571" lon="5.74967">
        <ele>237</ele>
        <time>2020-05-31T12:34:33.592Z</time>
      </trkpt>
      <trkpt lat="45.79566" lon="5.74975">
        <ele>236</ele>
        <time>2020-05-31T12:34:38.522Z</time>
      </trkpt>
      <trkpt lat="45.7956" lon="5.74984">
        <ele>236</ele>
        <time>2020-05-31T12:34:43.507Z</time>
      </trkpt>
      <trkpt lat="45.79557" lon="5.74986">
        <ele>236</ele>
        <time>2020-05-31T12:34:48.492Z</time>
      </trkpt>
      <trkpt lat="45.7955" lon="5.74997">
        <ele>235</ele>
        <time>2020-05-31T12:34:53.491Z</time>
      </trkpt>
      <trkpt lat="45.79547" lon="5.75004">
        <ele>235</ele>
        <time>2020-05-31T12:34:57.535Z</time>
      </trkpt>
      <trkpt lat="45.79542" lon="5.75012">
        <ele>235</ele>
        <time>2020-05-31T12:35:02.460Z</time>
      </trkpt>
      <trkpt lat="45.79538" lon="5.75019">
        <ele>236</ele>
        <time>2020-05-31T12:35:06.503Z</time>
      </trkpt>
      <trkpt lat="45.79534" lon="5.75028">
        <ele>236</ele>
        <time>2020-05-31T12:35:11.498Z</time>
      </trkpt>
      <trkpt lat="45.7953" lon="5.75034">
        <ele>236</ele>
        <time>2020-05-31T12:35:15.512Z</time>
      </trkpt>
      <trkpt lat="45.79525" lon="5.75042">
        <ele>236</ele>
        <time>2020-05-31T12:35:20.565Z</time>
      </trkpt>
      <trkpt lat="45.79521" lon="5.7505">
        <ele>238</ele>
        <time>2020-05-31T12:35:25.514Z</time>
      </trkpt>
      <trkpt lat="45.79516" lon="5.75058">
        <ele>238</ele>
        <time>2020-05-31T12:35:30.495Z</time>
      </trkpt>
      <trkpt lat="45.79513" lon="5.75066">
        <ele>238</ele>
        <time>2020-05-31T12:35:35.488Z</time>
      </trkpt>
      <trkpt lat="45.79509" lon="5.75075">
        <ele>238</ele>
        <time>2020-05-31T12:35:40.511Z</time>
      </trkpt>
      <trkpt lat="45.79504" lon="5.75084">
        <ele>238</ele>
        <time>2020-05-31T12:35:45.494Z</time>
      </trkpt>
      <trkpt lat="45.795" lon="5.75091">
        <ele>238</ele>
        <time>2020-05-31T12:35:50.540Z</time>
      </trkpt>
      <trkpt lat="45.79497" lon="5.751">
        <ele>237</ele>
        <time>2020-05-31T12:35:55.507Z</time>
      </trkpt>
      <trkpt lat="45.79492" lon="5.75109">
        <ele>237</ele>
        <time>2020-05-31T12:36:00.492Z</time>
      </trkpt>
      <trkpt lat="45.79487" lon="5.75117">
        <ele>237</ele>
        <time>2020-05-31T12:36:05.499Z</time>
      </trkpt>
      <trkpt lat="45.79483" lon="5.75124">
        <ele>237</ele>
        <time>2020-05-31T12:36:10.503Z</time>
      </trkpt>
      <trkpt lat="45.79479" lon="5.75132">
        <ele>235</ele>
        <time>2020-05-31T12:36:15.498Z</time>
      </trkpt>
      <trkpt lat="45.79475" lon="5.75138">
        <ele>235</ele>
        <time>2020-05-31T12:36:19.566Z</time>
      </trkpt>
      <trkpt lat="45.79471" lon="5.75146">
        <ele>235</ele>
        <time>2020-05-31T12:36:24.458Z</time>
      </trkpt>
      <trkpt lat="45.79468" lon="5.75154">
        <ele>234</ele>
        <time>2020-05-31T12:36:28.499Z</time>
      </trkpt>
      <trkpt lat="45.79464" lon="5.75163">
        <ele>234</ele>
        <time>2020-05-31T12:36:33.504Z</time>
      </trkpt>
      <trkpt lat="45.79461" lon="5.75171">
        <ele>234</ele>
        <time>2020-05-31T12:36:37.555Z</time>
      </trkpt>
      <trkpt lat="45.79458" lon="5.75178">
        <ele>238</ele>
        <time>2020-05-31T12:36:41.514Z</time>
      </trkpt>
      <trkpt lat="45.79454" lon="5.75187">
        <ele>238</ele>
        <time>2020-05-31T12:36:46.494Z</time>
      </trkpt>
      <trkpt lat="45.7945" lon="5.75196">
        <ele>238</ele>
        <time>2020-05-31T12:36:51.485Z</time>
      </trkpt>
      <trkpt lat="45.79447" lon="5.75201">
        <ele>238</ele>
        <time>2020-05-31T12:36:55.509Z</time>
      </trkpt>
      <trkpt lat="45.79444" lon="5.75207">
        <ele>238</ele>
        <time>2020-05-31T12:37:00.567Z</time>
      </trkpt>
      <trkpt lat="45.7944" lon="5.7522">
        <ele>237</ele>
        <time>2020-05-31T12:37:05.500Z</time>
      </trkpt>
      <trkpt lat="45.79435" lon="5.7523">
        <ele>237</ele>
        <time>2020-05-31T12:37:10.497Z</time>
      </trkpt>
      <trkpt lat="45.79431" lon="5.75236">
        <ele>235</ele>
        <time>2020-05-31T12:37:15.487Z</time>
      </trkpt>
      <trkpt lat="45.79425" lon="5.75244">
        <ele>239</ele>
        <time>2020-05-31T12:37:20.500Z</time>
      </trkpt>
      <trkpt lat="45.79422" lon="5.7525">
        <ele>239</ele>
        <time>2020-05-31T12:37:24.567Z</time>
      </trkpt>
      <trkpt lat="45.79417" lon="5.75256">
        <ele>239</ele>
        <time>2020-05-31T12:37:29.474Z</time>
      </trkpt>
      <trkpt lat="45.79413" lon="5.75261">
        <ele>239</ele>
        <time>2020-05-31T12:37:33.486Z</time>
      </trkpt>
      <trkpt lat="45.79406" lon="5.75267">
        <ele>237</ele>
        <time>2020-05-31T12:37:38.515Z</time>
      </trkpt>
      <trkpt lat="45.79402" lon="5.75271">
        <ele>242</ele>
        <time>2020-05-31T12:37:42.492Z</time>
      </trkpt>
      <trkpt lat="45.79396" lon="5.75275">
        <ele>242</ele>
        <time>2020-05-31T12:37:47.513Z</time>
      </trkpt>
      <trkpt lat="45.79391" lon="5.75278">
        <ele>242</ele>
        <time>2020-05-31T12:37:52.482Z</time>
      </trkpt>
      <trkpt lat="45.79387" lon="5.75281">
        <ele>242</ele>
        <time>2020-05-31T12:37:56.499Z</time>
      </trkpt>
      <trkpt lat="45.79384" lon="5.75288">
        <ele>242</ele>
        <time>2020-05-31T12:38:01.498Z</time>
      </trkpt>
      <trkpt lat="45.79383" lon="5.75293">
        <ele>240</ele>
        <time>2020-05-31T12:38:05.496Z</time>
      </trkpt>
      <trkpt lat="45.79378" lon="5.75298">
        <ele>240</ele>
        <time>2020-05-31T12:38:10.505Z</time>
      </trkpt>
      <trkpt lat="45.79371" lon="5.75304">
        <ele>244</ele>
        <time>2020-05-31T12:38:15.492Z</time>
      </trkpt>
      <trkpt lat="45.79364" lon="5.75311">
        <ele>244</ele>
        <time>2020-05-31T12:38:20.507Z</time>
      </trkpt>
      <trkpt lat="45.79359" lon="5.75319">
        <ele>244</ele>
        <time>2020-05-31T12:38:24.570Z</time>
      </trkpt>
      <trkpt lat="45.79358" lon="5.75331">
        <ele>241</ele>
        <time>2020-05-31T12:38:29.496Z</time>
      </trkpt>
      <trkpt lat="45.79356" lon="5.75345">
        <ele>241</ele>
        <time>2020-05-31T12:38:34.509Z</time>
      </trkpt>
      <trkpt lat="45.79354" lon="5.75359">
        <ele>237</ele>
        <time>2020-05-31T12:38:39.500Z</time>
      </trkpt>
      <trkpt lat="45.79352" lon="5.75371">
        <ele>237</ele>
        <time>2020-05-31T12:38:44.498Z</time>
      </trkpt>
      <trkpt lat="45.7935" lon="5.75381">
        <ele>235</ele>
        <time>2020-05-31T12:38:49.506Z</time>
      </trkpt>
      <trkpt lat="45.79348" lon="5.75392">
        <ele>235</ele>
        <time>2020-05-31T12:38:54.501Z</time>
      </trkpt>
      <trkpt lat="45.79346" lon="5.75402">
        <ele>241</ele>
        <time>2020-05-31T12:38:59.491Z</time>
      </trkpt>
      <trkpt lat="45.79343" lon="5.75411">
        <ele>240</ele>
        <time>2020-05-31T12:39:04.502Z</time>
      </trkpt>
      <trkpt lat="45.7934" lon="5.75422">
        <ele>240</ele>
        <time>2020-05-31T12:39:09.508Z</time>
      </trkpt>
      <trkpt lat="45.79337" lon="5.75433">
        <ele>239</ele>
        <time>2020-05-31T12:39:14.490Z</time>
      </trkpt>
      <trkpt lat="45.79334" lon="5.75444">
        <ele>239</ele>
        <time>2020-05-31T12:39:19.518Z</time>
      </trkpt>
      <trkpt lat="45.79332" lon="5.75451">
        <ele>239</ele>
        <time>2020-05-31T12:39:24.491Z</time>
      </trkpt>
      <trkpt lat="45.7933" lon="5.75462">
        <ele>238</ele>
        <time>2020-05-31T12:39:29.561Z</time>
      </trkpt>
      <trkpt lat="45.79328" lon="5.7547">
        <ele>238</ele>
        <time>2020-05-31T12:39:34.513Z</time>
      </trkpt>
      <trkpt lat="45.79326" lon="5.75473">
        <ele>238</ele>
        <time>2020-05-31T12:39:39.490Z</time>
      </trkpt>
      <trkpt lat="45.79323" lon="5.75479">
        <ele>238</ele>
        <time>2020-05-31T12:39:44.498Z</time>
      </trkpt>
      <trkpt lat="45.79322" lon="5.75483">
        <ele>238</ele>
        <time>2020-05-31T12:39:49.498Z</time>
      </trkpt>
      <trkpt lat="45.79321" lon="5.75486">
        <ele>236</ele>
        <time>2020-05-31T12:39:53.566Z</time>
      </trkpt>
      <trkpt lat="45.79321" lon="5.7549">
        <ele>236</ele>
        <time>2020-05-31T12:39:58.493Z</time>
      </trkpt>
      <trkpt lat="45.79324" lon="5.75497">
        <ele>236</ele>
        <time>2020-05-31T12:40:03.505Z</time>
      </trkpt>
      <trkpt lat="45.79326" lon="5.755">
        <ele>236</ele>
        <time>2020-05-31T12:40:37.462Z</time>
      </trkpt>
      <trkpt lat="45.79326" lon="5.755">
        <ele>236</ele>
        <time>2020-05-31T12:40:41.502Z</time>
      </trkpt>
      <trkpt lat="45.79327" lon="5.75503">
        <ele>236</ele>
        <time>2020-05-31T12:40:45.518Z</time>
      </trkpt>
      <trkpt lat="45.79331" lon="5.75508">
        <ele>236</ele>
        <time>2020-05-31T12:40:49.503Z</time>
      </trkpt>
      <trkpt lat="45.79335" lon="5.75514">
        <ele>235</ele>
        <time>2020-05-31T12:40:54.490Z</time>
      </trkpt>
      <trkpt lat="45.79338" lon="5.75518">
        <ele>235</ele>
        <time>2020-05-31T12:40:58.489Z</time>
      </trkpt>
      <trkpt lat="45.79343" lon="5.75523">
        <ele>235</ele>
        <time>2020-05-31T12:41:03.497Z</time>
      </trkpt>
      <trkpt lat="45.79348" lon="5.7553">
        <ele>233</ele>
        <time>2020-05-31T12:41:08.497Z</time>
      </trkpt>
      <trkpt lat="45.79356" lon="5.75537">
        <ele>233</ele>
        <time>2020-05-31T12:41:13.484Z</time>
      </trkpt>
      <trkpt lat="45.79362" lon="5.75543">
        <ele>231</ele>
        <time>2020-05-31T12:41:17.485Z</time>
      </trkpt>
      <trkpt lat="45.79369" lon="5.75551">
        <ele>231</ele>
        <time>2020-05-31T12:41:22.557Z</time>
      </trkpt>
      <trkpt lat="45.79374" lon="5.75556">
        <ele>231</ele>
        <time>2020-05-31T12:41:27.507Z</time>
      </trkpt>
      <trkpt lat="45.79376" lon="5.7556">
        <ele>230</ele>
        <time>2020-05-31T12:41:31.517Z</time>
      </trkpt>
      <trkpt lat="45.79377" lon="5.7557">
        <ele>229</ele>
        <time>2020-05-31T12:41:36.497Z</time>
      </trkpt>
      <trkpt lat="45.79377" lon="5.75578">
        <ele>229</ele>
        <time>2020-05-31T12:41:40.553Z</time>
      </trkpt>
      <trkpt lat="45.7938" lon="5.75588">
        <ele>229</ele>
        <time>2020-05-31T12:41:45.515Z</time>
      </trkpt>
      <trkpt lat="45.7939" lon="5.75594">
        <ele>229</ele>
        <time>2020-05-31T12:41:50.509Z</time>
      </trkpt>
      <trkpt lat="45.79398" lon="5.75593">
        <ele>229</ele>
        <time>2020-05-31T12:41:55.502Z</time>
      </trkpt>
      <trkpt lat="45.79409" lon="5.75597">
        <ele>230</ele>
        <time>2020-05-31T12:42:00.466Z</time>
      </trkpt>
      <trkpt lat="45.79427" lon="5.75601">
        <ele>229</ele>
        <time>2020-05-31T12:42:04.560Z</time>
      </trkpt>
      <trkpt lat="45.79451" lon="5.756">
        <ele>230</ele>
        <time>2020-05-31T12:42:09.491Z</time>
      </trkpt>
      <trkpt lat="45.79473" lon="5.75591">
        <ele>231</ele>
        <time>2020-05-31T12:42:14.512Z</time>
      </trkpt>
      <trkpt lat="45.79491" lon="5.7557">
        <ele>231</ele>
        <time>2020-05-31T12:42:19.479Z</time>
      </trkpt>
      <trkpt lat="45.795" lon="5.75546">
        <ele>232</ele>
        <time>2020-05-31T12:42:23.514Z</time>
      </trkpt>
      <trkpt lat="45.79515" lon="5.7552">
        <ele>233</ele>
        <time>2020-05-31T12:42:28.491Z</time>
      </trkpt>
      <trkpt lat="45.79532" lon="5.75505">
        <ele>233</ele>
        <time>2020-05-31T12:42:32.520Z</time>
      </trkpt>
      <trkpt lat="45.7956" lon="5.75491">
        <ele>232</ele>
        <time>2020-05-31T12:42:37.488Z</time>
      </trkpt>
      <trkpt lat="45.79589" lon="5.75486">
        <ele>232</ele>
        <time>2020-05-31T12:42:42.505Z</time>
      </trkpt>
      <trkpt lat="45.79617" lon="5.75493">
        <ele>233</ele>
        <time>2020-05-31T12:42:47.490Z</time>
      </trkpt>
      <trkpt lat="45.7964" lon="5.7551">
        <ele>232</ele>
        <time>2020-05-31T12:42:52.469Z</time>
      </trkpt>
      <trkpt lat="45.7966" lon="5.75518">
        <ele>231</ele>
        <time>2020-05-31T12:42:57.474Z</time>
      </trkpt>
      <trkpt lat="45.79674" lon="5.75528">
        <ele>231</ele>
        <time>2020-05-31T12:43:01.506Z</time>
      </trkpt>
      <trkpt lat="45.79685" lon="5.75543">
        <ele>230</ele>
        <time>2020-05-31T12:43:06.505Z</time>
      </trkpt>
      <trkpt lat="45.79693" lon="5.7556">
        <ele>230</ele>
        <time>2020-05-31T12:43:11.511Z</time>
      </trkpt>
      <trkpt lat="45.79702" lon="5.75569">
        <ele>230</ele>
        <time>2020-05-31T12:43:16.518Z</time>
      </trkpt>
      <trkpt lat="45.79712" lon="5.75574">
        <ele>230</ele>
        <time>2020-05-31T12:43:21.470Z</time>
      </trkpt>
      <trkpt lat="45.79717" lon="5.75576">
        <ele>230</ele>
        <time>2020-05-31T12:43:25.514Z</time>
      </trkpt>
      <trkpt lat="45.79724" lon="5.75578">
        <ele>230</ele>
        <time>2020-05-31T12:43:30.506Z</time>
      </trkpt>
      <trkpt lat="45.79736" lon="5.7558">
        <ele>230</ele>
        <time>2020-05-31T12:43:35.519Z</time>
      </trkpt>
      <trkpt lat="45.79743" lon="5.75578">
        <ele>230</ele>
        <time>2020-05-31T12:43:40.498Z</time>
      </trkpt>
      <trkpt lat="45.7975" lon="5.75575">
        <ele>230</ele>
        <time>2020-05-31T12:43:45.496Z</time>
      </trkpt>
      <trkpt lat="45.79762" lon="5.7557">
        <ele>230</ele>
        <time>2020-05-31T12:43:49.490Z</time>
      </trkpt>
      <trkpt lat="45.79781" lon="5.75556">
        <ele>229</ele>
        <time>2020-05-31T12:43:54.501Z</time>
      </trkpt>
      <trkpt lat="45.79804" lon="5.75551">
        <ele>229</ele>
        <time>2020-05-31T12:43:59.480Z</time>
      </trkpt>
      <trkpt lat="45.79818" lon="5.75546">
        <ele>229</ele>
        <time>2020-05-31T12:44:03.507Z</time>
      </trkpt>
      <trkpt lat="45.79832" lon="5.75539">
        <ele>228</ele>
        <time>2020-05-31T12:44:08.488Z</time>
      </trkpt>
      <trkpt lat="45.7984" lon="5.75538">
        <ele>228</ele>
        <time>2020-05-31T12:44:12.496Z</time>
      </trkpt>
      <trkpt lat="45.79847" lon="5.75537">
        <ele>228</ele>
        <time>2020-05-31T12:44:16.554Z</time>
      </trkpt>
      <trkpt lat="45.79858" lon="5.75534">
        <ele>229</ele>
        <time>2020-05-31T12:44:21.518Z</time>
      </trkpt>
      <trkpt lat="45.79867" lon="5.75533">
        <ele>229</ele>
        <time>2020-05-31T12:44:26.515Z</time>
      </trkpt>
      <trkpt lat="45.79878" lon="5.75531">
        <ele>229</ele>
        <time>2020-05-31T12:44:31.489Z</time>
      </trkpt>
      <trkpt lat="45.79883" lon="5.75531">
        <ele>229</ele>
        <time>2020-05-31T12:44:35.491Z</time>
      </trkpt>
      <trkpt lat="45.79889" lon="5.7553">
        <ele>229</ele>
        <time>2020-05-31T12:44:39.563Z</time>
      </trkpt>
      <trkpt lat="45.79908" lon="5.75529">
        <ele>229</ele>
        <time>2020-05-31T12:45:24.500Z</time>
      </trkpt>
      <trkpt lat="45.79914" lon="5.75528">
        <ele>229</ele>
        <time>2020-05-31T12:45:29.511Z</time>
      </trkpt>
      <trkpt lat="45.79924" lon="5.75527">
        <ele>229</ele>
        <time>2020-05-31T12:45:34.498Z</time>
      </trkpt>
      <trkpt lat="45.79934" lon="5.75526">
        <ele>230</ele>
        <time>2020-05-31T12:45:39.493Z</time>
      </trkpt>
      <trkpt lat="45.79936" lon="5.75526">
        <ele>230</ele>
        <time>2020-05-31T12:45:43.501Z</time>
      </trkpt>
      <trkpt lat="45.79942" lon="5.75527">
        <ele>230</ele>
        <time>2020-05-31T12:45:48.491Z</time>
      </trkpt>
      <trkpt lat="45.79952" lon="5.75528">
        <ele>230</ele>
        <time>2020-05-31T12:45:53.515Z</time>
      </trkpt>
      <trkpt lat="45.79962" lon="5.75526">
        <ele>230</ele>
        <time>2020-05-31T12:45:58.511Z</time>
      </trkpt>
      <trkpt lat="45.79971" lon="5.75526">
        <ele>230</ele>
        <time>2020-05-31T12:46:03.508Z</time>
      </trkpt>
      <trkpt lat="45.79984" lon="5.75534">
        <ele>230</ele>
        <time>2020-05-31T12:46:08.500Z</time>
      </trkpt>
      <trkpt lat="45.80006" lon="5.75543">
        <ele>229</ele>
        <time>2020-05-31T12:46:13.499Z</time>
      </trkpt>
      <trkpt lat="45.80031" lon="5.75539">
        <ele>229</ele>
        <time>2020-05-31T12:46:18.573Z</time>
      </trkpt>
      <trkpt lat="45.80055" lon="5.75517">
        <ele>229</ele>
        <time>2020-05-31T12:46:23.500Z</time>
      </trkpt>
      <trkpt lat="45.80079" lon="5.75504">
        <ele>230</ele>
        <time>2020-05-31T12:46:28.508Z</time>
      </trkpt>
      <trkpt lat="45.80107" lon="5.75503">
        <ele>230</ele>
        <time>2020-05-31T12:46:33.508Z</time>
      </trkpt>
      <trkpt lat="45.80136" lon="5.75512">
        <ele>230</ele>
        <time>2020-05-31T12:46:38.453Z</time>
      </trkpt>
      <trkpt lat="45.80161" lon="5.7551">
        <ele>229</ele>
        <time>2020-05-31T12:46:42.503Z</time>
      </trkpt>
      <trkpt lat="45.80191" lon="5.75503">
        <ele>230</ele>
        <time>2020-05-31T12:46:47.492Z</time>
      </trkpt>
      <trkpt lat="45.80214" lon="5.75494">
        <ele>230</ele>
        <time>2020-05-31T12:46:51.496Z</time>
      </trkpt>
      <trkpt lat="45.80244" lon="5.75484">
        <ele>230</ele>
        <time>2020-05-31T12:46:56.468Z</time>
      </trkpt>
      <trkpt lat="45.80264" lon="5.75474">
        <ele>229</ele>
        <time>2020-05-31T12:47:00.502Z</time>
      </trkpt>
      <trkpt lat="45.80286" lon="5.75471">
        <ele>229</ele>
        <time>2020-05-31T12:47:05.500Z</time>
      </trkpt>
      <trkpt lat="45.80294" lon="5.75467">
        <ele>228</ele>
        <time>2020-05-31T12:47:10.471Z</time>
      </trkpt>
      <trkpt lat="45.80297" lon="5.75462">
        <ele>228</ele>
        <time>2020-05-31T12:47:41.494Z</time>
      </trkpt>
      <trkpt lat="45.80298" lon="5.75451">
        <ele>229</ele>
        <time>2020-05-31T12:47:46.506Z</time>
      </trkpt>
      <trkpt lat="45.80301" lon="5.7544">
        <ele>229</ele>
        <time>2020-05-31T12:47:51.507Z</time>
      </trkpt>
      <trkpt lat="45.80306" lon="5.75433">
        <ele>229</ele>
        <time>2020-05-31T12:47:56.505Z</time>
      </trkpt>
      <trkpt lat="45.80309" lon="5.7543">
        <ele>229</ele>
        <time>2020-05-31T12:48:01.503Z</time>
      </trkpt>
      <trkpt lat="45.80314" lon="5.75426">
        <ele>229</ele>
        <time>2020-05-31T12:48:06.472Z</time>
      </trkpt>
      <trkpt lat="45.80319" lon="5.75421">
        <ele>229</ele>
        <time>2020-05-31T12:48:10.492Z</time>
      </trkpt>
      <trkpt lat="45.80323" lon="5.75415">
        <ele>228</ele>
        <time>2020-05-31T12:48:14.507Z</time>
      </trkpt>
      <trkpt lat="45.80327" lon="5.75406">
        <ele>228</ele>
        <time>2020-05-31T12:48:19.492Z</time>
      </trkpt>
      <trkpt lat="45.80331" lon="5.75389">
        <ele>228</ele>
        <time>2020-05-31T12:48:23.556Z</time>
      </trkpt>
      <trkpt lat="45.80337" lon="5.75358">
        <ele>228</ele>
        <time>2020-05-31T12:48:28.499Z</time>
      </trkpt>
      <trkpt lat="45.80345" lon="5.75323">
        <ele>229</ele>
        <time>2020-05-31T12:48:33.507Z</time>
      </trkpt>
      <trkpt lat="45.80346" lon="5.75291">
        <ele>231</ele>
        <time>2020-05-31T12:48:38.493Z</time>
      </trkpt>
      <trkpt lat="45.80348" lon="5.7526">
        <ele>232</ele>
        <time>2020-05-31T12:48:43.491Z</time>
      </trkpt>
      <trkpt lat="45.80345" lon="5.75224">
        <ele>232</ele>
        <time>2020-05-31T12:48:48.492Z</time>
      </trkpt>
      <trkpt lat="45.80354" lon="5.75198">
        <ele>233</ele>
        <time>2020-05-31T12:48:53.502Z</time>
      </trkpt>
      <trkpt lat="45.80367" lon="5.75173">
        <ele>234</ele>
        <time>2020-05-31T12:48:58.487Z</time>
      </trkpt>
      <trkpt lat="45.8038" lon="5.75146">
        <ele>233</ele>
        <time>2020-05-31T12:49:02.509Z</time>
      </trkpt>
      <trkpt lat="45.80392" lon="5.75116">
        <ele>234</ele>
        <time>2020-05-31T12:49:07.485Z</time>
      </trkpt>
      <trkpt lat="45.80405" lon="5.75094">
        <ele>231</ele>
        <time>2020-05-31T12:49:12.510Z</time>
      </trkpt>
      <trkpt lat="45.80431" lon="5.7507">
        <ele>230</ele>
        <time>2020-05-31T12:49:17.501Z</time>
      </trkpt>
      <trkpt lat="45.80469" lon="5.75057">
        <ele>230</ele>
        <time>2020-05-31T12:49:22.471Z</time>
      </trkpt>
      <trkpt lat="45.80499" lon="5.75059">
        <ele>229</ele>
        <time>2020-05-31T12:49:26.513Z</time>
      </trkpt>
      <trkpt lat="45.8053" lon="5.75061">
        <ele>228</ele>
        <time>2020-05-31T12:49:31.507Z</time>
      </trkpt>
      <trkpt lat="45.80558" lon="5.75064">
        <ele>228</ele>
        <time>2020-05-31T12:49:36.466Z</time>
      </trkpt>
      <trkpt lat="45.80575" lon="5.75062">
        <ele>229</ele>
        <time>2020-05-31T12:49:40.490Z</time>
      </trkpt>
      <trkpt lat="45.80584" lon="5.75065">
        <ele>229</ele>
        <time>2020-05-31T12:49:44.501Z</time>
      </trkpt>
      <trkpt lat="45.80595" lon="5.75068">
        <ele>229</ele>
        <time>2020-05-31T12:49:49.512Z</time>
      </trkpt>
      <trkpt lat="45.80604" lon="5.7507">
        <ele>229</ele>
        <time>2020-05-31T12:49:54.509Z</time>
      </trkpt>
      <trkpt lat="45.80612" lon="5.75074">
        <ele>229</ele>
        <time>2020-05-31T12:49:59.498Z</time>
      </trkpt>
      <trkpt lat="45.80618" lon="5.7508">
        <ele>229</ele>
        <time>2020-05-31T12:50:04.512Z</time>
      </trkpt>
      <trkpt lat="45.80624" lon="5.75081">
        <ele>229</ele>
        <time>2020-05-31T12:50:08.515Z</time>
      </trkpt>
      <trkpt lat="45.8063" lon="5.75082">
        <ele>230</ele>
        <time>2020-05-31T12:50:13.507Z</time>
      </trkpt>
      <trkpt lat="45.80638" lon="5.75086">
        <ele>230</ele>
        <time>2020-05-31T12:50:18.502Z</time>
      </trkpt>
      <trkpt lat="45.80645" lon="5.75089">
        <ele>230</ele>
        <time>2020-05-31T12:50:23.513Z</time>
      </trkpt>
      <trkpt lat="45.80652" lon="5.75091">
        <ele>230</ele>
        <time>2020-05-31T12:50:28.505Z</time>
      </trkpt>
      <trkpt lat="45.80658" lon="5.75091">
        <ele>230</ele>
        <time>2020-05-31T12:50:32.581Z</time>
      </trkpt>
      <trkpt lat="45.80665" lon="5.7509">
        <ele>230</ele>
        <time>2020-05-31T12:50:37.460Z</time>
      </trkpt>
      <trkpt lat="45.80671" lon="5.75089">
        <ele>230</ele>
        <time>2020-05-31T12:50:41.489Z</time>
      </trkpt>
      <trkpt lat="45.80678" lon="5.75087">
        <ele>230</ele>
        <time>2020-05-31T12:50:46.502Z</time>
      </trkpt>
      <trkpt lat="45.80685" lon="5.75086">
        <ele>231</ele>
        <time>2020-05-31T12:50:51.511Z</time>
      </trkpt>
      <trkpt lat="45.80692" lon="5.75087">
        <ele>231</ele>
        <time>2020-05-31T12:50:56.514Z</time>
      </trkpt>
      <trkpt lat="45.80699" lon="5.75086">
        <ele>231</ele>
        <time>2020-05-31T12:51:01.475Z</time>
      </trkpt>
      <trkpt lat="45.80708" lon="5.75078">
        <ele>231</ele>
        <time>2020-05-31T12:51:05.498Z</time>
      </trkpt>
      <trkpt lat="45.80731" lon="5.75069">
        <ele>231</ele>
        <time>2020-05-31T12:51:10.488Z</time>
      </trkpt>
      <trkpt lat="45.80752" lon="5.75065">
        <ele>230</ele>
        <time>2020-05-31T12:51:14.513Z</time>
      </trkpt>
      <trkpt lat="45.80778" lon="5.7506">
        <ele>230</ele>
        <time>2020-05-31T12:51:19.511Z</time>
      </trkpt>
      <trkpt lat="45.80804" lon="5.75062">
        <ele>231</ele>
        <time>2020-05-31T12:51:24.516Z</time>
      </trkpt>
      <trkpt lat="45.80829" lon="5.75046">
        <ele>231</ele>
        <time>2020-05-31T12:51:29.493Z</time>
      </trkpt>
      <trkpt lat="45.8085" lon="5.75021">
        <ele>232</ele>
        <time>2020-05-31T12:51:34.489Z</time>
      </trkpt>
      <trkpt lat="45.80868" lon="5.75007">
        <ele>233</ele>
        <time>2020-05-31T12:51:39.502Z</time>
      </trkpt>
      <trkpt lat="45.8089" lon="5.74995">
        <ele>232</ele>
        <time>2020-05-31T12:51:43.509Z</time>
      </trkpt>
      <trkpt lat="45.8092" lon="5.74989">
        <ele>231</ele>
        <time>2020-05-31T12:51:48.488Z</time>
      </trkpt>
      <trkpt lat="45.80958" lon="5.74989">
        <ele>231</ele>
        <time>2020-05-31T12:51:53.543Z</time>
      </trkpt>
      <trkpt lat="45.80989" lon="5.74987">
        <ele>231</ele>
        <time>2020-05-31T12:51:58.507Z</time>
      </trkpt>
      <trkpt lat="45.81017" lon="5.74983">
        <ele>232</ele>
        <time>2020-05-31T12:52:03.490Z</time>
      </trkpt>
      <trkpt lat="45.81042" lon="5.74981">
        <ele>231</ele>
        <time>2020-05-31T12:52:07.496Z</time>
      </trkpt>
      <trkpt lat="45.81069" lon="5.74964">
        <ele>231</ele>
        <time>2020-05-31T12:52:12.519Z</time>
      </trkpt>
      <trkpt lat="45.81093" lon="5.74945">
        <ele>230</ele>
        <time>2020-05-31T12:52:17.495Z</time>
      </trkpt>
      <trkpt lat="45.81108" lon="5.74934">
        <ele>230</ele>
        <time>2020-05-31T12:52:21.508Z</time>
      </trkpt>
      <trkpt lat="45.81125" lon="5.7493">
        <ele>229</ele>
        <time>2020-05-31T12:52:26.482Z</time>
      </trkpt>
      <trkpt lat="45.81133" lon="5.74925">
        <ele>229</ele>
        <time>2020-05-31T12:52:31.509Z</time>
      </trkpt>
      <trkpt lat="45.81141" lon="5.74919">
        <ele>229</ele>
        <time>2020-05-31T12:52:36.504Z</time>
      </trkpt>
      <trkpt lat="45.81149" lon="5.74916">
        <ele>229</ele>
        <time>2020-05-31T12:52:40.564Z</time>
      </trkpt>
      <trkpt lat="45.81154" lon="5.74913">
        <ele>230</ele>
        <time>2020-05-31T12:52:45.495Z</time>
      </trkpt>
      <trkpt lat="45.8116" lon="5.74912">
        <ele>230</ele>
        <time>2020-05-31T12:52:50.493Z</time>
      </trkpt>
      <trkpt lat="45.81169" lon="5.74911">
        <ele>230</ele>
        <time>2020-05-31T12:52:55.484Z</time>
      </trkpt>
      <trkpt lat="45.81177" lon="5.74907">
        <ele>230</ele>
        <time>2020-05-31T12:53:00.512Z</time>
      </trkpt>
      <trkpt lat="45.81184" lon="5.74902">
        <ele>230</ele>
        <time>2020-05-31T12:53:04.499Z</time>
      </trkpt>
      <trkpt lat="45.81189" lon="5.74898">
        <ele>230</ele>
        <time>2020-05-31T12:53:09.489Z</time>
      </trkpt>
      <trkpt lat="45.81193" lon="5.74895">
        <ele>230</ele>
        <time>2020-05-31T12:53:13.523Z</time>
      </trkpt>
      <trkpt lat="45.81198" lon="5.74894">
        <ele>230</ele>
        <time>2020-05-31T12:53:18.509Z</time>
      </trkpt>
      <trkpt lat="45.81207" lon="5.74888">
        <ele>230</ele>
        <time>2020-05-31T12:53:22.566Z</time>
      </trkpt>
      <trkpt lat="45.81211" lon="5.74887">
        <ele>230</ele>
        <time>2020-05-31T12:53:27.508Z</time>
      </trkpt>
      <trkpt lat="45.81216" lon="5.74887">
        <ele>230</ele>
        <time>2020-05-31T12:53:32.512Z</time>
      </trkpt>
      <trkpt lat="45.81227" lon="5.74881">
        <ele>230</ele>
        <time>2020-05-31T12:53:37.508Z</time>
      </trkpt>
      <trkpt lat="45.81234" lon="5.74876">
        <ele>230</ele>
        <time>2020-05-31T12:53:42.498Z</time>
      </trkpt>
      <trkpt lat="45.81239" lon="5.74871">
        <ele>231</ele>
        <time>2020-05-31T12:53:46.557Z</time>
      </trkpt>
      <trkpt lat="45.81245" lon="5.74864">
        <ele>231</ele>
        <time>2020-05-31T12:53:51.490Z</time>
      </trkpt>
      <trkpt lat="45.81248" lon="5.7486">
        <ele>231</ele>
        <time>2020-05-31T12:53:55.507Z</time>
      </trkpt>
      <trkpt lat="45.81252" lon="5.74852">
        <ele>231</ele>
        <time>2020-05-31T12:54:00.509Z</time>
      </trkpt>
      <trkpt lat="45.81257" lon="5.74843">
        <ele>231</ele>
        <time>2020-05-31T12:54:05.493Z</time>
      </trkpt>
      <trkpt lat="45.8126" lon="5.74833">
        <ele>231</ele>
        <time>2020-05-31T12:54:09.556Z</time>
      </trkpt>
      <trkpt lat="45.81267" lon="5.74824">
        <ele>231</ele>
        <time>2020-05-31T12:54:14.511Z</time>
      </trkpt>
      <trkpt lat="45.81273" lon="5.74818">
        <ele>231</ele>
        <time>2020-05-31T12:54:19.505Z</time>
      </trkpt>
      <trkpt lat="45.81275" lon="5.74814">
        <ele>231</ele>
        <time>2020-05-31T12:54:24.513Z</time>
      </trkpt>
      <trkpt lat="45.81283" lon="5.7481">
        <ele>231</ele>
        <time>2020-05-31T12:54:29.493Z</time>
      </trkpt>
      <trkpt lat="45.81291" lon="5.7481">
        <ele>231</ele>
        <time>2020-05-31T12:54:34.494Z</time>
      </trkpt>
      <trkpt lat="45.81298" lon="5.74806">
        <ele>231</ele>
        <time>2020-05-31T12:54:38.574Z</time>
      </trkpt>
      <trkpt lat="45.81307" lon="5.74801">
        <ele>231</ele>
        <time>2020-05-31T12:54:43.513Z</time>
      </trkpt>
      <trkpt lat="45.81315" lon="5.74799">
        <ele>231</ele>
        <time>2020-05-31T12:54:48.503Z</time>
      </trkpt>
      <trkpt lat="45.81322" lon="5.74796">
        <ele>231</ele>
        <time>2020-05-31T12:54:53.503Z</time>
      </trkpt>
      <trkpt lat="45.81327" lon="5.74792">
        <ele>231</ele>
        <time>2020-05-31T12:54:58.484Z</time>
      </trkpt>
      <trkpt lat="45.81334" lon="5.74787">
        <ele>231</ele>
        <time>2020-05-31T12:55:03.450Z</time>
      </trkpt>
      <trkpt lat="45.81339" lon="5.74784">
        <ele>231</ele>
        <time>2020-05-31T12:55:07.503Z</time>
      </trkpt>
      <trkpt lat="45.81344" lon="5.7478">
        <ele>231</ele>
        <time>2020-05-31T12:55:12.493Z</time>
      </trkpt>
      <trkpt lat="45.8135" lon="5.74783">
        <ele>233</ele>
        <time>2020-05-31T12:55:16.500Z</time>
      </trkpt>
      <trkpt lat="45.81353" lon="5.74787">
        <ele>233</ele>
        <time>2020-05-31T12:55:21.518Z</time>
      </trkpt>
      <trkpt lat="45.81358" lon="5.74789">
        <ele>233</ele>
        <time>2020-05-31T12:55:25.510Z</time>
      </trkpt>
      <trkpt lat="45.81365" lon="5.74793">
        <ele>234</ele>
        <time>2020-05-31T12:55:30.455Z</time>
      </trkpt>
      <trkpt lat="45.81371" lon="5.74795">
        <ele>234</ele>
        <time>2020-05-31T12:55:34.495Z</time>
      </trkpt>
      <trkpt lat="45.81375" lon="5.74796">
        <ele>234</ele>
        <time>2020-05-31T12:55:39.479Z</time>
      </trkpt>
      <trkpt lat="45.81384" lon="5.74796">
        <ele>234</ele>
        <time>2020-05-31T12:55:44.481Z</time>
      </trkpt>
      <trkpt lat="45.81392" lon="5.74795">
        <ele>234</ele>
        <time>2020-05-31T12:55:49.546Z</time>
      </trkpt>
      <trkpt lat="45.81399" lon="5.74794">
        <ele>234</ele>
        <time>2020-05-31T12:55:54.506Z</time>
      </trkpt>
      <trkpt lat="45.81405" lon="5.74794">
        <ele>233</ele>
        <time>2020-05-31T12:55:59.491Z</time>
      </trkpt>
      <trkpt lat="45.8141" lon="5.74796">
        <ele>233</ele>
        <time>2020-05-31T12:56:04.506Z</time>
      </trkpt>
      <trkpt lat="45.81414" lon="5.74798">
        <ele>233</ele>
        <time>2020-05-31T12:56:09.489Z</time>
      </trkpt>
      <trkpt lat="45.81421" lon="5.74796">
        <ele>233</ele>
        <time>2020-05-31T12:56:14.521Z</time>
      </trkpt>
      <trkpt lat="45.81429" lon="5.74794">
        <ele>233</ele>
        <time>2020-05-31T12:56:19.488Z</time>
      </trkpt>
      <trkpt lat="45.81437" lon="5.74793">
        <ele>232</ele>
        <time>2020-05-31T12:56:24.487Z</time>
      </trkpt>
      <trkpt lat="45.81445" lon="5.74792">
        <ele>232</ele>
        <time>2020-05-31T12:56:29.515Z</time>
      </trkpt>
      <trkpt lat="45.81453" lon="5.74789">
        <ele>233</ele>
        <time>2020-05-31T12:56:34.490Z</time>
      </trkpt>
      <trkpt lat="45.81458" lon="5.74787">
        <ele>233</ele>
        <time>2020-05-31T12:56:38.501Z</time>
      </trkpt>
      <trkpt lat="45.81461" lon="5.74785">
        <ele>232</ele>
        <time>2020-05-31T12:56:43.490Z</time>
      </trkpt>
      <trkpt lat="45.81463" lon="5.74784">
        <ele>232</ele>
        <time>2020-05-31T12:56:48.503Z</time>
      </trkpt>
      <trkpt lat="45.81473" lon="5.74779">
        <ele>232</ele>
        <time>2020-05-31T12:56:53.501Z</time>
      </trkpt>
      <trkpt lat="45.8148" lon="5.74782">
        <ele>232</ele>
        <time>2020-05-31T12:56:58.516Z</time>
      </trkpt>
      <trkpt lat="45.81488" lon="5.74783">
        <ele>233</ele>
        <time>2020-05-31T12:57:03.507Z</time>
      </trkpt>
      <trkpt lat="45.81494" lon="5.74785">
        <ele>233</ele>
        <time>2020-05-31T12:57:08.491Z</time>
      </trkpt>
      <trkpt lat="45.81499" lon="5.74784">
        <ele>233</ele>
        <time>2020-05-31T12:57:12.518Z</time>
      </trkpt>
      <trkpt lat="45.81505" lon="5.74782">
        <ele>233</ele>
        <time>2020-05-31T12:57:17.507Z</time>
      </trkpt>
      <trkpt lat="45.81514" lon="5.74781">
        <ele>234</ele>
        <time>2020-05-31T12:57:22.506Z</time>
      </trkpt>
      <trkpt lat="45.8152" lon="5.74781">
        <ele>234</ele>
        <time>2020-05-31T12:57:27.495Z</time>
      </trkpt>
      <trkpt lat="45.81529" lon="5.74781">
        <ele>234</ele>
        <time>2020-05-31T12:57:32.486Z</time>
      </trkpt>
      <trkpt lat="45.81538" lon="5.74779">
        <ele>234</ele>
        <time>2020-05-31T12:57:37.483Z</time>
      </trkpt>
      <trkpt lat="45.81544" lon="5.74784">
        <ele>235</ele>
        <time>2020-05-31T12:57:41.506Z</time>
      </trkpt>
      <trkpt lat="45.8155" lon="5.74789">
        <ele>235</ele>
        <time>2020-05-31T12:57:46.491Z</time>
      </trkpt>
      <trkpt lat="45.81556" lon="5.74793">
        <ele>234</ele>
        <time>2020-05-31T12:57:51.501Z</time>
      </trkpt>
      <trkpt lat="45.81562" lon="5.74796">
        <ele>234</ele>
        <time>2020-05-31T12:57:56.490Z</time>
      </trkpt>
      <trkpt lat="45.81569" lon="5.74796">
        <ele>234</ele>
        <time>2020-05-31T12:58:01.473Z</time>
      </trkpt>
      <trkpt lat="45.81572" lon="5.74794">
        <ele>233</ele>
        <time>2020-05-31T12:58:05.509Z</time>
      </trkpt>
      <trkpt lat="45.81575" lon="5.74791">
        <ele>235</ele>
        <time>2020-05-31T12:58:09.556Z</time>
      </trkpt>
      <trkpt lat="45.81582" lon="5.74787">
        <ele>235</ele>
        <time>2020-05-31T12:58:14.461Z</time>
      </trkpt>
      <trkpt lat="45.81586" lon="5.74786">
        <ele>235</ele>
        <time>2020-05-31T12:58:18.496Z</time>
      </trkpt>
      <trkpt lat="45.81593" lon="5.74785">
        <ele>235</ele>
        <time>2020-05-31T12:58:23.496Z</time>
      </trkpt>
      <trkpt lat="45.816" lon="5.74784">
        <ele>233</ele>
        <time>2020-05-31T12:58:28.489Z</time>
      </trkpt>
      <trkpt lat="45.81609" lon="5.74782">
        <ele>233</ele>
        <time>2020-05-31T12:58:33.551Z</time>
      </trkpt>
      <trkpt lat="45.81618" lon="5.74781">
        <ele>233</ele>
        <time>2020-05-31T12:58:38.493Z</time>
      </trkpt>
      <trkpt lat="45.81624" lon="5.74778">
        <ele>233</ele>
        <time>2020-05-31T12:58:43.509Z</time>
      </trkpt>
      <trkpt lat="45.81631" lon="5.74775">
        <ele>234</ele>
        <time>2020-05-31T12:58:48.514Z</time>
      </trkpt>
      <trkpt lat="45.81637" lon="5.74772">
        <ele>234</ele>
        <time>2020-05-31T12:58:53.510Z</time>
      </trkpt>
      <trkpt lat="45.81643" lon="5.74769">
        <ele>234</ele>
        <time>2020-05-31T12:58:58.492Z</time>
      </trkpt>
      <trkpt lat="45.81649" lon="5.74767">
        <ele>234</ele>
        <time>2020-05-31T12:59:02.495Z</time>
      </trkpt>
      <trkpt lat="45.81654" lon="5.74766">
        <ele>235</ele>
        <time>2020-05-31T12:59:07.496Z</time>
      </trkpt>
      <trkpt lat="45.81661" lon="5.74766">
        <ele>235</ele>
        <time>2020-05-31T12:59:12.488Z</time>
      </trkpt>
      <trkpt lat="45.81666" lon="5.74765">
        <ele>235</ele>
        <time>2020-05-31T12:59:16.513Z</time>
      </trkpt>
      <trkpt lat="45.81673" lon="5.74764">
        <ele>235</ele>
        <time>2020-05-31T12:59:21.508Z</time>
      </trkpt>
      <trkpt lat="45.81678" lon="5.74763">
        <ele>236</ele>
        <time>2020-05-31T12:59:26.495Z</time>
      </trkpt>
      <trkpt lat="45.81683" lon="5.74762">
        <ele>234</ele>
        <time>2020-05-31T12:59:30.509Z</time>
      </trkpt>
      <trkpt lat="45.8169" lon="5.7476">
        <ele>234</ele>
        <time>2020-05-31T12:59:35.501Z</time>
      </trkpt>
      <trkpt lat="45.81698" lon="5.74761">
        <ele>234</ele>
        <time>2020-05-31T12:59:40.518Z</time>
      </trkpt>
      <trkpt lat="45.81704" lon="5.74763">
        <ele>234</ele>
        <time>2020-05-31T12:59:45.516Z</time>
      </trkpt>
      <trkpt lat="45.81712" lon="5.74763">
        <ele>234</ele>
        <time>2020-05-31T12:59:50.501Z</time>
      </trkpt>
      <trkpt lat="45.81719" lon="5.74763">
        <ele>234</ele>
        <time>2020-05-31T12:59:55.500Z</time>
      </trkpt>
      <trkpt lat="45.81725" lon="5.74763">
        <ele>234</ele>
        <time>2020-05-31T13:00:00.503Z</time>
      </trkpt>
      <trkpt lat="45.81733" lon="5.74765">
        <ele>233</ele>
        <time>2020-05-31T13:00:05.509Z</time>
      </trkpt>
      <trkpt lat="45.8174" lon="5.7476">
        <ele>232</ele>
        <time>2020-05-31T13:00:10.491Z</time>
      </trkpt>
      <trkpt lat="45.81746" lon="5.74758">
        <ele>232</ele>
        <time>2020-05-31T13:00:15.494Z</time>
      </trkpt>
      <trkpt lat="45.81751" lon="5.74757">
        <ele>232</ele>
        <time>2020-05-31T13:00:19.500Z</time>
      </trkpt>
      <trkpt lat="45.81757" lon="5.74755">
        <ele>232</ele>
        <time>2020-05-31T13:00:24.493Z</time>
      </trkpt>
      <trkpt lat="45.81764" lon="5.74752">
        <ele>231</ele>
        <time>2020-05-31T13:00:28.515Z</time>
      </trkpt>
      <trkpt lat="45.8177" lon="5.7475">
        <ele>231</ele>
        <time>2020-05-31T13:00:33.509Z</time>
      </trkpt>
      <trkpt lat="45.81777" lon="5.74746">
        <ele>231</ele>
        <time>2020-05-31T13:00:38.501Z</time>
      </trkpt>
      <trkpt lat="45.81785" lon="5.74744">
        <ele>231</ele>
        <time>2020-05-31T13:00:43.495Z</time>
      </trkpt>
      <trkpt lat="45.81792" lon="5.7474">
        <ele>232</ele>
        <time>2020-05-31T13:00:48.505Z</time>
      </trkpt>
      <trkpt lat="45.81807" lon="5.74727">
        <ele>233</ele>
        <time>2020-05-31T13:00:53.494Z</time>
      </trkpt>
      <trkpt lat="45.8183" lon="5.7471">
        <ele>235</ele>
        <time>2020-05-31T13:00:58.493Z</time>
      </trkpt>
      <trkpt lat="45.81854" lon="5.74691">
        <ele>237</ele>
        <time>2020-05-31T13:01:03.495Z</time>
      </trkpt>
      <trkpt lat="45.81873" lon="5.74676">
        <ele>237</ele>
        <time>2020-05-31T13:01:08.506Z</time>
      </trkpt>
      <trkpt lat="45.81883" lon="5.7467">
        <ele>234</ele>
        <time>2020-05-31T13:01:13.557Z</time>
      </trkpt>
      <trkpt lat="45.81894" lon="5.74663">
        <ele>234</ele>
        <time>2020-05-31T13:01:18.488Z</time>
      </trkpt>
      <trkpt lat="45.81915" lon="5.74652">
        <ele>233</ele>
        <time>2020-05-31T13:01:23.511Z</time>
      </trkpt>
      <trkpt lat="45.81931" lon="5.74644">
        <ele>233</ele>
        <time>2020-05-31T13:01:28.497Z</time>
      </trkpt>
      <trkpt lat="45.81938" lon="5.74645">
        <ele>233</ele>
        <time>2020-05-31T13:01:33.496Z</time>
      </trkpt>
      <trkpt lat="45.81947" lon="5.74649">
        <ele>233</ele>
        <time>2020-05-31T13:01:38.505Z</time>
      </trkpt>
      <trkpt lat="45.81955" lon="5.74653">
        <ele>233</ele>
        <time>2020-05-31T13:01:43.553Z</time>
      </trkpt>
      <trkpt lat="45.81962" lon="5.74655">
        <ele>232</ele>
        <time>2020-05-31T13:01:48.494Z</time>
      </trkpt>
      <trkpt lat="45.81969" lon="5.74661">
        <ele>232</ele>
        <time>2020-05-31T13:01:53.511Z</time>
      </trkpt>
      <trkpt lat="45.81979" lon="5.74664">
        <ele>232</ele>
        <time>2020-05-31T13:01:58.491Z</time>
      </trkpt>
      <trkpt lat="45.81999" lon="5.7466">
        <ele>232</ele>
        <time>2020-05-31T13:02:03.496Z</time>
      </trkpt>
      <trkpt lat="45.82023" lon="5.7465">
        <ele>235</ele>
        <time>2020-05-31T13:02:08.499Z</time>
      </trkpt>
      <trkpt lat="45.82041" lon="5.74649">
        <ele>235</ele>
        <time>2020-05-31T13:02:12.501Z</time>
      </trkpt>
      <trkpt lat="45.82067" lon="5.74653">
        <ele>233</ele>
        <time>2020-05-31T13:02:17.483Z</time>
      </trkpt>
      <trkpt lat="45.82088" lon="5.74653">
        <ele>233</ele>
        <time>2020-05-31T13:02:22.496Z</time>
      </trkpt>
      <trkpt lat="45.82116" lon="5.74641">
        <ele>235</ele>
        <time>2020-05-31T13:02:27.499Z</time>
      </trkpt>
      <trkpt lat="45.82136" lon="5.74619">
        <ele>237</ele>
        <time>2020-05-31T13:02:32.511Z</time>
      </trkpt>
      <trkpt lat="45.82149" lon="5.74603">
        <ele>237</ele>
        <time>2020-05-31T13:02:37.513Z</time>
      </trkpt>
      <trkpt lat="45.82155" lon="5.74595">
        <ele>235</ele>
        <time>2020-05-31T13:02:42.491Z</time>
      </trkpt>
      <trkpt lat="45.82166" lon="5.74583">
        <ele>235</ele>
        <time>2020-05-31T13:02:47.491Z</time>
      </trkpt>
      <trkpt lat="45.8217" lon="5.74578">
        <ele>235</ele>
        <time>2020-05-31T13:02:52.505Z</time>
      </trkpt>
      <trkpt lat="45.82172" lon="5.74575">
        <ele>235</ele>
        <time>2020-05-31T13:02:57.509Z</time>
      </trkpt>
      <trkpt lat="45.82177" lon="5.74572">
        <ele>235</ele>
        <time>2020-05-31T13:03:02.516Z</time>
      </trkpt>
      <trkpt lat="45.8218" lon="5.7457">
        <ele>235</ele>
        <time>2020-05-31T13:03:07.512Z</time>
      </trkpt>
      <trkpt lat="45.82185" lon="5.74566">
        <ele>234</ele>
        <time>2020-05-31T13:03:12.515Z</time>
      </trkpt>
      <trkpt lat="45.82193" lon="5.74563">
        <ele>234</ele>
        <time>2020-05-31T13:03:17.521Z</time>
      </trkpt>
      <trkpt lat="45.82203" lon="5.7456">
        <ele>234</ele>
        <time>2020-05-31T13:03:22.510Z</time>
      </trkpt>
      <trkpt lat="45.82211" lon="5.74557">
        <ele>233</ele>
        <time>2020-05-31T13:03:27.505Z</time>
      </trkpt>
      <trkpt lat="45.82214" lon="5.74556">
        <ele>233</ele>
        <time>2020-05-31T13:03:32.501Z</time>
      </trkpt>
      <trkpt lat="45.82219" lon="5.74553">
        <ele>233</ele>
        <time>2020-05-31T13:03:36.502Z</time>
      </trkpt>
      <trkpt lat="45.82243" lon="5.74547">
        <ele>234</ele>
        <time>2020-05-31T13:03:46.509Z</time>
      </trkpt>
      <trkpt lat="45.8227" lon="5.74526">
        <ele>236</ele>
        <time>2020-05-31T13:03:51.475Z</time>
      </trkpt>
      <trkpt lat="45.82288" lon="5.74503">
        <ele>238</ele>
        <time>2020-05-31T13:03:55.496Z</time>
      </trkpt>
      <trkpt lat="45.82307" lon="5.74484">
        <ele>238</ele>
        <time>2020-05-31T13:03:59.543Z</time>
      </trkpt>
      <trkpt lat="45.82334" lon="5.74469">
        <ele>238</ele>
        <time>2020-05-31T13:04:04.511Z</time>
      </trkpt>
      <trkpt lat="45.82353" lon="5.74463">
        <ele>236</ele>
        <time>2020-05-31T13:04:09.498Z</time>
      </trkpt>
      <trkpt lat="45.82361" lon="5.74463">
        <ele>236</ele>
        <time>2020-05-31T13:04:23.510Z</time>
      </trkpt>
      <trkpt lat="45.82355" lon="5.74464">
        <ele>236</ele>
        <time>2020-05-31T13:04:28.496Z</time>
      </trkpt>
      <trkpt lat="45.82354" lon="5.74464">
        <ele>236</ele>
        <time>2020-05-31T13:04:32.511Z</time>
      </trkpt>
      <trkpt lat="45.82349" lon="5.74467">
        <ele>236</ele>
        <time>2020-05-31T13:04:36.519Z</time>
      </trkpt>
      <trkpt lat="45.8235" lon="5.74476">
        <ele>236</ele>
        <time>2020-05-31T13:04:41.499Z</time>
      </trkpt>
      <trkpt lat="45.82356" lon="5.74489">
        <ele>236</ele>
        <time>2020-05-31T13:04:46.509Z</time>
      </trkpt>
      <trkpt lat="45.82362" lon="5.74517">
        <ele>235</ele>
        <time>2020-05-31T13:04:51.507Z</time>
      </trkpt>
      <trkpt lat="45.82366" lon="5.74555">
        <ele>234</ele>
        <time>2020-05-31T13:04:56.487Z</time>
      </trkpt>
      <trkpt lat="45.82372" lon="5.74596">
        <ele>233</ele>
        <time>2020-05-31T13:05:01.478Z</time>
      </trkpt>
      <trkpt lat="45.82374" lon="5.74616">
        <ele>232</ele>
        <time>2020-05-31T13:05:05.498Z</time>
      </trkpt>
      <trkpt lat="45.82376" lon="5.74626">
        <ele>231</ele>
        <time>2020-05-31T13:05:09.515Z</time>
      </trkpt>
      <trkpt lat="45.82379" lon="5.74637">
        <ele>231</ele>
        <time>2020-05-31T13:05:14.502Z</time>
      </trkpt>
      <trkpt lat="45.8238" lon="5.74646">
        <ele>231</ele>
        <time>2020-05-31T13:05:19.500Z</time>
      </trkpt>
      <trkpt lat="45.82382" lon="5.74655">
        <ele>230</ele>
        <time>2020-05-31T13:05:23.508Z</time>
      </trkpt>
      <trkpt lat="45.82384" lon="5.74665">
        <ele>230</ele>
        <time>2020-05-31T13:05:28.519Z</time>
      </trkpt>
      <trkpt lat="45.82386" lon="5.74674">
        <ele>230</ele>
        <time>2020-05-31T13:05:33.486Z</time>
      </trkpt>
      <trkpt lat="45.82387" lon="5.74682">
        <ele>230</ele>
        <time>2020-05-31T13:05:37.541Z</time>
      </trkpt>
      <trkpt lat="45.82389" lon="5.74691">
        <ele>230</ele>
        <time>2020-05-31T13:05:42.455Z</time>
      </trkpt>
      <trkpt lat="45.82391" lon="5.74699">
        <ele>230</ele>
        <time>2020-05-31T13:05:46.499Z</time>
      </trkpt>
      <trkpt lat="45.82393" lon="5.74708">
        <ele>230</ele>
        <time>2020-05-31T13:05:50.510Z</time>
      </trkpt>
      <trkpt lat="45.82394" lon="5.74717">
        <ele>230</ele>
        <time>2020-05-31T13:05:54.500Z</time>
      </trkpt>
      <trkpt lat="45.82397" lon="5.74726">
        <ele>230</ele>
        <time>2020-05-31T13:05:59.493Z</time>
      </trkpt>
      <trkpt lat="45.82398" lon="5.74734">
        <ele>230</ele>
        <time>2020-05-31T13:06:03.489Z</time>
      </trkpt>
      <trkpt lat="45.824" lon="5.74743">
        <ele>230</ele>
        <time>2020-05-31T13:06:08.521Z</time>
      </trkpt>
      <trkpt lat="45.82402" lon="5.74752">
        <ele>230</ele>
        <time>2020-05-31T13:06:13.493Z</time>
      </trkpt>
      <trkpt lat="45.82403" lon="5.74759">
        <ele>231</ele>
        <time>2020-05-31T13:06:17.506Z</time>
      </trkpt>
      <trkpt lat="45.82405" lon="5.74768">
        <ele>230</ele>
        <time>2020-05-31T13:06:22.485Z</time>
      </trkpt>
      <trkpt lat="45.82407" lon="5.74774">
        <ele>230</ele>
        <time>2020-05-31T13:06:27.508Z</time>
      </trkpt>
      <trkpt lat="45.82409" lon="5.74785">
        <ele>230</ele>
        <time>2020-05-31T13:06:32.509Z</time>
      </trkpt>
      <trkpt lat="45.82411" lon="5.74795">
        <ele>229</ele>
        <time>2020-05-31T13:06:37.500Z</time>
      </trkpt>
      <trkpt lat="45.82412" lon="5.748">
        <ele>229</ele>
        <time>2020-05-31T13:06:41.576Z</time>
      </trkpt>
      <trkpt lat="45.82413" lon="5.74812">
        <ele>229</ele>
        <time>2020-05-31T13:06:46.486Z</time>
      </trkpt>
      <trkpt lat="45.82414" lon="5.74819">
        <ele>229</ele>
        <time>2020-05-31T13:06:50.498Z</time>
      </trkpt>
      <trkpt lat="45.82415" lon="5.74828">
        <ele>228</ele>
        <time>2020-05-31T13:06:55.491Z</time>
      </trkpt>
      <trkpt lat="45.82416" lon="5.74835">
        <ele>228</ele>
        <time>2020-05-31T13:06:59.501Z</time>
      </trkpt>
      <trkpt lat="45.82418" lon="5.74845">
        <ele>228</ele>
        <time>2020-05-31T13:07:04.505Z</time>
      </trkpt>
      <trkpt lat="45.8242" lon="5.74853">
        <ele>228</ele>
        <time>2020-05-31T13:07:09.505Z</time>
      </trkpt>
      <trkpt lat="45.82422" lon="5.74862">
        <ele>228</ele>
        <time>2020-05-31T13:07:14.498Z</time>
      </trkpt>
      <trkpt lat="45.82423" lon="5.74871">
        <ele>228</ele>
        <time>2020-05-31T13:07:18.506Z</time>
      </trkpt>
      <trkpt lat="45.82425" lon="5.74879">
        <ele>228</ele>
        <time>2020-05-31T13:07:22.564Z</time>
      </trkpt>
      <trkpt lat="45.82426" lon="5.74889">
        <ele>228</ele>
        <time>2020-05-31T13:07:27.524Z</time>
      </trkpt>
      <trkpt lat="45.82428" lon="5.74899">
        <ele>228</ele>
        <time>2020-05-31T13:07:32.513Z</time>
      </trkpt>
      <trkpt lat="45.8243" lon="5.74909">
        <ele>229</ele>
        <time>2020-05-31T13:07:37.497Z</time>
      </trkpt>
      <trkpt lat="45.82432" lon="5.74917">
        <ele>229</ele>
        <time>2020-05-31T13:07:41.511Z</time>
      </trkpt>
      <trkpt lat="45.82433" lon="5.74927">
        <ele>229</ele>
        <time>2020-05-31T13:07:46.507Z</time>
      </trkpt>
      <trkpt lat="45.82435" lon="5.74936">
        <ele>230</ele>
        <time>2020-05-31T13:07:51.506Z</time>
      </trkpt>
      <trkpt lat="45.82436" lon="5.74947">
        <ele>230</ele>
        <time>2020-05-31T13:07:56.488Z</time>
      </trkpt>
      <trkpt lat="45.82438" lon="5.74954">
        <ele>230</ele>
        <time>2020-05-31T13:08:00.499Z</time>
      </trkpt>
      <trkpt lat="45.8244" lon="5.74962">
        <ele>231</ele>
        <time>2020-05-31T13:08:04.524Z</time>
      </trkpt>
      <trkpt lat="45.82442" lon="5.74972">
        <ele>231</ele>
        <time>2020-05-31T13:08:09.511Z</time>
      </trkpt>
      <trkpt lat="45.82443" lon="5.74982">
        <ele>231</ele>
        <time>2020-05-31T13:08:14.515Z</time>
      </trkpt>
      <trkpt lat="45.82446" lon="5.74992">
        <ele>231</ele>
        <time>2020-05-31T13:08:19.514Z</time>
      </trkpt>
      <trkpt lat="45.82447" lon="5.75">
        <ele>231</ele>
        <time>2020-05-31T13:08:23.486Z</time>
      </trkpt>
      <trkpt lat="45.82449" lon="5.75011">
        <ele>231</ele>
        <time>2020-05-31T13:08:28.497Z</time>
      </trkpt>
      <trkpt lat="45.82451" lon="5.75022">
        <ele>231</ele>
        <time>2020-05-31T13:08:33.570Z</time>
      </trkpt>
      <trkpt lat="45.82453" lon="5.75033">
        <ele>231</ele>
        <time>2020-05-31T13:08:38.515Z</time>
      </trkpt>
      <trkpt lat="45.82455" lon="5.75043">
        <ele>231</ele>
        <time>2020-05-31T13:08:43.499Z</time>
      </trkpt>
      <trkpt lat="45.82458" lon="5.7506">
        <ele>231</ele>
        <time>2020-05-31T13:08:48.510Z</time>
      </trkpt>
      <trkpt lat="45.82466" lon="5.75096">
        <ele>230</ele>
        <time>2020-05-31T13:08:53.503Z</time>
      </trkpt>
      <trkpt lat="45.82473" lon="5.75131">
        <ele>229</ele>
        <time>2020-05-31T13:08:58.521Z</time>
      </trkpt>
      <trkpt lat="45.82477" lon="5.75156">
        <ele>229</ele>
        <time>2020-05-31T13:09:02.509Z</time>
      </trkpt>
      <trkpt lat="45.82479" lon="5.75172">
        <ele>229</ele>
        <time>2020-05-31T13:09:07.494Z</time>
      </trkpt>
      <trkpt lat="45.8248" lon="5.75184">
        <ele>230</ele>
        <time>2020-05-31T13:09:12.495Z</time>
      </trkpt>
      <trkpt lat="45.82482" lon="5.75194">
        <ele>230</ele>
        <time>2020-05-31T13:09:17.504Z</time>
      </trkpt>
      <trkpt lat="45.82483" lon="5.75201">
        <ele>230</ele>
        <time>2020-05-31T13:09:21.566Z</time>
      </trkpt>
      <trkpt lat="45.82486" lon="5.75209">
        <ele>231</ele>
        <time>2020-05-31T13:09:26.504Z</time>
      </trkpt>
      <trkpt lat="45.82488" lon="5.7522">
        <ele>231</ele>
        <time>2020-05-31T13:09:31.511Z</time>
      </trkpt>
      <trkpt lat="45.82489" lon="5.75229">
        <ele>231</ele>
        <time>2020-05-31T13:09:36.494Z</time>
      </trkpt>
      <trkpt lat="45.82491" lon="5.7524">
        <ele>232</ele>
        <time>2020-05-31T13:09:41.480Z</time>
      </trkpt>
      <trkpt lat="45.82493" lon="5.75251">
        <ele>232</ele>
        <time>2020-05-31T13:09:46.518Z</time>
      </trkpt>
      <trkpt lat="45.82494" lon="5.75253">
        <ele>232</ele>
        <time>2020-05-31T13:09:51.494Z</time>
      </trkpt>
      <trkpt lat="45.82496" lon="5.75255">
        <ele>232</ele>
        <time>2020-05-31T13:10:46.508Z</time>
      </trkpt>
      <trkpt lat="45.82497" lon="5.75256">
        <ele>232</ele>
        <time>2020-05-31T13:10:51.478Z</time>
      </trkpt>
      <trkpt lat="45.82497" lon="5.75263">
        <ele>232</ele>
        <time>2020-05-31T13:13:56.518Z</time>
      </trkpt>
      <trkpt lat="45.825" lon="5.75269">
        <ele>232</ele>
        <time>2020-05-31T13:15:12.488Z</time>
      </trkpt>
      <trkpt lat="45.825" lon="5.75272">
        <ele>232</ele>
        <time>2020-05-31T13:15:16.505Z</time>
      </trkpt>
      <trkpt lat="45.825" lon="5.75273">
        <ele>232</ele>
        <time>2020-05-31T13:15:21.486Z</time>
      </trkpt>
      <trkpt lat="45.825" lon="5.75278">
        <ele>232</ele>
        <time>2020-05-31T13:15:25.500Z</time>
      </trkpt>
      <trkpt lat="45.82502" lon="5.75287">
        <ele>232</ele>
        <time>2020-05-31T13:15:30.521Z</time>
      </trkpt>
      <trkpt lat="45.82503" lon="5.75295">
        <ele>232</ele>
        <time>2020-05-31T13:15:34.515Z</time>
      </trkpt>
      <trkpt lat="45.82504" lon="5.75305">
        <ele>232</ele>
        <time>2020-05-31T13:15:39.465Z</time>
      </trkpt>
      <trkpt lat="45.82506" lon="5.75314">
        <ele>232</ele>
        <time>2020-05-31T13:15:43.513Z</time>
      </trkpt>
      <trkpt lat="45.82509" lon="5.75322">
        <ele>233</ele>
        <time>2020-05-31T13:15:48.503Z</time>
      </trkpt>
      <trkpt lat="45.82511" lon="5.75333">
        <ele>233</ele>
        <time>2020-05-31T13:15:53.510Z</time>
      </trkpt>
      <trkpt lat="45.82515" lon="5.75351">
        <ele>234</ele>
        <time>2020-05-31T13:15:58.511Z</time>
      </trkpt>
      <trkpt lat="45.8252" lon="5.75384">
        <ele>234</ele>
        <time>2020-05-31T13:16:03.502Z</time>
      </trkpt>
      <trkpt lat="45.82525" lon="5.75402">
        <ele>234</ele>
        <time>2020-05-31T13:16:07.499Z</time>
      </trkpt>
      <trkpt lat="45.82527" lon="5.75413">
        <ele>233</ele>
        <time>2020-05-31T13:16:12.519Z</time>
      </trkpt>
      <trkpt lat="45.82529" lon="5.75424">
        <ele>233</ele>
        <time>2020-05-31T13:16:17.515Z</time>
      </trkpt>
      <trkpt lat="45.8253" lon="5.75436">
        <ele>233</ele>
        <time>2020-05-31T13:16:22.501Z</time>
      </trkpt>
      <trkpt lat="45.82532" lon="5.75443">
        <ele>233</ele>
        <time>2020-05-31T13:16:27.530Z</time>
      </trkpt>
      <trkpt lat="45.82533" lon="5.75453">
        <ele>233</ele>
        <time>2020-05-31T13:16:32.504Z</time>
      </trkpt>
      <trkpt lat="45.82536" lon="5.7546">
        <ele>232</ele>
        <time>2020-05-31T13:16:37.506Z</time>
      </trkpt>
      <trkpt lat="45.82537" lon="5.75468">
        <ele>232</ele>
        <time>2020-05-31T13:16:42.494Z</time>
      </trkpt>
      <trkpt lat="45.82537" lon="5.75473">
        <ele>232</ele>
        <time>2020-05-31T13:16:47.564Z</time>
      </trkpt>
      <trkpt lat="45.8254" lon="5.75483">
        <ele>232</ele>
        <time>2020-05-31T13:16:52.515Z</time>
      </trkpt>
      <trkpt lat="45.82541" lon="5.75492">
        <ele>232</ele>
        <time>2020-05-31T13:16:57.507Z</time>
      </trkpt>
      <trkpt lat="45.82544" lon="5.75501">
        <ele>231</ele>
        <time>2020-05-31T13:17:02.511Z</time>
      </trkpt>
      <trkpt lat="45.82546" lon="5.75511">
        <ele>231</ele>
        <time>2020-05-31T13:17:07.524Z</time>
      </trkpt>
      <trkpt lat="45.82547" lon="5.75519">
        <ele>232</ele>
        <time>2020-05-31T13:17:12.517Z</time>
      </trkpt>
      <trkpt lat="45.82549" lon="5.75529">
        <ele>232</ele>
        <time>2020-05-31T13:17:17.528Z</time>
      </trkpt>
      <trkpt lat="45.82552" lon="5.7554">
        <ele>232</ele>
        <time>2020-05-31T13:17:22.508Z</time>
      </trkpt>
      <trkpt lat="45.82553" lon="5.75545">
        <ele>232</ele>
        <time>2020-05-31T13:17:26.559Z</time>
      </trkpt>
      <trkpt lat="45.82554" lon="5.75555">
        <ele>232</ele>
        <time>2020-05-31T13:17:31.516Z</time>
      </trkpt>
      <trkpt lat="45.82555" lon="5.7556">
        <ele>232</ele>
        <time>2020-05-31T13:17:35.516Z</time>
      </trkpt>
      <trkpt lat="45.8256" lon="5.75569">
        <ele>232</ele>
        <time>2020-05-31T13:17:40.513Z</time>
      </trkpt>
      <trkpt lat="45.82564" lon="5.75575">
        <ele>232</ele>
        <time>2020-05-31T13:17:45.502Z</time>
      </trkpt>
      <trkpt lat="45.82569" lon="5.7558">
        <ele>232</ele>
        <time>2020-05-31T13:17:49.497Z</time>
      </trkpt>
      <trkpt lat="45.82573" lon="5.75586">
        <ele>231</ele>
        <time>2020-05-31T13:17:54.499Z</time>
      </trkpt>
      <trkpt lat="45.82588" lon="5.75607">
        <ele>230</ele>
        <time>2020-05-31T13:17:59.497Z</time>
      </trkpt>
      <trkpt lat="45.82601" lon="5.75629">
        <ele>228</ele>
        <time>2020-05-31T13:18:03.519Z</time>
      </trkpt>
      <trkpt lat="45.8262" lon="5.75656">
        <ele>228</ele>
        <time>2020-05-31T13:18:08.496Z</time>
      </trkpt>
      <trkpt lat="45.82634" lon="5.75679">
        <ele>230</ele>
        <time>2020-05-31T13:18:12.519Z</time>
      </trkpt>
      <trkpt lat="45.82648" lon="5.75699">
        <ele>230</ele>
        <time>2020-05-31T13:18:17.513Z</time>
      </trkpt>
      <trkpt lat="45.8265" lon="5.75702">
        <ele>230</ele>
        <time>2020-05-31T13:18:22.495Z</time>
      </trkpt>
      <trkpt lat="45.82652" lon="5.75703">
        <ele>230</ele>
        <time>2020-05-31T13:18:41.511Z</time>
      </trkpt>
      <trkpt lat="45.82656" lon="5.75707">
        <ele>231</ele>
        <time>2020-05-31T13:19:44.504Z</time>
      </trkpt>
      <trkpt lat="45.82659" lon="5.75709">
        <ele>231</ele>
        <time>2020-05-31T13:19:52.512Z</time>
      </trkpt>
      <trkpt lat="45.82664" lon="5.75713">
        <ele>231</ele>
        <time>2020-05-31T13:19:56.526Z</time>
      </trkpt>
      <trkpt lat="45.82667" lon="5.75719">
        <ele>231</ele>
        <time>2020-05-31T13:20:00.505Z</time>
      </trkpt>
      <trkpt lat="45.8267" lon="5.75725">
        <ele>231</ele>
        <time>2020-05-31T13:20:05.497Z</time>
      </trkpt>
      <trkpt lat="45.82672" lon="5.75728">
        <ele>231</ele>
        <time>2020-05-31T13:22:15.495Z</time>
      </trkpt>
      <trkpt lat="45.82674" lon="5.75732">
        <ele>231</ele>
        <time>2020-05-31T13:22:19.495Z</time>
      </trkpt>
      <trkpt lat="45.82676" lon="5.75736">
        <ele>231</ele>
        <time>2020-05-31T13:22:23.500Z</time>
      </trkpt>
      <trkpt lat="45.82682" lon="5.75743">
        <ele>232</ele>
        <time>2020-05-31T13:22:28.523Z</time>
      </trkpt>
      <trkpt lat="45.82687" lon="5.75751">
        <ele>232</ele>
        <time>2020-05-31T13:22:33.493Z</time>
      </trkpt>
      <trkpt lat="45.82691" lon="5.75756">
        <ele>232</ele>
        <time>2020-05-31T13:22:37.524Z</time>
      </trkpt>
      <trkpt lat="45.82696" lon="5.75763">
        <ele>232</ele>
        <time>2020-05-31T13:22:42.501Z</time>
      </trkpt>
      <trkpt lat="45.82701" lon="5.7577">
        <ele>232</ele>
        <time>2020-05-31T13:22:47.505Z</time>
      </trkpt>
      <trkpt lat="45.82706" lon="5.75777">
        <ele>232</ele>
        <time>2020-05-31T13:22:52.523Z</time>
      </trkpt>
      <trkpt lat="45.82711" lon="5.75784">
        <ele>230</ele>
        <time>2020-05-31T13:22:57.509Z</time>
      </trkpt>
      <trkpt lat="45.82716" lon="5.75791">
        <ele>230</ele>
        <time>2020-05-31T13:23:02.528Z</time>
      </trkpt>
      <trkpt lat="45.82721" lon="5.75798">
        <ele>230</ele>
        <time>2020-05-31T13:23:07.503Z</time>
      </trkpt>
      <trkpt lat="45.82726" lon="5.75804">
        <ele>230</ele>
        <time>2020-05-31T13:23:12.553Z</time>
      </trkpt>
      <trkpt lat="45.82731" lon="5.75811">
        <ele>230</ele>
        <time>2020-05-31T13:23:17.496Z</time>
      </trkpt>
      <trkpt lat="45.82736" lon="5.75818">
        <ele>230</ele>
        <time>2020-05-31T13:23:22.506Z</time>
      </trkpt>
      <trkpt lat="45.82741" lon="5.75826">
        <ele>229</ele>
        <time>2020-05-31T13:23:27.501Z</time>
      </trkpt>
      <trkpt lat="45.82746" lon="5.75833">
        <ele>229</ele>
        <time>2020-05-31T13:23:32.504Z</time>
      </trkpt>
      <trkpt lat="45.82751" lon="5.75841">
        <ele>229</ele>
        <time>2020-05-31T13:23:37.489Z</time>
      </trkpt>
      <trkpt lat="45.82757" lon="5.75848">
        <ele>228</ele>
        <time>2020-05-31T13:23:42.503Z</time>
      </trkpt>
      <trkpt lat="45.82762" lon="5.75856">
        <ele>228</ele>
        <time>2020-05-31T13:23:47.556Z</time>
      </trkpt>
      <trkpt lat="45.82767" lon="5.75863">
        <ele>229</ele>
        <time>2020-05-31T13:23:52.509Z</time>
      </trkpt>
      <trkpt lat="45.82772" lon="5.75871">
        <ele>229</ele>
        <time>2020-05-31T13:23:57.518Z</time>
      </trkpt>
      <trkpt lat="45.82778" lon="5.75878">
        <ele>229</ele>
        <time>2020-05-31T13:24:02.495Z</time>
      </trkpt>
      <trkpt lat="45.82781" lon="5.75885">
        <ele>229</ele>
        <time>2020-05-31T13:24:06.533Z</time>
      </trkpt>
      <trkpt lat="45.82787" lon="5.75893">
        <ele>229</ele>
        <time>2020-05-31T13:24:11.498Z</time>
      </trkpt>
      <trkpt lat="45.82791" lon="5.75899">
        <ele>229</ele>
        <time>2020-05-31T13:24:15.587Z</time>
      </trkpt>
      <trkpt lat="45.82797" lon="5.75907">
        <ele>231</ele>
        <time>2020-05-31T13:24:20.513Z</time>
      </trkpt>
      <trkpt lat="45.82802" lon="5.75914">
        <ele>231</ele>
        <time>2020-05-31T13:24:25.499Z</time>
      </trkpt>
      <trkpt lat="45.82807" lon="5.75922">
        <ele>231</ele>
        <time>2020-05-31T13:24:30.488Z</time>
      </trkpt>
      <trkpt lat="45.82812" lon="5.75929">
        <ele>231</ele>
        <time>2020-05-31T13:24:35.490Z</time>
      </trkpt>
      <trkpt lat="45.82817" lon="5.75936">
        <ele>231</ele>
        <time>2020-05-31T13:24:40.518Z</time>
      </trkpt>
      <trkpt lat="45.8282" lon="5.75942">
        <ele>231</ele>
        <time>2020-05-31T13:24:44.487Z</time>
      </trkpt>
      <trkpt lat="45.82826" lon="5.75949">
        <ele>231</ele>
        <time>2020-05-31T13:24:49.505Z</time>
      </trkpt>
      <trkpt lat="45.82832" lon="5.75956">
        <ele>231</ele>
        <time>2020-05-31T13:24:54.511Z</time>
      </trkpt>
      <trkpt lat="45.82835" lon="5.75963">
        <ele>232</ele>
        <time>2020-05-31T13:24:58.490Z</time>
      </trkpt>
      <trkpt lat="45.8284" lon="5.75969">
        <ele>232</ele>
        <time>2020-05-31T13:25:02.518Z</time>
      </trkpt>
      <trkpt lat="45.82845" lon="5.75977">
        <ele>232</ele>
        <time>2020-05-31T13:25:07.521Z</time>
      </trkpt>
      <trkpt lat="45.8285" lon="5.75985">
        <ele>231</ele>
        <time>2020-05-31T13:25:12.459Z</time>
      </trkpt>
      <trkpt lat="45.82854" lon="5.75991">
        <ele>232</ele>
        <time>2020-05-31T13:25:16.467Z</time>
      </trkpt>
      <trkpt lat="45.8286" lon="5.75999">
        <ele>232</ele>
        <time>2020-05-31T13:25:21.501Z</time>
      </trkpt>
      <trkpt lat="45.82864" lon="5.76005">
        <ele>232</ele>
        <time>2020-05-31T13:25:25.575Z</time>
      </trkpt>
      <trkpt lat="45.82872" lon="5.76015">
        <ele>232</ele>
        <time>2020-05-31T13:25:30.494Z</time>
      </trkpt>
      <trkpt lat="45.82878" lon="5.76024">
        <ele>232</ele>
        <time>2020-05-31T13:25:35.491Z</time>
      </trkpt>
      <trkpt lat="45.82894" lon="5.76049">
        <ele>231</ele>
        <time>2020-05-31T13:25:40.520Z</time>
      </trkpt>
      <trkpt lat="45.82912" lon="5.76076">
        <ele>231</ele>
        <time>2020-05-31T13:25:45.501Z</time>
      </trkpt>
      <trkpt lat="45.82928" lon="5.76096">
        <ele>231</ele>
        <time>2020-05-31T13:25:49.556Z</time>
      </trkpt>
      <trkpt lat="45.82948" lon="5.76125">
        <ele>230</ele>
        <time>2020-05-31T13:25:54.491Z</time>
      </trkpt>
      <trkpt lat="45.82964" lon="5.76149">
        <ele>231</ele>
        <time>2020-05-31T13:25:58.515Z</time>
      </trkpt>
      <trkpt lat="45.82983" lon="5.76177">
        <ele>231</ele>
        <time>2020-05-31T13:26:03.478Z</time>
      </trkpt>
      <trkpt lat="45.82998" lon="5.76198">
        <ele>232</ele>
        <time>2020-05-31T13:26:07.493Z</time>
      </trkpt>
      <trkpt lat="45.83018" lon="5.76224">
        <ele>232</ele>
        <time>2020-05-31T13:26:12.552Z</time>
      </trkpt>
      <trkpt lat="45.83037" lon="5.76254">
        <ele>231</ele>
        <time>2020-05-31T13:26:17.499Z</time>
      </trkpt>
      <trkpt lat="45.8305" lon="5.76272">
        <ele>230</ele>
        <time>2020-05-31T13:26:22.507Z</time>
      </trkpt>
      <trkpt lat="45.83055" lon="5.76283">
        <ele>230</ele>
        <time>2020-05-31T13:26:27.510Z</time>
      </trkpt>
      <trkpt lat="45.8306" lon="5.76292">
        <ele>229</ele>
        <time>2020-05-31T13:26:32.508Z</time>
      </trkpt>
      <trkpt lat="45.83066" lon="5.76298">
        <ele>229</ele>
        <time>2020-05-31T13:26:37.491Z</time>
      </trkpt>
      <trkpt lat="45.83069" lon="5.76303">
        <ele>229</ele>
        <time>2020-05-31T13:26:41.517Z</time>
      </trkpt>
      <trkpt lat="45.83074" lon="5.7631">
        <ele>230</ele>
        <time>2020-05-31T13:26:46.503Z</time>
      </trkpt>
      <trkpt lat="45.8308" lon="5.76317">
        <ele>230</ele>
        <time>2020-05-31T13:26:51.513Z</time>
      </trkpt>
      <trkpt lat="45.83085" lon="5.76324">
        <ele>230</ele>
        <time>2020-05-31T13:26:56.518Z</time>
      </trkpt>
      <trkpt lat="45.83091" lon="5.76331">
        <ele>230</ele>
        <time>2020-05-31T13:27:01.487Z</time>
      </trkpt>
      <trkpt lat="45.83096" lon="5.76338">
        <ele>230</ele>
        <time>2020-05-31T13:27:06.497Z</time>
      </trkpt>
      <trkpt lat="45.83099" lon="5.76343">
        <ele>231</ele>
        <time>2020-05-31T13:27:10.513Z</time>
      </trkpt>
      <trkpt lat="45.83104" lon="5.7635">
        <ele>231</ele>
        <time>2020-05-31T13:27:15.501Z</time>
      </trkpt>
      <trkpt lat="45.83109" lon="5.76358">
        <ele>231</ele>
        <time>2020-05-31T13:27:20.493Z</time>
      </trkpt>
      <trkpt lat="45.83112" lon="5.76364">
        <ele>231</ele>
        <time>2020-05-31T13:27:24.517Z</time>
      </trkpt>
      <trkpt lat="45.83113" lon="5.76365">
        <ele>231</ele>
        <time>2020-05-31T13:27:29.502Z</time>
      </trkpt>
      <trkpt lat="45.83114" lon="5.76367">
        <ele>231</ele>
        <time>2020-05-31T13:27:53.511Z</time>
      </trkpt>
      <trkpt lat="45.83118" lon="5.76373">
        <ele>231</ele>
        <time>2020-05-31T13:27:58.508Z</time>
      </trkpt>
      <trkpt lat="45.8312" lon="5.76377">
        <ele>231</ele>
        <time>2020-05-31T13:28:31.510Z</time>
      </trkpt>
      <trkpt lat="45.83124" lon="5.76383">
        <ele>231</ele>
        <time>2020-05-31T13:28:35.500Z</time>
      </trkpt>
      <trkpt lat="45.83126" lon="5.76392">
        <ele>231</ele>
        <time>2020-05-31T13:28:40.522Z</time>
      </trkpt>
      <trkpt lat="45.83126" lon="5.76401">
        <ele>231</ele>
        <time>2020-05-31T13:28:45.495Z</time>
      </trkpt>
      <trkpt lat="45.83126" lon="5.76407">
        <ele>230</ele>
        <time>2020-05-31T13:28:50.494Z</time>
      </trkpt>
      <trkpt lat="45.83125" lon="5.76416">
        <ele>231</ele>
        <time>2020-05-31T13:30:30.566Z</time>
      </trkpt>
      <trkpt lat="45.83125" lon="5.76424">
        <ele>230</ele>
        <time>2020-05-31T13:30:35.509Z</time>
      </trkpt>
      <trkpt lat="45.83126" lon="5.76431">
        <ele>229</ele>
        <time>2020-05-31T13:30:39.511Z</time>
      </trkpt>
      <trkpt lat="45.83126" lon="5.7644">
        <ele>229</ele>
        <time>2020-05-31T13:30:44.519Z</time>
      </trkpt>
      <trkpt lat="45.83126" lon="5.76451">
        <ele>229</ele>
        <time>2020-05-31T13:30:49.497Z</time>
      </trkpt>
      <trkpt lat="45.83127" lon="5.76459">
        <ele>228</ele>
        <time>2020-05-31T13:30:53.509Z</time>
      </trkpt>
      <trkpt lat="45.83127" lon="5.76469">
        <ele>228</ele>
        <time>2020-05-31T13:30:58.501Z</time>
      </trkpt>
      <trkpt lat="45.83127" lon="5.76479">
        <ele>228</ele>
        <time>2020-05-31T13:31:03.502Z</time>
      </trkpt>
      <trkpt lat="45.83127" lon="5.76489">
        <ele>228</ele>
        <time>2020-05-31T13:31:08.505Z</time>
      </trkpt>
      <trkpt lat="45.83125" lon="5.76499">
        <ele>228</ele>
        <time>2020-05-31T13:31:13.522Z</time>
      </trkpt>
      <trkpt lat="45.83125" lon="5.7651">
        <ele>228</ele>
        <time>2020-05-31T13:31:18.501Z</time>
      </trkpt>
      <trkpt lat="45.83126" lon="5.76521">
        <ele>228</ele>
        <time>2020-05-31T13:31:23.509Z</time>
      </trkpt>
      <trkpt lat="45.83126" lon="5.7653">
        <ele>228</ele>
        <time>2020-05-31T13:31:28.493Z</time>
      </trkpt>
      <trkpt lat="45.83125" lon="5.7654">
        <ele>230</ele>
        <time>2020-05-31T13:31:33.515Z</time>
      </trkpt>
      <trkpt lat="45.83124" lon="5.76551">
        <ele>230</ele>
        <time>2020-05-31T13:31:38.499Z</time>
      </trkpt>
      <trkpt lat="45.83124" lon="5.76561">
        <ele>230</ele>
        <time>2020-05-31T13:31:43.520Z</time>
      </trkpt>
      <trkpt lat="45.83124" lon="5.76571">
        <ele>229</ele>
        <time>2020-05-31T13:31:48.527Z</time>
      </trkpt>
      <trkpt lat="45.83124" lon="5.76581">
        <ele>229</ele>
        <time>2020-05-31T13:31:53.509Z</time>
      </trkpt>
      <trkpt lat="45.83124" lon="5.76592">
        <ele>229</ele>
        <time>2020-05-31T13:31:58.500Z</time>
      </trkpt>
      <trkpt lat="45.83124" lon="5.76602">
        <ele>229</ele>
        <time>2020-05-31T13:32:03.515Z</time>
      </trkpt>
      <trkpt lat="45.83124" lon="5.76612">
        <ele>229</ele>
        <time>2020-05-31T13:32:08.502Z</time>
      </trkpt>
      <trkpt lat="45.83124" lon="5.76622">
        <ele>229</ele>
        <time>2020-05-31T13:32:13.521Z</time>
      </trkpt>
      <trkpt lat="45.83124" lon="5.76633">
        <ele>229</ele>
        <time>2020-05-31T13:32:18.509Z</time>
      </trkpt>
      <trkpt lat="45.83124" lon="5.76643">
        <ele>229</ele>
        <time>2020-05-31T13:32:23.510Z</time>
      </trkpt>
      <trkpt lat="45.83124" lon="5.76653">
        <ele>230</ele>
        <time>2020-05-31T13:32:28.500Z</time>
      </trkpt>
      <trkpt lat="45.83124" lon="5.76664">
        <ele>230</ele>
        <time>2020-05-31T13:32:33.502Z</time>
      </trkpt>
      <trkpt lat="45.83124" lon="5.76674">
        <ele>230</ele>
        <time>2020-05-31T13:32:38.514Z</time>
      </trkpt>
      <trkpt lat="45.83124" lon="5.76684">
        <ele>230</ele>
        <time>2020-05-31T13:32:43.516Z</time>
      </trkpt>
      <trkpt lat="45.83125" lon="5.76694">
        <ele>230</ele>
        <time>2020-05-31T13:32:48.518Z</time>
      </trkpt>
      <trkpt lat="45.83125" lon="5.76705">
        <ele>230</ele>
        <time>2020-05-31T13:32:53.508Z</time>
      </trkpt>
      <trkpt lat="45.83125" lon="5.76713">
        <ele>230</ele>
        <time>2020-05-31T13:32:57.503Z</time>
      </trkpt>
      <trkpt lat="45.83125" lon="5.76723">
        <ele>230</ele>
        <time>2020-05-31T13:33:02.502Z</time>
      </trkpt>
      <trkpt lat="45.83124" lon="5.76733">
        <ele>230</ele>
        <time>2020-05-31T13:33:07.498Z</time>
      </trkpt>
      <trkpt lat="45.83124" lon="5.76743">
        <ele>230</ele>
        <time>2020-05-31T13:33:12.529Z</time>
      </trkpt>
      <trkpt lat="45.83124" lon="5.76751">
        <ele>230</ele>
        <time>2020-05-31T13:33:16.517Z</time>
      </trkpt>
      <trkpt lat="45.83124" lon="5.76761">
        <ele>230</ele>
        <time>2020-05-31T13:33:21.504Z</time>
      </trkpt>
      <trkpt lat="45.83123" lon="5.76771">
        <ele>229</ele>
        <time>2020-05-31T13:33:26.510Z</time>
      </trkpt>
      <trkpt lat="45.83123" lon="5.76781">
        <ele>229</ele>
        <time>2020-05-31T13:33:31.501Z</time>
      </trkpt>
      <trkpt lat="45.83124" lon="5.76789">
        <ele>229</ele>
        <time>2020-05-31T13:33:35.584Z</time>
      </trkpt>
      <trkpt lat="45.83124" lon="5.76799">
        <ele>229</ele>
        <time>2020-05-31T13:33:40.515Z</time>
      </trkpt>
      <trkpt lat="45.83124" lon="5.76809">
        <ele>229</ele>
        <time>2020-05-31T13:33:45.495Z</time>
      </trkpt>
      <trkpt lat="45.83123" lon="5.7682">
        <ele>229</ele>
        <time>2020-05-31T13:33:50.496Z</time>
      </trkpt>
      <trkpt lat="45.83123" lon="5.7683">
        <ele>229</ele>
        <time>2020-05-31T13:33:55.494Z</time>
      </trkpt>
      <trkpt lat="45.83123" lon="5.76839">
        <ele>229</ele>
        <time>2020-05-31T13:33:59.563Z</time>
      </trkpt>
      <trkpt lat="45.83123" lon="5.76849">
        <ele>230</ele>
        <time>2020-05-31T13:34:04.494Z</time>
      </trkpt>
      <trkpt lat="45.83123" lon="5.76859">
        <ele>230</ele>
        <time>2020-05-31T13:34:09.500Z</time>
      </trkpt>
      <trkpt lat="45.83123" lon="5.76869">
        <ele>230</ele>
        <time>2020-05-31T13:34:14.509Z</time>
      </trkpt>
      <trkpt lat="45.83123" lon="5.76879">
        <ele>230</ele>
        <time>2020-05-31T13:34:19.495Z</time>
      </trkpt>
      <trkpt lat="45.83122" lon="5.76889">
        <ele>230</ele>
        <time>2020-05-31T13:34:24.519Z</time>
      </trkpt>
      <trkpt lat="45.83122" lon="5.76899">
        <ele>230</ele>
        <time>2020-05-31T13:34:29.471Z</time>
      </trkpt>
      <trkpt lat="45.83122" lon="5.76909">
        <ele>230</ele>
        <time>2020-05-31T13:34:34.531Z</time>
      </trkpt>
      <trkpt lat="45.83122" lon="5.76917">
        <ele>230</ele>
        <time>2020-05-31T13:34:38.507Z</time>
      </trkpt>
      <trkpt lat="45.83125" lon="5.76922">
        <ele>230</ele>
        <time>2020-05-31T13:34:43.495Z</time>
      </trkpt>
      <trkpt lat="45.8313" lon="5.76922">
        <ele>230</ele>
        <time>2020-05-31T13:34:47.505Z</time>
      </trkpt>
      <trkpt lat="45.83132" lon="5.76921">
        <ele>230</ele>
        <time>2020-05-31T13:34:52.502Z</time>
      </trkpt>
      <trkpt lat="45.83135" lon="5.76915">
        <ele>230</ele>
        <time>2020-05-31T13:34:56.522Z</time>
      </trkpt>
      <trkpt lat="45.83138" lon="5.76905">
        <ele>230</ele>
        <time>2020-05-31T13:35:01.485Z</time>
      </trkpt>
      <trkpt lat="45.83144" lon="5.76902">
        <ele>230</ele>
        <time>2020-05-31T13:35:05.516Z</time>
      </trkpt>
      <trkpt lat="45.83163" lon="5.76905">
        <ele>229</ele>
        <time>2020-05-31T13:35:10.511Z</time>
      </trkpt>
      <trkpt lat="45.83184" lon="5.76909">
        <ele>229</ele>
        <time>2020-05-31T13:35:14.523Z</time>
      </trkpt>
      <trkpt lat="45.83213" lon="5.76916">
        <ele>230</ele>
        <time>2020-05-31T13:35:19.521Z</time>
      </trkpt>
      <trkpt lat="45.83241" lon="5.7692">
        <ele>231</ele>
        <time>2020-05-31T13:35:24.501Z</time>
      </trkpt>
      <trkpt lat="45.83264" lon="5.76924">
        <ele>231</ele>
        <time>2020-05-31T13:35:28.522Z</time>
      </trkpt>
      <trkpt lat="45.83291" lon="5.76929">
        <ele>231</ele>
        <time>2020-05-31T13:35:33.491Z</time>
      </trkpt>
      <trkpt lat="45.83318" lon="5.76934">
        <ele>231</ele>
        <time>2020-05-31T13:35:38.503Z</time>
      </trkpt>
      <trkpt lat="45.83345" lon="5.76938">
        <ele>230</ele>
        <time>2020-05-31T13:35:43.509Z</time>
      </trkpt>
      <trkpt lat="45.83375" lon="5.76944">
        <ele>229</ele>
        <time>2020-05-31T13:35:48.507Z</time>
      </trkpt>
      <trkpt lat="45.83396" lon="5.76947">
        <ele>229</ele>
        <time>2020-05-31T13:35:52.507Z</time>
      </trkpt>
      <trkpt lat="45.83428" lon="5.76952">
        <ele>229</ele>
        <time>2020-05-31T13:35:57.507Z</time>
      </trkpt>
      <trkpt lat="45.83462" lon="5.76958">
        <ele>229</ele>
        <time>2020-05-31T13:36:02.504Z</time>
      </trkpt>
      <trkpt lat="45.83495" lon="5.76964">
        <ele>230</ele>
        <time>2020-05-31T13:36:07.512Z</time>
      </trkpt>
      <trkpt lat="45.8353" lon="5.76971">
        <ele>231</ele>
        <time>2020-05-31T13:36:12.454Z</time>
      </trkpt>
      <trkpt lat="45.83557" lon="5.76975">
        <ele>231</ele>
        <time>2020-05-31T13:36:16.512Z</time>
      </trkpt>
      <trkpt lat="45.83584" lon="5.7698">
        <ele>230</ele>
        <time>2020-05-31T13:36:20.564Z</time>
      </trkpt>
      <trkpt lat="45.83618" lon="5.76986">
        <ele>230</ele>
        <time>2020-05-31T13:36:25.499Z</time>
      </trkpt>
      <trkpt lat="45.83653" lon="5.76993">
        <ele>230</ele>
        <time>2020-05-31T13:36:30.546Z</time>
      </trkpt>
      <trkpt lat="45.83686" lon="5.76999">
        <ele>229</ele>
        <time>2020-05-31T13:36:35.497Z</time>
      </trkpt>
      <trkpt lat="45.83719" lon="5.77005">
        <ele>229</ele>
        <time>2020-05-31T13:36:40.489Z</time>
      </trkpt>
      <trkpt lat="45.83751" lon="5.77011">
        <ele>230</ele>
        <time>2020-05-31T13:36:45.509Z</time>
      </trkpt>
      <trkpt lat="45.8378" lon="5.77018">
        <ele>230</ele>
        <time>2020-05-31T13:36:50.506Z</time>
      </trkpt>
      <trkpt lat="45.83808" lon="5.77024">
        <ele>230</ele>
        <time>2020-05-31T13:36:55.510Z</time>
      </trkpt>
      <trkpt lat="45.83831" lon="5.77035">
        <ele>230</ele>
        <time>2020-05-31T13:37:00.518Z</time>
      </trkpt>
      <trkpt lat="45.83845" lon="5.77049">
        <ele>230</ele>
        <time>2020-05-31T13:37:05.511Z</time>
      </trkpt>
      <trkpt lat="45.83852" lon="5.77057">
        <ele>231</ele>
        <time>2020-05-31T13:37:10.499Z</time>
      </trkpt>
      <trkpt lat="45.83857" lon="5.77061">
        <ele>231</ele>
        <time>2020-05-31T13:37:14.522Z</time>
      </trkpt>
      <trkpt lat="45.83863" lon="5.77067">
        <ele>231</ele>
        <time>2020-05-31T13:37:19.453Z</time>
      </trkpt>
      <trkpt lat="45.83867" lon="5.77072">
        <ele>231</ele>
        <time>2020-05-31T13:37:23.520Z</time>
      </trkpt>
      <trkpt lat="45.83873" lon="5.77078">
        <ele>231</ele>
        <time>2020-05-31T13:37:28.495Z</time>
      </trkpt>
      <trkpt lat="45.83879" lon="5.77084">
        <ele>230</ele>
        <time>2020-05-31T13:37:33.494Z</time>
      </trkpt>
      <trkpt lat="45.83884" lon="5.77089">
        <ele>230</ele>
        <time>2020-05-31T13:37:37.513Z</time>
      </trkpt>
      <trkpt lat="45.8389" lon="5.77095">
        <ele>230</ele>
        <time>2020-05-31T13:37:42.517Z</time>
      </trkpt>
      <trkpt lat="45.83902" lon="5.77106">
        <ele>230</ele>
        <time>2020-05-31T13:37:47.506Z</time>
      </trkpt>
      <trkpt lat="45.83921" lon="5.77128">
        <ele>231</ele>
        <time>2020-05-31T13:37:52.515Z</time>
      </trkpt>
      <trkpt lat="45.83943" lon="5.77154">
        <ele>230</ele>
        <time>2020-05-31T13:37:57.504Z</time>
      </trkpt>
      <trkpt lat="45.83962" lon="5.77177">
        <ele>230</ele>
        <time>2020-05-31T13:38:01.504Z</time>
      </trkpt>
      <trkpt lat="45.83982" lon="5.77202">
        <ele>230</ele>
        <time>2020-05-31T13:38:06.518Z</time>
      </trkpt>
      <trkpt lat="45.83985" lon="5.77241">
        <ele>231</ele>
        <time>2020-05-31T13:38:11.509Z</time>
      </trkpt>
      <trkpt lat="45.83975" lon="5.77289">
        <ele>230</ele>
        <time>2020-05-31T13:38:16.482Z</time>
      </trkpt>
      <trkpt lat="45.83968" lon="5.77326">
        <ele>230</ele>
        <time>2020-05-31T13:38:20.507Z</time>
      </trkpt>
      <trkpt lat="45.83959" lon="5.7737">
        <ele>231</ele>
        <time>2020-05-31T13:38:25.492Z</time>
      </trkpt>
      <trkpt lat="45.83948" lon="5.77415">
        <ele>230</ele>
        <time>2020-05-31T13:38:30.517Z</time>
      </trkpt>
      <trkpt lat="45.83938" lon="5.77463">
        <ele>231</ele>
        <time>2020-05-31T13:38:35.516Z</time>
      </trkpt>
      <trkpt lat="45.83928" lon="5.77508">
        <ele>231</ele>
        <time>2020-05-31T13:38:40.510Z</time>
      </trkpt>
      <trkpt lat="45.83919" lon="5.77555">
        <ele>231</ele>
        <time>2020-05-31T13:38:45.491Z</time>
      </trkpt>
      <trkpt lat="45.83909" lon="5.77602">
        <ele>231</ele>
        <time>2020-05-31T13:38:50.504Z</time>
      </trkpt>
      <trkpt lat="45.83901" lon="5.77645">
        <ele>231</ele>
        <time>2020-05-31T13:38:55.511Z</time>
      </trkpt>
      <trkpt lat="45.83894" lon="5.77678">
        <ele>231</ele>
        <time>2020-05-31T13:38:59.522Z</time>
      </trkpt>
      <trkpt lat="45.83886" lon="5.77717">
        <ele>232</ele>
        <time>2020-05-31T13:39:04.521Z</time>
      </trkpt>
      <trkpt lat="45.8388" lon="5.77749">
        <ele>232</ele>
        <time>2020-05-31T13:39:09.493Z</time>
      </trkpt>
      <trkpt lat="45.83876" lon="5.77764">
        <ele>233</ele>
        <time>2020-05-31T13:39:13.504Z</time>
      </trkpt>
      <trkpt lat="45.83874" lon="5.77775">
        <ele>232</ele>
        <time>2020-05-31T13:39:18.503Z</time>
      </trkpt>
      <trkpt lat="45.83872" lon="5.77786">
        <ele>232</ele>
        <time>2020-05-31T13:39:23.497Z</time>
      </trkpt>
      <trkpt lat="45.83871" lon="5.77794">
        <ele>233</ele>
        <time>2020-05-31T13:39:27.498Z</time>
      </trkpt>
      <trkpt lat="45.83869" lon="5.77804">
        <ele>233</ele>
        <time>2020-05-31T13:39:32.512Z</time>
      </trkpt>
      <trkpt lat="45.83867" lon="5.77815">
        <ele>233</ele>
        <time>2020-05-31T13:39:37.499Z</time>
      </trkpt>
      <trkpt lat="45.83865" lon="5.77825">
        <ele>234</ele>
        <time>2020-05-31T13:39:42.513Z</time>
      </trkpt>
      <trkpt lat="45.83862" lon="5.77835">
        <ele>234</ele>
        <time>2020-05-31T13:39:47.495Z</time>
      </trkpt>
      <trkpt lat="45.83862" lon="5.77844">
        <ele>234</ele>
        <time>2020-05-31T13:39:51.511Z</time>
      </trkpt>
      <trkpt lat="45.83865" lon="5.77853">
        <ele>236</ele>
        <time>2020-05-31T13:39:56.508Z</time>
      </trkpt>
      <trkpt lat="45.83867" lon="5.77857">
        <ele>236</ele>
        <time>2020-05-31T13:40:00.513Z</time>
      </trkpt>
      <trkpt lat="45.8387" lon="5.77863">
        <ele>236</ele>
        <time>2020-05-31T13:40:05.526Z</time>
      </trkpt>
      <trkpt lat="45.83873" lon="5.77865">
        <ele>236</ele>
        <time>2020-05-31T13:40:09.504Z</time>
      </trkpt>
      <trkpt lat="45.83878" lon="5.77875">
        <ele>234</ele>
        <time>2020-05-31T13:40:14.497Z</time>
      </trkpt>
      <trkpt lat="45.83879" lon="5.77886">
        <ele>235</ele>
        <time>2020-05-31T13:40:19.509Z</time>
      </trkpt>
      <trkpt lat="45.8388" lon="5.77894">
        <ele>235</ele>
        <time>2020-05-31T13:40:24.501Z</time>
      </trkpt>
      <trkpt lat="45.83883" lon="5.779">
        <ele>235</ele>
        <time>2020-05-31T13:40:29.494Z</time>
      </trkpt>
      <trkpt lat="45.83881" lon="5.77909">
        <ele>236</ele>
        <time>2020-05-31T13:40:33.551Z</time>
      </trkpt>
      <trkpt lat="45.83881" lon="5.77915">
        <ele>236</ele>
        <time>2020-05-31T13:40:38.510Z</time>
      </trkpt>
      <trkpt lat="45.83881" lon="5.77929">
        <ele>236</ele>
        <time>2020-05-31T13:40:43.519Z</time>
      </trkpt>
      <trkpt lat="45.83881" lon="5.77942">
        <ele>236</ele>
        <time>2020-05-31T13:40:48.507Z</time>
      </trkpt>
      <trkpt lat="45.83882" lon="5.77954">
        <ele>236</ele>
        <time>2020-05-31T13:40:53.496Z</time>
      </trkpt>
      <trkpt lat="45.83883" lon="5.7796">
        <ele>235</ele>
        <time>2020-05-31T13:40:57.496Z</time>
      </trkpt>
      <trkpt lat="45.83884" lon="5.77965">
        <ele>235</ele>
        <time>2020-05-31T13:41:01.512Z</time>
      </trkpt>
      <trkpt lat="45.83885" lon="5.77973">
        <ele>235</ele>
        <time>2020-05-31T13:41:06.501Z</time>
      </trkpt>
      <trkpt lat="45.83885" lon="5.77982">
        <ele>235</ele>
        <time>2020-05-31T13:41:11.482Z</time>
      </trkpt>
      <trkpt lat="45.83883" lon="5.77992">
        <ele>235</ele>
        <time>2020-05-31T13:41:15.514Z</time>
      </trkpt>
      <trkpt lat="45.83882" lon="5.78002">
        <ele>235</ele>
        <time>2020-05-31T13:41:20.504Z</time>
      </trkpt>
      <trkpt lat="45.83881" lon="5.78008">
        <ele>235</ele>
        <time>2020-05-31T13:41:24.564Z</time>
      </trkpt>
      <trkpt lat="45.83881" lon="5.78016">
        <ele>235</ele>
        <time>2020-05-31T13:41:29.500Z</time>
      </trkpt>
      <trkpt lat="45.83879" lon="5.78025">
        <ele>235</ele>
        <time>2020-05-31T13:41:34.506Z</time>
      </trkpt>
      <trkpt lat="45.83878" lon="5.78033">
        <ele>235</ele>
        <time>2020-05-31T13:41:39.503Z</time>
      </trkpt>
      <trkpt lat="45.83877" lon="5.78041">
        <ele>235</ele>
        <time>2020-05-31T13:41:44.497Z</time>
      </trkpt>
      <trkpt lat="45.83877" lon="5.78047">
        <ele>235</ele>
        <time>2020-05-31T13:41:48.569Z</time>
      </trkpt>
      <trkpt lat="45.83877" lon="5.78063">
        <ele>235</ele>
        <time>2020-05-31T13:41:53.468Z</time>
      </trkpt>
      <trkpt lat="45.83879" lon="5.78071">
        <ele>234</ele>
        <time>2020-05-31T13:41:57.493Z</time>
      </trkpt>
      <trkpt lat="45.83883" lon="5.7808">
        <ele>234</ele>
        <time>2020-05-31T13:42:02.490Z</time>
      </trkpt>
      <trkpt lat="45.83888" lon="5.78087">
        <ele>234</ele>
        <time>2020-05-31T13:42:07.519Z</time>
      </trkpt>
      <trkpt lat="45.83893" lon="5.78093">
        <ele>234</ele>
        <time>2020-05-31T13:42:12.526Z</time>
      </trkpt>
      <trkpt lat="45.83898" lon="5.78099">
        <ele>234</ele>
        <time>2020-05-31T13:42:17.509Z</time>
      </trkpt>
      <trkpt lat="45.83904" lon="5.78104">
        <ele>235</ele>
        <time>2020-05-31T13:42:22.527Z</time>
      </trkpt>
      <trkpt lat="45.83911" lon="5.78106">
        <ele>235</ele>
        <time>2020-05-31T13:42:27.457Z</time>
      </trkpt>
      <trkpt lat="45.83917" lon="5.78108">
        <ele>235</ele>
        <time>2020-05-31T13:42:31.448Z</time>
      </trkpt>
      <trkpt lat="45.83924" lon="5.7811">
        <ele>235</ele>
        <time>2020-05-31T13:42:36.451Z</time>
      </trkpt>
      <trkpt lat="45.83928" lon="5.78111">
        <ele>235</ele>
        <time>2020-05-31T13:42:40.475Z</time>
      </trkpt>
      <trkpt lat="45.83934" lon="5.7811">
        <ele>235</ele>
        <time>2020-05-31T13:42:45.466Z</time>
      </trkpt>
      <trkpt lat="45.8394" lon="5.7811">
        <ele>235</ele>
        <time>2020-05-31T13:42:49.487Z</time>
      </trkpt>
      <trkpt lat="45.83946" lon="5.78107">
        <ele>235</ele>
        <time>2020-05-31T13:42:53.490Z</time>
      </trkpt>
      <trkpt lat="45.83952" lon="5.78107">
        <ele>235</ele>
        <time>2020-05-31T13:42:57.509Z</time>
      </trkpt>
      <trkpt lat="45.83958" lon="5.78108">
        <ele>235</ele>
        <time>2020-05-31T13:43:02.527Z</time>
      </trkpt>
      <trkpt lat="45.83965" lon="5.78108">
        <ele>235</ele>
        <time>2020-05-31T13:43:07.465Z</time>
      </trkpt>
      <trkpt lat="45.83971" lon="5.78107">
        <ele>235</ele>
        <time>2020-05-31T13:43:11.513Z</time>
      </trkpt>
      <trkpt lat="45.83979" lon="5.78107">
        <ele>235</ele>
        <time>2020-05-31T13:43:16.504Z</time>
      </trkpt>
      <trkpt lat="45.83985" lon="5.78107">
        <ele>235</ele>
        <time>2020-05-31T13:43:21.507Z</time>
      </trkpt>
      <trkpt lat="45.83991" lon="5.78107">
        <ele>236</ele>
        <time>2020-05-31T13:43:26.491Z</time>
      </trkpt>
      <trkpt lat="45.83997" lon="5.78106">
        <ele>236</ele>
        <time>2020-05-31T13:43:30.515Z</time>
      </trkpt>
      <trkpt lat="45.84003" lon="5.78106">
        <ele>236</ele>
        <time>2020-05-31T13:43:35.510Z</time>
      </trkpt>
      <trkpt lat="45.8401" lon="5.78105">
        <ele>236</ele>
        <time>2020-05-31T13:43:40.570Z</time>
      </trkpt>
      <trkpt lat="45.84017" lon="5.78103">
        <ele>236</ele>
        <time>2020-05-31T13:43:45.502Z</time>
      </trkpt>
      <trkpt lat="45.84024" lon="5.78101">
        <ele>236</ele>
        <time>2020-05-31T13:43:50.506Z</time>
      </trkpt>
      <trkpt lat="45.84031" lon="5.78099">
        <ele>236</ele>
        <time>2020-05-31T13:43:55.507Z</time>
      </trkpt>
      <trkpt lat="45.84038" lon="5.78097">
        <ele>236</ele>
        <time>2020-05-31T13:44:00.513Z</time>
      </trkpt>
      <trkpt lat="45.84042" lon="5.78097">
        <ele>236</ele>
        <time>2020-05-31T13:44:04.579Z</time>
      </trkpt>
      <trkpt lat="45.84049" lon="5.78093">
        <ele>236</ele>
        <time>2020-05-31T13:44:09.517Z</time>
      </trkpt>
      <trkpt lat="45.84055" lon="5.78092">
        <ele>236</ele>
        <time>2020-05-31T13:44:14.500Z</time>
      </trkpt>
      <trkpt lat="45.84061" lon="5.78092">
        <ele>236</ele>
        <time>2020-05-31T13:44:19.503Z</time>
      </trkpt>
      <trkpt lat="45.84068" lon="5.78094">
        <ele>236</ele>
        <time>2020-05-31T13:44:24.500Z</time>
      </trkpt>
      <trkpt lat="45.84074" lon="5.78094">
        <ele>237</ele>
        <time>2020-05-31T13:44:29.510Z</time>
      </trkpt>
      <trkpt lat="45.8408" lon="5.78095">
        <ele>237</ele>
        <time>2020-05-31T13:44:33.557Z</time>
      </trkpt>
      <trkpt lat="45.84086" lon="5.781">
        <ele>237</ele>
        <time>2020-05-31T13:44:38.499Z</time>
      </trkpt>
      <trkpt lat="45.84091" lon="5.78102">
        <ele>237</ele>
        <time>2020-05-31T13:44:42.511Z</time>
      </trkpt>
      <trkpt lat="45.84096" lon="5.78106">
        <ele>237</ele>
        <time>2020-05-31T13:44:47.497Z</time>
      </trkpt>
      <trkpt lat="45.84097" lon="5.78114">
        <ele>237</ele>
        <time>2020-05-31T13:44:51.487Z</time>
      </trkpt>
      <trkpt lat="45.84096" lon="5.78124">
        <ele>237</ele>
        <time>2020-05-31T13:44:56.502Z</time>
      </trkpt>
      <trkpt lat="45.84093" lon="5.78133">
        <ele>237</ele>
        <time>2020-05-31T13:45:01.493Z</time>
      </trkpt>
      <trkpt lat="45.84091" lon="5.7814">
        <ele>237</ele>
        <time>2020-05-31T13:45:05.510Z</time>
      </trkpt>
      <trkpt lat="45.84088" lon="5.78147">
        <ele>237</ele>
        <time>2020-05-31T13:45:09.543Z</time>
      </trkpt>
      <trkpt lat="45.84086" lon="5.78157">
        <ele>236</ele>
        <time>2020-05-31T13:45:14.500Z</time>
      </trkpt>
      <trkpt lat="45.84084" lon="5.78167">
        <ele>236</ele>
        <time>2020-05-31T13:45:19.509Z</time>
      </trkpt>
      <trkpt lat="45.84082" lon="5.78177">
        <ele>236</ele>
        <time>2020-05-31T13:45:24.523Z</time>
      </trkpt>
      <trkpt lat="45.8408" lon="5.78187">
        <ele>235</ele>
        <time>2020-05-31T13:45:29.516Z</time>
      </trkpt>
      <trkpt lat="45.84079" lon="5.78195">
        <ele>235</ele>
        <time>2020-05-31T13:45:33.488Z</time>
      </trkpt>
      <trkpt lat="45.84078" lon="5.78204">
        <ele>235</ele>
        <time>2020-05-31T13:45:38.513Z</time>
      </trkpt>
      <trkpt lat="45.84077" lon="5.7821">
        <ele>236</ele>
        <time>2020-05-31T13:45:43.456Z</time>
      </trkpt>
      <trkpt lat="45.84077" lon="5.7821">
        <ele>236</ele>
        <time>2020-05-31T13:45:47.509Z</time>
      </trkpt>
      <trkpt lat="45.84077" lon="5.7821">
        <ele>236</ele>
        <time>2020-05-31T13:45:51.578Z</time>
      </trkpt>
      <trkpt lat="45.84076" lon="5.78215">
        <ele>236</ele>
        <time>2020-05-31T13:45:56.501Z</time>
      </trkpt>
      <trkpt lat="45.84074" lon="5.78224">
        <ele>236</ele>
        <time>2020-05-31T13:46:01.495Z</time>
      </trkpt>
      <trkpt lat="45.84073" lon="5.78231">
        <ele>236</ele>
        <time>2020-05-31T13:46:05.514Z</time>
      </trkpt>
      <trkpt lat="45.84071" lon="5.78241">
        <ele>235</ele>
        <time>2020-05-31T13:46:10.511Z</time>
      </trkpt>
      <trkpt lat="45.8407" lon="5.78247">
        <ele>235</ele>
        <time>2020-05-31T13:46:15.501Z</time>
      </trkpt>
      <trkpt lat="45.84068" lon="5.78256">
        <ele>232</ele>
        <time>2020-05-31T13:46:20.504Z</time>
      </trkpt>
      <trkpt lat="45.84065" lon="5.78265">
        <ele>232</ele>
        <time>2020-05-31T13:46:25.479Z</time>
      </trkpt>
      <trkpt lat="45.84063" lon="5.78273">
        <ele>232</ele>
        <time>2020-05-31T13:46:29.514Z</time>
      </trkpt>
      <trkpt lat="45.84061" lon="5.78283">
        <ele>232</ele>
        <time>2020-05-31T13:46:34.509Z</time>
      </trkpt>
      <trkpt lat="45.84061" lon="5.78292">
        <ele>233</ele>
        <time>2020-05-31T13:46:39.494Z</time>
      </trkpt>
      <trkpt lat="45.84059" lon="5.78302">
        <ele>233</ele>
        <time>2020-05-31T13:46:44.492Z</time>
      </trkpt>
      <trkpt lat="45.84057" lon="5.78313">
        <ele>233</ele>
        <time>2020-05-31T13:46:49.511Z</time>
      </trkpt>
      <trkpt lat="45.84056" lon="5.78322">
        <ele>234</ele>
        <time>2020-05-31T13:46:54.494Z</time>
      </trkpt>
      <trkpt lat="45.84054" lon="5.78332">
        <ele>234</ele>
        <time>2020-05-31T13:46:59.522Z</time>
      </trkpt>
      <trkpt lat="45.84051" lon="5.78342">
        <ele>234</ele>
        <time>2020-05-31T13:47:04.506Z</time>
      </trkpt>
      <trkpt lat="45.84051" lon="5.78349">
        <ele>236</ele>
        <time>2020-05-31T13:47:09.497Z</time>
      </trkpt>
      <trkpt lat="45.84053" lon="5.78359">
        <ele>236</ele>
        <time>2020-05-31T13:47:14.496Z</time>
      </trkpt>
      <trkpt lat="45.8406" lon="5.78368">
        <ele>236</ele>
        <time>2020-05-31T13:47:19.494Z</time>
      </trkpt>
      <trkpt lat="45.84065" lon="5.78373">
        <ele>236</ele>
        <time>2020-05-31T13:47:23.512Z</time>
      </trkpt>
      <trkpt lat="45.84071" lon="5.78381">
        <ele>237</ele>
        <time>2020-05-31T13:47:28.523Z</time>
      </trkpt>
      <trkpt lat="45.84076" lon="5.78388">
        <ele>237</ele>
        <time>2020-05-31T13:47:33.507Z</time>
      </trkpt>
      <trkpt lat="45.84082" lon="5.78394">
        <ele>237</ele>
        <time>2020-05-31T13:47:38.502Z</time>
      </trkpt>
      <trkpt lat="45.84086" lon="5.784">
        <ele>237</ele>
        <time>2020-05-31T13:47:42.501Z</time>
      </trkpt>
      <trkpt lat="45.8409" lon="5.78407">
        <ele>237</ele>
        <time>2020-05-31T13:47:47.555Z</time>
      </trkpt>
      <trkpt lat="45.84094" lon="5.78413">
        <ele>237</ele>
        <time>2020-05-31T13:47:52.506Z</time>
      </trkpt>
      <trkpt lat="45.84097" lon="5.78419">
        <ele>236</ele>
        <time>2020-05-31T13:47:57.498Z</time>
      </trkpt>
      <trkpt lat="45.84103" lon="5.78422">
        <ele>236</ele>
        <time>2020-05-31T13:48:02.508Z</time>
      </trkpt>
      <trkpt lat="45.84109" lon="5.78425">
        <ele>236</ele>
        <time>2020-05-31T13:48:07.498Z</time>
      </trkpt>
      <trkpt lat="45.84115" lon="5.78428">
        <ele>236</ele>
        <time>2020-05-31T13:48:12.504Z</time>
      </trkpt>
      <trkpt lat="45.84122" lon="5.78429">
        <ele>236</ele>
        <time>2020-05-31T13:48:17.498Z</time>
      </trkpt>
      <trkpt lat="45.84129" lon="5.78431">
        <ele>236</ele>
        <time>2020-05-31T13:48:22.499Z</time>
      </trkpt>
      <trkpt lat="45.84136" lon="5.78433">
        <ele>236</ele>
        <time>2020-05-31T13:48:27.504Z</time>
      </trkpt>
      <trkpt lat="45.84143" lon="5.78436">
        <ele>236</ele>
        <time>2020-05-31T13:48:32.503Z</time>
      </trkpt>
      <trkpt lat="45.84149" lon="5.78439">
        <ele>236</ele>
        <time>2020-05-31T13:48:37.505Z</time>
      </trkpt>
      <trkpt lat="45.84156" lon="5.78441">
        <ele>235</ele>
        <time>2020-05-31T13:48:42.496Z</time>
      </trkpt>
      <trkpt lat="45.84162" lon="5.78443">
        <ele>235</ele>
        <time>2020-05-31T13:48:46.547Z</time>
      </trkpt>
      <trkpt lat="45.84168" lon="5.78445">
        <ele>235</ele>
        <time>2020-05-31T13:48:51.463Z</time>
      </trkpt>
      <trkpt lat="45.84173" lon="5.78448">
        <ele>235</ele>
        <time>2020-05-31T13:48:55.504Z</time>
      </trkpt>
      <trkpt lat="45.8418" lon="5.7845">
        <ele>235</ele>
        <time>2020-05-31T13:49:00.510Z</time>
      </trkpt>
      <trkpt lat="45.84186" lon="5.78452">
        <ele>236</ele>
        <time>2020-05-31T13:49:05.524Z</time>
      </trkpt>
      <trkpt lat="45.84192" lon="5.78453">
        <ele>236</ele>
        <time>2020-05-31T13:49:10.488Z</time>
      </trkpt>
      <trkpt lat="45.84198" lon="5.78456">
        <ele>236</ele>
        <time>2020-05-31T13:49:15.500Z</time>
      </trkpt>
      <trkpt lat="45.84206" lon="5.78458">
        <ele>236</ele>
        <time>2020-05-31T13:49:20.499Z</time>
      </trkpt>
      <trkpt lat="45.84212" lon="5.78461">
        <ele>236</ele>
        <time>2020-05-31T13:49:25.493Z</time>
      </trkpt>
      <trkpt lat="45.84218" lon="5.78464">
        <ele>236</ele>
        <time>2020-05-31T13:49:30.487Z</time>
      </trkpt>
      <trkpt lat="45.84224" lon="5.78471">
        <ele>236</ele>
        <time>2020-05-31T13:49:35.490Z</time>
      </trkpt>
      <trkpt lat="45.84228" lon="5.78478">
        <ele>236</ele>
        <time>2020-05-31T13:49:40.502Z</time>
      </trkpt>
      <trkpt lat="45.84229" lon="5.78485">
        <ele>236</ele>
        <time>2020-05-31T13:49:44.507Z</time>
      </trkpt>
      <trkpt lat="45.8423" lon="5.78495">
        <ele>235</ele>
        <time>2020-05-31T13:49:49.514Z</time>
      </trkpt>
      <trkpt lat="45.8423" lon="5.78505">
        <ele>235</ele>
        <time>2020-05-31T13:49:54.499Z</time>
      </trkpt>
      <trkpt lat="45.84227" lon="5.78514">
        <ele>234</ele>
        <time>2020-05-31T13:49:59.510Z</time>
      </trkpt>
      <trkpt lat="45.84225" lon="5.78524">
        <ele>234</ele>
        <time>2020-05-31T13:50:04.518Z</time>
      </trkpt>
      <trkpt lat="45.84222" lon="5.78533">
        <ele>234</ele>
        <time>2020-05-31T13:50:09.495Z</time>
      </trkpt>
      <trkpt lat="45.84219" lon="5.78543">
        <ele>233</ele>
        <time>2020-05-31T13:50:14.561Z</time>
      </trkpt>
      <trkpt lat="45.84216" lon="5.78552">
        <ele>233</ele>
        <time>2020-05-31T13:50:19.497Z</time>
      </trkpt>
      <trkpt lat="45.84213" lon="5.78561">
        <ele>233</ele>
        <time>2020-05-31T13:50:24.526Z</time>
      </trkpt>
      <trkpt lat="45.84211" lon="5.7857">
        <ele>233</ele>
        <time>2020-05-31T13:50:29.495Z</time>
      </trkpt>
      <trkpt lat="45.84209" lon="5.78581">
        <ele>233</ele>
        <time>2020-05-31T13:50:34.526Z</time>
      </trkpt>
      <trkpt lat="45.84206" lon="5.78589">
        <ele>234</ele>
        <time>2020-05-31T13:50:39.490Z</time>
      </trkpt>
      <trkpt lat="45.84203" lon="5.78599">
        <ele>234</ele>
        <time>2020-05-31T13:50:44.505Z</time>
      </trkpt>
      <trkpt lat="45.84201" lon="5.78607">
        <ele>234</ele>
        <time>2020-05-31T13:50:48.501Z</time>
      </trkpt>
      <trkpt lat="45.84198" lon="5.78617">
        <ele>234</ele>
        <time>2020-05-31T13:50:53.495Z</time>
      </trkpt>
      <trkpt lat="45.84196" lon="5.78626">
        <ele>234</ele>
        <time>2020-05-31T13:50:58.502Z</time>
      </trkpt>
      <trkpt lat="45.84193" lon="5.78635">
        <ele>234</ele>
        <time>2020-05-31T13:51:03.512Z</time>
      </trkpt>
      <trkpt lat="45.8419" lon="5.78644">
        <ele>234</ele>
        <time>2020-05-31T13:51:08.500Z</time>
      </trkpt>
      <trkpt lat="45.84187" lon="5.78652">
        <ele>234</ele>
        <time>2020-05-31T13:51:13.514Z</time>
      </trkpt>
      <trkpt lat="45.84185" lon="5.78662">
        <ele>235</ele>
        <time>2020-05-31T13:51:18.510Z</time>
      </trkpt>
      <trkpt lat="45.84183" lon="5.78672">
        <ele>235</ele>
        <time>2020-05-31T13:51:23.479Z</time>
      </trkpt>
      <trkpt lat="45.84181" lon="5.7868">
        <ele>235</ele>
        <time>2020-05-31T13:51:27.499Z</time>
      </trkpt>
      <trkpt lat="45.84181" lon="5.78688">
        <ele>235</ele>
        <time>2020-05-31T13:51:32.503Z</time>
      </trkpt>
      <trkpt lat="45.84181" lon="5.78698">
        <ele>235</ele>
        <time>2020-05-31T13:51:37.501Z</time>
      </trkpt>
      <trkpt lat="45.84179" lon="5.78708">
        <ele>235</ele>
        <time>2020-05-31T13:51:42.556Z</time>
      </trkpt>
      <trkpt lat="45.84175" lon="5.78714">
        <ele>235</ele>
        <time>2020-05-31T13:51:47.504Z</time>
      </trkpt>
      <trkpt lat="45.8417" lon="5.78714">
        <ele>235</ele>
        <time>2020-05-31T13:51:51.514Z</time>
      </trkpt>
      <trkpt lat="45.84163" lon="5.7871">
        <ele>235</ele>
        <time>2020-05-31T13:51:56.513Z</time>
      </trkpt>
      <trkpt lat="45.84156" lon="5.78706">
        <ele>235</ele>
        <time>2020-05-31T13:52:01.508Z</time>
      </trkpt>
      <trkpt lat="45.84149" lon="5.78704">
        <ele>235</ele>
        <time>2020-05-31T13:52:06.581Z</time>
      </trkpt>
      <trkpt lat="45.84142" lon="5.78702">
        <ele>235</ele>
        <time>2020-05-31T13:52:11.477Z</time>
      </trkpt>
      <trkpt lat="45.84136" lon="5.78701">
        <ele>235</ele>
        <time>2020-05-31T13:52:15.492Z</time>
      </trkpt>
      <trkpt lat="45.84129" lon="5.78702">
        <ele>235</ele>
        <time>2020-05-31T13:52:20.509Z</time>
      </trkpt>
      <trkpt lat="45.84123" lon="5.78703">
        <ele>236</ele>
        <time>2020-05-31T13:52:24.505Z</time>
      </trkpt>
      <trkpt lat="45.84116" lon="5.78708">
        <ele>236</ele>
        <time>2020-05-31T13:52:29.499Z</time>
      </trkpt>
      <trkpt lat="45.84109" lon="5.78715">
        <ele>236</ele>
        <time>2020-05-31T13:52:34.492Z</time>
      </trkpt>
      <trkpt lat="45.84102" lon="5.78722">
        <ele>236</ele>
        <time>2020-05-31T13:52:39.504Z</time>
      </trkpt>
      <trkpt lat="45.84096" lon="5.78727">
        <ele>236</ele>
        <time>2020-05-31T13:52:44.495Z</time>
      </trkpt>
      <trkpt lat="45.8409" lon="5.78731">
        <ele>236</ele>
        <time>2020-05-31T13:52:48.489Z</time>
      </trkpt>
      <trkpt lat="45.84084" lon="5.78737">
        <ele>236</ele>
        <time>2020-05-31T13:52:53.491Z</time>
      </trkpt>
      <trkpt lat="45.84077" lon="5.78741">
        <ele>236</ele>
        <time>2020-05-31T13:52:58.488Z</time>
      </trkpt>
      <trkpt lat="45.8407" lon="5.78747">
        <ele>236</ele>
        <time>2020-05-31T13:53:03.495Z</time>
      </trkpt>
      <trkpt lat="45.84064" lon="5.78753">
        <ele>235</ele>
        <time>2020-05-31T13:53:08.502Z</time>
      </trkpt>
      <trkpt lat="45.84058" lon="5.7876">
        <ele>235</ele>
        <time>2020-05-31T13:53:13.516Z</time>
      </trkpt>
      <trkpt lat="45.84053" lon="5.78768">
        <ele>235</ele>
        <time>2020-05-31T13:53:18.500Z</time>
      </trkpt>
      <trkpt lat="45.84048" lon="5.78775">
        <ele>235</ele>
        <time>2020-05-31T13:53:23.511Z</time>
      </trkpt>
      <trkpt lat="45.84043" lon="5.78784">
        <ele>235</ele>
        <time>2020-05-31T13:53:28.500Z</time>
      </trkpt>
      <trkpt lat="45.84039" lon="5.78793">
        <ele>235</ele>
        <time>2020-05-31T13:53:33.514Z</time>
      </trkpt>
      <trkpt lat="45.84035" lon="5.78802">
        <ele>235</ele>
        <time>2020-05-31T13:53:38.501Z</time>
      </trkpt>
      <trkpt lat="45.84032" lon="5.78808">
        <ele>235</ele>
        <time>2020-05-31T13:53:42.514Z</time>
      </trkpt>
      <trkpt lat="45.84026" lon="5.78812">
        <ele>235</ele>
        <time>2020-05-31T13:53:47.497Z</time>
      </trkpt>
      <trkpt lat="45.8402" lon="5.78815">
        <ele>235</ele>
        <time>2020-05-31T13:53:52.492Z</time>
      </trkpt>
      <trkpt lat="45.84013" lon="5.78817">
        <ele>234</ele>
        <time>2020-05-31T13:53:57.490Z</time>
      </trkpt>
      <trkpt lat="45.84006" lon="5.78817">
        <ele>234</ele>
        <time>2020-05-31T13:54:02.495Z</time>
      </trkpt>
      <trkpt lat="45.84" lon="5.78819">
        <ele>234</ele>
        <time>2020-05-31T13:54:06.507Z</time>
      </trkpt>
      <trkpt lat="45.83992" lon="5.78825">
        <ele>235</ele>
        <time>2020-05-31T13:54:11.515Z</time>
      </trkpt>
      <trkpt lat="45.83987" lon="5.78835">
        <ele>235</ele>
        <time>2020-05-31T13:54:16.518Z</time>
      </trkpt>
      <trkpt lat="45.83982" lon="5.78843">
        <ele>234</ele>
        <time>2020-05-31T13:54:21.506Z</time>
      </trkpt>
      <trkpt lat="45.83978" lon="5.78854">
        <ele>235</ele>
        <time>2020-05-31T13:54:26.494Z</time>
      </trkpt>
      <trkpt lat="45.83974" lon="5.78865">
        <ele>235</ele>
        <time>2020-05-31T13:54:31.481Z</time>
      </trkpt>
      <trkpt lat="45.8397" lon="5.78873">
        <ele>235</ele>
        <time>2020-05-31T13:54:35.496Z</time>
      </trkpt>
      <trkpt lat="45.83967" lon="5.78883">
        <ele>235</ele>
        <time>2020-05-31T13:54:40.496Z</time>
      </trkpt>
      <trkpt lat="45.83963" lon="5.78893">
        <ele>235</ele>
        <time>2020-05-31T13:54:45.508Z</time>
      </trkpt>
      <trkpt lat="45.83958" lon="5.78903">
        <ele>235</ele>
        <time>2020-05-31T13:54:50.494Z</time>
      </trkpt>
      <trkpt lat="45.83955" lon="5.78913">
        <ele>235</ele>
        <time>2020-05-31T13:54:55.497Z</time>
      </trkpt>
      <trkpt lat="45.83951" lon="5.78922">
        <ele>235</ele>
        <time>2020-05-31T13:55:00.490Z</time>
      </trkpt>
      <trkpt lat="45.83948" lon="5.78929">
        <ele>235</ele>
        <time>2020-05-31T13:55:04.503Z</time>
      </trkpt>
      <trkpt lat="45.83943" lon="5.78938">
        <ele>235</ele>
        <time>2020-05-31T13:55:09.497Z</time>
      </trkpt>
      <trkpt lat="45.8394" lon="5.78947">
        <ele>235</ele>
        <time>2020-05-31T13:55:14.499Z</time>
      </trkpt>
      <trkpt lat="45.83936" lon="5.78956">
        <ele>235</ele>
        <time>2020-05-31T13:55:19.485Z</time>
      </trkpt>
      <trkpt lat="45.83933" lon="5.78964">
        <ele>235</ele>
        <time>2020-05-31T13:55:23.512Z</time>
      </trkpt>
      <trkpt lat="45.83929" lon="5.78971">
        <ele>235</ele>
        <time>2020-05-31T13:55:27.489Z</time>
      </trkpt>
      <trkpt lat="45.83925" lon="5.78979">
        <ele>235</ele>
        <time>2020-05-31T13:55:32.520Z</time>
      </trkpt>
      <trkpt lat="45.8392" lon="5.78988">
        <ele>234</ele>
        <time>2020-05-31T13:55:37.499Z</time>
      </trkpt>
      <trkpt lat="45.83915" lon="5.78996">
        <ele>234</ele>
        <time>2020-05-31T13:55:42.495Z</time>
      </trkpt>
      <trkpt lat="45.8391" lon="5.79003">
        <ele>234</ele>
        <time>2020-05-31T13:55:46.528Z</time>
      </trkpt>
      <trkpt lat="45.83905" lon="5.79009">
        <ele>234</ele>
        <time>2020-05-31T13:55:50.509Z</time>
      </trkpt>
      <trkpt lat="45.839" lon="5.79017">
        <ele>234</ele>
        <time>2020-05-31T13:55:55.504Z</time>
      </trkpt>
      <trkpt lat="45.83894" lon="5.79024">
        <ele>234</ele>
        <time>2020-05-31T13:56:00.497Z</time>
      </trkpt>
      <trkpt lat="45.83888" lon="5.79031">
        <ele>234</ele>
        <time>2020-05-31T13:56:05.503Z</time>
      </trkpt>
      <trkpt lat="45.83883" lon="5.79036">
        <ele>234</ele>
        <time>2020-05-31T13:56:09.517Z</time>
      </trkpt>
      <trkpt lat="45.83877" lon="5.79042">
        <ele>235</ele>
        <time>2020-05-31T13:56:14.503Z</time>
      </trkpt>
      <trkpt lat="45.83871" lon="5.79047">
        <ele>235</ele>
        <time>2020-05-31T13:56:19.501Z</time>
      </trkpt>
      <trkpt lat="45.83865" lon="5.79053">
        <ele>235</ele>
        <time>2020-05-31T13:56:24.501Z</time>
      </trkpt>
      <trkpt lat="45.83861" lon="5.79058">
        <ele>235</ele>
        <time>2020-05-31T13:56:29.500Z</time>
      </trkpt>
      <trkpt lat="45.83861" lon="5.79066">
        <ele>235</ele>
        <time>2020-05-31T13:56:34.493Z</time>
      </trkpt>
      <trkpt lat="45.83861" lon="5.79074">
        <ele>236</ele>
        <time>2020-05-31T13:56:38.509Z</time>
      </trkpt>
      <trkpt lat="45.83861" lon="5.79081">
        <ele>236</ele>
        <time>2020-05-31T13:56:43.497Z</time>
      </trkpt>
      <trkpt lat="45.83865" lon="5.79075">
        <ele>236</ele>
        <time>2020-05-31T13:56:48.514Z</time>
      </trkpt>
      <trkpt lat="45.83872" lon="5.79064">
        <ele>235</ele>
        <time>2020-05-31T13:56:53.498Z</time>
      </trkpt>
      <trkpt lat="45.83877" lon="5.79063">
        <ele>235</ele>
        <time>2020-05-31T13:56:57.485Z</time>
      </trkpt>
      <trkpt lat="45.83882" lon="5.79063">
        <ele>235</ele>
        <time>2020-05-31T13:57:02.518Z</time>
      </trkpt>
      <trkpt lat="45.83888" lon="5.79068">
        <ele>235</ele>
        <time>2020-05-31T13:57:07.498Z</time>
      </trkpt>
      <trkpt lat="45.83894" lon="5.7907">
        <ele>235</ele>
        <time>2020-05-31T13:57:12.491Z</time>
      </trkpt>
      <trkpt lat="45.839" lon="5.7907">
        <ele>235</ele>
        <time>2020-05-31T13:57:16.528Z</time>
      </trkpt>
      <trkpt lat="45.83906" lon="5.79071">
        <ele>235</ele>
        <time>2020-05-31T13:57:21.539Z</time>
      </trkpt>
      <trkpt lat="45.83913" lon="5.79072">
        <ele>235</ele>
        <time>2020-05-31T13:57:26.478Z</time>
      </trkpt>
      <trkpt lat="45.83918" lon="5.79072">
        <ele>235</ele>
        <time>2020-05-31T13:57:30.500Z</time>
      </trkpt>
      <trkpt lat="45.83924" lon="5.79073">
        <ele>235</ele>
        <time>2020-05-31T13:57:35.507Z</time>
      </trkpt>
      <trkpt lat="45.8393" lon="5.79074">
        <ele>235</ele>
        <time>2020-05-31T13:57:39.514Z</time>
      </trkpt>
      <trkpt lat="45.83939" lon="5.79074">
        <ele>235</ele>
        <time>2020-05-31T13:57:44.526Z</time>
      </trkpt>
      <trkpt lat="45.83943" lon="5.79074">
        <ele>235</ele>
        <time>2020-05-31T13:57:49.507Z</time>
      </trkpt>
      <trkpt lat="45.83949" lon="5.79074">
        <ele>235</ele>
        <time>2020-05-31T13:57:54.507Z</time>
      </trkpt>
      <trkpt lat="45.83952" lon="5.7908">
        <ele>235</ele>
        <time>2020-05-31T13:57:59.499Z</time>
      </trkpt>
      <trkpt lat="45.83951" lon="5.79086">
        <ele>235</ele>
        <time>2020-05-31T13:58:03.505Z</time>
      </trkpt>
      <trkpt lat="45.83948" lon="5.79098">
        <ele>235</ele>
        <time>2020-05-31T13:58:08.589Z</time>
      </trkpt>
      <trkpt lat="45.83943" lon="5.79109">
        <ele>235</ele>
        <time>2020-05-31T13:58:13.497Z</time>
      </trkpt>
      <trkpt lat="45.83942" lon="5.7912">
        <ele>235</ele>
        <time>2020-05-31T13:58:18.495Z</time>
      </trkpt>
      <trkpt lat="45.8395" lon="5.79119">
        <ele>235</ele>
        <time>2020-05-31T13:58:23.492Z</time>
      </trkpt>
      <trkpt lat="45.83959" lon="5.79119">
        <ele>235</ele>
        <time>2020-05-31T13:58:28.469Z</time>
      </trkpt>
      <trkpt lat="45.83964" lon="5.79121">
        <ele>235</ele>
        <time>2020-05-31T13:58:32.509Z</time>
      </trkpt>
      <trkpt lat="45.83972" lon="5.79121">
        <ele>235</ele>
        <time>2020-05-31T13:58:37.497Z</time>
      </trkpt>
      <trkpt lat="45.83972" lon="5.79127">
        <ele>235</ele>
        <time>2020-05-31T13:58:42.514Z</time>
      </trkpt>
      <trkpt lat="45.83966" lon="5.79134">
        <ele>235</ele>
        <time>2020-05-31T13:58:47.513Z</time>
      </trkpt>
      <trkpt lat="45.8396" lon="5.7914">
        <ele>235</ele>
        <time>2020-05-31T13:58:52.527Z</time>
      </trkpt>
      <trkpt lat="45.83954" lon="5.79148">
        <ele>235</ele>
        <time>2020-05-31T13:58:57.506Z</time>
      </trkpt>
      <trkpt lat="45.8395" lon="5.79154">
        <ele>235</ele>
        <time>2020-05-31T13:59:01.504Z</time>
      </trkpt>
      <trkpt lat="45.83945" lon="5.79161">
        <ele>235</ele>
        <time>2020-05-31T13:59:06.507Z</time>
      </trkpt>
      <trkpt lat="45.83941" lon="5.7917">
        <ele>235</ele>
        <time>2020-05-31T13:59:11.456Z</time>
      </trkpt>
      <trkpt lat="45.83937" lon="5.79178">
        <ele>235</ele>
        <time>2020-05-31T13:59:15.505Z</time>
      </trkpt>
      <trkpt lat="45.83933" lon="5.79186">
        <ele>235</ele>
        <time>2020-05-31T13:59:20.507Z</time>
      </trkpt>
      <trkpt lat="45.83927" lon="5.79196">
        <ele>238</ele>
        <time>2020-05-31T13:59:25.490Z</time>
      </trkpt>
      <trkpt lat="45.83924" lon="5.79204">
        <ele>238</ele>
        <time>2020-05-31T13:59:29.502Z</time>
      </trkpt>
      <trkpt lat="45.83921" lon="5.79212">
        <ele>237</ele>
        <time>2020-05-31T13:59:34.501Z</time>
      </trkpt>
      <trkpt lat="45.83918" lon="5.79219">
        <ele>237</ele>
        <time>2020-05-31T13:59:38.483Z</time>
      </trkpt>
      <trkpt lat="45.83915" lon="5.79229">
        <ele>237</ele>
        <time>2020-05-31T13:59:43.487Z</time>
      </trkpt>
      <trkpt lat="45.83912" lon="5.79238">
        <ele>237</ele>
        <time>2020-05-31T13:59:48.488Z</time>
      </trkpt>
      <trkpt lat="45.83908" lon="5.79247">
        <ele>237</ele>
        <time>2020-05-31T13:59:53.492Z</time>
      </trkpt>
      <trkpt lat="45.83905" lon="5.79252">
        <ele>237</ele>
        <time>2020-05-31T13:59:57.518Z</time>
      </trkpt>
      <trkpt lat="45.83902" lon="5.79259">
        <ele>239</ele>
        <time>2020-05-31T14:00:02.569Z</time>
      </trkpt>
      <trkpt lat="45.83898" lon="5.79266">
        <ele>237</ele>
        <time>2020-05-31T14:00:07.498Z</time>
      </trkpt>
      <trkpt lat="45.83894" lon="5.79273">
        <ele>237</ele>
        <time>2020-05-31T14:00:12.497Z</time>
      </trkpt>
      <trkpt lat="45.83891" lon="5.79282">
        <ele>237</ele>
        <time>2020-05-31T14:00:17.510Z</time>
      </trkpt>
      <trkpt lat="45.83897" lon="5.79286">
        <ele>237</ele>
        <time>2020-05-31T14:00:22.511Z</time>
      </trkpt>
      <trkpt lat="45.83903" lon="5.79288">
        <ele>236</ele>
        <time>2020-05-31T14:00:26.521Z</time>
      </trkpt>
      <trkpt lat="45.83909" lon="5.79293">
        <ele>236</ele>
        <time>2020-05-31T14:00:31.513Z</time>
      </trkpt>
      <trkpt lat="45.83915" lon="5.79297">
        <ele>236</ele>
        <time>2020-05-31T14:00:36.510Z</time>
      </trkpt>
      <trkpt lat="45.83922" lon="5.79302">
        <ele>236</ele>
        <time>2020-05-31T14:00:41.506Z</time>
      </trkpt>
      <trkpt lat="45.83929" lon="5.79305">
        <ele>236</ele>
        <time>2020-05-31T14:00:46.523Z</time>
      </trkpt>
      <trkpt lat="45.83935" lon="5.79308">
        <ele>235</ele>
        <time>2020-05-31T14:00:51.508Z</time>
      </trkpt>
      <trkpt lat="45.83942" lon="5.7931">
        <ele>235</ele>
        <time>2020-05-31T14:00:56.478Z</time>
      </trkpt>
      <trkpt lat="45.83948" lon="5.79312">
        <ele>235</ele>
        <time>2020-05-31T14:01:00.488Z</time>
      </trkpt>
      <trkpt lat="45.83953" lon="5.79314">
        <ele>235</ele>
        <time>2020-05-31T14:01:05.521Z</time>
      </trkpt>
      <trkpt lat="45.8396" lon="5.79317">
        <ele>235</ele>
        <time>2020-05-31T14:01:10.491Z</time>
      </trkpt>
      <trkpt lat="45.83966" lon="5.79319">
        <ele>235</ele>
        <time>2020-05-31T14:01:15.517Z</time>
      </trkpt>
      <trkpt lat="45.83972" lon="5.79322">
        <ele>235</ele>
        <time>2020-05-31T14:01:20.515Z</time>
      </trkpt>
      <trkpt lat="45.83978" lon="5.79323">
        <ele>235</ele>
        <time>2020-05-31T14:01:25.521Z</time>
      </trkpt>
      <trkpt lat="45.83982" lon="5.79321">
        <ele>235</ele>
        <time>2020-05-31T14:01:30.446Z</time>
      </trkpt>
      <trkpt lat="45.83989" lon="5.79321">
        <ele>236</ele>
        <time>2020-05-31T14:01:34.514Z</time>
      </trkpt>
      <trkpt lat="45.83997" lon="5.79318">
        <ele>235</ele>
        <time>2020-05-31T14:01:39.485Z</time>
      </trkpt>
      <trkpt lat="45.84006" lon="5.79315">
        <ele>235</ele>
        <time>2020-05-31T14:01:44.448Z</time>
      </trkpt>
      <trkpt lat="45.84011" lon="5.79312">
        <ele>235</ele>
        <time>2020-05-31T14:01:48.450Z</time>
      </trkpt>
      <trkpt lat="45.84017" lon="5.7931">
        <ele>235</ele>
        <time>2020-05-31T14:01:52.491Z</time>
      </trkpt>
      <trkpt lat="45.84024" lon="5.79308">
        <ele>235</ele>
        <time>2020-05-31T14:01:57.512Z</time>
      </trkpt>
      <trkpt lat="45.84031" lon="5.79306">
        <ele>235</ele>
        <time>2020-05-31T14:02:02.513Z</time>
      </trkpt>
      <trkpt lat="45.84038" lon="5.79304">
        <ele>235</ele>
        <time>2020-05-31T14:02:07.503Z</time>
      </trkpt>
      <trkpt lat="45.84045" lon="5.79302">
        <ele>236</ele>
        <time>2020-05-31T14:02:12.515Z</time>
      </trkpt>
      <trkpt lat="45.8405" lon="5.79299">
        <ele>236</ele>
        <time>2020-05-31T14:02:16.487Z</time>
      </trkpt>
      <trkpt lat="45.84055" lon="5.79298">
        <ele>236</ele>
        <time>2020-05-31T14:02:21.480Z</time>
      </trkpt>
      <trkpt lat="45.84061" lon="5.79299">
        <ele>236</ele>
        <time>2020-05-31T14:02:25.495Z</time>
      </trkpt>
      <trkpt lat="45.84067" lon="5.793">
        <ele>236</ele>
        <time>2020-05-31T14:02:30.510Z</time>
      </trkpt>
      <trkpt lat="45.84068" lon="5.7931">
        <ele>236</ele>
        <time>2020-05-31T14:02:35.512Z</time>
      </trkpt>
      <trkpt lat="45.84063" lon="5.7932">
        <ele>237</ele>
        <time>2020-05-31T14:02:40.491Z</time>
      </trkpt>
      <trkpt lat="45.84058" lon="5.79328">
        <ele>237</ele>
        <time>2020-05-31T14:02:45.473Z</time>
      </trkpt>
      <trkpt lat="45.84054" lon="5.79336">
        <ele>237</ele>
        <time>2020-05-31T14:02:49.502Z</time>
      </trkpt>
      <trkpt lat="45.84048" lon="5.79346">
        <ele>237</ele>
        <time>2020-05-31T14:02:54.517Z</time>
      </trkpt>
      <trkpt lat="45.84043" lon="5.79358">
        <ele>237</ele>
        <time>2020-05-31T14:02:59.499Z</time>
      </trkpt>
      <trkpt lat="45.84039" lon="5.79365">
        <ele>236</ele>
        <time>2020-05-31T14:03:03.507Z</time>
      </trkpt>
      <trkpt lat="45.84035" lon="5.79372">
        <ele>236</ele>
        <time>2020-05-31T14:03:08.510Z</time>
      </trkpt>
      <trkpt lat="45.8403" lon="5.79377">
        <ele>237</ele>
        <time>2020-05-31T14:03:12.507Z</time>
      </trkpt>
      <trkpt lat="45.84025" lon="5.79385">
        <ele>237</ele>
        <time>2020-05-31T14:03:17.502Z</time>
      </trkpt>
      <trkpt lat="45.84021" lon="5.79388">
        <ele>237</ele>
        <time>2020-05-31T14:03:21.582Z</time>
      </trkpt>
      <trkpt lat="45.84015" lon="5.79394">
        <ele>237</ele>
        <time>2020-05-31T14:03:26.515Z</time>
      </trkpt>
      <trkpt lat="45.84004" lon="5.79405">
        <ele>236</ele>
        <time>2020-05-31T14:03:31.504Z</time>
      </trkpt>
      <trkpt lat="45.83988" lon="5.79407">
        <ele>236</ele>
        <time>2020-05-31T14:03:36.506Z</time>
      </trkpt>
      <trkpt lat="45.83974" lon="5.79407">
        <ele>236</ele>
        <time>2020-05-31T14:03:41.518Z</time>
      </trkpt>
      <trkpt lat="45.83968" lon="5.7941">
        <ele>236</ele>
        <time>2020-05-31T14:03:46.514Z</time>
      </trkpt>
      <trkpt lat="45.83961" lon="5.79413">
        <ele>236</ele>
        <time>2020-05-31T14:03:51.482Z</time>
      </trkpt>
      <trkpt lat="45.83956" lon="5.79417">
        <ele>235</ele>
        <time>2020-05-31T14:03:55.510Z</time>
      </trkpt>
      <trkpt lat="45.83949" lon="5.7942">
        <ele>235</ele>
        <time>2020-05-31T14:04:00.496Z</time>
      </trkpt>
      <trkpt lat="45.83942" lon="5.79423">
        <ele>235</ele>
        <time>2020-05-31T14:04:05.515Z</time>
      </trkpt>
      <trkpt lat="45.83937" lon="5.79426">
        <ele>235</ele>
        <time>2020-05-31T14:04:09.571Z</time>
      </trkpt>
      <trkpt lat="45.8393" lon="5.79429">
        <ele>236</ele>
        <time>2020-05-31T14:04:14.519Z</time>
      </trkpt>
      <trkpt lat="45.83923" lon="5.79431">
        <ele>236</ele>
        <time>2020-05-31T14:04:19.521Z</time>
      </trkpt>
      <trkpt lat="45.83916" lon="5.79434">
        <ele>236</ele>
        <time>2020-05-31T14:04:24.504Z</time>
      </trkpt>
      <trkpt lat="45.83909" lon="5.79437">
        <ele>236</ele>
        <time>2020-05-31T14:04:29.515Z</time>
      </trkpt>
      <trkpt lat="45.83902" lon="5.79441">
        <ele>235</ele>
        <time>2020-05-31T14:04:34.489Z</time>
      </trkpt>
      <trkpt lat="45.83898" lon="5.79443">
        <ele>235</ele>
        <time>2020-05-31T14:04:38.517Z</time>
      </trkpt>
      <trkpt lat="45.8389" lon="5.79447">
        <ele>235</ele>
        <time>2020-05-31T14:04:43.514Z</time>
      </trkpt>
      <trkpt lat="45.83884" lon="5.7945">
        <ele>235</ele>
        <time>2020-05-31T14:04:48.488Z</time>
      </trkpt>
      <trkpt lat="45.83877" lon="5.79455">
        <ele>235</ele>
        <time>2020-05-31T14:04:53.504Z</time>
      </trkpt>
      <trkpt lat="45.8387" lon="5.79459">
        <ele>235</ele>
        <time>2020-05-31T14:04:58.501Z</time>
      </trkpt>
      <trkpt lat="45.83865" lon="5.79464">
        <ele>235</ele>
        <time>2020-05-31T14:05:02.502Z</time>
      </trkpt>
      <trkpt lat="45.83859" lon="5.79468">
        <ele>235</ele>
        <time>2020-05-31T14:05:07.501Z</time>
      </trkpt>
      <trkpt lat="45.83851" lon="5.7947">
        <ele>235</ele>
        <time>2020-05-31T14:05:12.501Z</time>
      </trkpt>
      <trkpt lat="45.83844" lon="5.79472">
        <ele>235</ele>
        <time>2020-05-31T14:05:17.500Z</time>
      </trkpt>
      <trkpt lat="45.83837" lon="5.79474">
        <ele>235</ele>
        <time>2020-05-31T14:05:22.509Z</time>
      </trkpt>
      <trkpt lat="45.8383" lon="5.79479">
        <ele>235</ele>
        <time>2020-05-31T14:05:27.501Z</time>
      </trkpt>
      <trkpt lat="45.83825" lon="5.79486">
        <ele>235</ele>
        <time>2020-05-31T14:05:32.493Z</time>
      </trkpt>
      <trkpt lat="45.83818" lon="5.79491">
        <ele>236</ele>
        <time>2020-05-31T14:05:37.503Z</time>
      </trkpt>
      <trkpt lat="45.83813" lon="5.79496">
        <ele>236</ele>
        <time>2020-05-31T14:05:41.509Z</time>
      </trkpt>
      <trkpt lat="45.83806" lon="5.79501">
        <ele>236</ele>
        <time>2020-05-31T14:05:46.487Z</time>
      </trkpt>
      <trkpt lat="45.838" lon="5.79507">
        <ele>236</ele>
        <time>2020-05-31T14:05:51.511Z</time>
      </trkpt>
      <trkpt lat="45.83795" lon="5.79511">
        <ele>236</ele>
        <time>2020-05-31T14:05:55.562Z</time>
      </trkpt>
      <trkpt lat="45.83788" lon="5.79515">
        <ele>235</ele>
        <time>2020-05-31T14:06:00.512Z</time>
      </trkpt>
      <trkpt lat="45.83781" lon="5.7952">
        <ele>235</ele>
        <time>2020-05-31T14:06:05.497Z</time>
      </trkpt>
      <trkpt lat="45.83774" lon="5.79524">
        <ele>235</ele>
        <time>2020-05-31T14:06:10.520Z</time>
      </trkpt>
      <trkpt lat="45.83767" lon="5.79529">
        <ele>235</ele>
        <time>2020-05-31T14:06:15.528Z</time>
      </trkpt>
      <trkpt lat="45.8376" lon="5.79535">
        <ele>235</ele>
        <time>2020-05-31T14:06:20.494Z</time>
      </trkpt>
      <trkpt lat="45.83753" lon="5.79539">
        <ele>235</ele>
        <time>2020-05-31T14:06:25.495Z</time>
      </trkpt>
      <trkpt lat="45.83747" lon="5.79544">
        <ele>236</ele>
        <time>2020-05-31T14:06:30.513Z</time>
      </trkpt>
      <trkpt lat="45.83741" lon="5.79549">
        <ele>236</ele>
        <time>2020-05-31T14:06:35.493Z</time>
      </trkpt>
      <trkpt lat="45.83735" lon="5.79551">
        <ele>236</ele>
        <time>2020-05-31T14:06:39.521Z</time>
      </trkpt>
      <trkpt lat="45.83727" lon="5.79554">
        <ele>236</ele>
        <time>2020-05-31T14:06:44.492Z</time>
      </trkpt>
      <trkpt lat="45.83722" lon="5.79556">
        <ele>236</ele>
        <time>2020-05-31T14:06:48.503Z</time>
      </trkpt>
      <trkpt lat="45.83715" lon="5.79559">
        <ele>236</ele>
        <time>2020-05-31T14:06:53.494Z</time>
      </trkpt>
      <trkpt lat="45.83709" lon="5.79565">
        <ele>236</ele>
        <time>2020-05-31T14:06:58.500Z</time>
      </trkpt>
      <trkpt lat="45.83705" lon="5.79572">
        <ele>236</ele>
        <time>2020-05-31T14:07:02.508Z</time>
      </trkpt>
      <trkpt lat="45.83699" lon="5.79577">
        <ele>236</ele>
        <time>2020-05-31T14:07:07.494Z</time>
      </trkpt>
      <trkpt lat="45.83693" lon="5.79583">
        <ele>236</ele>
        <time>2020-05-31T14:07:12.511Z</time>
      </trkpt>
      <trkpt lat="45.83687" lon="5.79585">
        <ele>236</ele>
        <time>2020-05-31T14:07:16.507Z</time>
      </trkpt>
      <trkpt lat="45.83681" lon="5.79587">
        <ele>236</ele>
        <time>2020-05-31T14:07:21.458Z</time>
      </trkpt>
      <trkpt lat="45.83675" lon="5.79588">
        <ele>237</ele>
        <time>2020-05-31T14:07:25.516Z</time>
      </trkpt>
      <trkpt lat="45.8367" lon="5.7959">
        <ele>237</ele>
        <time>2020-05-31T14:07:29.509Z</time>
      </trkpt>
      <trkpt lat="45.83664" lon="5.79595">
        <ele>237</ele>
        <time>2020-05-31T14:07:34.493Z</time>
      </trkpt>
      <trkpt lat="45.83658" lon="5.79603">
        <ele>237</ele>
        <time>2020-05-31T14:07:39.524Z</time>
      </trkpt>
      <trkpt lat="45.83652" lon="5.79609">
        <ele>235</ele>
        <time>2020-05-31T14:07:44.508Z</time>
      </trkpt>
      <trkpt lat="45.83645" lon="5.79613">
        <ele>235</ele>
        <time>2020-05-31T14:07:49.502Z</time>
      </trkpt>
      <trkpt lat="45.83639" lon="5.79619">
        <ele>235</ele>
        <time>2020-05-31T14:07:54.510Z</time>
      </trkpt>
      <trkpt lat="45.83632" lon="5.79622">
        <ele>235</ele>
        <time>2020-05-31T14:07:59.497Z</time>
      </trkpt>
      <trkpt lat="45.83625" lon="5.79625">
        <ele>234</ele>
        <time>2020-05-31T14:08:04.501Z</time>
      </trkpt>
      <trkpt lat="45.83618" lon="5.79629">
        <ele>234</ele>
        <time>2020-05-31T14:08:09.510Z</time>
      </trkpt>
      <trkpt lat="45.83611" lon="5.79632">
        <ele>234</ele>
        <time>2020-05-31T14:08:14.518Z</time>
      </trkpt>
      <trkpt lat="45.83604" lon="5.79635">
        <ele>234</ele>
        <time>2020-05-31T14:08:19.505Z</time>
      </trkpt>
      <trkpt lat="45.83599" lon="5.79637">
        <ele>234</ele>
        <time>2020-05-31T14:08:23.496Z</time>
      </trkpt>
      <trkpt lat="45.83592" lon="5.7964">
        <ele>234</ele>
        <time>2020-05-31T14:08:28.511Z</time>
      </trkpt>
      <trkpt lat="45.83585" lon="5.79643">
        <ele>234</ele>
        <time>2020-05-31T14:08:33.504Z</time>
      </trkpt>
      <trkpt lat="45.83579" lon="5.79645">
        <ele>234</ele>
        <time>2020-05-31T14:08:37.510Z</time>
      </trkpt>
      <trkpt lat="45.83573" lon="5.79647">
        <ele>234</ele>
        <time>2020-05-31T14:08:42.497Z</time>
      </trkpt>
      <trkpt lat="45.83566" lon="5.7965">
        <ele>232</ele>
        <time>2020-05-31T14:08:47.513Z</time>
      </trkpt>
      <trkpt lat="45.83558" lon="5.79653">
        <ele>232</ele>
        <time>2020-05-31T14:08:52.505Z</time>
      </trkpt>
      <trkpt lat="45.83551" lon="5.79654">
        <ele>234</ele>
        <time>2020-05-31T14:08:57.563Z</time>
      </trkpt>
      <trkpt lat="45.83543" lon="5.79656">
        <ele>234</ele>
        <time>2020-05-31T14:09:02.494Z</time>
      </trkpt>
      <trkpt lat="45.83536" lon="5.79658">
        <ele>234</ele>
        <time>2020-05-31T14:09:07.494Z</time>
      </trkpt>
      <trkpt lat="45.8353" lon="5.7966">
        <ele>234</ele>
        <time>2020-05-31T14:09:11.508Z</time>
      </trkpt>
      <trkpt lat="45.83524" lon="5.79662">
        <ele>234</ele>
        <time>2020-05-31T14:09:15.558Z</time>
      </trkpt>
      <trkpt lat="45.83517" lon="5.79664">
        <ele>234</ele>
        <time>2020-05-31T14:09:20.516Z</time>
      </trkpt>
      <trkpt lat="45.8351" lon="5.79665">
        <ele>235</ele>
        <time>2020-05-31T14:09:25.525Z</time>
      </trkpt>
      <trkpt lat="45.83504" lon="5.79666">
        <ele>235</ele>
        <time>2020-05-31T14:09:30.504Z</time>
      </trkpt>
      <trkpt lat="45.83498" lon="5.79667">
        <ele>235</ele>
        <time>2020-05-31T14:09:34.515Z</time>
      </trkpt>
      <trkpt lat="45.83491" lon="5.79669">
        <ele>235</ele>
        <time>2020-05-31T14:09:39.564Z</time>
      </trkpt>
      <trkpt lat="45.83483" lon="5.79671">
        <ele>235</ele>
        <time>2020-05-31T14:09:44.511Z</time>
      </trkpt>
      <trkpt lat="45.83476" lon="5.79673">
        <ele>235</ele>
        <time>2020-05-31T14:09:49.495Z</time>
      </trkpt>
      <trkpt lat="45.83469" lon="5.79674">
        <ele>235</ele>
        <time>2020-05-31T14:09:54.501Z</time>
      </trkpt>
      <trkpt lat="45.83462" lon="5.79676">
        <ele>235</ele>
        <time>2020-05-31T14:09:59.503Z</time>
      </trkpt>
      <trkpt lat="45.83455" lon="5.79676">
        <ele>235</ele>
        <time>2020-05-31T14:10:04.505Z</time>
      </trkpt>
      <trkpt lat="45.83447" lon="5.79678">
        <ele>235</ele>
        <time>2020-05-31T14:10:09.492Z</time>
      </trkpt>
      <trkpt lat="45.8344" lon="5.7968">
        <ele>235</ele>
        <time>2020-05-31T14:10:14.494Z</time>
      </trkpt>
      <trkpt lat="45.83433" lon="5.7968">
        <ele>235</ele>
        <time>2020-05-31T14:10:19.558Z</time>
      </trkpt>
      <trkpt lat="45.83425" lon="5.79682">
        <ele>234</ele>
        <time>2020-05-31T14:10:24.464Z</time>
      </trkpt>
      <trkpt lat="45.83419" lon="5.79682">
        <ele>234</ele>
        <time>2020-05-31T14:10:28.514Z</time>
      </trkpt>
      <trkpt lat="45.83412" lon="5.79683">
        <ele>234</ele>
        <time>2020-05-31T14:10:33.495Z</time>
      </trkpt>
      <trkpt lat="45.83405" lon="5.79684">
        <ele>234</ele>
        <time>2020-05-31T14:10:38.501Z</time>
      </trkpt>
      <trkpt lat="45.83398" lon="5.79684">
        <ele>233</ele>
        <time>2020-05-31T14:10:43.500Z</time>
      </trkpt>
      <trkpt lat="45.83393" lon="5.79684">
        <ele>233</ele>
        <time>2020-05-31T14:10:47.503Z</time>
      </trkpt>
      <trkpt lat="45.83385" lon="5.79682">
        <ele>233</ele>
        <time>2020-05-31T14:10:52.501Z</time>
      </trkpt>
      <trkpt lat="45.83377" lon="5.79682">
        <ele>233</ele>
        <time>2020-05-31T14:10:57.515Z</time>
      </trkpt>
      <trkpt lat="45.83371" lon="5.79681">
        <ele>233</ele>
        <time>2020-05-31T14:11:01.515Z</time>
      </trkpt>
      <trkpt lat="45.83363" lon="5.79679">
        <ele>234</ele>
        <time>2020-05-31T14:11:06.502Z</time>
      </trkpt>
      <trkpt lat="45.83356" lon="5.79677">
        <ele>234</ele>
        <time>2020-05-31T14:11:11.497Z</time>
      </trkpt>
      <trkpt lat="45.83349" lon="5.79676">
        <ele>234</ele>
        <time>2020-05-31T14:11:16.512Z</time>
      </trkpt>
      <trkpt lat="45.83341" lon="5.79674">
        <ele>235</ele>
        <time>2020-05-31T14:11:21.494Z</time>
      </trkpt>
      <trkpt lat="45.83335" lon="5.79672">
        <ele>235</ele>
        <time>2020-05-31T14:11:25.521Z</time>
      </trkpt>
      <trkpt lat="45.83328" lon="5.7967">
        <ele>235</ele>
        <time>2020-05-31T14:11:30.499Z</time>
      </trkpt>
      <trkpt lat="45.83321" lon="5.79668">
        <ele>235</ele>
        <time>2020-05-31T14:11:35.561Z</time>
      </trkpt>
      <trkpt lat="45.83315" lon="5.79665">
        <ele>235</ele>
        <time>2020-05-31T14:11:40.512Z</time>
      </trkpt>
      <trkpt lat="45.83308" lon="5.79662">
        <ele>235</ele>
        <time>2020-05-31T14:11:45.497Z</time>
      </trkpt>
      <trkpt lat="45.83302" lon="5.79659">
        <ele>235</ele>
        <time>2020-05-31T14:11:50.494Z</time>
      </trkpt>
      <trkpt lat="45.83296" lon="5.79656">
        <ele>235</ele>
        <time>2020-05-31T14:11:54.485Z</time>
      </trkpt>
      <trkpt lat="45.83291" lon="5.79653">
        <ele>235</ele>
        <time>2020-05-31T14:11:58.579Z</time>
      </trkpt>
      <trkpt lat="45.83283" lon="5.79649">
        <ele>234</ele>
        <time>2020-05-31T14:12:03.498Z</time>
      </trkpt>
      <trkpt lat="45.83277" lon="5.79645">
        <ele>234</ele>
        <time>2020-05-31T14:12:08.516Z</time>
      </trkpt>
      <trkpt lat="45.8327" lon="5.7964">
        <ele>234</ele>
        <time>2020-05-31T14:12:13.502Z</time>
      </trkpt>
      <trkpt lat="45.83264" lon="5.79634">
        <ele>234</ele>
        <time>2020-05-31T14:12:18.505Z</time>
      </trkpt>
      <trkpt lat="45.83259" lon="5.79629">
        <ele>235</ele>
        <time>2020-05-31T14:12:22.572Z</time>
      </trkpt>
      <trkpt lat="45.83252" lon="5.79625">
        <ele>233</ele>
        <time>2020-05-31T14:12:27.511Z</time>
      </trkpt>
      <trkpt lat="45.83246" lon="5.7962">
        <ele>233</ele>
        <time>2020-05-31T14:12:32.498Z</time>
      </trkpt>
      <trkpt lat="45.8324" lon="5.79615">
        <ele>233</ele>
        <time>2020-05-31T14:12:37.521Z</time>
      </trkpt>
      <trkpt lat="45.83234" lon="5.79611">
        <ele>234</ele>
        <time>2020-05-31T14:12:41.520Z</time>
      </trkpt>
      <trkpt lat="45.83229" lon="5.79605">
        <ele>234</ele>
        <time>2020-05-31T14:12:46.518Z</time>
      </trkpt>
      <trkpt lat="45.83223" lon="5.79598">
        <ele>234</ele>
        <time>2020-05-31T14:12:51.507Z</time>
      </trkpt>
      <trkpt lat="45.83217" lon="5.79593">
        <ele>235</ele>
        <time>2020-05-31T14:12:56.508Z</time>
      </trkpt>
      <trkpt lat="45.8321" lon="5.79594">
        <ele>235</ele>
        <time>2020-05-31T14:13:01.497Z</time>
      </trkpt>
      <trkpt lat="45.83204" lon="5.79598">
        <ele>237</ele>
        <time>2020-05-31T14:13:06.505Z</time>
      </trkpt>
      <trkpt lat="45.83199" lon="5.79603">
        <ele>237</ele>
        <time>2020-05-31T14:13:10.542Z</time>
      </trkpt>
      <trkpt lat="45.83195" lon="5.79611">
        <ele>237</ele>
        <time>2020-05-31T14:13:15.510Z</time>
      </trkpt>
      <trkpt lat="45.8319" lon="5.79618">
        <ele>237</ele>
        <time>2020-05-31T14:13:20.503Z</time>
      </trkpt>
      <trkpt lat="45.83186" lon="5.79625">
        <ele>237</ele>
        <time>2020-05-31T14:13:25.507Z</time>
      </trkpt>
      <trkpt lat="45.83182" lon="5.79631">
        <ele>236</ele>
        <time>2020-05-31T14:13:30.518Z</time>
      </trkpt>
      <trkpt lat="45.83177" lon="5.79634">
        <ele>238</ele>
        <time>2020-05-31T14:13:35.514Z</time>
      </trkpt>
      <trkpt lat="45.8317" lon="5.79633">
        <ele>238</ele>
        <time>2020-05-31T14:13:40.510Z</time>
      </trkpt>
      <trkpt lat="45.83168" lon="5.79633">
        <ele>238</ele>
        <time>2020-05-31T14:13:44.499Z</time>
      </trkpt>
      <trkpt lat="45.83167" lon="5.79629">
        <ele>238</ele>
        <time>2020-05-31T14:13:49.510Z</time>
      </trkpt>
      <trkpt lat="45.83158" lon="5.7962">
        <ele>239</ele>
        <time>2020-05-31T14:13:54.503Z</time>
      </trkpt>
      <trkpt lat="45.83155" lon="5.79609">
        <ele>239</ele>
        <time>2020-05-31T14:13:58.521Z</time>
      </trkpt>
      <trkpt lat="45.83155" lon="5.79597">
        <ele>240</ele>
        <time>2020-05-31T14:14:03.496Z</time>
      </trkpt>
      <trkpt lat="45.83157" lon="5.79588">
        <ele>240</ele>
        <time>2020-05-31T14:14:08.558Z</time>
      </trkpt>
      <trkpt lat="45.83162" lon="5.7958">
        <ele>240</ele>
        <time>2020-05-31T14:14:13.509Z</time>
      </trkpt>
      <trkpt lat="45.83166" lon="5.79571">
        <ele>240</ele>
        <time>2020-05-31T14:14:18.493Z</time>
      </trkpt>
      <trkpt lat="45.8317" lon="5.79563">
        <ele>238</ele>
        <time>2020-05-31T14:14:23.511Z</time>
      </trkpt>
      <trkpt lat="45.83173" lon="5.79554">
        <ele>238</ele>
        <time>2020-05-31T14:14:28.514Z</time>
      </trkpt>
      <trkpt lat="45.83173" lon="5.79546">
        <ele>238</ele>
        <time>2020-05-31T14:14:32.493Z</time>
      </trkpt>
      <trkpt lat="45.83169" lon="5.79536">
        <ele>238</ele>
        <time>2020-05-31T14:14:37.562Z</time>
      </trkpt>
      <trkpt lat="45.83164" lon="5.79528">
        <ele>238</ele>
        <time>2020-05-31T14:14:42.508Z</time>
      </trkpt>
      <trkpt lat="45.83157" lon="5.79523">
        <ele>238</ele>
        <time>2020-05-31T14:14:47.503Z</time>
      </trkpt>
      <trkpt lat="45.83151" lon="5.79519">
        <ele>236</ele>
        <time>2020-05-31T14:14:52.507Z</time>
      </trkpt>
      <trkpt lat="45.83144" lon="5.79513">
        <ele>236</ele>
        <time>2020-05-31T14:14:57.495Z</time>
      </trkpt>
      <trkpt lat="45.8314" lon="5.79505">
        <ele>236</ele>
        <time>2020-05-31T14:15:02.500Z</time>
      </trkpt>
      <trkpt lat="45.83136" lon="5.79498">
        <ele>236</ele>
        <time>2020-05-31T14:15:06.517Z</time>
      </trkpt>
      <trkpt lat="45.8313" lon="5.79492">
        <ele>236</ele>
        <time>2020-05-31T14:15:11.517Z</time>
      </trkpt>
      <trkpt lat="45.83126" lon="5.79485">
        <ele>235</ele>
        <time>2020-05-31T14:15:16.515Z</time>
      </trkpt>
      <trkpt lat="45.83121" lon="5.79476">
        <ele>234</ele>
        <time>2020-05-31T14:15:21.521Z</time>
      </trkpt>
      <trkpt lat="45.83115" lon="5.79468">
        <ele>234</ele>
        <time>2020-05-31T14:15:26.515Z</time>
      </trkpt>
      <trkpt lat="45.83111" lon="5.79459">
        <ele>234</ele>
        <time>2020-05-31T14:15:31.482Z</time>
      </trkpt>
      <trkpt lat="45.83107" lon="5.79453">
        <ele>234</ele>
        <time>2020-05-31T14:15:35.498Z</time>
      </trkpt>
      <trkpt lat="45.83103" lon="5.79444">
        <ele>234</ele>
        <time>2020-05-31T14:15:40.501Z</time>
      </trkpt>
      <trkpt lat="45.831" lon="5.79435">
        <ele>234</ele>
        <time>2020-05-31T14:15:45.503Z</time>
      </trkpt>
      <trkpt lat="45.83097" lon="5.79429">
        <ele>235</ele>
        <time>2020-05-31T14:15:49.559Z</time>
      </trkpt>
      <trkpt lat="45.83093" lon="5.7942">
        <ele>235</ele>
        <time>2020-05-31T14:15:54.495Z</time>
      </trkpt>
      <trkpt lat="45.83092" lon="5.79413">
        <ele>235</ele>
        <time>2020-05-31T14:15:58.513Z</time>
      </trkpt>
      <trkpt lat="45.83089" lon="5.79404">
        <ele>235</ele>
        <time>2020-05-31T14:16:03.499Z</time>
      </trkpt>
      <trkpt lat="45.83087" lon="5.79397">
        <ele>235</ele>
        <time>2020-05-31T14:16:07.567Z</time>
      </trkpt>
      <trkpt lat="45.83084" lon="5.79389">
        <ele>235</ele>
        <time>2020-05-31T14:16:12.508Z</time>
      </trkpt>
      <trkpt lat="45.83082" lon="5.79382">
        <ele>235</ele>
        <time>2020-05-31T14:16:16.514Z</time>
      </trkpt>
      <trkpt lat="45.83082" lon="5.79373">
        <ele>234</ele>
        <time>2020-05-31T14:16:21.492Z</time>
      </trkpt>
      <trkpt lat="45.83089" lon="5.79368">
        <ele>234</ele>
        <time>2020-05-31T14:20:13.499Z</time>
      </trkpt>
      <trkpt lat="45.83091" lon="5.79368">
        <ele>234</ele>
        <time>2020-05-31T14:20:18.466Z</time>
      </trkpt>
      <trkpt lat="45.83091" lon="5.79368">
        <ele>234</ele>
        <time>2020-05-31T14:20:22.496Z</time>
      </trkpt>
      <trkpt lat="45.83092" lon="5.79368">
        <ele>234</ele>
        <time>2020-05-31T14:20:27.493Z</time>
      </trkpt>
      <trkpt lat="45.83092" lon="5.79368">
        <ele>234</ele>
        <time>2020-05-31T14:20:32.459Z</time>
      </trkpt>
      <trkpt lat="45.83091" lon="5.79369">
        <ele>234</ele>
        <time>2020-05-31T14:24:38.507Z</time>
      </trkpt>
      <trkpt lat="45.83091" lon="5.79369">
        <ele>234</ele>
        <time>2020-05-31T14:24:43.505Z</time>
      </trkpt>
      <trkpt lat="45.83086" lon="5.79365">
        <ele>234</ele>
        <time>2020-05-31T14:24:47.490Z</time>
      </trkpt>
      <trkpt lat="45.83079" lon="5.7936">
        <ele>234</ele>
        <time>2020-05-31T14:24:52.466Z</time>
      </trkpt>
      <trkpt lat="45.83074" lon="5.79354">
        <ele>234</ele>
        <time>2020-05-31T14:24:56.529Z</time>
      </trkpt>
      <trkpt lat="45.83071" lon="5.79346">
        <ele>233</ele>
        <time>2020-05-31T14:25:01.507Z</time>
      </trkpt>
      <trkpt lat="45.83067" lon="5.79336">
        <ele>234</ele>
        <time>2020-05-31T14:25:06.516Z</time>
      </trkpt>
      <trkpt lat="45.83065" lon="5.79326">
        <ele>234</ele>
        <time>2020-05-31T14:25:11.485Z</time>
      </trkpt>
      <trkpt lat="45.83064" lon="5.79318">
        <ele>234</ele>
        <time>2020-05-31T14:25:15.487Z</time>
      </trkpt>
      <trkpt lat="45.83061" lon="5.79309">
        <ele>234</ele>
        <time>2020-05-31T14:25:20.517Z</time>
      </trkpt>
      <trkpt lat="45.83059" lon="5.793">
        <ele>234</ele>
        <time>2020-05-31T14:25:25.512Z</time>
      </trkpt>
      <trkpt lat="45.83056" lon="5.7929">
        <ele>233</ele>
        <time>2020-05-31T14:25:30.514Z</time>
      </trkpt>
      <trkpt lat="45.83054" lon="5.79281">
        <ele>233</ele>
        <time>2020-05-31T14:25:35.500Z</time>
      </trkpt>
      <trkpt lat="45.83051" lon="5.79274">
        <ele>233</ele>
        <time>2020-05-31T14:25:39.518Z</time>
      </trkpt>
      <trkpt lat="45.83048" lon="5.79265">
        <ele>233</ele>
        <time>2020-05-31T14:25:44.496Z</time>
      </trkpt>
      <trkpt lat="45.83046" lon="5.79256">
        <ele>234</ele>
        <time>2020-05-31T14:25:49.557Z</time>
      </trkpt>
      <trkpt lat="45.83044" lon="5.79246">
        <ele>234</ele>
        <time>2020-05-31T14:25:54.522Z</time>
      </trkpt>
      <trkpt lat="45.83042" lon="5.79236">
        <ele>233</ele>
        <time>2020-05-31T14:25:59.510Z</time>
      </trkpt>
      <trkpt lat="45.8304" lon="5.79226">
        <ele>234</ele>
        <time>2020-05-31T14:26:04.492Z</time>
      </trkpt>
      <trkpt lat="45.83037" lon="5.79216">
        <ele>234</ele>
        <time>2020-05-31T14:26:09.509Z</time>
      </trkpt>
      <trkpt lat="45.83035" lon="5.79209">
        <ele>234</ele>
        <time>2020-05-31T14:26:13.564Z</time>
      </trkpt>
      <trkpt lat="45.83033" lon="5.792">
        <ele>234</ele>
        <time>2020-05-31T14:26:18.495Z</time>
      </trkpt>
      <trkpt lat="45.83031" lon="5.7919">
        <ele>234</ele>
        <time>2020-05-31T14:26:23.503Z</time>
      </trkpt>
      <trkpt lat="45.83029" lon="5.7918">
        <ele>234</ele>
        <time>2020-05-31T14:26:28.516Z</time>
      </trkpt>
      <trkpt lat="45.83026" lon="5.79171">
        <ele>234</ele>
        <time>2020-05-31T14:26:33.494Z</time>
      </trkpt>
      <trkpt lat="45.83026" lon="5.79164">
        <ele>234</ele>
        <time>2020-05-31T14:26:38.497Z</time>
      </trkpt>
      <trkpt lat="45.83024" lon="5.79156">
        <ele>234</ele>
        <time>2020-05-31T14:26:43.508Z</time>
      </trkpt>
      <trkpt lat="45.83023" lon="5.79148">
        <ele>234</ele>
        <time>2020-05-31T14:26:48.493Z</time>
      </trkpt>
      <trkpt lat="45.8302" lon="5.79141">
        <ele>234</ele>
        <time>2020-05-31T14:26:52.503Z</time>
      </trkpt>
      <trkpt lat="45.83018" lon="5.79132">
        <ele>234</ele>
        <time>2020-05-31T14:26:57.504Z</time>
      </trkpt>
      <trkpt lat="45.83016" lon="5.79125">
        <ele>235</ele>
        <time>2020-05-31T14:27:02.480Z</time>
      </trkpt>
      <trkpt lat="45.83015" lon="5.7912">
        <ele>235</ele>
        <time>2020-05-31T14:27:06.480Z</time>
      </trkpt>
      <trkpt lat="45.83012" lon="5.79111">
        <ele>234</ele>
        <time>2020-05-31T14:27:11.461Z</time>
      </trkpt>
      <trkpt lat="45.8301" lon="5.79103">
        <ele>234</ele>
        <time>2020-05-31T14:27:15.503Z</time>
      </trkpt>
      <trkpt lat="45.83008" lon="5.79096">
        <ele>234</ele>
        <time>2020-05-31T14:27:19.502Z</time>
      </trkpt>
      <trkpt lat="45.83006" lon="5.79085">
        <ele>234</ele>
        <time>2020-05-31T14:27:24.503Z</time>
      </trkpt>
      <trkpt lat="45.83004" lon="5.79078">
        <ele>234</ele>
        <time>2020-05-31T14:27:29.508Z</time>
      </trkpt>
      <trkpt lat="45.83002" lon="5.7907">
        <ele>234</ele>
        <time>2020-05-31T14:27:34.497Z</time>
      </trkpt>
      <trkpt lat="45.83001" lon="5.79065">
        <ele>234</ele>
        <time>2020-05-31T14:27:38.560Z</time>
      </trkpt>
      <trkpt lat="45.82998" lon="5.79057">
        <ele>234</ele>
        <time>2020-05-31T14:27:43.502Z</time>
      </trkpt>
      <trkpt lat="45.82995" lon="5.79046">
        <ele>234</ele>
        <time>2020-05-31T14:27:48.517Z</time>
      </trkpt>
      <trkpt lat="45.82991" lon="5.79037">
        <ele>234</ele>
        <time>2020-05-31T14:27:53.519Z</time>
      </trkpt>
      <trkpt lat="45.82989" lon="5.79028">
        <ele>234</ele>
        <time>2020-05-31T14:27:58.491Z</time>
      </trkpt>
      <trkpt lat="45.82986" lon="5.79015">
        <ele>234</ele>
        <time>2020-05-31T14:28:03.497Z</time>
      </trkpt>
      <trkpt lat="45.82984" lon="5.79005">
        <ele>235</ele>
        <time>2020-05-31T14:28:08.511Z</time>
      </trkpt>
      <trkpt lat="45.82982" lon="5.78995">
        <ele>235</ele>
        <time>2020-05-31T14:28:13.508Z</time>
      </trkpt>
      <trkpt lat="45.82981" lon="5.78987">
        <ele>235</ele>
        <time>2020-05-31T14:28:17.568Z</time>
      </trkpt>
      <trkpt lat="45.82976" lon="5.78981">
        <ele>237</ele>
        <time>2020-05-31T14:28:22.463Z</time>
      </trkpt>
      <trkpt lat="45.82975" lon="5.78972">
        <ele>237</ele>
        <time>2020-05-31T14:28:26.500Z</time>
      </trkpt>
      <trkpt lat="45.82973" lon="5.7896">
        <ele>237</ele>
        <time>2020-05-31T14:28:31.511Z</time>
      </trkpt>
      <trkpt lat="45.82971" lon="5.78952">
        <ele>238</ele>
        <time>2020-05-31T14:28:36.515Z</time>
      </trkpt>
      <trkpt lat="45.82969" lon="5.78944">
        <ele>238</ele>
        <time>2020-05-31T14:28:41.517Z</time>
      </trkpt>
      <trkpt lat="45.82965" lon="5.78934">
        <ele>238</ele>
        <time>2020-05-31T14:28:46.514Z</time>
      </trkpt>
      <trkpt lat="45.82962" lon="5.78925">
        <ele>238</ele>
        <time>2020-05-31T14:28:51.483Z</time>
      </trkpt>
      <trkpt lat="45.82961" lon="5.78918">
        <ele>238</ele>
        <time>2020-05-31T14:28:55.519Z</time>
      </trkpt>
      <trkpt lat="45.82958" lon="5.78911">
        <ele>238</ele>
        <time>2020-05-31T14:29:00.523Z</time>
      </trkpt>
      <trkpt lat="45.82957" lon="5.789">
        <ele>235</ele>
        <time>2020-05-31T14:29:05.511Z</time>
      </trkpt>
      <trkpt lat="45.82954" lon="5.78892">
        <ele>235</ele>
        <time>2020-05-31T14:29:09.518Z</time>
      </trkpt>
      <trkpt lat="45.82951" lon="5.78881">
        <ele>235</ele>
        <time>2020-05-31T14:29:14.508Z</time>
      </trkpt>
      <trkpt lat="45.82948" lon="5.78872">
        <ele>235</ele>
        <time>2020-05-31T14:29:19.518Z</time>
      </trkpt>
      <trkpt lat="45.82945" lon="5.78861">
        <ele>235</ele>
        <time>2020-05-31T14:29:24.491Z</time>
      </trkpt>
      <trkpt lat="45.82942" lon="5.78852">
        <ele>235</ele>
        <time>2020-05-31T14:29:28.494Z</time>
      </trkpt>
      <trkpt lat="45.82941" lon="5.78842">
        <ele>235</ele>
        <time>2020-05-31T14:29:33.491Z</time>
      </trkpt>
      <trkpt lat="45.82937" lon="5.78833">
        <ele>235</ele>
        <time>2020-05-31T14:29:38.460Z</time>
      </trkpt>
      <trkpt lat="45.82935" lon="5.78825">
        <ele>235</ele>
        <time>2020-05-31T14:29:42.517Z</time>
      </trkpt>
      <trkpt lat="45.82932" lon="5.78815">
        <ele>235</ele>
        <time>2020-05-31T14:29:47.496Z</time>
      </trkpt>
      <trkpt lat="45.8293" lon="5.78808">
        <ele>234</ele>
        <time>2020-05-31T14:29:51.511Z</time>
      </trkpt>
      <trkpt lat="45.82927" lon="5.78799">
        <ele>234</ele>
        <time>2020-05-31T14:29:55.517Z</time>
      </trkpt>
      <trkpt lat="45.82924" lon="5.7879">
        <ele>234</ele>
        <time>2020-05-31T14:30:00.513Z</time>
      </trkpt>
      <trkpt lat="45.8292" lon="5.78782">
        <ele>234</ele>
        <time>2020-05-31T14:30:05.515Z</time>
      </trkpt>
      <trkpt lat="45.82917" lon="5.78773">
        <ele>234</ele>
        <time>2020-05-31T14:30:10.502Z</time>
      </trkpt>
      <trkpt lat="45.82913" lon="5.78761">
        <ele>234</ele>
        <time>2020-05-31T14:30:15.521Z</time>
      </trkpt>
      <trkpt lat="45.82909" lon="5.78753">
        <ele>234</ele>
        <time>2020-05-31T14:30:20.496Z</time>
      </trkpt>
      <trkpt lat="45.82905" lon="5.78743">
        <ele>234</ele>
        <time>2020-05-31T14:30:25.487Z</time>
      </trkpt>
      <trkpt lat="45.82901" lon="5.78736">
        <ele>234</ele>
        <time>2020-05-31T14:30:29.525Z</time>
      </trkpt>
      <trkpt lat="45.82895" lon="5.78726">
        <ele>234</ele>
        <time>2020-05-31T14:30:34.511Z</time>
      </trkpt>
      <trkpt lat="45.82892" lon="5.78717">
        <ele>234</ele>
        <time>2020-05-31T14:30:39.496Z</time>
      </trkpt>
      <trkpt lat="45.82892" lon="5.78708">
        <ele>236</ele>
        <time>2020-05-31T14:31:20.513Z</time>
      </trkpt>
      <trkpt lat="45.8289" lon="5.78704">
        <ele>236</ele>
        <time>2020-05-31T14:31:25.491Z</time>
      </trkpt>
      <trkpt lat="45.82885" lon="5.787">
        <ele>236</ele>
        <time>2020-05-31T14:31:29.507Z</time>
      </trkpt>
      <trkpt lat="45.82881" lon="5.78694">
        <ele>236</ele>
        <time>2020-05-31T14:31:33.515Z</time>
      </trkpt>
      <trkpt lat="45.82869" lon="5.78678">
        <ele>237</ele>
        <time>2020-05-31T14:31:38.505Z</time>
      </trkpt>
      <trkpt lat="45.82855" lon="5.7866">
        <ele>237</ele>
        <time>2020-05-31T14:31:42.475Z</time>
      </trkpt>
      <trkpt lat="45.82835" lon="5.78639">
        <ele>236</ele>
        <time>2020-05-31T14:31:47.519Z</time>
      </trkpt>
      <trkpt lat="45.82814" lon="5.78621">
        <ele>236</ele>
        <time>2020-05-31T14:31:52.474Z</time>
      </trkpt>
      <trkpt lat="45.82798" lon="5.78609">
        <ele>236</ele>
        <time>2020-05-31T14:31:56.494Z</time>
      </trkpt>
      <trkpt lat="45.82784" lon="5.78598">
        <ele>234</ele>
        <time>2020-05-31T14:32:00.577Z</time>
      </trkpt>
      <trkpt lat="45.82766" lon="5.78587">
        <ele>235</ele>
        <time>2020-05-31T14:32:05.506Z</time>
      </trkpt>
      <trkpt lat="45.82747" lon="5.78578">
        <ele>236</ele>
        <time>2020-05-31T14:32:10.514Z</time>
      </trkpt>
      <trkpt lat="45.82732" lon="5.78569">
        <ele>236</ele>
        <time>2020-05-31T14:32:14.516Z</time>
      </trkpt>
      <trkpt lat="45.8271" lon="5.78564">
        <ele>236</ele>
        <time>2020-05-31T14:32:19.515Z</time>
      </trkpt>
      <trkpt lat="45.82686" lon="5.78554">
        <ele>235</ele>
        <time>2020-05-31T14:32:24.512Z</time>
      </trkpt>
      <trkpt lat="45.82666" lon="5.78546">
        <ele>235</ele>
        <time>2020-05-31T14:32:29.512Z</time>
      </trkpt>
      <trkpt lat="45.82642" lon="5.78538">
        <ele>234</ele>
        <time>2020-05-31T14:32:34.517Z</time>
      </trkpt>
      <trkpt lat="45.8262" lon="5.78528">
        <ele>234</ele>
        <time>2020-05-31T14:32:39.489Z</time>
      </trkpt>
      <trkpt lat="45.82597" lon="5.78524">
        <ele>234</ele>
        <time>2020-05-31T14:32:44.502Z</time>
      </trkpt>
      <trkpt lat="45.82576" lon="5.78517">
        <ele>233</ele>
        <time>2020-05-31T14:32:48.510Z</time>
      </trkpt>
      <trkpt lat="45.8255" lon="5.7851">
        <ele>232</ele>
        <time>2020-05-31T14:32:53.513Z</time>
      </trkpt>
      <trkpt lat="45.82523" lon="5.78504">
        <ele>232</ele>
        <time>2020-05-31T14:32:58.502Z</time>
      </trkpt>
      <trkpt lat="45.82498" lon="5.78497">
        <ele>233</ele>
        <time>2020-05-31T14:33:03.495Z</time>
      </trkpt>
      <trkpt lat="45.82477" lon="5.78491">
        <ele>232</ele>
        <time>2020-05-31T14:33:08.518Z</time>
      </trkpt>
      <trkpt lat="45.82469" lon="5.78491">
        <ele>232</ele>
        <time>2020-05-31T14:33:13.491Z</time>
      </trkpt>
      <trkpt lat="45.82463" lon="5.78492">
        <ele>232</ele>
        <time>2020-05-31T14:33:18.509Z</time>
      </trkpt>
      <trkpt lat="45.82457" lon="5.78492">
        <ele>232</ele>
        <time>2020-05-31T14:33:22.520Z</time>
      </trkpt>
      <trkpt lat="45.8245" lon="5.78491">
        <ele>232</ele>
        <time>2020-05-31T14:33:27.505Z</time>
      </trkpt>
      <trkpt lat="45.82442" lon="5.78489">
        <ele>232</ele>
        <time>2020-05-31T14:33:32.501Z</time>
      </trkpt>
      <trkpt lat="45.82436" lon="5.78486">
        <ele>232</ele>
        <time>2020-05-31T14:33:37.484Z</time>
      </trkpt>
      <trkpt lat="45.8243" lon="5.78485">
        <ele>231</ele>
        <time>2020-05-31T14:33:41.494Z</time>
      </trkpt>
      <trkpt lat="45.82423" lon="5.78483">
        <ele>231</ele>
        <time>2020-05-31T14:33:46.489Z</time>
      </trkpt>
      <trkpt lat="45.82417" lon="5.78481">
        <ele>231</ele>
        <time>2020-05-31T14:33:50.517Z</time>
      </trkpt>
      <trkpt lat="45.82409" lon="5.78479">
        <ele>231</ele>
        <time>2020-05-31T14:33:55.513Z</time>
      </trkpt>
      <trkpt lat="45.82402" lon="5.78477">
        <ele>231</ele>
        <time>2020-05-31T14:34:00.499Z</time>
      </trkpt>
      <trkpt lat="45.82395" lon="5.78475">
        <ele>231</ele>
        <time>2020-05-31T14:34:05.520Z</time>
      </trkpt>
      <trkpt lat="45.82388" lon="5.78473">
        <ele>231</ele>
        <time>2020-05-31T14:34:10.501Z</time>
      </trkpt>
      <trkpt lat="45.82382" lon="5.78472">
        <ele>231</ele>
        <time>2020-05-31T14:34:14.516Z</time>
      </trkpt>
      <trkpt lat="45.82377" lon="5.7847">
        <ele>231</ele>
        <time>2020-05-31T14:34:18.496Z</time>
      </trkpt>
      <trkpt lat="45.82371" lon="5.78469">
        <ele>231</ele>
        <time>2020-05-31T14:34:23.490Z</time>
      </trkpt>
      <trkpt lat="45.82363" lon="5.78466">
        <ele>231</ele>
        <time>2020-05-31T14:34:28.517Z</time>
      </trkpt>
      <trkpt lat="45.82356" lon="5.78465">
        <ele>231</ele>
        <time>2020-05-31T14:34:33.513Z</time>
      </trkpt>
      <trkpt lat="45.82349" lon="5.78462">
        <ele>231</ele>
        <time>2020-05-31T14:34:38.487Z</time>
      </trkpt>
      <trkpt lat="45.82343" lon="5.7846">
        <ele>234</ele>
        <time>2020-05-31T14:34:42.560Z</time>
      </trkpt>
      <trkpt lat="45.82336" lon="5.78459">
        <ele>234</ele>
        <time>2020-05-31T14:34:47.502Z</time>
      </trkpt>
      <trkpt lat="45.82329" lon="5.78457">
        <ele>234</ele>
        <time>2020-05-31T14:34:52.510Z</time>
      </trkpt>
      <trkpt lat="45.82322" lon="5.78455">
        <ele>234</ele>
        <time>2020-05-31T14:34:57.501Z</time>
      </trkpt>
      <trkpt lat="45.82316" lon="5.78453">
        <ele>235</ele>
        <time>2020-05-31T14:35:01.537Z</time>
      </trkpt>
      <trkpt lat="45.82309" lon="5.78452">
        <ele>235</ele>
        <time>2020-05-31T14:35:06.506Z</time>
      </trkpt>
      <trkpt lat="45.82302" lon="5.7845">
        <ele>235</ele>
        <time>2020-05-31T14:35:11.507Z</time>
      </trkpt>
      <trkpt lat="45.82295" lon="5.78447">
        <ele>235</ele>
        <time>2020-05-31T14:35:16.493Z</time>
      </trkpt>
      <trkpt lat="45.82288" lon="5.78445">
        <ele>236</ele>
        <time>2020-05-31T14:35:21.468Z</time>
      </trkpt>
      <trkpt lat="45.82282" lon="5.78443">
        <ele>236</ele>
        <time>2020-05-31T14:35:25.515Z</time>
      </trkpt>
      <trkpt lat="45.82274" lon="5.78441">
        <ele>236</ele>
        <time>2020-05-31T14:35:30.510Z</time>
      </trkpt>
      <trkpt lat="45.82267" lon="5.78439">
        <ele>236</ele>
        <time>2020-05-31T14:35:35.513Z</time>
      </trkpt>
      <trkpt lat="45.8226" lon="5.78438">
        <ele>236</ele>
        <time>2020-05-31T14:35:40.514Z</time>
      </trkpt>
      <trkpt lat="45.82253" lon="5.78436">
        <ele>236</ele>
        <time>2020-05-31T14:35:45.503Z</time>
      </trkpt>
      <trkpt lat="45.82246" lon="5.78434">
        <ele>236</ele>
        <time>2020-05-31T14:35:50.496Z</time>
      </trkpt>
      <trkpt lat="45.82239" lon="5.78432">
        <ele>236</ele>
        <time>2020-05-31T14:35:55.495Z</time>
      </trkpt>
      <trkpt lat="45.82233" lon="5.7843">
        <ele>235</ele>
        <time>2020-05-31T14:35:59.497Z</time>
      </trkpt>
      <trkpt lat="45.82226" lon="5.78428">
        <ele>235</ele>
        <time>2020-05-31T14:36:04.522Z</time>
      </trkpt>
      <trkpt lat="45.82219" lon="5.78426">
        <ele>235</ele>
        <time>2020-05-31T14:36:09.515Z</time>
      </trkpt>
      <trkpt lat="45.82212" lon="5.78424">
        <ele>235</ele>
        <time>2020-05-31T14:36:14.520Z</time>
      </trkpt>
      <trkpt lat="45.82205" lon="5.78423">
        <ele>235</ele>
        <time>2020-05-31T14:36:19.519Z</time>
      </trkpt>
      <trkpt lat="45.82198" lon="5.7842">
        <ele>235</ele>
        <time>2020-05-31T14:36:24.507Z</time>
      </trkpt>
      <trkpt lat="45.82195" lon="5.78417">
        <ele>235</ele>
        <time>2020-05-31T14:36:28.519Z</time>
      </trkpt>
      <trkpt lat="45.8219" lon="5.78412">
        <ele>235</ele>
        <time>2020-05-31T14:36:33.503Z</time>
      </trkpt>
      <trkpt lat="45.82175" lon="5.78406">
        <ele>235</ele>
        <time>2020-05-31T14:36:38.514Z</time>
      </trkpt>
      <trkpt lat="45.8215" lon="5.784">
        <ele>234</ele>
        <time>2020-05-31T14:36:43.498Z</time>
      </trkpt>
      <trkpt lat="45.8213" lon="5.78395">
        <ele>234</ele>
        <time>2020-05-31T14:36:47.502Z</time>
      </trkpt>
      <trkpt lat="45.82104" lon="5.78389">
        <ele>233</ele>
        <time>2020-05-31T14:36:52.500Z</time>
      </trkpt>
      <trkpt lat="45.82076" lon="5.78381">
        <ele>233</ele>
        <time>2020-05-31T14:36:57.495Z</time>
      </trkpt>
      <trkpt lat="45.82047" lon="5.78374">
        <ele>232</ele>
        <time>2020-05-31T14:37:02.497Z</time>
      </trkpt>
      <trkpt lat="45.82019" lon="5.78365">
        <ele>233</ele>
        <time>2020-05-31T14:37:07.472Z</time>
      </trkpt>
      <trkpt lat="45.82" lon="5.78358">
        <ele>233</ele>
        <time>2020-05-31T14:37:11.549Z</time>
      </trkpt>
      <trkpt lat="45.8199" lon="5.78356">
        <ele>233</ele>
        <time>2020-05-31T14:37:16.508Z</time>
      </trkpt>
      <trkpt lat="45.81984" lon="5.78357">
        <ele>234</ele>
        <time>2020-05-31T14:37:20.508Z</time>
      </trkpt>
      <trkpt lat="45.81978" lon="5.78359">
        <ele>234</ele>
        <time>2020-05-31T14:37:25.506Z</time>
      </trkpt>
      <trkpt lat="45.81971" lon="5.78359">
        <ele>234</ele>
        <time>2020-05-31T14:37:30.498Z</time>
      </trkpt>
      <trkpt lat="45.81965" lon="5.78357">
        <ele>234</ele>
        <time>2020-05-31T14:37:34.565Z</time>
      </trkpt>
      <trkpt lat="45.81958" lon="5.78355">
        <ele>234</ele>
        <time>2020-05-31T14:37:39.509Z</time>
      </trkpt>
      <trkpt lat="45.8195" lon="5.78354">
        <ele>234</ele>
        <time>2020-05-31T14:37:44.522Z</time>
      </trkpt>
      <trkpt lat="45.81943" lon="5.78352">
        <ele>234</ele>
        <time>2020-05-31T14:37:49.510Z</time>
      </trkpt>
      <trkpt lat="45.81935" lon="5.78349">
        <ele>234</ele>
        <time>2020-05-31T14:37:54.484Z</time>
      </trkpt>
      <trkpt lat="45.81929" lon="5.78347">
        <ele>235</ele>
        <time>2020-05-31T14:37:58.495Z</time>
      </trkpt>
      <trkpt lat="45.81924" lon="5.78345">
        <ele>234</ele>
        <time>2020-05-31T14:38:02.503Z</time>
      </trkpt>
      <trkpt lat="45.81917" lon="5.78343">
        <ele>234</ele>
        <time>2020-05-31T14:38:07.507Z</time>
      </trkpt>
      <trkpt lat="45.8191" lon="5.78341">
        <ele>234</ele>
        <time>2020-05-31T14:38:12.469Z</time>
      </trkpt>
      <trkpt lat="45.81903" lon="5.78339">
        <ele>234</ele>
        <time>2020-05-31T14:38:17.476Z</time>
      </trkpt>
      <trkpt lat="45.81897" lon="5.78337">
        <ele>233</ele>
        <time>2020-05-31T14:38:21.511Z</time>
      </trkpt>
      <trkpt lat="45.81892" lon="5.78334">
        <ele>233</ele>
        <time>2020-05-31T14:38:26.501Z</time>
      </trkpt>
      <trkpt lat="45.81886" lon="5.78327">
        <ele>233</ele>
        <time>2020-05-31T14:38:31.520Z</time>
      </trkpt>
      <trkpt lat="45.81878" lon="5.78325">
        <ele>233</ele>
        <time>2020-05-31T14:38:36.516Z</time>
      </trkpt>
      <trkpt lat="45.81871" lon="5.78323">
        <ele>233</ele>
        <time>2020-05-31T14:38:41.516Z</time>
      </trkpt>
      <trkpt lat="45.81865" lon="5.78319">
        <ele>232</ele>
        <time>2020-05-31T14:38:46.494Z</time>
      </trkpt>
      <trkpt lat="45.81857" lon="5.78316">
        <ele>232</ele>
        <time>2020-05-31T14:38:51.469Z</time>
      </trkpt>
      <trkpt lat="45.81852" lon="5.78315">
        <ele>232</ele>
        <time>2020-05-31T14:38:55.515Z</time>
      </trkpt>
      <trkpt lat="45.81846" lon="5.78314">
        <ele>233</ele>
        <time>2020-05-31T14:38:59.566Z</time>
      </trkpt>
      <trkpt lat="45.81839" lon="5.78314">
        <ele>233</ele>
        <time>2020-05-31T14:39:04.512Z</time>
      </trkpt>
      <trkpt lat="45.81831" lon="5.78315">
        <ele>233</ele>
        <time>2020-05-31T14:39:09.496Z</time>
      </trkpt>
      <trkpt lat="45.81824" lon="5.78315">
        <ele>233</ele>
        <time>2020-05-31T14:39:14.498Z</time>
      </trkpt>
      <trkpt lat="45.81818" lon="5.78314">
        <ele>233</ele>
        <time>2020-05-31T14:39:18.508Z</time>
      </trkpt>
      <trkpt lat="45.81811" lon="5.78312">
        <ele>233</ele>
        <time>2020-05-31T14:39:23.503Z</time>
      </trkpt>
      <trkpt lat="45.81803" lon="5.78308">
        <ele>233</ele>
        <time>2020-05-31T14:39:28.526Z</time>
      </trkpt>
      <trkpt lat="45.81795" lon="5.78306">
        <ele>233</ele>
        <time>2020-05-31T14:39:33.517Z</time>
      </trkpt>
      <trkpt lat="45.81788" lon="5.78303">
        <ele>232</ele>
        <time>2020-05-31T14:39:38.500Z</time>
      </trkpt>
      <trkpt lat="45.8178" lon="5.783">
        <ele>232</ele>
        <time>2020-05-31T14:39:43.495Z</time>
      </trkpt>
      <trkpt lat="45.81775" lon="5.78298">
        <ele>232</ele>
        <time>2020-05-31T14:39:47.502Z</time>
      </trkpt>
      <trkpt lat="45.81768" lon="5.78295">
        <ele>232</ele>
        <time>2020-05-31T14:39:52.494Z</time>
      </trkpt>
      <trkpt lat="45.8176" lon="5.78292">
        <ele>232</ele>
        <time>2020-05-31T14:39:57.506Z</time>
      </trkpt>
      <trkpt lat="45.81755" lon="5.7829">
        <ele>231</ele>
        <time>2020-05-31T14:40:02.478Z</time>
      </trkpt>
      <trkpt lat="45.81749" lon="5.78289">
        <ele>231</ele>
        <time>2020-05-31T14:40:06.508Z</time>
      </trkpt>
      <trkpt lat="45.81744" lon="5.78285">
        <ele>231</ele>
        <time>2020-05-31T14:40:11.492Z</time>
      </trkpt>
      <trkpt lat="45.81735" lon="5.78279">
        <ele>232</ele>
        <time>2020-05-31T14:40:16.514Z</time>
      </trkpt>
      <trkpt lat="45.81728" lon="5.78276">
        <ele>232</ele>
        <time>2020-05-31T14:40:21.465Z</time>
      </trkpt>
      <trkpt lat="45.81722" lon="5.78277">
        <ele>232</ele>
        <time>2020-05-31T14:40:25.514Z</time>
      </trkpt>
      <trkpt lat="45.81715" lon="5.78281">
        <ele>232</ele>
        <time>2020-05-31T14:40:30.508Z</time>
      </trkpt>
      <trkpt lat="45.8171" lon="5.78289">
        <ele>232</ele>
        <time>2020-05-31T14:40:35.522Z</time>
      </trkpt>
      <trkpt lat="45.81709" lon="5.78299">
        <ele>233</ele>
        <time>2020-05-31T14:40:40.463Z</time>
      </trkpt>
      <trkpt lat="45.81705" lon="5.78302">
        <ele>232</ele>
        <time>2020-05-31T14:40:44.490Z</time>
      </trkpt>
      <trkpt lat="45.81698" lon="5.78302">
        <ele>232</ele>
        <time>2020-05-31T14:40:49.518Z</time>
      </trkpt>
      <trkpt lat="45.81695" lon="5.78302">
        <ele>232</ele>
        <time>2020-05-31T14:40:54.499Z</time>
      </trkpt>
      <trkpt lat="45.81689" lon="5.78304">
        <ele>232</ele>
        <time>2020-05-31T14:41:03.524Z</time>
      </trkpt>
      <trkpt lat="45.81683" lon="5.78304">
        <ele>232</ele>
        <time>2020-05-31T14:41:08.507Z</time>
      </trkpt>
      <trkpt lat="45.81676" lon="5.783">
        <ele>232</ele>
        <time>2020-05-31T14:41:13.508Z</time>
      </trkpt>
      <trkpt lat="45.8167" lon="5.78296">
        <ele>232</ele>
        <time>2020-05-31T14:41:18.456Z</time>
      </trkpt>
      <trkpt lat="45.81664" lon="5.78289">
        <ele>234</ele>
        <time>2020-05-31T14:41:23.490Z</time>
      </trkpt>
      <trkpt lat="45.81663" lon="5.78288">
        <ele>234</ele>
        <time>2020-05-31T14:41:28.553Z</time>
      </trkpt>
      <trkpt lat="45.81663" lon="5.78284">
        <ele>234</ele>
        <time>2020-05-31T14:41:33.527Z</time>
      </trkpt>
      <trkpt lat="45.81662" lon="5.78285">
        <ele>234</ele>
        <time>2020-05-31T14:44:23.508Z</time>
      </trkpt>
      <trkpt lat="45.8166" lon="5.78284">
        <ele>234</ele>
        <time>2020-05-31T14:44:27.525Z</time>
      </trkpt>
      <trkpt lat="45.81658" lon="5.78283">
        <ele>234</ele>
        <time>2020-05-31T14:44:31.522Z</time>
      </trkpt>
      <trkpt lat="45.81657" lon="5.78282">
        <ele>234</ele>
        <time>2020-05-31T14:44:36.520Z</time>
      </trkpt>
      <trkpt lat="45.81657" lon="5.78282">
        <ele>234</ele>
        <time>2020-05-31T14:44:41.464Z</time>
      </trkpt>
      <trkpt lat="45.81657" lon="5.78281">
        <ele>234</ele>
        <time>2020-05-31T15:23:20.490Z</time>
      </trkpt>
      <trkpt lat="45.81657" lon="5.7828">
        <ele>234</ele>
        <time>2020-05-31T15:23:25.473Z</time>
      </trkpt>
      <trkpt lat="45.81656" lon="5.7828">
        <ele>234</ele>
        <time>2020-05-31T15:23:29.504Z</time>
      </trkpt>
      <trkpt lat="45.81652" lon="5.78281">
        <ele>236</ele>
        <time>2020-05-31T15:23:34.503Z</time>
      </trkpt>
      <trkpt lat="45.81647" lon="5.78283">
        <ele>236</ele>
        <time>2020-05-31T15:23:39.447Z</time>
      </trkpt>
      <trkpt lat="45.81643" lon="5.78285">
        <ele>236</ele>
        <time>2020-05-31T15:23:43.488Z</time>
      </trkpt>
      <trkpt lat="45.81639" lon="5.78286">
        <ele>236</ele>
        <time>2020-05-31T15:23:48.499Z</time>
      </trkpt>
      <trkpt lat="45.81635" lon="5.78287">
        <ele>236</ele>
        <time>2020-05-31T15:23:53.553Z</time>
      </trkpt>
      <trkpt lat="45.81631" lon="5.78287">
        <ele>236</ele>
        <time>2020-05-31T15:23:58.497Z</time>
      </trkpt>
      <trkpt lat="45.81627" lon="5.78285">
        <ele>236</ele>
        <time>2020-05-31T15:24:02.512Z</time>
      </trkpt>
      <trkpt lat="45.81622" lon="5.78281">
        <ele>236</ele>
        <time>2020-05-31T15:24:07.492Z</time>
      </trkpt>
      <trkpt lat="45.81617" lon="5.78277">
        <ele>236</ele>
        <time>2020-05-31T15:24:12.520Z</time>
      </trkpt>
      <trkpt lat="45.81613" lon="5.78273">
        <ele>236</ele>
        <time>2020-05-31T15:24:17.492Z</time>
      </trkpt>
      <trkpt lat="45.81607" lon="5.7827">
        <ele>236</ele>
        <time>2020-05-31T15:24:22.470Z</time>
      </trkpt>
      <trkpt lat="45.81603" lon="5.7827">
        <ele>236</ele>
        <time>2020-05-31T15:24:26.494Z</time>
      </trkpt>
      <trkpt lat="45.81599" lon="5.78264">
        <ele>236</ele>
        <time>2020-05-31T15:24:31.491Z</time>
      </trkpt>
      <trkpt lat="45.81594" lon="5.78259">
        <ele>236</ele>
        <time>2020-05-31T15:24:36.517Z</time>
      </trkpt>
      <trkpt lat="45.81593" lon="5.78256">
        <ele>236</ele>
        <time>2020-05-31T15:25:29.445Z</time>
      </trkpt>
      <trkpt lat="45.81593" lon="5.78256">
        <ele>236</ele>
        <time>2020-05-31T15:25:33.503Z</time>
      </trkpt>
      <trkpt lat="45.81593" lon="5.78256">
        <ele>236</ele>
        <time>2020-05-31T15:25:38.494Z</time>
      </trkpt>
      <trkpt lat="45.81589" lon="5.78251">
        <ele>236</ele>
        <time>2020-05-31T15:25:43.492Z</time>
      </trkpt>
      <trkpt lat="45.81587" lon="5.78244">
        <ele>236</ele>
        <time>2020-05-31T15:25:48.505Z</time>
      </trkpt>
      <trkpt lat="45.81587" lon="5.78239">
        <ele>236</ele>
        <time>2020-05-31T15:25:52.505Z</time>
      </trkpt>
      <trkpt lat="45.81586" lon="5.7823">
        <ele>235</ele>
        <time>2020-05-31T15:25:57.491Z</time>
      </trkpt>
      <trkpt lat="45.81583" lon="5.78222">
        <ele>235</ele>
        <time>2020-05-31T15:26:02.555Z</time>
      </trkpt>
      <trkpt lat="45.81581" lon="5.78214">
        <ele>235</ele>
        <time>2020-05-31T15:26:07.471Z</time>
      </trkpt>
      <trkpt lat="45.81581" lon="5.78208">
        <ele>235</ele>
        <time>2020-05-31T15:26:11.491Z</time>
      </trkpt>
      <trkpt lat="45.81582" lon="5.78202">
        <ele>235</ele>
        <time>2020-05-31T15:26:16.511Z</time>
      </trkpt>
      <trkpt lat="45.81581" lon="5.78195">
        <ele>235</ele>
        <time>2020-05-31T15:26:21.523Z</time>
      </trkpt>
      <trkpt lat="45.81578" lon="5.78187">
        <ele>235</ele>
        <time>2020-05-31T15:26:26.489Z</time>
      </trkpt>
      <trkpt lat="45.81573" lon="5.78183">
        <ele>235</ele>
        <time>2020-05-31T15:26:30.499Z</time>
      </trkpt>
      <trkpt lat="45.81569" lon="5.78179">
        <ele>234</ele>
        <time>2020-05-31T15:26:35.510Z</time>
      </trkpt>
      <trkpt lat="45.81563" lon="5.78178">
        <ele>234</ele>
        <time>2020-05-31T15:26:40.519Z</time>
      </trkpt>
      <trkpt lat="45.81558" lon="5.78182">
        <ele>233</ele>
        <time>2020-05-31T15:26:45.523Z</time>
      </trkpt>
      <trkpt lat="45.81554" lon="5.78184">
        <ele>233</ele>
        <time>2020-05-31T15:26:49.492Z</time>
      </trkpt>
      <trkpt lat="45.81549" lon="5.78184">
        <ele>233</ele>
        <time>2020-05-31T15:26:54.509Z</time>
      </trkpt>
      <trkpt lat="45.81543" lon="5.78187">
        <ele>233</ele>
        <time>2020-05-31T15:26:59.510Z</time>
      </trkpt>
      <trkpt lat="45.81536" lon="5.7819">
        <ele>231</ele>
        <time>2020-05-31T15:27:04.518Z</time>
      </trkpt>
      <trkpt lat="45.81528" lon="5.78186">
        <ele>231</ele>
        <time>2020-05-31T15:27:09.514Z</time>
      </trkpt>
      <trkpt lat="45.81523" lon="5.78184">
        <ele>231</ele>
        <time>2020-05-31T15:27:13.501Z</time>
      </trkpt>
      <trkpt lat="45.81517" lon="5.78181">
        <ele>231</ele>
        <time>2020-05-31T15:27:18.508Z</time>
      </trkpt>
      <trkpt lat="45.81511" lon="5.78179">
        <ele>232</ele>
        <time>2020-05-31T15:27:23.517Z</time>
      </trkpt>
      <trkpt lat="45.81505" lon="5.78178">
        <ele>232</ele>
        <time>2020-05-31T15:27:28.499Z</time>
      </trkpt>
      <trkpt lat="45.81498" lon="5.78176">
        <ele>232</ele>
        <time>2020-05-31T15:27:33.495Z</time>
      </trkpt>
      <trkpt lat="45.81492" lon="5.7817">
        <ele>232</ele>
        <time>2020-05-31T15:27:38.502Z</time>
      </trkpt>
      <trkpt lat="45.81487" lon="5.78166">
        <ele>232</ele>
        <time>2020-05-31T15:27:43.571Z</time>
      </trkpt>
      <trkpt lat="45.81481" lon="5.78162">
        <ele>232</ele>
        <time>2020-05-31T15:27:48.503Z</time>
      </trkpt>
      <trkpt lat="45.81475" lon="5.78158">
        <ele>232</ele>
        <time>2020-05-31T15:27:53.500Z</time>
      </trkpt>
      <trkpt lat="45.81467" lon="5.78155">
        <ele>232</ele>
        <time>2020-05-31T15:27:58.502Z</time>
      </trkpt>
      <trkpt lat="45.81461" lon="5.78152">
        <ele>234</ele>
        <time>2020-05-31T15:28:03.497Z</time>
      </trkpt>
      <trkpt lat="45.81455" lon="5.78153">
        <ele>234</ele>
        <time>2020-05-31T15:28:08.487Z</time>
      </trkpt>
      <trkpt lat="45.8145" lon="5.78153">
        <ele>233</ele>
        <time>2020-05-31T15:28:12.562Z</time>
      </trkpt>
      <trkpt lat="45.81445" lon="5.78149">
        <ele>234</ele>
        <time>2020-05-31T15:28:17.522Z</time>
      </trkpt>
      <trkpt lat="45.81439" lon="5.78145">
        <ele>234</ele>
        <time>2020-05-31T15:28:22.512Z</time>
      </trkpt>
      <trkpt lat="45.81433" lon="5.78144">
        <ele>234</ele>
        <time>2020-05-31T15:28:27.467Z</time>
      </trkpt>
      <trkpt lat="45.81427" lon="5.78142">
        <ele>234</ele>
        <time>2020-05-31T15:28:31.504Z</time>
      </trkpt>
      <trkpt lat="45.81421" lon="5.78138">
        <ele>234</ele>
        <time>2020-05-31T15:28:36.503Z</time>
      </trkpt>
      <trkpt lat="45.81415" lon="5.78133">
        <ele>234</ele>
        <time>2020-05-31T15:28:41.485Z</time>
      </trkpt>
      <trkpt lat="45.81408" lon="5.7813">
        <ele>234</ele>
        <time>2020-05-31T15:28:46.517Z</time>
      </trkpt>
      <trkpt lat="45.81402" lon="5.78125">
        <ele>237</ele>
        <time>2020-05-31T15:28:51.498Z</time>
      </trkpt>
      <trkpt lat="45.81396" lon="5.78121">
        <ele>237</ele>
        <time>2020-05-31T15:28:56.517Z</time>
      </trkpt>
      <trkpt lat="45.81392" lon="5.7812">
        <ele>237</ele>
        <time>2020-05-31T15:29:00.518Z</time>
      </trkpt>
      <trkpt lat="45.81385" lon="5.78115">
        <ele>237</ele>
        <time>2020-05-31T15:29:05.497Z</time>
      </trkpt>
      <trkpt lat="45.81379" lon="5.78113">
        <ele>237</ele>
        <time>2020-05-31T15:29:10.491Z</time>
      </trkpt>
      <trkpt lat="45.81374" lon="5.78111">
        <ele>235</ele>
        <time>2020-05-31T15:29:14.503Z</time>
      </trkpt>
      <trkpt lat="45.81368" lon="5.78108">
        <ele>235</ele>
        <time>2020-05-31T15:29:19.522Z</time>
      </trkpt>
      <trkpt lat="45.81363" lon="5.78105">
        <ele>235</ele>
        <time>2020-05-31T15:29:24.522Z</time>
      </trkpt>
      <trkpt lat="45.81356" lon="5.78102">
        <ele>235</ele>
        <time>2020-05-31T15:29:29.509Z</time>
      </trkpt>
      <trkpt lat="45.81351" lon="5.78099">
        <ele>235</ele>
        <time>2020-05-31T15:29:33.503Z</time>
      </trkpt>
      <trkpt lat="45.81346" lon="5.78096">
        <ele>236</ele>
        <time>2020-05-31T15:29:38.506Z</time>
      </trkpt>
      <trkpt lat="45.81341" lon="5.78091">
        <ele>236</ele>
        <time>2020-05-31T15:29:43.518Z</time>
      </trkpt>
      <trkpt lat="45.81334" lon="5.78088">
        <ele>236</ele>
        <time>2020-05-31T15:29:48.509Z</time>
      </trkpt>
      <trkpt lat="45.81328" lon="5.78084">
        <ele>236</ele>
        <time>2020-05-31T15:29:53.516Z</time>
      </trkpt>
      <trkpt lat="45.81322" lon="5.78081">
        <ele>236</ele>
        <time>2020-05-31T15:29:58.494Z</time>
      </trkpt>
      <trkpt lat="45.81315" lon="5.78077">
        <ele>236</ele>
        <time>2020-05-31T15:30:03.521Z</time>
      </trkpt>
      <trkpt lat="45.81311" lon="5.78076">
        <ele>236</ele>
        <time>2020-05-31T15:30:08.520Z</time>
      </trkpt>
      <trkpt lat="45.81304" lon="5.78072">
        <ele>236</ele>
        <time>2020-05-31T15:30:13.502Z</time>
      </trkpt>
      <trkpt lat="45.81299" lon="5.7807">
        <ele>236</ele>
        <time>2020-05-31T15:30:17.511Z</time>
      </trkpt>
      <trkpt lat="45.81292" lon="5.78066">
        <ele>238</ele>
        <time>2020-05-31T15:30:22.497Z</time>
      </trkpt>
      <trkpt lat="45.81286" lon="5.78062">
        <ele>237</ele>
        <time>2020-05-31T15:30:27.576Z</time>
      </trkpt>
      <trkpt lat="45.81281" lon="5.78058">
        <ele>237</ele>
        <time>2020-05-31T15:30:32.510Z</time>
      </trkpt>
      <trkpt lat="45.81275" lon="5.78055">
        <ele>237</ele>
        <time>2020-05-31T15:30:37.454Z</time>
      </trkpt>
      <trkpt lat="45.81269" lon="5.7805">
        <ele>237</ele>
        <time>2020-05-31T15:30:42.451Z</time>
      </trkpt>
      <trkpt lat="45.81264" lon="5.78048">
        <ele>236</ele>
        <time>2020-05-31T15:30:46.479Z</time>
      </trkpt>
      <trkpt lat="45.81259" lon="5.78045">
        <ele>236</ele>
        <time>2020-05-31T15:30:50.539Z</time>
      </trkpt>
      <trkpt lat="45.81253" lon="5.78041">
        <ele>238</ele>
        <time>2020-05-31T15:30:55.492Z</time>
      </trkpt>
      <trkpt lat="45.81247" lon="5.78037">
        <ele>238</ele>
        <time>2020-05-31T15:31:00.513Z</time>
      </trkpt>
      <trkpt lat="45.8124" lon="5.78034">
        <ele>238</ele>
        <time>2020-05-31T15:31:05.493Z</time>
      </trkpt>
      <trkpt lat="45.81235" lon="5.78031">
        <ele>235</ele>
        <time>2020-05-31T15:31:09.501Z</time>
      </trkpt>
      <trkpt lat="45.81229" lon="5.78027">
        <ele>235</ele>
        <time>2020-05-31T15:31:14.502Z</time>
      </trkpt>
      <trkpt lat="45.81223" lon="5.78022">
        <ele>235</ele>
        <time>2020-05-31T15:31:19.529Z</time>
      </trkpt>
      <trkpt lat="45.81216" lon="5.78017">
        <ele>235</ele>
        <time>2020-05-31T15:31:24.502Z</time>
      </trkpt>
      <trkpt lat="45.81209" lon="5.78012">
        <ele>235</ele>
        <time>2020-05-31T15:31:29.494Z</time>
      </trkpt>
      <trkpt lat="45.81203" lon="5.78007">
        <ele>233</ele>
        <time>2020-05-31T15:31:34.522Z</time>
      </trkpt>
      <trkpt lat="45.81199" lon="5.78">
        <ele>233</ele>
        <time>2020-05-31T15:31:39.491Z</time>
      </trkpt>
      <trkpt lat="45.81192" lon="5.77992">
        <ele>233</ele>
        <time>2020-05-31T15:31:44.502Z</time>
      </trkpt>
      <trkpt lat="45.81187" lon="5.77991">
        <ele>233</ele>
        <time>2020-05-31T15:31:49.518Z</time>
      </trkpt>
      <trkpt lat="45.81182" lon="5.77986">
        <ele>233</ele>
        <time>2020-05-31T15:31:54.500Z</time>
      </trkpt>
      <trkpt lat="45.81176" lon="5.77984">
        <ele>235</ele>
        <time>2020-05-31T15:31:59.517Z</time>
      </trkpt>
      <trkpt lat="45.81169" lon="5.77982">
        <ele>235</ele>
        <time>2020-05-31T15:32:04.493Z</time>
      </trkpt>
      <trkpt lat="45.81163" lon="5.77979">
        <ele>235</ele>
        <time>2020-05-31T15:32:09.505Z</time>
      </trkpt>
      <trkpt lat="45.81157" lon="5.77974">
        <ele>235</ele>
        <time>2020-05-31T15:32:13.505Z</time>
      </trkpt>
      <trkpt lat="45.81144" lon="5.77962">
        <ele>234</ele>
        <time>2020-05-31T15:32:18.506Z</time>
      </trkpt>
      <trkpt lat="45.81124" lon="5.77948">
        <ele>233</ele>
        <time>2020-05-31T15:32:23.511Z</time>
      </trkpt>
      <trkpt lat="45.81103" lon="5.77932">
        <ele>233</ele>
        <time>2020-05-31T15:32:28.511Z</time>
      </trkpt>
      <trkpt lat="45.8109" lon="5.77923">
        <ele>232</ele>
        <time>2020-05-31T15:32:33.512Z</time>
      </trkpt>
      <trkpt lat="45.81084" lon="5.77921">
        <ele>232</ele>
        <time>2020-05-31T15:32:37.505Z</time>
      </trkpt>
      <trkpt lat="45.81071" lon="5.77909">
        <ele>232</ele>
        <time>2020-05-31T15:32:42.527Z</time>
      </trkpt>
      <trkpt lat="45.81062" lon="5.77903">
        <ele>232</ele>
        <time>2020-05-31T15:32:47.500Z</time>
      </trkpt>
      <trkpt lat="45.81055" lon="5.77897">
        <ele>232</ele>
        <time>2020-05-31T15:32:51.517Z</time>
      </trkpt>
      <trkpt lat="45.81049" lon="5.77895">
        <ele>232</ele>
        <time>2020-05-31T15:32:56.504Z</time>
      </trkpt>
      <trkpt lat="45.81042" lon="5.77895">
        <ele>232</ele>
        <time>2020-05-31T15:33:01.516Z</time>
      </trkpt>
      <trkpt lat="45.81036" lon="5.77892">
        <ele>232</ele>
        <time>2020-05-31T15:33:06.465Z</time>
      </trkpt>
      <trkpt lat="45.81031" lon="5.77888">
        <ele>232</ele>
        <time>2020-05-31T15:33:10.577Z</time>
      </trkpt>
      <trkpt lat="45.81025" lon="5.77884">
        <ele>232</ele>
        <time>2020-05-31T15:33:15.497Z</time>
      </trkpt>
      <trkpt lat="45.81018" lon="5.77881">
        <ele>232</ele>
        <time>2020-05-31T15:33:20.503Z</time>
      </trkpt>
      <trkpt lat="45.81011" lon="5.77875">
        <ele>235</ele>
        <time>2020-05-31T15:33:25.508Z</time>
      </trkpt>
      <trkpt lat="45.81005" lon="5.7787">
        <ele>235</ele>
        <time>2020-05-31T15:33:30.495Z</time>
      </trkpt>
      <trkpt lat="45.81" lon="5.77867">
        <ele>235</ele>
        <time>2020-05-31T15:33:35.524Z</time>
      </trkpt>
      <trkpt lat="45.80994" lon="5.77865">
        <ele>235</ele>
        <time>2020-05-31T15:33:40.525Z</time>
      </trkpt>
      <trkpt lat="45.80988" lon="5.77862">
        <ele>235</ele>
        <time>2020-05-31T15:33:45.509Z</time>
      </trkpt>
      <trkpt lat="45.80983" lon="5.77858">
        <ele>237</ele>
        <time>2020-05-31T15:33:50.495Z</time>
      </trkpt>
      <trkpt lat="45.80978" lon="5.77854">
        <ele>237</ele>
        <time>2020-05-31T15:33:55.488Z</time>
      </trkpt>
      <trkpt lat="45.80973" lon="5.7785">
        <ele>237</ele>
        <time>2020-05-31T15:33:59.526Z</time>
      </trkpt>
      <trkpt lat="45.80967" lon="5.77846">
        <ele>238</ele>
        <time>2020-05-31T15:34:04.502Z</time>
      </trkpt>
      <trkpt lat="45.80964" lon="5.77843">
        <ele>238</ele>
        <time>2020-05-31T15:34:08.520Z</time>
      </trkpt>
      <trkpt lat="45.80957" lon="5.77839">
        <ele>237</ele>
        <time>2020-05-31T15:34:13.514Z</time>
      </trkpt>
      <trkpt lat="45.80952" lon="5.77834">
        <ele>237</ele>
        <time>2020-05-31T15:34:18.523Z</time>
      </trkpt>
      <trkpt lat="45.80943" lon="5.77831">
        <ele>237</ele>
        <time>2020-05-31T15:34:23.507Z</time>
      </trkpt>
      <trkpt lat="45.80938" lon="5.77828">
        <ele>237</ele>
        <time>2020-05-31T15:34:27.517Z</time>
      </trkpt>
      <trkpt lat="45.8093" lon="5.77824">
        <ele>235</ele>
        <time>2020-05-31T15:34:32.501Z</time>
      </trkpt>
      <trkpt lat="45.80925" lon="5.77818">
        <ele>235</ele>
        <time>2020-05-31T15:34:37.518Z</time>
      </trkpt>
      <trkpt lat="45.80918" lon="5.77813">
        <ele>235</ele>
        <time>2020-05-31T15:34:42.491Z</time>
      </trkpt>
      <trkpt lat="45.80912" lon="5.77808">
        <ele>235</ele>
        <time>2020-05-31T15:34:47.506Z</time>
      </trkpt>
      <trkpt lat="45.809" lon="5.77803">
        <ele>234</ele>
        <time>2020-05-31T15:35:44.478Z</time>
      </trkpt>
      <trkpt lat="45.809" lon="5.77803">
        <ele>234</ele>
        <time>2020-05-31T15:35:49.491Z</time>
      </trkpt>
      <trkpt lat="45.809" lon="5.77803">
        <ele>234</ele>
        <time>2020-05-31T15:35:53.490Z</time>
      </trkpt>
      <trkpt lat="45.809" lon="5.77802">
        <ele>234</ele>
        <time>2020-05-31T15:35:57.488Z</time>
      </trkpt>
      <trkpt lat="45.80898" lon="5.778">
        <ele>234</ele>
        <time>2020-05-31T15:36:02.474Z</time>
      </trkpt>
      <trkpt lat="45.80898" lon="5.778">
        <ele>234</ele>
        <time>2020-05-31T15:36:06.479Z</time>
      </trkpt>
      <trkpt lat="45.80899" lon="5.77795">
        <ele>234</ele>
        <time>2020-05-31T15:36:10.498Z</time>
      </trkpt>
      <trkpt lat="45.80895" lon="5.77787">
        <ele>235</ele>
        <time>2020-05-31T15:36:15.506Z</time>
      </trkpt>
      <trkpt lat="45.8089" lon="5.77781">
        <ele>235</ele>
        <time>2020-05-31T15:36:20.514Z</time>
      </trkpt>
      <trkpt lat="45.80884" lon="5.77774">
        <ele>235</ele>
        <time>2020-05-31T15:36:25.528Z</time>
      </trkpt>
      <trkpt lat="45.80878" lon="5.77769">
        <ele>235</ele>
        <time>2020-05-31T15:36:30.507Z</time>
      </trkpt>
      <trkpt lat="45.80872" lon="5.77768">
        <ele>235</ele>
        <time>2020-05-31T15:36:35.507Z</time>
      </trkpt>
      <trkpt lat="45.80866" lon="5.77764">
        <ele>235</ele>
        <time>2020-05-31T15:36:40.507Z</time>
      </trkpt>
      <trkpt lat="45.8086" lon="5.77761">
        <ele>235</ele>
        <time>2020-05-31T15:36:45.519Z</time>
      </trkpt>
      <trkpt lat="45.80854" lon="5.77759">
        <ele>235</ele>
        <time>2020-05-31T15:36:50.508Z</time>
      </trkpt>
      <trkpt lat="45.80847" lon="5.77754">
        <ele>235</ele>
        <time>2020-05-31T15:36:55.500Z</time>
      </trkpt>
      <trkpt lat="45.80842" lon="5.77748">
        <ele>234</ele>
        <time>2020-05-31T15:37:00.507Z</time>
      </trkpt>
      <trkpt lat="45.80836" lon="5.7774">
        <ele>234</ele>
        <time>2020-05-31T15:37:05.504Z</time>
      </trkpt>
      <trkpt lat="45.8083" lon="5.77734">
        <ele>234</ele>
        <time>2020-05-31T15:37:09.564Z</time>
      </trkpt>
      <trkpt lat="45.80823" lon="5.77726">
        <ele>234</ele>
        <time>2020-05-31T15:37:14.504Z</time>
      </trkpt>
      <trkpt lat="45.80816" lon="5.7772">
        <ele>233</ele>
        <time>2020-05-31T15:37:19.493Z</time>
      </trkpt>
      <trkpt lat="45.80809" lon="5.77716">
        <ele>233</ele>
        <time>2020-05-31T15:37:24.505Z</time>
      </trkpt>
      <trkpt lat="45.80802" lon="5.77711">
        <ele>233</ele>
        <time>2020-05-31T15:37:29.492Z</time>
      </trkpt>
      <trkpt lat="45.80797" lon="5.77705">
        <ele>234</ele>
        <time>2020-05-31T15:37:33.556Z</time>
      </trkpt>
      <trkpt lat="45.80789" lon="5.777">
        <ele>234</ele>
        <time>2020-05-31T15:37:38.506Z</time>
      </trkpt>
      <trkpt lat="45.80783" lon="5.77694">
        <ele>234</ele>
        <time>2020-05-31T15:37:43.502Z</time>
      </trkpt>
      <trkpt lat="45.80776" lon="5.77691">
        <ele>234</ele>
        <time>2020-05-31T15:37:48.511Z</time>
      </trkpt>
      <trkpt lat="45.80763" lon="5.77682">
        <ele>233</ele>
        <time>2020-05-31T15:37:53.503Z</time>
      </trkpt>
      <trkpt lat="45.8074" lon="5.77672">
        <ele>233</ele>
        <time>2020-05-31T15:37:57.546Z</time>
      </trkpt>
      <trkpt lat="45.80711" lon="5.77656">
        <ele>233</ele>
        <time>2020-05-31T15:38:02.493Z</time>
      </trkpt>
      <trkpt lat="45.8068" lon="5.77642">
        <ele>234</ele>
        <time>2020-05-31T15:38:07.487Z</time>
      </trkpt>
      <trkpt lat="45.80654" lon="5.77634">
        <ele>234</ele>
        <time>2020-05-31T15:38:12.489Z</time>
      </trkpt>
      <trkpt lat="45.80643" lon="5.77634">
        <ele>234</ele>
        <time>2020-05-31T15:38:17.478Z</time>
      </trkpt>
      <trkpt lat="45.80636" lon="5.77632">
        <ele>234</ele>
        <time>2020-05-31T15:38:21.504Z</time>
      </trkpt>
      <trkpt lat="45.8063" lon="5.77631">
        <ele>234</ele>
        <time>2020-05-31T15:38:25.502Z</time>
      </trkpt>
      <trkpt lat="45.80623" lon="5.77627">
        <ele>231</ele>
        <time>2020-05-31T15:38:30.494Z</time>
      </trkpt>
      <trkpt lat="45.80614" lon="5.77625">
        <ele>233</ele>
        <time>2020-05-31T15:38:35.514Z</time>
      </trkpt>
      <trkpt lat="45.80608" lon="5.77623">
        <ele>233</ele>
        <time>2020-05-31T15:38:40.516Z</time>
      </trkpt>
      <trkpt lat="45.806" lon="5.7762">
        <ele>233</ele>
        <time>2020-05-31T15:38:45.505Z</time>
      </trkpt>
      <trkpt lat="45.80594" lon="5.7762">
        <ele>231</ele>
        <time>2020-05-31T15:38:49.491Z</time>
      </trkpt>
      <trkpt lat="45.80586" lon="5.77617">
        <ele>231</ele>
        <time>2020-05-31T15:38:54.493Z</time>
      </trkpt>
      <trkpt lat="45.8058" lon="5.77616">
        <ele>231</ele>
        <time>2020-05-31T15:38:59.489Z</time>
      </trkpt>
      <trkpt lat="45.80572" lon="5.77616">
        <ele>231</ele>
        <time>2020-05-31T15:39:04.516Z</time>
      </trkpt>
      <trkpt lat="45.80564" lon="5.77614">
        <ele>231</ele>
        <time>2020-05-31T15:39:09.505Z</time>
      </trkpt>
      <trkpt lat="45.80556" lon="5.77612">
        <ele>231</ele>
        <time>2020-05-31T15:39:14.492Z</time>
      </trkpt>
      <trkpt lat="45.8054" lon="5.77608">
        <ele>231</ele>
        <time>2020-05-31T15:39:19.499Z</time>
      </trkpt>
      <trkpt lat="45.80527" lon="5.77605">
        <ele>231</ele>
        <time>2020-05-31T15:39:24.497Z</time>
      </trkpt>
      <trkpt lat="45.80519" lon="5.77601">
        <ele>231</ele>
        <time>2020-05-31T15:39:29.493Z</time>
      </trkpt>
      <trkpt lat="45.80512" lon="5.77598">
        <ele>231</ele>
        <time>2020-05-31T15:39:34.531Z</time>
      </trkpt>
      <trkpt lat="45.80505" lon="5.77594">
        <ele>233</ele>
        <time>2020-05-31T15:39:39.497Z</time>
      </trkpt>
      <trkpt lat="45.80501" lon="5.7759">
        <ele>233</ele>
        <time>2020-05-31T15:39:43.548Z</time>
      </trkpt>
      <trkpt lat="45.80495" lon="5.77587">
        <ele>233</ele>
        <time>2020-05-31T15:39:48.518Z</time>
      </trkpt>
      <trkpt lat="45.80487" lon="5.77587">
        <ele>233</ele>
        <time>2020-05-31T15:39:53.508Z</time>
      </trkpt>
      <trkpt lat="45.8048" lon="5.77587">
        <ele>232</ele>
        <time>2020-05-31T15:39:58.520Z</time>
      </trkpt>
      <trkpt lat="45.80472" lon="5.77587">
        <ele>232</ele>
        <time>2020-05-31T15:40:03.508Z</time>
      </trkpt>
      <trkpt lat="45.80465" lon="5.77586">
        <ele>232</ele>
        <time>2020-05-31T15:40:08.505Z</time>
      </trkpt>
      <trkpt lat="45.80459" lon="5.77585">
        <ele>232</ele>
        <time>2020-05-31T15:40:12.518Z</time>
      </trkpt>
      <trkpt lat="45.80448" lon="5.77582">
        <ele>231</ele>
        <time>2020-05-31T15:40:17.509Z</time>
      </trkpt>
      <trkpt lat="45.80433" lon="5.77581">
        <ele>231</ele>
        <time>2020-05-31T15:40:22.508Z</time>
      </trkpt>
      <trkpt lat="45.80413" lon="5.77577">
        <ele>231</ele>
        <time>2020-05-31T15:40:27.496Z</time>
      </trkpt>
      <trkpt lat="45.8039" lon="5.77573">
        <ele>231</ele>
        <time>2020-05-31T15:40:32.494Z</time>
      </trkpt>
      <trkpt lat="45.8037" lon="5.77569">
        <ele>232</ele>
        <time>2020-05-31T15:40:37.492Z</time>
      </trkpt>
      <trkpt lat="45.80359" lon="5.77566">
        <ele>232</ele>
        <time>2020-05-31T15:40:42.468Z</time>
      </trkpt>
      <trkpt lat="45.80352" lon="5.77565">
        <ele>232</ele>
        <time>2020-05-31T15:40:46.500Z</time>
      </trkpt>
      <trkpt lat="45.80344" lon="5.77564">
        <ele>232</ele>
        <time>2020-05-31T15:40:51.465Z</time>
      </trkpt>
      <trkpt lat="45.80338" lon="5.77564">
        <ele>232</ele>
        <time>2020-05-31T15:40:55.516Z</time>
      </trkpt>
      <trkpt lat="45.80331" lon="5.77562">
        <ele>232</ele>
        <time>2020-05-31T15:41:00.486Z</time>
      </trkpt>
      <trkpt lat="45.80324" lon="5.77558">
        <ele>232</ele>
        <time>2020-05-31T15:41:05.499Z</time>
      </trkpt>
      <trkpt lat="45.80319" lon="5.77557">
        <ele>232</ele>
        <time>2020-05-31T15:41:09.522Z</time>
      </trkpt>
      <trkpt lat="45.80313" lon="5.77556">
        <ele>232</ele>
        <time>2020-05-31T15:41:13.496Z</time>
      </trkpt>
      <trkpt lat="45.80305" lon="5.77555">
        <ele>232</ele>
        <time>2020-05-31T15:41:18.504Z</time>
      </trkpt>
      <trkpt lat="45.80298" lon="5.77554">
        <ele>232</ele>
        <time>2020-05-31T15:41:23.505Z</time>
      </trkpt>
      <trkpt lat="45.8029" lon="5.77553">
        <ele>233</ele>
        <time>2020-05-31T15:41:28.506Z</time>
      </trkpt>
      <trkpt lat="45.80283" lon="5.77551">
        <ele>233</ele>
        <time>2020-05-31T15:41:33.495Z</time>
      </trkpt>
      <trkpt lat="45.80276" lon="5.77549">
        <ele>233</ele>
        <time>2020-05-31T15:41:38.495Z</time>
      </trkpt>
      <trkpt lat="45.80268" lon="5.77548">
        <ele>233</ele>
        <time>2020-05-31T15:41:43.491Z</time>
      </trkpt>
      <trkpt lat="45.8026" lon="5.77548">
        <ele>233</ele>
        <time>2020-05-31T15:41:47.507Z</time>
      </trkpt>
      <trkpt lat="45.80251" lon="5.77546">
        <ele>233</ele>
        <time>2020-05-31T15:41:52.469Z</time>
      </trkpt>
      <trkpt lat="45.80246" lon="5.77546">
        <ele>233</ele>
        <time>2020-05-31T15:41:56.507Z</time>
      </trkpt>
      <trkpt lat="45.80241" lon="5.77545">
        <ele>233</ele>
        <time>2020-05-31T15:42:01.506Z</time>
      </trkpt>
      <trkpt lat="45.80234" lon="5.77544">
        <ele>233</ele>
        <time>2020-05-31T15:42:06.510Z</time>
      </trkpt>
      <trkpt lat="45.80226" lon="5.77543">
        <ele>233</ele>
        <time>2020-05-31T15:42:11.494Z</time>
      </trkpt>
      <trkpt lat="45.80219" lon="5.77542">
        <ele>233</ele>
        <time>2020-05-31T15:42:16.510Z</time>
      </trkpt>
      <trkpt lat="45.80212" lon="5.77541">
        <ele>235</ele>
        <time>2020-05-31T15:42:21.462Z</time>
      </trkpt>
      <trkpt lat="45.80208" lon="5.77541">
        <ele>236</ele>
        <time>2020-05-31T15:42:25.570Z</time>
      </trkpt>
      <trkpt lat="45.80201" lon="5.77542">
        <ele>233</ele>
        <time>2020-05-31T15:42:30.512Z</time>
      </trkpt>
      <trkpt lat="45.80193" lon="5.77541">
        <ele>236</ele>
        <time>2020-05-31T15:42:35.507Z</time>
      </trkpt>
      <trkpt lat="45.80187" lon="5.7754">
        <ele>236</ele>
        <time>2020-05-31T15:42:40.509Z</time>
      </trkpt>
      <trkpt lat="45.8018" lon="5.77538">
        <ele>235</ele>
        <time>2020-05-31T15:42:45.490Z</time>
      </trkpt>
      <trkpt lat="45.80172" lon="5.77537">
        <ele>235</ele>
        <time>2020-05-31T15:42:50.502Z</time>
      </trkpt>
      <trkpt lat="45.80165" lon="5.77536">
        <ele>235</ele>
        <time>2020-05-31T15:42:55.495Z</time>
      </trkpt>
      <trkpt lat="45.8016" lon="5.77536">
        <ele>235</ele>
        <time>2020-05-31T15:42:59.484Z</time>
      </trkpt>
      <trkpt lat="45.80152" lon="5.77535">
        <ele>235</ele>
        <time>2020-05-31T15:43:04.511Z</time>
      </trkpt>
      <trkpt lat="45.80144" lon="5.77533">
        <ele>235</ele>
        <time>2020-05-31T15:43:09.503Z</time>
      </trkpt>
      <trkpt lat="45.80137" lon="5.7753">
        <ele>235</ele>
        <time>2020-05-31T15:43:14.496Z</time>
      </trkpt>
      <trkpt lat="45.80132" lon="5.77528">
        <ele>235</ele>
        <time>2020-05-31T15:43:18.493Z</time>
      </trkpt>
      <trkpt lat="45.80125" lon="5.77526">
        <ele>235</ele>
        <time>2020-05-31T15:43:23.558Z</time>
      </trkpt>
      <trkpt lat="45.80119" lon="5.77524">
        <ele>235</ele>
        <time>2020-05-31T15:43:28.490Z</time>
      </trkpt>
      <trkpt lat="45.80112" lon="5.77522">
        <ele>235</ele>
        <time>2020-05-31T15:43:33.509Z</time>
      </trkpt>
      <trkpt lat="45.80105" lon="5.77521">
        <ele>235</ele>
        <time>2020-05-31T15:43:38.516Z</time>
      </trkpt>
      <trkpt lat="45.80097" lon="5.77521">
        <ele>237</ele>
        <time>2020-05-31T15:43:43.491Z</time>
      </trkpt>
      <trkpt lat="45.8009" lon="5.77521">
        <ele>237</ele>
        <time>2020-05-31T15:43:47.519Z</time>
      </trkpt>
      <trkpt lat="45.80084" lon="5.77519">
        <ele>237</ele>
        <time>2020-05-31T15:43:52.492Z</time>
      </trkpt>
      <trkpt lat="45.80079" lon="5.77518">
        <ele>237</ele>
        <time>2020-05-31T15:43:56.501Z</time>
      </trkpt>
      <trkpt lat="45.80072" lon="5.77516">
        <ele>237</ele>
        <time>2020-05-31T15:44:01.505Z</time>
      </trkpt>
      <trkpt lat="45.80063" lon="5.77514">
        <ele>238</ele>
        <time>2020-05-31T15:44:06.501Z</time>
      </trkpt>
      <trkpt lat="45.80057" lon="5.77513">
        <ele>242</ele>
        <time>2020-05-31T15:44:11.465Z</time>
      </trkpt>
      <trkpt lat="45.80049" lon="5.77511">
        <ele>242</ele>
        <time>2020-05-31T15:44:15.552Z</time>
      </trkpt>
      <trkpt lat="45.80041" lon="5.7751">
        <ele>240</ele>
        <time>2020-05-31T15:44:20.505Z</time>
      </trkpt>
      <trkpt lat="45.80031" lon="5.77507">
        <ele>240</ele>
        <time>2020-05-31T15:44:25.516Z</time>
      </trkpt>
      <trkpt lat="45.80024" lon="5.77506">
        <ele>240</ele>
        <time>2020-05-31T15:44:30.500Z</time>
      </trkpt>
      <trkpt lat="45.80018" lon="5.77505">
        <ele>240</ele>
        <time>2020-05-31T15:44:35.513Z</time>
      </trkpt>
      <trkpt lat="45.80013" lon="5.77504">
        <ele>239</ele>
        <time>2020-05-31T15:44:39.547Z</time>
      </trkpt>
      <trkpt lat="45.80006" lon="5.77501">
        <ele>239</ele>
        <time>2020-05-31T15:44:44.511Z</time>
      </trkpt>
      <trkpt lat="45.79999" lon="5.77497">
        <ele>239</ele>
        <time>2020-05-31T15:44:49.502Z</time>
      </trkpt>
      <trkpt lat="45.7999" lon="5.77496">
        <ele>239</ele>
        <time>2020-05-31T15:44:54.481Z</time>
      </trkpt>
      <trkpt lat="45.79984" lon="5.77495">
        <ele>238</ele>
        <time>2020-05-31T15:44:58.511Z</time>
      </trkpt>
      <trkpt lat="45.79979" lon="5.77494">
        <ele>238</ele>
        <time>2020-05-31T15:45:02.539Z</time>
      </trkpt>
      <trkpt lat="45.7997" lon="5.77494">
        <ele>238</ele>
        <time>2020-05-31T15:45:07.502Z</time>
      </trkpt>
      <trkpt lat="45.7996" lon="5.77491">
        <ele>238</ele>
        <time>2020-05-31T15:45:12.500Z</time>
      </trkpt>
      <trkpt lat="45.79955" lon="5.7749">
        <ele>235</ele>
        <time>2020-05-31T15:45:16.506Z</time>
      </trkpt>
      <trkpt lat="45.79946" lon="5.77487">
        <ele>235</ele>
        <time>2020-05-31T15:45:21.463Z</time>
      </trkpt>
      <trkpt lat="45.79939" lon="5.77483">
        <ele>239</ele>
        <time>2020-05-31T15:45:25.530Z</time>
      </trkpt>
      <trkpt lat="45.7993" lon="5.77481">
        <ele>236</ele>
        <time>2020-05-31T15:45:30.519Z</time>
      </trkpt>
      <trkpt lat="45.79922" lon="5.77481">
        <ele>236</ele>
        <time>2020-05-31T15:45:35.495Z</time>
      </trkpt>
      <trkpt lat="45.79914" lon="5.77479">
        <ele>236</ele>
        <time>2020-05-31T15:45:40.493Z</time>
      </trkpt>
      <trkpt lat="45.79907" lon="5.77477">
        <ele>236</ele>
        <time>2020-05-31T15:45:45.493Z</time>
      </trkpt>
      <trkpt lat="45.799" lon="5.77475">
        <ele>234</ele>
        <time>2020-05-31T15:45:49.563Z</time>
      </trkpt>
      <trkpt lat="45.79892" lon="5.77472">
        <ele>234</ele>
        <time>2020-05-31T15:45:54.481Z</time>
      </trkpt>
      <trkpt lat="45.79884" lon="5.7747">
        <ele>234</ele>
        <time>2020-05-31T15:45:59.498Z</time>
      </trkpt>
      <trkpt lat="45.79876" lon="5.77468">
        <ele>234</ele>
        <time>2020-05-31T15:46:04.486Z</time>
      </trkpt>
      <trkpt lat="45.79869" lon="5.77466">
        <ele>234</ele>
        <time>2020-05-31T15:46:09.480Z</time>
      </trkpt>
      <trkpt lat="45.79863" lon="5.77466">
        <ele>234</ele>
        <time>2020-05-31T15:46:13.544Z</time>
      </trkpt>
      <trkpt lat="45.79854" lon="5.77464">
        <ele>234</ele>
        <time>2020-05-31T15:46:18.491Z</time>
      </trkpt>
      <trkpt lat="45.79846" lon="5.77464">
        <ele>235</ele>
        <time>2020-05-31T15:46:23.495Z</time>
      </trkpt>
      <trkpt lat="45.79838" lon="5.77462">
        <ele>235</ele>
        <time>2020-05-31T15:46:28.491Z</time>
      </trkpt>
      <trkpt lat="45.79828" lon="5.77461">
        <ele>235</ele>
        <time>2020-05-31T15:46:33.501Z</time>
      </trkpt>
      <trkpt lat="45.7982" lon="5.77459">
        <ele>235</ele>
        <time>2020-05-31T15:46:38.489Z</time>
      </trkpt>
      <trkpt lat="45.79813" lon="5.77455">
        <ele>236</ele>
        <time>2020-05-31T15:46:43.511Z</time>
      </trkpt>
      <trkpt lat="45.79805" lon="5.77452">
        <ele>236</ele>
        <time>2020-05-31T15:46:48.484Z</time>
      </trkpt>
      <trkpt lat="45.79797" lon="5.77451">
        <ele>236</ele>
        <time>2020-05-31T15:46:53.541Z</time>
      </trkpt>
      <trkpt lat="45.79789" lon="5.77449">
        <ele>235</ele>
        <time>2020-05-31T15:46:58.500Z</time>
      </trkpt>
      <trkpt lat="45.79781" lon="5.77447">
        <ele>235</ele>
        <time>2020-05-31T15:47:03.491Z</time>
      </trkpt>
      <trkpt lat="45.79773" lon="5.77445">
        <ele>235</ele>
        <time>2020-05-31T15:47:08.489Z</time>
      </trkpt>
      <trkpt lat="45.79767" lon="5.77444">
        <ele>235</ele>
        <time>2020-05-31T15:47:12.495Z</time>
      </trkpt>
      <trkpt lat="45.79759" lon="5.77442">
        <ele>234</ele>
        <time>2020-05-31T15:47:17.505Z</time>
      </trkpt>
      <trkpt lat="45.79752" lon="5.7744">
        <ele>234</ele>
        <time>2020-05-31T15:47:22.479Z</time>
      </trkpt>
      <trkpt lat="45.79744" lon="5.77439">
        <ele>234</ele>
        <time>2020-05-31T15:47:27.488Z</time>
      </trkpt>
      <trkpt lat="45.79739" lon="5.77439">
        <ele>234</ele>
        <time>2020-05-31T15:47:32.484Z</time>
      </trkpt>
      <trkpt lat="45.79737" lon="5.77444">
        <ele>234</ele>
        <time>2020-05-31T15:47:36.503Z</time>
      </trkpt>
      <trkpt lat="45.79724" lon="5.77442">
        <ele>234</ele>
        <time>2020-05-31T15:47:41.460Z</time>
      </trkpt>
      <trkpt lat="45.79716" lon="5.77438">
        <ele>234</ele>
        <time>2020-05-31T15:47:45.513Z</time>
      </trkpt>
      <trkpt lat="45.7971" lon="5.77437">
        <ele>234</ele>
        <time>2020-05-31T15:47:50.495Z</time>
      </trkpt>
      <trkpt lat="45.79702" lon="5.77435">
        <ele>233</ele>
        <time>2020-05-31T15:47:55.494Z</time>
      </trkpt>
      <trkpt lat="45.79695" lon="5.77434">
        <ele>233</ele>
        <time>2020-05-31T15:48:00.508Z</time>
      </trkpt>
      <trkpt lat="45.7969" lon="5.77433">
        <ele>233</ele>
        <time>2020-05-31T15:48:04.494Z</time>
      </trkpt>
      <trkpt lat="45.79682" lon="5.77431">
        <ele>233</ele>
        <time>2020-05-31T15:48:09.503Z</time>
      </trkpt>
      <trkpt lat="45.79675" lon="5.7743">
        <ele>231</ele>
        <time>2020-05-31T15:48:14.505Z</time>
      </trkpt>
      <trkpt lat="45.79667" lon="5.77428">
        <ele>231</ele>
        <time>2020-05-31T15:48:19.496Z</time>
      </trkpt>
      <trkpt lat="45.79659" lon="5.77426">
        <ele>231</ele>
        <time>2020-05-31T15:48:24.508Z</time>
      </trkpt>
      <trkpt lat="45.79652" lon="5.77424">
        <ele>230</ele>
        <time>2020-05-31T15:48:29.458Z</time>
      </trkpt>
      <trkpt lat="45.79645" lon="5.77422">
        <ele>230</ele>
        <time>2020-05-31T15:48:33.527Z</time>
      </trkpt>
      <trkpt lat="45.79638" lon="5.77421">
        <ele>230</ele>
        <time>2020-05-31T15:48:38.505Z</time>
      </trkpt>
      <trkpt lat="45.79631" lon="5.77419">
        <ele>230</ele>
        <time>2020-05-31T15:48:43.496Z</time>
      </trkpt>
      <trkpt lat="45.79625" lon="5.77418">
        <ele>229</ele>
        <time>2020-05-31T15:48:47.502Z</time>
      </trkpt>
      <trkpt lat="45.79617" lon="5.77417">
        <ele>229</ele>
        <time>2020-05-31T15:48:52.456Z</time>
      </trkpt>
      <trkpt lat="45.79612" lon="5.77415">
        <ele>229</ele>
        <time>2020-05-31T15:48:56.515Z</time>
      </trkpt>
      <trkpt lat="45.79604" lon="5.77413">
        <ele>229</ele>
        <time>2020-05-31T15:49:01.495Z</time>
      </trkpt>
      <trkpt lat="45.79597" lon="5.77411">
        <ele>230</ele>
        <time>2020-05-31T15:49:06.506Z</time>
      </trkpt>
      <trkpt lat="45.79593" lon="5.77407">
        <ele>230</ele>
        <time>2020-05-31T15:49:11.459Z</time>
      </trkpt>
      <trkpt lat="45.79576" lon="5.77399">
        <ele>231</ele>
        <time>2020-05-31T15:49:15.498Z</time>
      </trkpt>
      <trkpt lat="45.7955" lon="5.77394">
        <ele>231</ele>
        <time>2020-05-31T15:49:20.503Z</time>
      </trkpt>
      <trkpt lat="45.7952" lon="5.77385">
        <ele>229</ele>
        <time>2020-05-31T15:49:25.486Z</time>
      </trkpt>
      <trkpt lat="45.79494" lon="5.77378">
        <ele>229</ele>
        <time>2020-05-31T15:49:29.504Z</time>
      </trkpt>
      <trkpt lat="45.79461" lon="5.7737">
        <ele>230</ele>
        <time>2020-05-31T15:49:34.503Z</time>
      </trkpt>
      <trkpt lat="45.79427" lon="5.77362">
        <ele>231</ele>
        <time>2020-05-31T15:49:39.508Z</time>
      </trkpt>
      <trkpt lat="45.79391" lon="5.77355">
        <ele>232</ele>
        <time>2020-05-31T15:49:44.487Z</time>
      </trkpt>
      <trkpt lat="45.7935" lon="5.77346">
        <ele>232</ele>
        <time>2020-05-31T15:49:49.490Z</time>
      </trkpt>
      <trkpt lat="45.79308" lon="5.77336">
        <ele>232</ele>
        <time>2020-05-31T15:49:54.484Z</time>
      </trkpt>
      <trkpt lat="45.79269" lon="5.77327">
        <ele>232</ele>
        <time>2020-05-31T15:49:59.503Z</time>
      </trkpt>
      <trkpt lat="45.79237" lon="5.77319">
        <ele>233</ele>
        <time>2020-05-31T15:50:03.499Z</time>
      </trkpt>
      <trkpt lat="45.79201" lon="5.7731">
        <ele>231</ele>
        <time>2020-05-31T15:50:08.485Z</time>
      </trkpt>
      <trkpt lat="45.79178" lon="5.77304">
        <ele>233</ele>
        <time>2020-05-31T15:50:13.497Z</time>
      </trkpt>
      <trkpt lat="45.79165" lon="5.77302">
        <ele>233</ele>
        <time>2020-05-31T15:50:18.500Z</time>
      </trkpt>
      <trkpt lat="45.79159" lon="5.77303">
        <ele>233</ele>
        <time>2020-05-31T15:50:22.493Z</time>
      </trkpt>
      <trkpt lat="45.79151" lon="5.77303">
        <ele>233</ele>
        <time>2020-05-31T15:50:27.496Z</time>
      </trkpt>
      <trkpt lat="45.79144" lon="5.77301">
        <ele>233</ele>
        <time>2020-05-31T15:50:32.508Z</time>
      </trkpt>
      <trkpt lat="45.79137" lon="5.77301">
        <ele>233</ele>
        <time>2020-05-31T15:50:37.481Z</time>
      </trkpt>
      <trkpt lat="45.79131" lon="5.77301">
        <ele>233</ele>
        <time>2020-05-31T15:50:41.484Z</time>
      </trkpt>
      <trkpt lat="45.79125" lon="5.773">
        <ele>232</ele>
        <time>2020-05-31T15:50:46.510Z</time>
      </trkpt>
      <trkpt lat="45.79118" lon="5.77299">
        <ele>232</ele>
        <time>2020-05-31T15:50:51.510Z</time>
      </trkpt>
      <trkpt lat="45.79111" lon="5.77298">
        <ele>232</ele>
        <time>2020-05-31T15:50:56.503Z</time>
      </trkpt>
      <trkpt lat="45.79103" lon="5.77296">
        <ele>232</ele>
        <time>2020-05-31T15:51:01.506Z</time>
      </trkpt>
      <trkpt lat="45.79096" lon="5.77293">
        <ele>231</ele>
        <time>2020-05-31T15:51:06.504Z</time>
      </trkpt>
      <trkpt lat="45.79088" lon="5.77293">
        <ele>231</ele>
        <time>2020-05-31T15:51:11.473Z</time>
      </trkpt>
      <trkpt lat="45.79082" lon="5.77292">
        <ele>231</ele>
        <time>2020-05-31T15:51:15.545Z</time>
      </trkpt>
      <trkpt lat="45.79075" lon="5.7729">
        <ele>231</ele>
        <time>2020-05-31T15:51:20.504Z</time>
      </trkpt>
      <trkpt lat="45.79068" lon="5.77288">
        <ele>230</ele>
        <time>2020-05-31T15:51:25.496Z</time>
      </trkpt>
      <trkpt lat="45.79062" lon="5.77289">
        <ele>230</ele>
        <time>2020-05-31T15:51:29.512Z</time>
      </trkpt>
      <trkpt lat="45.79055" lon="5.77288">
        <ele>230</ele>
        <time>2020-05-31T15:51:34.496Z</time>
      </trkpt>
      <trkpt lat="45.79048" lon="5.77285">
        <ele>230</ele>
        <time>2020-05-31T15:51:39.571Z</time>
      </trkpt>
      <trkpt lat="45.79041" lon="5.77283">
        <ele>230</ele>
        <time>2020-05-31T15:51:44.509Z</time>
      </trkpt>
      <trkpt lat="45.79035" lon="5.77281">
        <ele>230</ele>
        <time>2020-05-31T15:51:49.505Z</time>
      </trkpt>
      <trkpt lat="45.79028" lon="5.7728">
        <ele>230</ele>
        <time>2020-05-31T15:51:54.488Z</time>
      </trkpt>
      <trkpt lat="45.79022" lon="5.77279">
        <ele>230</ele>
        <time>2020-05-31T15:51:58.507Z</time>
      </trkpt>
      <trkpt lat="45.7902" lon="5.77279">
        <ele>230</ele>
        <time>2020-05-31T15:52:03.497Z</time>
      </trkpt>
      <trkpt lat="45.79017" lon="5.77289">
        <ele>230</ele>
        <time>2020-05-31T15:52:12.485Z</time>
      </trkpt>
      <trkpt lat="45.79011" lon="5.77285">
        <ele>231</ele>
        <time>2020-05-31T15:52:17.495Z</time>
      </trkpt>
      <trkpt lat="45.79006" lon="5.77284">
        <ele>231</ele>
        <time>2020-05-31T15:52:22.470Z</time>
      </trkpt>
      <trkpt lat="45.79" lon="5.77284">
        <ele>231</ele>
        <time>2020-05-31T15:52:26.549Z</time>
      </trkpt>
      <trkpt lat="45.78993" lon="5.77284">
        <ele>231</ele>
        <time>2020-05-31T15:52:31.499Z</time>
      </trkpt>
      <trkpt lat="45.78985" lon="5.77282">
        <ele>231</ele>
        <time>2020-05-31T15:52:36.513Z</time>
      </trkpt>
      <trkpt lat="45.78979" lon="5.77281">
        <ele>231</ele>
        <time>2020-05-31T15:52:40.510Z</time>
      </trkpt>
      <trkpt lat="45.78971" lon="5.7728">
        <ele>231</ele>
        <time>2020-05-31T15:52:45.512Z</time>
      </trkpt>
      <trkpt lat="45.78965" lon="5.77278">
        <ele>231</ele>
        <time>2020-05-31T15:52:50.499Z</time>
      </trkpt>
      <trkpt lat="45.78958" lon="5.77277">
        <ele>231</ele>
        <time>2020-05-31T15:52:55.507Z</time>
      </trkpt>
      <trkpt lat="45.7895" lon="5.77274">
        <ele>231</ele>
        <time>2020-05-31T15:53:00.498Z</time>
      </trkpt>
      <trkpt lat="45.78943" lon="5.77273">
        <ele>231</ele>
        <time>2020-05-31T15:53:05.510Z</time>
      </trkpt>
      <trkpt lat="45.78936" lon="5.77272">
        <ele>231</ele>
        <time>2020-05-31T15:53:10.511Z</time>
      </trkpt>
      <trkpt lat="45.78928" lon="5.7727">
        <ele>232</ele>
        <time>2020-05-31T15:53:15.497Z</time>
      </trkpt>
      <trkpt lat="45.7892" lon="5.77267">
        <ele>232</ele>
        <time>2020-05-31T15:53:20.495Z</time>
      </trkpt>
      <trkpt lat="45.78913" lon="5.77267">
        <ele>232</ele>
        <time>2020-05-31T15:53:25.509Z</time>
      </trkpt>
      <trkpt lat="45.78905" lon="5.77264">
        <ele>232</ele>
        <time>2020-05-31T15:53:30.484Z</time>
      </trkpt>
      <trkpt lat="45.78899" lon="5.7726">
        <ele>232</ele>
        <time>2020-05-31T15:53:35.542Z</time>
      </trkpt>
      <trkpt lat="45.78891" lon="5.77257">
        <ele>232</ele>
        <time>2020-05-31T15:53:40.489Z</time>
      </trkpt>
      <trkpt lat="45.78884" lon="5.77254">
        <ele>232</ele>
        <time>2020-05-31T15:53:45.499Z</time>
      </trkpt>
      <trkpt lat="45.78877" lon="5.77254">
        <ele>232</ele>
        <time>2020-05-31T15:53:50.492Z</time>
      </trkpt>
      <trkpt lat="45.78871" lon="5.77252">
        <ele>231</ele>
        <time>2020-05-31T15:53:54.493Z</time>
      </trkpt>
      <trkpt lat="45.78864" lon="5.77251">
        <ele>231</ele>
        <time>2020-05-31T15:53:59.563Z</time>
      </trkpt>
      <trkpt lat="45.78856" lon="5.7725">
        <ele>231</ele>
        <time>2020-05-31T15:54:04.460Z</time>
      </trkpt>
      <trkpt lat="45.7885" lon="5.7725">
        <ele>231</ele>
        <time>2020-05-31T15:54:08.492Z</time>
      </trkpt>
      <trkpt lat="45.78843" lon="5.77249">
        <ele>230</ele>
        <time>2020-05-31T15:54:13.511Z</time>
      </trkpt>
      <trkpt lat="45.78835" lon="5.77246">
        <ele>230</ele>
        <time>2020-05-31T15:54:18.508Z</time>
      </trkpt>
      <trkpt lat="45.78827" lon="5.77246">
        <ele>230</ele>
        <time>2020-05-31T15:54:23.505Z</time>
      </trkpt>
      <trkpt lat="45.7882" lon="5.77244">
        <ele>230</ele>
        <time>2020-05-31T15:54:28.486Z</time>
      </trkpt>
      <trkpt lat="45.78811" lon="5.77242">
        <ele>229</ele>
        <time>2020-05-31T15:54:33.498Z</time>
      </trkpt>
      <trkpt lat="45.78804" lon="5.77242">
        <ele>229</ele>
        <time>2020-05-31T15:54:38.494Z</time>
      </trkpt>
      <trkpt lat="45.78795" lon="5.77242">
        <ele>229</ele>
        <time>2020-05-31T15:54:43.516Z</time>
      </trkpt>
      <trkpt lat="45.78785" lon="5.77239">
        <ele>231</ele>
        <time>2020-05-31T15:54:48.513Z</time>
      </trkpt>
      <trkpt lat="45.78781" lon="5.77238">
        <ele>231</ele>
        <time>2020-05-31T15:54:53.491Z</time>
      </trkpt>
      <trkpt lat="45.78773" lon="5.77235">
        <ele>230</ele>
        <time>2020-05-31T15:54:57.553Z</time>
      </trkpt>
      <trkpt lat="45.78765" lon="5.77233">
        <ele>230</ele>
        <time>2020-05-31T15:55:36.486Z</time>
      </trkpt>
      <trkpt lat="45.78765" lon="5.77233">
        <ele>230</ele>
        <time>2020-05-31T15:55:41.498Z</time>
      </trkpt>
      <trkpt lat="45.78762" lon="5.77232">
        <ele>231</ele>
        <time>2020-05-31T15:55:46.493Z</time>
      </trkpt>
      <trkpt lat="45.78756" lon="5.77231">
        <ele>231</ele>
        <time>2020-05-31T15:55:51.455Z</time>
      </trkpt>
      <trkpt lat="45.7875" lon="5.77231">
        <ele>231</ele>
        <time>2020-05-31T15:55:55.514Z</time>
      </trkpt>
      <trkpt lat="45.78745" lon="5.77233">
        <ele>231</ele>
        <time>2020-05-31T15:56:00.499Z</time>
      </trkpt>
      <trkpt lat="45.7874" lon="5.77232">
        <ele>231</ele>
        <time>2020-05-31T15:56:05.495Z</time>
      </trkpt>
      <trkpt lat="45.78734" lon="5.7723">
        <ele>231</ele>
        <time>2020-05-31T15:56:10.485Z</time>
      </trkpt>
      <trkpt lat="45.78728" lon="5.77229">
        <ele>231</ele>
        <time>2020-05-31T15:56:14.518Z</time>
      </trkpt>
      <trkpt lat="45.78722" lon="5.77228">
        <ele>231</ele>
        <time>2020-05-31T15:56:19.501Z</time>
      </trkpt>
      <trkpt lat="45.78717" lon="5.77228">
        <ele>231</ele>
        <time>2020-05-31T15:56:23.506Z</time>
      </trkpt>
      <trkpt lat="45.78711" lon="5.77227">
        <ele>231</ele>
        <time>2020-05-31T15:56:28.497Z</time>
      </trkpt>
      <trkpt lat="45.78705" lon="5.77227">
        <ele>229</ele>
        <time>2020-05-31T15:56:33.507Z</time>
      </trkpt>
      <trkpt lat="45.78699" lon="5.77226">
        <ele>229</ele>
        <time>2020-05-31T15:56:38.491Z</time>
      </trkpt>
      <trkpt lat="45.78693" lon="5.77224">
        <ele>229</ele>
        <time>2020-05-31T15:56:42.487Z</time>
      </trkpt>
      <trkpt lat="45.78684" lon="5.77224">
        <ele>229</ele>
        <time>2020-05-31T15:56:47.503Z</time>
      </trkpt>
      <trkpt lat="45.78678" lon="5.77223">
        <ele>228</ele>
        <time>2020-05-31T15:56:52.496Z</time>
      </trkpt>
      <trkpt lat="45.78673" lon="5.7722">
        <ele>228</ele>
        <time>2020-05-31T15:56:57.503Z</time>
      </trkpt>
      <trkpt lat="45.78668" lon="5.77217">
        <ele>228</ele>
        <time>2020-05-31T15:57:02.475Z</time>
      </trkpt>
      <trkpt lat="45.78663" lon="5.77217">
        <ele>228</ele>
        <time>2020-05-31T15:57:06.495Z</time>
      </trkpt>
      <trkpt lat="45.78659" lon="5.77214">
        <ele>228</ele>
        <time>2020-05-31T15:57:10.493Z</time>
      </trkpt>
    </trkseg>
  </trk>
</gpx>